<?xml version="1.0" encoding="UTF-8" standalone="no" ?>
<gpx xmlns="http://www.topografix.com/GPX/1/1" xmlns:xsi="http://www.w3.org/2001/XMLSchema-instance" xsi:schemaLocation="http://www.topografix.com/GPX/1/1 http://www.topografix.com/GPX/1/1/gpx.xsd" version="1.1" creator="VisuGPX - https://www.visugpx.com">
  <metadata>
    <name>2021 peyrieu jour 2</name>
  </metadata>
  <trk>
    <name><![CDATA[SityTrail - vs peyrieu jour 2]]></name>
    <trkseg>
      <trkpt lat="45.67707" lon="5.67959">
        <ele>226</ele>
        <time>2021-06-06T07:56:52.651Z</time>
      </trkpt>
      <trkpt lat="45.67698" lon="5.6796">
        <ele>226</ele>
        <time>2021-06-06T08:04:50.759Z</time>
      </trkpt>
      <trkpt lat="45.67698" lon="5.6796">
        <ele>226</ele>
        <time>2021-06-06T08:04:54.760Z</time>
      </trkpt>
      <trkpt lat="45.67698" lon="5.6796">
        <ele>226</ele>
        <time>2021-06-06T08:04:59.749Z</time>
      </trkpt>
      <trkpt lat="45.67698" lon="5.6796">
        <ele>226</ele>
        <time>2021-06-06T08:05:03.764Z</time>
      </trkpt>
      <trkpt lat="45.67698" lon="5.6796">
        <ele>226</ele>
        <time>2021-06-06T08:05:07.763Z</time>
      </trkpt>
      <trkpt lat="45.677" lon="5.67959">
        <ele>226</ele>
        <time>2021-06-06T08:06:07.762Z</time>
      </trkpt>
      <trkpt lat="45.67699" lon="5.67957">
        <ele>226</ele>
        <time>2021-06-06T08:06:12.772Z</time>
      </trkpt>
      <trkpt lat="45.67703" lon="5.67957">
        <ele>226</ele>
        <time>2021-06-06T08:06:17.760Z</time>
      </trkpt>
      <trkpt lat="45.67706" lon="5.6796">
        <ele>226</ele>
        <time>2021-06-06T08:06:22.764Z</time>
      </trkpt>
      <trkpt lat="45.67712" lon="5.67962">
        <ele>225</ele>
        <time>2021-06-06T08:06:27.760Z</time>
      </trkpt>
      <trkpt lat="45.67717" lon="5.6796">
        <ele>225</ele>
        <time>2021-06-06T08:06:32.759Z</time>
      </trkpt>
      <trkpt lat="45.6772" lon="5.67953">
        <ele>226</ele>
        <time>2021-06-06T08:06:37.764Z</time>
      </trkpt>
      <trkpt lat="45.67724" lon="5.67945">
        <ele>226</ele>
        <time>2021-06-06T08:06:42.760Z</time>
      </trkpt>
      <trkpt lat="45.67728" lon="5.67937">
        <ele>226</ele>
        <time>2021-06-06T08:06:47.763Z</time>
      </trkpt>
      <trkpt lat="45.67732" lon="5.67935">
        <ele>226</ele>
        <time>2021-06-06T08:06:51.754Z</time>
      </trkpt>
      <trkpt lat="45.67737" lon="5.67938">
        <ele>227</ele>
        <time>2021-06-06T08:06:56.762Z</time>
      </trkpt>
      <trkpt lat="45.67741" lon="5.67941">
        <ele>227</ele>
        <time>2021-06-06T08:07:01.760Z</time>
      </trkpt>
      <trkpt lat="45.67746" lon="5.67941">
        <ele>227</ele>
        <time>2021-06-06T08:07:06.762Z</time>
      </trkpt>
      <trkpt lat="45.6775" lon="5.6794">
        <ele>227</ele>
        <time>2021-06-06T08:07:10.759Z</time>
      </trkpt>
      <trkpt lat="45.67755" lon="5.6794">
        <ele>227</ele>
        <time>2021-06-06T08:07:15.761Z</time>
      </trkpt>
      <trkpt lat="45.67761" lon="5.67943">
        <ele>227</ele>
        <time>2021-06-06T08:07:20.763Z</time>
      </trkpt>
      <trkpt lat="45.67767" lon="5.67947">
        <ele>228</ele>
        <time>2021-06-06T08:07:25.760Z</time>
      </trkpt>
      <trkpt lat="45.67771" lon="5.67953">
        <ele>228</ele>
        <time>2021-06-06T08:07:30.762Z</time>
      </trkpt>
      <trkpt lat="45.67777" lon="5.67957">
        <ele>228</ele>
        <time>2021-06-06T08:07:35.757Z</time>
      </trkpt>
      <trkpt lat="45.67781" lon="5.67962">
        <ele>227</ele>
        <time>2021-06-06T08:07:39.792Z</time>
      </trkpt>
      <trkpt lat="45.67786" lon="5.67968">
        <ele>227</ele>
        <time>2021-06-06T08:07:44.768Z</time>
      </trkpt>
      <trkpt lat="45.67791" lon="5.67974">
        <ele>227</ele>
        <time>2021-06-06T08:07:49.763Z</time>
      </trkpt>
      <trkpt lat="45.67796" lon="5.6798">
        <ele>228</ele>
        <time>2021-06-06T08:07:54.759Z</time>
      </trkpt>
      <trkpt lat="45.67801" lon="5.67987">
        <ele>226</ele>
        <time>2021-06-06T08:07:59.758Z</time>
      </trkpt>
      <trkpt lat="45.67804" lon="5.67992">
        <ele>226</ele>
        <time>2021-06-06T08:08:03.793Z</time>
      </trkpt>
      <trkpt lat="45.67807" lon="5.67999">
        <ele>226</ele>
        <time>2021-06-06T08:08:08.761Z</time>
      </trkpt>
      <trkpt lat="45.67811" lon="5.68005">
        <ele>226</ele>
        <time>2021-06-06T08:08:13.764Z</time>
      </trkpt>
      <trkpt lat="45.67816" lon="5.68011">
        <ele>226</ele>
        <time>2021-06-06T08:08:18.761Z</time>
      </trkpt>
      <trkpt lat="45.6782" lon="5.68018">
        <ele>227</ele>
        <time>2021-06-06T08:08:23.763Z</time>
      </trkpt>
      <trkpt lat="45.67823" lon="5.68026">
        <ele>227</ele>
        <time>2021-06-06T08:08:28.755Z</time>
      </trkpt>
      <trkpt lat="45.67826" lon="5.68032">
        <ele>227</ele>
        <time>2021-06-06T08:08:32.759Z</time>
      </trkpt>
      <trkpt lat="45.6783" lon="5.68038">
        <ele>227</ele>
        <time>2021-06-06T08:08:37.757Z</time>
      </trkpt>
      <trkpt lat="45.67834" lon="5.68045">
        <ele>226</ele>
        <time>2021-06-06T08:08:42.758Z</time>
      </trkpt>
      <trkpt lat="45.67836" lon="5.68053">
        <ele>226</ele>
        <time>2021-06-06T08:08:47.765Z</time>
      </trkpt>
      <trkpt lat="45.67836" lon="5.68063">
        <ele>226</ele>
        <time>2021-06-06T08:08:52.758Z</time>
      </trkpt>
      <trkpt lat="45.67835" lon="5.68071">
        <ele>225</ele>
        <time>2021-06-06T08:08:57.761Z</time>
      </trkpt>
      <trkpt lat="45.67834" lon="5.68078">
        <ele>225</ele>
        <time>2021-06-06T08:09:01.764Z</time>
      </trkpt>
      <trkpt lat="45.67831" lon="5.68087">
        <ele>225</ele>
        <time>2021-06-06T08:09:06.759Z</time>
      </trkpt>
      <trkpt lat="45.67828" lon="5.68094">
        <ele>225</ele>
        <time>2021-06-06T08:09:10.761Z</time>
      </trkpt>
      <trkpt lat="45.67827" lon="5.68103">
        <ele>224</ele>
        <time>2021-06-06T08:09:15.759Z</time>
      </trkpt>
      <trkpt lat="45.67822" lon="5.68107">
        <ele>224</ele>
        <time>2021-06-06T08:09:20.752Z</time>
      </trkpt>
      <trkpt lat="45.67823" lon="5.68107">
        <ele>224</ele>
        <time>2021-06-06T08:09:38.761Z</time>
      </trkpt>
      <trkpt lat="45.67824" lon="5.68109">
        <ele>224</ele>
        <time>2021-06-06T08:09:43.760Z</time>
      </trkpt>
      <trkpt lat="45.67823" lon="5.68116">
        <ele>224</ele>
        <time>2021-06-06T08:09:48.766Z</time>
      </trkpt>
      <trkpt lat="45.67825" lon="5.68121">
        <ele>224</ele>
        <time>2021-06-06T08:09:53.762Z</time>
      </trkpt>
      <trkpt lat="45.67827" lon="5.68125">
        <ele>224</ele>
        <time>2021-06-06T08:09:57.789Z</time>
      </trkpt>
      <trkpt lat="45.67832" lon="5.68125">
        <ele>223</ele>
        <time>2021-06-06T08:11:11.791Z</time>
      </trkpt>
      <trkpt lat="45.67836" lon="5.6813">
        <ele>223</ele>
        <time>2021-06-06T08:11:16.761Z</time>
      </trkpt>
      <trkpt lat="45.67841" lon="5.68134">
        <ele>223</ele>
        <time>2021-06-06T08:11:20.760Z</time>
      </trkpt>
      <trkpt lat="45.67845" lon="5.6814">
        <ele>223</ele>
        <time>2021-06-06T08:11:24.759Z</time>
      </trkpt>
      <trkpt lat="45.6785" lon="5.68145">
        <ele>225</ele>
        <time>2021-06-06T08:11:29.760Z</time>
      </trkpt>
      <trkpt lat="45.67856" lon="5.68152">
        <ele>225</ele>
        <time>2021-06-06T08:11:34.757Z</time>
      </trkpt>
      <trkpt lat="45.67861" lon="5.68159">
        <ele>221</ele>
        <time>2021-06-06T08:11:39.760Z</time>
      </trkpt>
      <trkpt lat="45.67866" lon="5.68167">
        <ele>221</ele>
        <time>2021-06-06T08:11:44.758Z</time>
      </trkpt>
      <trkpt lat="45.67872" lon="5.68174">
        <ele>221</ele>
        <time>2021-06-06T08:11:49.755Z</time>
      </trkpt>
      <trkpt lat="45.67876" lon="5.6818">
        <ele>223</ele>
        <time>2021-06-06T08:11:53.757Z</time>
      </trkpt>
      <trkpt lat="45.67882" lon="5.68187">
        <ele>219</ele>
        <time>2021-06-06T08:11:58.761Z</time>
      </trkpt>
      <trkpt lat="45.67887" lon="5.68194">
        <ele>219</ele>
        <time>2021-06-06T08:12:03.761Z</time>
      </trkpt>
      <trkpt lat="45.67891" lon="5.682">
        <ele>219</ele>
        <time>2021-06-06T08:12:07.762Z</time>
      </trkpt>
      <trkpt lat="45.67893" lon="5.68205">
        <ele>219</ele>
        <time>2021-06-06T08:12:12.761Z</time>
      </trkpt>
      <trkpt lat="45.67895" lon="5.68213">
        <ele>218</ele>
        <time>2021-06-06T08:12:17.758Z</time>
      </trkpt>
      <trkpt lat="45.67894" lon="5.68215">
        <ele>218</ele>
        <time>2021-06-06T08:12:21.755Z</time>
      </trkpt>
      <trkpt lat="45.6789" lon="5.68218">
        <ele>218</ele>
        <time>2021-06-06T08:12:26.759Z</time>
      </trkpt>
      <trkpt lat="45.67891" lon="5.68224">
        <ele>218</ele>
        <time>2021-06-06T08:12:30.788Z</time>
      </trkpt>
      <trkpt lat="45.67895" lon="5.68228">
        <ele>218</ele>
        <time>2021-06-06T08:12:34.793Z</time>
      </trkpt>
      <trkpt lat="45.67899" lon="5.68234">
        <ele>218</ele>
        <time>2021-06-06T08:12:38.797Z</time>
      </trkpt>
      <trkpt lat="45.67904" lon="5.6824">
        <ele>220</ele>
        <time>2021-06-06T08:12:43.809Z</time>
      </trkpt>
      <trkpt lat="45.67908" lon="5.68247">
        <ele>220</ele>
        <time>2021-06-06T08:12:48.781Z</time>
      </trkpt>
      <trkpt lat="45.67912" lon="5.68254">
        <ele>220</ele>
        <time>2021-06-06T08:12:52.800Z</time>
      </trkpt>
      <trkpt lat="45.67916" lon="5.68262">
        <ele>220</ele>
        <time>2021-06-06T08:12:57.794Z</time>
      </trkpt>
      <trkpt lat="45.6792" lon="5.68267">
        <ele>219</ele>
        <time>2021-06-06T08:13:02.783Z</time>
      </trkpt>
      <trkpt lat="45.67922" lon="5.68273">
        <ele>219</ele>
        <time>2021-06-06T08:13:06.803Z</time>
      </trkpt>
      <trkpt lat="45.67925" lon="5.6828">
        <ele>219</ele>
        <time>2021-06-06T08:13:11.784Z</time>
      </trkpt>
      <trkpt lat="45.67927" lon="5.68287">
        <ele>219</ele>
        <time>2021-06-06T08:13:15.788Z</time>
      </trkpt>
      <trkpt lat="45.6793" lon="5.68292">
        <ele>217</ele>
        <time>2021-06-06T08:13:19.797Z</time>
      </trkpt>
      <trkpt lat="45.67933" lon="5.68299">
        <ele>218</ele>
        <time>2021-06-06T08:13:24.792Z</time>
      </trkpt>
      <trkpt lat="45.67934" lon="5.68304">
        <ele>218</ele>
        <time>2021-06-06T08:13:28.798Z</time>
      </trkpt>
      <trkpt lat="45.67937" lon="5.68311">
        <ele>218</ele>
        <time>2021-06-06T08:13:33.798Z</time>
      </trkpt>
      <trkpt lat="45.6794" lon="5.68319">
        <ele>218</ele>
        <time>2021-06-06T08:13:38.784Z</time>
      </trkpt>
      <trkpt lat="45.67943" lon="5.68327">
        <ele>217</ele>
        <time>2021-06-06T08:13:42.783Z</time>
      </trkpt>
      <trkpt lat="45.67946" lon="5.68339">
        <ele>217</ele>
        <time>2021-06-06T08:13:47.785Z</time>
      </trkpt>
      <trkpt lat="45.67949" lon="5.68347">
        <ele>217</ele>
        <time>2021-06-06T08:13:51.800Z</time>
      </trkpt>
      <trkpt lat="45.67951" lon="5.68357">
        <ele>217</ele>
        <time>2021-06-06T08:13:56.803Z</time>
      </trkpt>
      <trkpt lat="45.67954" lon="5.68366">
        <ele>217</ele>
        <time>2021-06-06T08:14:01.851Z</time>
      </trkpt>
      <trkpt lat="45.67956" lon="5.68369">
        <ele>217</ele>
        <time>2021-06-06T08:14:06.785Z</time>
      </trkpt>
      <trkpt lat="45.67958" lon="5.68373">
        <ele>217</ele>
        <time>2021-06-06T08:14:10.791Z</time>
      </trkpt>
      <trkpt lat="45.67961" lon="5.68378">
        <ele>218</ele>
        <time>2021-06-06T08:14:14.802Z</time>
      </trkpt>
      <trkpt lat="45.67964" lon="5.68383">
        <ele>218</ele>
        <time>2021-06-06T08:14:19.817Z</time>
      </trkpt>
      <trkpt lat="45.67968" lon="5.6839">
        <ele>218</ele>
        <time>2021-06-06T08:14:24.759Z</time>
      </trkpt>
      <trkpt lat="45.67971" lon="5.68398">
        <ele>218</ele>
        <time>2021-06-06T08:14:28.789Z</time>
      </trkpt>
      <trkpt lat="45.67973" lon="5.68404">
        <ele>218</ele>
        <time>2021-06-06T08:14:33.793Z</time>
      </trkpt>
      <trkpt lat="45.67976" lon="5.6841">
        <ele>218</ele>
        <time>2021-06-06T08:14:37.801Z</time>
      </trkpt>
      <trkpt lat="45.67979" lon="5.68416">
        <ele>218</ele>
        <time>2021-06-06T08:14:42.807Z</time>
      </trkpt>
      <trkpt lat="45.67983" lon="5.68423">
        <ele>218</ele>
        <time>2021-06-06T08:14:47.785Z</time>
      </trkpt>
      <trkpt lat="45.67985" lon="5.68429">
        <ele>218</ele>
        <time>2021-06-06T08:14:51.781Z</time>
      </trkpt>
      <trkpt lat="45.67989" lon="5.68435">
        <ele>219</ele>
        <time>2021-06-06T08:14:56.782Z</time>
      </trkpt>
      <trkpt lat="45.67991" lon="5.68442">
        <ele>219</ele>
        <time>2021-06-06T08:15:01.812Z</time>
      </trkpt>
      <trkpt lat="45.67994" lon="5.68449">
        <ele>219</ele>
        <time>2021-06-06T08:15:06.791Z</time>
      </trkpt>
      <trkpt lat="45.67997" lon="5.68455">
        <ele>219</ele>
        <time>2021-06-06T08:15:11.793Z</time>
      </trkpt>
      <trkpt lat="45.68" lon="5.68461">
        <ele>218</ele>
        <time>2021-06-06T08:15:15.815Z</time>
      </trkpt>
      <trkpt lat="45.68001" lon="5.6847">
        <ele>218</ele>
        <time>2021-06-06T08:15:20.800Z</time>
      </trkpt>
      <trkpt lat="45.67995" lon="5.68476">
        <ele>218</ele>
        <time>2021-06-06T08:15:25.800Z</time>
      </trkpt>
      <trkpt lat="45.6799" lon="5.68481">
        <ele>218</ele>
        <time>2021-06-06T08:15:30.791Z</time>
      </trkpt>
      <trkpt lat="45.67984" lon="5.68486">
        <ele>217</ele>
        <time>2021-06-06T08:15:35.797Z</time>
      </trkpt>
      <trkpt lat="45.67978" lon="5.68491">
        <ele>217</ele>
        <time>2021-06-06T08:15:40.793Z</time>
      </trkpt>
      <trkpt lat="45.67974" lon="5.68495">
        <ele>217</ele>
        <time>2021-06-06T08:15:44.808Z</time>
      </trkpt>
      <trkpt lat="45.67967" lon="5.685">
        <ele>217</ele>
        <time>2021-06-06T08:15:49.798Z</time>
      </trkpt>
      <trkpt lat="45.67961" lon="5.68507">
        <ele>217</ele>
        <time>2021-06-06T08:15:54.803Z</time>
      </trkpt>
      <trkpt lat="45.67958" lon="5.68515">
        <ele>219</ele>
        <time>2021-06-06T08:15:59.782Z</time>
      </trkpt>
      <trkpt lat="45.67958" lon="5.68522">
        <ele>218</ele>
        <time>2021-06-06T08:16:03.797Z</time>
      </trkpt>
      <trkpt lat="45.67961" lon="5.6853">
        <ele>218</ele>
        <time>2021-06-06T08:16:08.792Z</time>
      </trkpt>
      <trkpt lat="45.67961" lon="5.6854">
        <ele>218</ele>
        <time>2021-06-06T08:16:13.795Z</time>
      </trkpt>
      <trkpt lat="45.67961" lon="5.6855">
        <ele>218</ele>
        <time>2021-06-06T08:16:18.756Z</time>
      </trkpt>
      <trkpt lat="45.67962" lon="5.6856">
        <ele>218</ele>
        <time>2021-06-06T08:16:23.771Z</time>
      </trkpt>
      <trkpt lat="45.67963" lon="5.68571">
        <ele>218</ele>
        <time>2021-06-06T08:16:28.803Z</time>
      </trkpt>
      <trkpt lat="45.67964" lon="5.68583">
        <ele>218</ele>
        <time>2021-06-06T08:16:33.780Z</time>
      </trkpt>
      <trkpt lat="45.67965" lon="5.68592">
        <ele>218</ele>
        <time>2021-06-06T08:16:37.799Z</time>
      </trkpt>
      <trkpt lat="45.67966" lon="5.68604">
        <ele>217</ele>
        <time>2021-06-06T08:16:42.791Z</time>
      </trkpt>
      <trkpt lat="45.67966" lon="5.68616">
        <ele>217</ele>
        <time>2021-06-06T08:16:47.803Z</time>
      </trkpt>
      <trkpt lat="45.67967" lon="5.68624">
        <ele>217</ele>
        <time>2021-06-06T08:16:51.811Z</time>
      </trkpt>
      <trkpt lat="45.67968" lon="5.68633">
        <ele>217</ele>
        <time>2021-06-06T08:16:56.759Z</time>
      </trkpt>
      <trkpt lat="45.67969" lon="5.68641">
        <ele>217</ele>
        <time>2021-06-06T08:17:00.810Z</time>
      </trkpt>
      <trkpt lat="45.6797" lon="5.68652">
        <ele>217</ele>
        <time>2021-06-06T08:17:05.780Z</time>
      </trkpt>
      <trkpt lat="45.6797" lon="5.6866">
        <ele>217</ele>
        <time>2021-06-06T08:17:09.793Z</time>
      </trkpt>
      <trkpt lat="45.67971" lon="5.6867">
        <ele>217</ele>
        <time>2021-06-06T08:17:14.799Z</time>
      </trkpt>
      <trkpt lat="45.67972" lon="5.6868">
        <ele>217</ele>
        <time>2021-06-06T08:17:19.759Z</time>
      </trkpt>
      <trkpt lat="45.67972" lon="5.68692">
        <ele>216</ele>
        <time>2021-06-06T08:17:24.758Z</time>
      </trkpt>
      <trkpt lat="45.67973" lon="5.68702">
        <ele>216</ele>
        <time>2021-06-06T08:17:29.758Z</time>
      </trkpt>
      <trkpt lat="45.67974" lon="5.68713">
        <ele>215</ele>
        <time>2021-06-06T08:17:34.756Z</time>
      </trkpt>
      <trkpt lat="45.67974" lon="5.68721">
        <ele>215</ele>
        <time>2021-06-06T08:17:38.759Z</time>
      </trkpt>
      <trkpt lat="45.67976" lon="5.68731">
        <ele>215</ele>
        <time>2021-06-06T08:17:43.759Z</time>
      </trkpt>
      <trkpt lat="45.67977" lon="5.68743">
        <ele>216</ele>
        <time>2021-06-06T08:17:48.759Z</time>
      </trkpt>
      <trkpt lat="45.67976" lon="5.68755">
        <ele>216</ele>
        <time>2021-06-06T08:17:53.751Z</time>
      </trkpt>
      <trkpt lat="45.67977" lon="5.68765">
        <ele>216</ele>
        <time>2021-06-06T08:17:58.755Z</time>
      </trkpt>
      <trkpt lat="45.67977" lon="5.68773">
        <ele>216</ele>
        <time>2021-06-06T08:18:02.759Z</time>
      </trkpt>
      <trkpt lat="45.67977" lon="5.68783">
        <ele>216</ele>
        <time>2021-06-06T08:18:07.791Z</time>
      </trkpt>
      <trkpt lat="45.67977" lon="5.68794">
        <ele>216</ele>
        <time>2021-06-06T08:18:12.758Z</time>
      </trkpt>
      <trkpt lat="45.67978" lon="5.68806">
        <ele>216</ele>
        <time>2021-06-06T08:18:17.753Z</time>
      </trkpt>
      <trkpt lat="45.67978" lon="5.68817">
        <ele>216</ele>
        <time>2021-06-06T08:18:22.757Z</time>
      </trkpt>
      <trkpt lat="45.67979" lon="5.68825">
        <ele>217</ele>
        <time>2021-06-06T08:18:26.760Z</time>
      </trkpt>
      <trkpt lat="45.67979" lon="5.68834">
        <ele>217</ele>
        <time>2021-06-06T08:18:30.761Z</time>
      </trkpt>
      <trkpt lat="45.67981" lon="5.68844">
        <ele>217</ele>
        <time>2021-06-06T08:18:35.765Z</time>
      </trkpt>
      <trkpt lat="45.67982" lon="5.68855">
        <ele>218</ele>
        <time>2021-06-06T08:18:40.757Z</time>
      </trkpt>
      <trkpt lat="45.67983" lon="5.68867">
        <ele>218</ele>
        <time>2021-06-06T08:18:45.762Z</time>
      </trkpt>
      <trkpt lat="45.67984" lon="5.68878">
        <ele>218</ele>
        <time>2021-06-06T08:18:50.764Z</time>
      </trkpt>
      <trkpt lat="45.67985" lon="5.68887">
        <ele>218</ele>
        <time>2021-06-06T08:18:54.760Z</time>
      </trkpt>
      <trkpt lat="45.67985" lon="5.68896">
        <ele>218</ele>
        <time>2021-06-06T08:18:58.782Z</time>
      </trkpt>
      <trkpt lat="45.67985" lon="5.68905">
        <ele>218</ele>
        <time>2021-06-06T08:19:02.856Z</time>
      </trkpt>
      <trkpt lat="45.67985" lon="5.68917">
        <ele>218</ele>
        <time>2021-06-06T08:19:07.839Z</time>
      </trkpt>
      <trkpt lat="45.67984" lon="5.68928">
        <ele>218</ele>
        <time>2021-06-06T08:19:12.813Z</time>
      </trkpt>
      <trkpt lat="45.67981" lon="5.68939">
        <ele>217</ele>
        <time>2021-06-06T08:19:17.798Z</time>
      </trkpt>
      <trkpt lat="45.67979" lon="5.68948">
        <ele>217</ele>
        <time>2021-06-06T08:19:21.796Z</time>
      </trkpt>
      <trkpt lat="45.67976" lon="5.68958">
        <ele>217</ele>
        <time>2021-06-06T08:19:26.793Z</time>
      </trkpt>
      <trkpt lat="45.67974" lon="5.68968">
        <ele>217</ele>
        <time>2021-06-06T08:19:31.784Z</time>
      </trkpt>
      <trkpt lat="45.67971" lon="5.68979">
        <ele>217</ele>
        <time>2021-06-06T08:19:36.780Z</time>
      </trkpt>
      <trkpt lat="45.67969" lon="5.68989">
        <ele>217</ele>
        <time>2021-06-06T08:19:41.789Z</time>
      </trkpt>
      <trkpt lat="45.67967" lon="5.68997">
        <ele>217</ele>
        <time>2021-06-06T08:19:45.838Z</time>
      </trkpt>
      <trkpt lat="45.67965" lon="5.69008">
        <ele>217</ele>
        <time>2021-06-06T08:19:50.822Z</time>
      </trkpt>
      <trkpt lat="45.67961" lon="5.69019">
        <ele>217</ele>
        <time>2021-06-06T08:19:55.798Z</time>
      </trkpt>
      <trkpt lat="45.67958" lon="5.6903">
        <ele>217</ele>
        <time>2021-06-06T08:20:00.756Z</time>
      </trkpt>
      <trkpt lat="45.67955" lon="5.6904">
        <ele>217</ele>
        <time>2021-06-06T08:20:05.754Z</time>
      </trkpt>
      <trkpt lat="45.67954" lon="5.69047">
        <ele>217</ele>
        <time>2021-06-06T08:20:09.755Z</time>
      </trkpt>
      <trkpt lat="45.67952" lon="5.69057">
        <ele>217</ele>
        <time>2021-06-06T08:20:14.756Z</time>
      </trkpt>
      <trkpt lat="45.67949" lon="5.69066">
        <ele>217</ele>
        <time>2021-06-06T08:20:19.754Z</time>
      </trkpt>
      <trkpt lat="45.67947" lon="5.69074">
        <ele>217</ele>
        <time>2021-06-06T08:20:23.753Z</time>
      </trkpt>
      <trkpt lat="45.67945" lon="5.69082">
        <ele>217</ele>
        <time>2021-06-06T08:20:27.767Z</time>
      </trkpt>
      <trkpt lat="45.67943" lon="5.6909">
        <ele>217</ele>
        <time>2021-06-06T08:20:32.761Z</time>
      </trkpt>
      <trkpt lat="45.6794" lon="5.69101">
        <ele>217</ele>
        <time>2021-06-06T08:20:37.758Z</time>
      </trkpt>
      <trkpt lat="45.67937" lon="5.69111">
        <ele>217</ele>
        <time>2021-06-06T08:20:42.762Z</time>
      </trkpt>
      <trkpt lat="45.67934" lon="5.69121">
        <ele>217</ele>
        <time>2021-06-06T08:20:47.753Z</time>
      </trkpt>
      <trkpt lat="45.67931" lon="5.69132">
        <ele>217</ele>
        <time>2021-06-06T08:20:52.762Z</time>
      </trkpt>
      <trkpt lat="45.67929" lon="5.69142">
        <ele>217</ele>
        <time>2021-06-06T08:20:57.756Z</time>
      </trkpt>
      <trkpt lat="45.67928" lon="5.69153">
        <ele>217</ele>
        <time>2021-06-06T08:21:02.759Z</time>
      </trkpt>
      <trkpt lat="45.67926" lon="5.69165">
        <ele>217</ele>
        <time>2021-06-06T08:21:07.755Z</time>
      </trkpt>
      <trkpt lat="45.67926" lon="5.69176">
        <ele>217</ele>
        <time>2021-06-06T08:21:12.762Z</time>
      </trkpt>
      <trkpt lat="45.67925" lon="5.69187">
        <ele>217</ele>
        <time>2021-06-06T08:21:17.758Z</time>
      </trkpt>
      <trkpt lat="45.67925" lon="5.69197">
        <ele>217</ele>
        <time>2021-06-06T08:21:22.755Z</time>
      </trkpt>
      <trkpt lat="45.67924" lon="5.69207">
        <ele>217</ele>
        <time>2021-06-06T08:21:26.758Z</time>
      </trkpt>
      <trkpt lat="45.67924" lon="5.69217">
        <ele>218</ele>
        <time>2021-06-06T08:21:31.754Z</time>
      </trkpt>
      <trkpt lat="45.67925" lon="5.69228">
        <ele>218</ele>
        <time>2021-06-06T08:21:36.758Z</time>
      </trkpt>
      <trkpt lat="45.67927" lon="5.69236">
        <ele>218</ele>
        <time>2021-06-06T08:21:40.755Z</time>
      </trkpt>
      <trkpt lat="45.67928" lon="5.69247">
        <ele>218</ele>
        <time>2021-06-06T08:21:45.784Z</time>
      </trkpt>
      <trkpt lat="45.67929" lon="5.69258">
        <ele>218</ele>
        <time>2021-06-06T08:21:50.751Z</time>
      </trkpt>
      <trkpt lat="45.67931" lon="5.69267">
        <ele>218</ele>
        <time>2021-06-06T08:21:54.758Z</time>
      </trkpt>
      <trkpt lat="45.67932" lon="5.69275">
        <ele>218</ele>
        <time>2021-06-06T08:21:58.805Z</time>
      </trkpt>
      <trkpt lat="45.67934" lon="5.69286">
        <ele>218</ele>
        <time>2021-06-06T08:22:03.755Z</time>
      </trkpt>
      <trkpt lat="45.67936" lon="5.69296">
        <ele>217</ele>
        <time>2021-06-06T08:22:08.759Z</time>
      </trkpt>
      <trkpt lat="45.67938" lon="5.69307">
        <ele>217</ele>
        <time>2021-06-06T08:22:13.759Z</time>
      </trkpt>
      <trkpt lat="45.67938" lon="5.69316">
        <ele>217</ele>
        <time>2021-06-06T08:22:17.794Z</time>
      </trkpt>
      <trkpt lat="45.67939" lon="5.69327">
        <ele>217</ele>
        <time>2021-06-06T08:22:22.761Z</time>
      </trkpt>
      <trkpt lat="45.67941" lon="5.69337">
        <ele>217</ele>
        <time>2021-06-06T08:22:27.762Z</time>
      </trkpt>
      <trkpt lat="45.67942" lon="5.69348">
        <ele>217</ele>
        <time>2021-06-06T08:22:32.757Z</time>
      </trkpt>
      <trkpt lat="45.67943" lon="5.69359">
        <ele>217</ele>
        <time>2021-06-06T08:22:37.763Z</time>
      </trkpt>
      <trkpt lat="45.67944" lon="5.6937">
        <ele>217</ele>
        <time>2021-06-06T08:22:42.759Z</time>
      </trkpt>
      <trkpt lat="45.67946" lon="5.6938">
        <ele>217</ele>
        <time>2021-06-06T08:22:47.757Z</time>
      </trkpt>
      <trkpt lat="45.67948" lon="5.69391">
        <ele>217</ele>
        <time>2021-06-06T08:22:52.760Z</time>
      </trkpt>
      <trkpt lat="45.67949" lon="5.69402">
        <ele>217</ele>
        <time>2021-06-06T08:22:57.761Z</time>
      </trkpt>
      <trkpt lat="45.67951" lon="5.69412">
        <ele>216</ele>
        <time>2021-06-06T08:23:02.760Z</time>
      </trkpt>
      <trkpt lat="45.67954" lon="5.69423">
        <ele>216</ele>
        <time>2021-06-06T08:23:07.762Z</time>
      </trkpt>
      <trkpt lat="45.67958" lon="5.69431">
        <ele>216</ele>
        <time>2021-06-06T08:23:12.754Z</time>
      </trkpt>
      <trkpt lat="45.67963" lon="5.69435">
        <ele>216</ele>
        <time>2021-06-06T08:23:16.756Z</time>
      </trkpt>
      <trkpt lat="45.67971" lon="5.69435">
        <ele>216</ele>
        <time>2021-06-06T08:23:21.753Z</time>
      </trkpt>
      <trkpt lat="45.67976" lon="5.69434">
        <ele>216</ele>
        <time>2021-06-06T08:23:25.757Z</time>
      </trkpt>
      <trkpt lat="45.67982" lon="5.69433">
        <ele>216</ele>
        <time>2021-06-06T08:23:30.763Z</time>
      </trkpt>
      <trkpt lat="45.67985" lon="5.6944">
        <ele>216</ele>
        <time>2021-06-06T08:23:34.770Z</time>
      </trkpt>
      <trkpt lat="45.67985" lon="5.69451">
        <ele>216</ele>
        <time>2021-06-06T08:23:39.759Z</time>
      </trkpt>
      <trkpt lat="45.67984" lon="5.6946">
        <ele>216</ele>
        <time>2021-06-06T08:23:43.773Z</time>
      </trkpt>
      <trkpt lat="45.67984" lon="5.69471">
        <ele>216</ele>
        <time>2021-06-06T08:23:48.765Z</time>
      </trkpt>
      <trkpt lat="45.67983" lon="5.69481">
        <ele>216</ele>
        <time>2021-06-06T08:23:53.761Z</time>
      </trkpt>
      <trkpt lat="45.67983" lon="5.6949">
        <ele>216</ele>
        <time>2021-06-06T08:23:57.760Z</time>
      </trkpt>
      <trkpt lat="45.67981" lon="5.69502">
        <ele>216</ele>
        <time>2021-06-06T08:24:02.759Z</time>
      </trkpt>
      <trkpt lat="45.6798" lon="5.69511">
        <ele>216</ele>
        <time>2021-06-06T08:24:06.771Z</time>
      </trkpt>
      <trkpt lat="45.67979" lon="5.69521">
        <ele>216</ele>
        <time>2021-06-06T08:24:11.750Z</time>
      </trkpt>
      <trkpt lat="45.67978" lon="5.69529">
        <ele>216</ele>
        <time>2021-06-06T08:24:15.764Z</time>
      </trkpt>
      <trkpt lat="45.67977" lon="5.6954">
        <ele>216</ele>
        <time>2021-06-06T08:24:20.763Z</time>
      </trkpt>
      <trkpt lat="45.67975" lon="5.69549">
        <ele>215</ele>
        <time>2021-06-06T08:24:25.767Z</time>
      </trkpt>
      <trkpt lat="45.67975" lon="5.69559">
        <ele>215</ele>
        <time>2021-06-06T08:24:30.766Z</time>
      </trkpt>
      <trkpt lat="45.67975" lon="5.6957">
        <ele>216</ele>
        <time>2021-06-06T08:24:35.773Z</time>
      </trkpt>
      <trkpt lat="45.67974" lon="5.69578">
        <ele>216</ele>
        <time>2021-06-06T08:24:39.763Z</time>
      </trkpt>
      <trkpt lat="45.67973" lon="5.69588">
        <ele>216</ele>
        <time>2021-06-06T08:24:44.766Z</time>
      </trkpt>
      <trkpt lat="45.6797" lon="5.69599">
        <ele>216</ele>
        <time>2021-06-06T08:24:49.765Z</time>
      </trkpt>
      <trkpt lat="45.67969" lon="5.69609">
        <ele>216</ele>
        <time>2021-06-06T08:24:54.767Z</time>
      </trkpt>
      <trkpt lat="45.67968" lon="5.69617">
        <ele>216</ele>
        <time>2021-06-06T08:24:58.763Z</time>
      </trkpt>
      <trkpt lat="45.67967" lon="5.69627">
        <ele>217</ele>
        <time>2021-06-06T08:25:03.761Z</time>
      </trkpt>
      <trkpt lat="45.67967" lon="5.69637">
        <ele>217</ele>
        <time>2021-06-06T08:25:08.764Z</time>
      </trkpt>
      <trkpt lat="45.67966" lon="5.69648">
        <ele>217</ele>
        <time>2021-06-06T08:25:13.759Z</time>
      </trkpt>
      <trkpt lat="45.67966" lon="5.69659">
        <ele>218</ele>
        <time>2021-06-06T08:25:18.769Z</time>
      </trkpt>
      <trkpt lat="45.67966" lon="5.6967">
        <ele>218</ele>
        <time>2021-06-06T08:25:23.770Z</time>
      </trkpt>
      <trkpt lat="45.67965" lon="5.69681">
        <ele>218</ele>
        <time>2021-06-06T08:25:28.767Z</time>
      </trkpt>
      <trkpt lat="45.67966" lon="5.69689">
        <ele>218</ele>
        <time>2021-06-06T08:25:32.762Z</time>
      </trkpt>
      <trkpt lat="45.67965" lon="5.69699">
        <ele>218</ele>
        <time>2021-06-06T08:25:37.762Z</time>
      </trkpt>
      <trkpt lat="45.67965" lon="5.69709">
        <ele>218</ele>
        <time>2021-06-06T08:25:42.765Z</time>
      </trkpt>
      <trkpt lat="45.67963" lon="5.69717">
        <ele>218</ele>
        <time>2021-06-06T08:25:46.762Z</time>
      </trkpt>
      <trkpt lat="45.67963" lon="5.69724">
        <ele>218</ele>
        <time>2021-06-06T08:25:50.761Z</time>
      </trkpt>
      <trkpt lat="45.67962" lon="5.69733">
        <ele>218</ele>
        <time>2021-06-06T08:25:55.772Z</time>
      </trkpt>
      <trkpt lat="45.67961" lon="5.6974">
        <ele>218</ele>
        <time>2021-06-06T08:25:59.764Z</time>
      </trkpt>
      <trkpt lat="45.67962" lon="5.6975">
        <ele>218</ele>
        <time>2021-06-06T08:26:04.762Z</time>
      </trkpt>
      <trkpt lat="45.67961" lon="5.69758">
        <ele>218</ele>
        <time>2021-06-06T08:26:08.798Z</time>
      </trkpt>
      <trkpt lat="45.67961" lon="5.69769">
        <ele>218</ele>
        <time>2021-06-06T08:26:13.768Z</time>
      </trkpt>
      <trkpt lat="45.6796" lon="5.69782">
        <ele>218</ele>
        <time>2021-06-06T08:26:46.755Z</time>
      </trkpt>
      <trkpt lat="45.6796" lon="5.69783">
        <ele>218</ele>
        <time>2021-06-06T08:26:50.763Z</time>
      </trkpt>
      <trkpt lat="45.67959" lon="5.6979">
        <ele>218</ele>
        <time>2021-06-06T08:26:54.761Z</time>
      </trkpt>
      <trkpt lat="45.67958" lon="5.69797">
        <ele>217</ele>
        <time>2021-06-06T08:26:58.768Z</time>
      </trkpt>
      <trkpt lat="45.67957" lon="5.69805">
        <ele>217</ele>
        <time>2021-06-06T08:27:02.766Z</time>
      </trkpt>
      <trkpt lat="45.67957" lon="5.69813">
        <ele>217</ele>
        <time>2021-06-06T08:27:07.771Z</time>
      </trkpt>
      <trkpt lat="45.67956" lon="5.69822">
        <ele>216</ele>
        <time>2021-06-06T08:27:12.762Z</time>
      </trkpt>
      <trkpt lat="45.67958" lon="5.6983">
        <ele>216</ele>
        <time>2021-06-06T08:27:16.764Z</time>
      </trkpt>
      <trkpt lat="45.67965" lon="5.69836">
        <ele>217</ele>
        <time>2021-06-06T08:27:21.761Z</time>
      </trkpt>
      <trkpt lat="45.67974" lon="5.69832">
        <ele>217</ele>
        <time>2021-06-06T08:27:25.766Z</time>
      </trkpt>
      <trkpt lat="45.67981" lon="5.69823">
        <ele>217</ele>
        <time>2021-06-06T08:27:30.763Z</time>
      </trkpt>
      <trkpt lat="45.67986" lon="5.69817">
        <ele>217</ele>
        <time>2021-06-06T08:27:35.764Z</time>
      </trkpt>
      <trkpt lat="45.67991" lon="5.69812">
        <ele>217</ele>
        <time>2021-06-06T08:27:40.768Z</time>
      </trkpt>
      <trkpt lat="45.67994" lon="5.69809">
        <ele>217</ele>
        <time>2021-06-06T08:27:44.759Z</time>
      </trkpt>
      <trkpt lat="45.67997" lon="5.69806">
        <ele>217</ele>
        <time>2021-06-06T08:27:48.788Z</time>
      </trkpt>
      <trkpt lat="45.68003" lon="5.69801">
        <ele>217</ele>
        <time>2021-06-06T08:27:53.761Z</time>
      </trkpt>
      <trkpt lat="45.68009" lon="5.69798">
        <ele>217</ele>
        <time>2021-06-06T08:27:58.764Z</time>
      </trkpt>
      <trkpt lat="45.68015" lon="5.69793">
        <ele>217</ele>
        <time>2021-06-06T08:28:03.763Z</time>
      </trkpt>
      <trkpt lat="45.68021" lon="5.69788">
        <ele>218</ele>
        <time>2021-06-06T08:28:08.761Z</time>
      </trkpt>
      <trkpt lat="45.68026" lon="5.69786">
        <ele>218</ele>
        <time>2021-06-06T08:28:12.789Z</time>
      </trkpt>
      <trkpt lat="45.68033" lon="5.69781">
        <ele>218</ele>
        <time>2021-06-06T08:28:17.773Z</time>
      </trkpt>
      <trkpt lat="45.6804" lon="5.69779">
        <ele>218</ele>
        <time>2021-06-06T08:28:22.770Z</time>
      </trkpt>
      <trkpt lat="45.68046" lon="5.69776">
        <ele>218</ele>
        <time>2021-06-06T08:28:27.749Z</time>
      </trkpt>
      <trkpt lat="45.68053" lon="5.69773">
        <ele>218</ele>
        <time>2021-06-06T08:28:32.757Z</time>
      </trkpt>
      <trkpt lat="45.68059" lon="5.69771">
        <ele>218</ele>
        <time>2021-06-06T08:28:37.753Z</time>
      </trkpt>
      <trkpt lat="45.68062" lon="5.69769">
        <ele>218</ele>
        <time>2021-06-06T08:28:42.755Z</time>
      </trkpt>
      <trkpt lat="45.68069" lon="5.69765">
        <ele>218</ele>
        <time>2021-06-06T08:28:47.764Z</time>
      </trkpt>
      <trkpt lat="45.68075" lon="5.69763">
        <ele>219</ele>
        <time>2021-06-06T08:28:52.769Z</time>
      </trkpt>
      <trkpt lat="45.68081" lon="5.6976">
        <ele>219</ele>
        <time>2021-06-06T08:28:57.757Z</time>
      </trkpt>
      <trkpt lat="45.68088" lon="5.69758">
        <ele>219</ele>
        <time>2021-06-06T08:29:02.759Z</time>
      </trkpt>
      <trkpt lat="45.68094" lon="5.69754">
        <ele>219</ele>
        <time>2021-06-06T08:29:07.765Z</time>
      </trkpt>
      <trkpt lat="45.68101" lon="5.69751">
        <ele>219</ele>
        <time>2021-06-06T08:29:12.762Z</time>
      </trkpt>
      <trkpt lat="45.68108" lon="5.69748">
        <ele>219</ele>
        <time>2021-06-06T08:29:17.760Z</time>
      </trkpt>
      <trkpt lat="45.68115" lon="5.69746">
        <ele>219</ele>
        <time>2021-06-06T08:29:22.763Z</time>
      </trkpt>
      <trkpt lat="45.68122" lon="5.69744">
        <ele>219</ele>
        <time>2021-06-06T08:29:27.761Z</time>
      </trkpt>
      <trkpt lat="45.6813" lon="5.69741">
        <ele>219</ele>
        <time>2021-06-06T08:29:32.762Z</time>
      </trkpt>
      <trkpt lat="45.68135" lon="5.6974">
        <ele>219</ele>
        <time>2021-06-06T08:29:36.795Z</time>
      </trkpt>
      <trkpt lat="45.6814" lon="5.6974">
        <ele>219</ele>
        <time>2021-06-06T08:29:40.797Z</time>
      </trkpt>
      <trkpt lat="45.68147" lon="5.69739">
        <ele>219</ele>
        <time>2021-06-06T08:29:45.782Z</time>
      </trkpt>
      <trkpt lat="45.68154" lon="5.69738">
        <ele>217</ele>
        <time>2021-06-06T08:29:50.800Z</time>
      </trkpt>
      <trkpt lat="45.68161" lon="5.69739">
        <ele>217</ele>
        <time>2021-06-06T08:29:55.819Z</time>
      </trkpt>
      <trkpt lat="45.68167" lon="5.69738">
        <ele>217</ele>
        <time>2021-06-06T08:29:59.861Z</time>
      </trkpt>
      <trkpt lat="45.68173" lon="5.69737">
        <ele>217</ele>
        <time>2021-06-06T08:30:04.792Z</time>
      </trkpt>
      <trkpt lat="45.6818" lon="5.69738">
        <ele>217</ele>
        <time>2021-06-06T08:30:08.851Z</time>
      </trkpt>
      <trkpt lat="45.68186" lon="5.6974">
        <ele>218</ele>
        <time>2021-06-06T08:30:13.784Z</time>
      </trkpt>
      <trkpt lat="45.68192" lon="5.69741">
        <ele>218</ele>
        <time>2021-06-06T08:30:17.847Z</time>
      </trkpt>
      <trkpt lat="45.682" lon="5.69741">
        <ele>218</ele>
        <time>2021-06-06T08:30:22.785Z</time>
      </trkpt>
      <trkpt lat="45.68208" lon="5.69743">
        <ele>218</ele>
        <time>2021-06-06T08:30:27.829Z</time>
      </trkpt>
      <trkpt lat="45.68216" lon="5.69746">
        <ele>220</ele>
        <time>2021-06-06T08:30:32.761Z</time>
      </trkpt>
      <trkpt lat="45.68224" lon="5.69746">
        <ele>220</ele>
        <time>2021-06-06T08:30:37.797Z</time>
      </trkpt>
      <trkpt lat="45.68229" lon="5.69744">
        <ele>220</ele>
        <time>2021-06-06T08:30:41.803Z</time>
      </trkpt>
      <trkpt lat="45.68237" lon="5.69742">
        <ele>219</ele>
        <time>2021-06-06T08:30:46.790Z</time>
      </trkpt>
      <trkpt lat="45.68244" lon="5.69743">
        <ele>219</ele>
        <time>2021-06-06T08:30:51.784Z</time>
      </trkpt>
      <trkpt lat="45.68248" lon="5.69751">
        <ele>219</ele>
        <time>2021-06-06T08:30:56.803Z</time>
      </trkpt>
      <trkpt lat="45.6825" lon="5.69762">
        <ele>219</ele>
        <time>2021-06-06T08:31:01.787Z</time>
      </trkpt>
      <trkpt lat="45.6825" lon="5.6977">
        <ele>220</ele>
        <time>2021-06-06T08:31:05.803Z</time>
      </trkpt>
      <trkpt lat="45.6825" lon="5.69782">
        <ele>220</ele>
        <time>2021-06-06T08:31:10.785Z</time>
      </trkpt>
      <trkpt lat="45.68251" lon="5.69791">
        <ele>220</ele>
        <time>2021-06-06T08:31:14.820Z</time>
      </trkpt>
      <trkpt lat="45.68251" lon="5.69802">
        <ele>221</ele>
        <time>2021-06-06T08:31:19.802Z</time>
      </trkpt>
      <trkpt lat="45.6825" lon="5.69813">
        <ele>221</ele>
        <time>2021-06-06T08:31:24.791Z</time>
      </trkpt>
      <trkpt lat="45.68249" lon="5.69822">
        <ele>220</ele>
        <time>2021-06-06T08:31:28.788Z</time>
      </trkpt>
      <trkpt lat="45.68248" lon="5.69833">
        <ele>220</ele>
        <time>2021-06-06T08:31:33.790Z</time>
      </trkpt>
      <trkpt lat="45.68249" lon="5.69842">
        <ele>220</ele>
        <time>2021-06-06T08:31:37.791Z</time>
      </trkpt>
      <trkpt lat="45.6826" lon="5.69859">
        <ele>218</ele>
        <time>2021-06-06T08:31:42.781Z</time>
      </trkpt>
      <trkpt lat="45.68272" lon="5.69879">
        <ele>217</ele>
        <time>2021-06-06T08:31:47.792Z</time>
      </trkpt>
      <trkpt lat="45.68277" lon="5.69888">
        <ele>217</ele>
        <time>2021-06-06T08:31:51.785Z</time>
      </trkpt>
      <trkpt lat="45.68282" lon="5.69904">
        <ele>217</ele>
        <time>2021-06-06T08:31:56.778Z</time>
      </trkpt>
      <trkpt lat="45.68289" lon="5.69917">
        <ele>217</ele>
        <time>2021-06-06T08:32:01.784Z</time>
      </trkpt>
      <trkpt lat="45.68295" lon="5.69926">
        <ele>217</ele>
        <time>2021-06-06T08:32:05.826Z</time>
      </trkpt>
      <trkpt lat="45.68303" lon="5.69938">
        <ele>217</ele>
        <time>2021-06-06T08:32:10.797Z</time>
      </trkpt>
      <trkpt lat="45.68308" lon="5.6995">
        <ele>217</ele>
        <time>2021-06-06T08:32:15.796Z</time>
      </trkpt>
      <trkpt lat="45.68314" lon="5.69961">
        <ele>216</ele>
        <time>2021-06-06T08:32:20.821Z</time>
      </trkpt>
      <trkpt lat="45.68313" lon="5.69975">
        <ele>216</ele>
        <time>2021-06-06T08:32:25.786Z</time>
      </trkpt>
      <trkpt lat="45.6831" lon="5.69988">
        <ele>216</ele>
        <time>2021-06-06T08:32:30.782Z</time>
      </trkpt>
      <trkpt lat="45.68307" lon="5.70004">
        <ele>216</ele>
        <time>2021-06-06T08:32:35.790Z</time>
      </trkpt>
      <trkpt lat="45.68305" lon="5.7002">
        <ele>216</ele>
        <time>2021-06-06T08:32:41.775Z</time>
      </trkpt>
      <trkpt lat="45.68302" lon="5.70035">
        <ele>216</ele>
        <time>2021-06-06T08:32:45.794Z</time>
      </trkpt>
      <trkpt lat="45.68299" lon="5.7005">
        <ele>217</ele>
        <time>2021-06-06T08:32:50.798Z</time>
      </trkpt>
      <trkpt lat="45.68419" lon="5.70395">
        <ele>218</ele>
        <time>2021-06-06T08:34:07.806Z</time>
      </trkpt>
      <trkpt lat="45.68437" lon="5.70405">
        <ele>217</ele>
        <time>2021-06-06T08:34:11.824Z</time>
      </trkpt>
      <trkpt lat="45.68459" lon="5.7042">
        <ele>217</ele>
        <time>2021-06-06T08:34:16.797Z</time>
      </trkpt>
      <trkpt lat="45.6848" lon="5.70436">
        <ele>217</ele>
        <time>2021-06-06T08:34:21.788Z</time>
      </trkpt>
      <trkpt lat="45.68496" lon="5.70445">
        <ele>217</ele>
        <time>2021-06-06T08:34:25.789Z</time>
      </trkpt>
      <trkpt lat="45.68508" lon="5.70456">
        <ele>217</ele>
        <time>2021-06-06T08:34:30.788Z</time>
      </trkpt>
      <trkpt lat="45.68519" lon="5.7047">
        <ele>217</ele>
        <time>2021-06-06T08:34:35.829Z</time>
      </trkpt>
      <trkpt lat="45.68528" lon="5.70484">
        <ele>217</ele>
        <time>2021-06-06T08:34:40.778Z</time>
      </trkpt>
      <trkpt lat="45.68536" lon="5.7049">
        <ele>217</ele>
        <time>2021-06-06T08:34:44.789Z</time>
      </trkpt>
      <trkpt lat="45.68543" lon="5.70489">
        <ele>218</ele>
        <time>2021-06-06T08:34:48.821Z</time>
      </trkpt>
      <trkpt lat="45.68551" lon="5.70498">
        <ele>218</ele>
        <time>2021-06-06T08:34:53.756Z</time>
      </trkpt>
      <trkpt lat="45.68559" lon="5.70507">
        <ele>218</ele>
        <time>2021-06-06T08:34:57.803Z</time>
      </trkpt>
      <trkpt lat="45.68568" lon="5.70515">
        <ele>218</ele>
        <time>2021-06-06T08:35:02.792Z</time>
      </trkpt>
      <trkpt lat="45.68578" lon="5.70524">
        <ele>218</ele>
        <time>2021-06-06T08:35:07.789Z</time>
      </trkpt>
      <trkpt lat="45.68587" lon="5.70534">
        <ele>218</ele>
        <time>2021-06-06T08:35:12.787Z</time>
      </trkpt>
      <trkpt lat="45.68593" lon="5.70544">
        <ele>218</ele>
        <time>2021-06-06T08:35:16.783Z</time>
      </trkpt>
      <trkpt lat="45.68599" lon="5.70552">
        <ele>217</ele>
        <time>2021-06-06T08:35:20.796Z</time>
      </trkpt>
      <trkpt lat="45.68604" lon="5.70559">
        <ele>217</ele>
        <time>2021-06-06T08:35:24.826Z</time>
      </trkpt>
      <trkpt lat="45.68604" lon="5.70561">
        <ele>217</ele>
        <time>2021-06-06T08:35:29.785Z</time>
      </trkpt>
      <trkpt lat="45.68604" lon="5.70563">
        <ele>217</ele>
        <time>2021-06-06T08:35:34.793Z</time>
      </trkpt>
      <trkpt lat="45.68604" lon="5.70567">
        <ele>217</ele>
        <time>2021-06-06T08:35:39.784Z</time>
      </trkpt>
      <trkpt lat="45.68609" lon="5.70572">
        <ele>218</ele>
        <time>2021-06-06T08:35:43.794Z</time>
      </trkpt>
      <trkpt lat="45.68616" lon="5.70582">
        <ele>218</ele>
        <time>2021-06-06T08:35:47.844Z</time>
      </trkpt>
      <trkpt lat="45.68622" lon="5.70588">
        <ele>218</ele>
        <time>2021-06-06T08:35:52.839Z</time>
      </trkpt>
      <trkpt lat="45.68627" lon="5.70593">
        <ele>217</ele>
        <time>2021-06-06T08:35:56.851Z</time>
      </trkpt>
      <trkpt lat="45.68633" lon="5.70596">
        <ele>217</ele>
        <time>2021-06-06T08:36:01.797Z</time>
      </trkpt>
      <trkpt lat="45.68639" lon="5.706">
        <ele>217</ele>
        <time>2021-06-06T08:36:06.830Z</time>
      </trkpt>
      <trkpt lat="45.68644" lon="5.70605">
        <ele>217</ele>
        <time>2021-06-06T08:36:11.800Z</time>
      </trkpt>
      <trkpt lat="45.68649" lon="5.70608">
        <ele>217</ele>
        <time>2021-06-06T08:36:15.799Z</time>
      </trkpt>
      <trkpt lat="45.68654" lon="5.7061">
        <ele>217</ele>
        <time>2021-06-06T08:36:20.777Z</time>
      </trkpt>
      <trkpt lat="45.68661" lon="5.70614">
        <ele>217</ele>
        <time>2021-06-06T08:36:25.748Z</time>
      </trkpt>
      <trkpt lat="45.68666" lon="5.70615">
        <ele>217</ele>
        <time>2021-06-06T08:36:29.761Z</time>
      </trkpt>
      <trkpt lat="45.68672" lon="5.70617">
        <ele>217</ele>
        <time>2021-06-06T08:36:34.760Z</time>
      </trkpt>
      <trkpt lat="45.68679" lon="5.70617">
        <ele>217</ele>
        <time>2021-06-06T08:36:39.748Z</time>
      </trkpt>
      <trkpt lat="45.68685" lon="5.70617">
        <ele>218</ele>
        <time>2021-06-06T08:36:43.759Z</time>
      </trkpt>
      <trkpt lat="45.68691" lon="5.70618">
        <ele>218</ele>
        <time>2021-06-06T08:36:47.786Z</time>
      </trkpt>
      <trkpt lat="45.68696" lon="5.70619">
        <ele>218</ele>
        <time>2021-06-06T08:36:51.800Z</time>
      </trkpt>
      <trkpt lat="45.68702" lon="5.70619">
        <ele>218</ele>
        <time>2021-06-06T08:36:56.788Z</time>
      </trkpt>
      <trkpt lat="45.68709" lon="5.7062">
        <ele>218</ele>
        <time>2021-06-06T08:37:01.774Z</time>
      </trkpt>
      <trkpt lat="45.68714" lon="5.70619">
        <ele>218</ele>
        <time>2021-06-06T08:37:05.785Z</time>
      </trkpt>
      <trkpt lat="45.6872" lon="5.70618">
        <ele>218</ele>
        <time>2021-06-06T08:37:09.810Z</time>
      </trkpt>
      <trkpt lat="45.68725" lon="5.70621">
        <ele>218</ele>
        <time>2021-06-06T08:37:14.785Z</time>
      </trkpt>
      <trkpt lat="45.68731" lon="5.7062">
        <ele>218</ele>
        <time>2021-06-06T08:37:18.782Z</time>
      </trkpt>
      <trkpt lat="45.68737" lon="5.70621">
        <ele>219</ele>
        <time>2021-06-06T08:37:22.795Z</time>
      </trkpt>
      <trkpt lat="45.68742" lon="5.70621">
        <ele>219</ele>
        <time>2021-06-06T08:37:26.810Z</time>
      </trkpt>
      <trkpt lat="45.68749" lon="5.70622">
        <ele>219</ele>
        <time>2021-06-06T08:37:31.792Z</time>
      </trkpt>
      <trkpt lat="45.68757" lon="5.70622">
        <ele>219</ele>
        <time>2021-06-06T08:37:36.786Z</time>
      </trkpt>
      <trkpt lat="45.68763" lon="5.70624">
        <ele>219</ele>
        <time>2021-06-06T08:37:41.756Z</time>
      </trkpt>
      <trkpt lat="45.68769" lon="5.70624">
        <ele>219</ele>
        <time>2021-06-06T08:37:46.777Z</time>
      </trkpt>
      <trkpt lat="45.68775" lon="5.70623">
        <ele>219</ele>
        <time>2021-06-06T08:37:51.779Z</time>
      </trkpt>
      <trkpt lat="45.68782" lon="5.70624">
        <ele>219</ele>
        <time>2021-06-06T08:37:56.748Z</time>
      </trkpt>
      <trkpt lat="45.68788" lon="5.70624">
        <ele>219</ele>
        <time>2021-06-06T08:38:00.753Z</time>
      </trkpt>
      <trkpt lat="45.68794" lon="5.70625">
        <ele>218</ele>
        <time>2021-06-06T08:38:05.748Z</time>
      </trkpt>
      <trkpt lat="45.68801" lon="5.70626">
        <ele>218</ele>
        <time>2021-06-06T08:38:10.746Z</time>
      </trkpt>
      <trkpt lat="45.68806" lon="5.70626">
        <ele>218</ele>
        <time>2021-06-06T08:38:14.763Z</time>
      </trkpt>
      <trkpt lat="45.68811" lon="5.70626">
        <ele>218</ele>
        <time>2021-06-06T08:38:18.799Z</time>
      </trkpt>
      <trkpt lat="45.68818" lon="5.70625">
        <ele>218</ele>
        <time>2021-06-06T08:38:23.769Z</time>
      </trkpt>
      <trkpt lat="45.68825" lon="5.70626">
        <ele>218</ele>
        <time>2021-06-06T08:38:28.808Z</time>
      </trkpt>
      <trkpt lat="45.68831" lon="5.70626">
        <ele>218</ele>
        <time>2021-06-06T08:38:33.798Z</time>
      </trkpt>
      <trkpt lat="45.68838" lon="5.70625">
        <ele>218</ele>
        <time>2021-06-06T08:38:38.786Z</time>
      </trkpt>
      <trkpt lat="45.68844" lon="5.70624">
        <ele>218</ele>
        <time>2021-06-06T08:38:43.804Z</time>
      </trkpt>
      <trkpt lat="45.68851" lon="5.70623">
        <ele>218</ele>
        <time>2021-06-06T08:38:48.778Z</time>
      </trkpt>
      <trkpt lat="45.68857" lon="5.70622">
        <ele>218</ele>
        <time>2021-06-06T08:38:52.787Z</time>
      </trkpt>
      <trkpt lat="45.68863" lon="5.70621">
        <ele>218</ele>
        <time>2021-06-06T08:38:57.794Z</time>
      </trkpt>
      <trkpt lat="45.68869" lon="5.70621">
        <ele>218</ele>
        <time>2021-06-06T08:39:02.756Z</time>
      </trkpt>
      <trkpt lat="45.68875" lon="5.70621">
        <ele>218</ele>
        <time>2021-06-06T08:39:06.805Z</time>
      </trkpt>
      <trkpt lat="45.68882" lon="5.70621">
        <ele>218</ele>
        <time>2021-06-06T08:39:11.778Z</time>
      </trkpt>
      <trkpt lat="45.68887" lon="5.70621">
        <ele>218</ele>
        <time>2021-06-06T08:39:15.785Z</time>
      </trkpt>
      <trkpt lat="45.68893" lon="5.70621">
        <ele>218</ele>
        <time>2021-06-06T08:39:19.802Z</time>
      </trkpt>
      <trkpt lat="45.689" lon="5.7062">
        <ele>218</ele>
        <time>2021-06-06T08:39:24.774Z</time>
      </trkpt>
      <trkpt lat="45.68905" lon="5.70619">
        <ele>217</ele>
        <time>2021-06-06T08:39:28.787Z</time>
      </trkpt>
      <trkpt lat="45.68911" lon="5.70617">
        <ele>217</ele>
        <time>2021-06-06T08:39:32.783Z</time>
      </trkpt>
      <trkpt lat="45.68918" lon="5.70613">
        <ele>217</ele>
        <time>2021-06-06T08:39:37.781Z</time>
      </trkpt>
      <trkpt lat="45.68923" lon="5.70612">
        <ele>217</ele>
        <time>2021-06-06T08:39:41.798Z</time>
      </trkpt>
      <trkpt lat="45.6893" lon="5.7061">
        <ele>217</ele>
        <time>2021-06-06T08:39:46.788Z</time>
      </trkpt>
      <trkpt lat="45.68937" lon="5.70607">
        <ele>218</ele>
        <time>2021-06-06T08:39:51.779Z</time>
      </trkpt>
      <trkpt lat="45.68943" lon="5.70605">
        <ele>218</ele>
        <time>2021-06-06T08:39:56.781Z</time>
      </trkpt>
      <trkpt lat="45.68949" lon="5.70602">
        <ele>218</ele>
        <time>2021-06-06T08:40:00.807Z</time>
      </trkpt>
      <trkpt lat="45.68956" lon="5.706">
        <ele>218</ele>
        <time>2021-06-06T08:40:05.800Z</time>
      </trkpt>
      <trkpt lat="45.68961" lon="5.70598">
        <ele>219</ele>
        <time>2021-06-06T08:40:09.805Z</time>
      </trkpt>
      <trkpt lat="45.68968" lon="5.70596">
        <ele>219</ele>
        <time>2021-06-06T08:40:14.795Z</time>
      </trkpt>
      <trkpt lat="45.68973" lon="5.70594">
        <ele>219</ele>
        <time>2021-06-06T08:40:18.809Z</time>
      </trkpt>
      <trkpt lat="45.68979" lon="5.70593">
        <ele>219</ele>
        <time>2021-06-06T08:40:23.793Z</time>
      </trkpt>
      <trkpt lat="45.68984" lon="5.70591">
        <ele>219</ele>
        <time>2021-06-06T08:40:27.810Z</time>
      </trkpt>
      <trkpt lat="45.68991" lon="5.7059">
        <ele>219</ele>
        <time>2021-06-06T08:40:32.793Z</time>
      </trkpt>
      <trkpt lat="45.68997" lon="5.70588">
        <ele>219</ele>
        <time>2021-06-06T08:40:37.799Z</time>
      </trkpt>
      <trkpt lat="45.69002" lon="5.70589">
        <ele>219</ele>
        <time>2021-06-06T08:40:41.798Z</time>
      </trkpt>
      <trkpt lat="45.69007" lon="5.70597">
        <ele>219</ele>
        <time>2021-06-06T08:40:46.781Z</time>
      </trkpt>
      <trkpt lat="45.6901" lon="5.70608">
        <ele>219</ele>
        <time>2021-06-06T08:40:51.806Z</time>
      </trkpt>
      <trkpt lat="45.69013" lon="5.70619">
        <ele>219</ele>
        <time>2021-06-06T08:40:56.808Z</time>
      </trkpt>
      <trkpt lat="45.69015" lon="5.7063">
        <ele>219</ele>
        <time>2021-06-06T08:41:01.799Z</time>
      </trkpt>
      <trkpt lat="45.69018" lon="5.70641">
        <ele>219</ele>
        <time>2021-06-06T08:41:06.788Z</time>
      </trkpt>
      <trkpt lat="45.6902" lon="5.7065">
        <ele>219</ele>
        <time>2021-06-06T08:41:10.789Z</time>
      </trkpt>
      <trkpt lat="45.69022" lon="5.70658">
        <ele>219</ele>
        <time>2021-06-06T08:41:14.824Z</time>
      </trkpt>
      <trkpt lat="45.69024" lon="5.70666">
        <ele>219</ele>
        <time>2021-06-06T08:41:18.825Z</time>
      </trkpt>
      <trkpt lat="45.69027" lon="5.70677">
        <ele>219</ele>
        <time>2021-06-06T08:41:23.796Z</time>
      </trkpt>
      <trkpt lat="45.69029" lon="5.70687">
        <ele>220</ele>
        <time>2021-06-06T08:41:28.783Z</time>
      </trkpt>
      <trkpt lat="45.69032" lon="5.70698">
        <ele>220</ele>
        <time>2021-06-06T08:41:33.799Z</time>
      </trkpt>
      <trkpt lat="45.69036" lon="5.70708">
        <ele>220</ele>
        <time>2021-06-06T08:41:38.795Z</time>
      </trkpt>
      <trkpt lat="45.69038" lon="5.70717">
        <ele>221</ele>
        <time>2021-06-06T08:41:43.793Z</time>
      </trkpt>
      <trkpt lat="45.6904" lon="5.70725">
        <ele>221</ele>
        <time>2021-06-06T08:41:47.794Z</time>
      </trkpt>
      <trkpt lat="45.69043" lon="5.70735">
        <ele>222</ele>
        <time>2021-06-06T08:41:52.789Z</time>
      </trkpt>
      <trkpt lat="45.69044" lon="5.70738">
        <ele>224</ele>
        <time>2021-06-06T08:41:56.794Z</time>
      </trkpt>
      <trkpt lat="45.69047" lon="5.70747">
        <ele>224</ele>
        <time>2021-06-06T08:42:01.788Z</time>
      </trkpt>
      <trkpt lat="45.69052" lon="5.70747">
        <ele>224</ele>
        <time>2021-06-06T08:42:05.755Z</time>
      </trkpt>
      <trkpt lat="45.69059" lon="5.70743">
        <ele>224</ele>
        <time>2021-06-06T08:42:10.765Z</time>
      </trkpt>
      <trkpt lat="45.69065" lon="5.70743">
        <ele>224</ele>
        <time>2021-06-06T08:42:15.756Z</time>
      </trkpt>
      <trkpt lat="45.69069" lon="5.70739">
        <ele>224</ele>
        <time>2021-06-06T08:42:19.800Z</time>
      </trkpt>
      <trkpt lat="45.69075" lon="5.70734">
        <ele>221</ele>
        <time>2021-06-06T08:42:24.801Z</time>
      </trkpt>
      <trkpt lat="45.69079" lon="5.7073">
        <ele>221</ele>
        <time>2021-06-06T08:42:28.795Z</time>
      </trkpt>
      <trkpt lat="45.69085" lon="5.70724">
        <ele>221</ele>
        <time>2021-06-06T08:42:33.825Z</time>
      </trkpt>
      <trkpt lat="45.69091" lon="5.7072">
        <ele>221</ele>
        <time>2021-06-06T08:42:38.785Z</time>
      </trkpt>
      <trkpt lat="45.69095" lon="5.70715">
        <ele>221</ele>
        <time>2021-06-06T08:42:42.822Z</time>
      </trkpt>
      <trkpt lat="45.69098" lon="5.70708">
        <ele>219</ele>
        <time>2021-06-06T08:42:47.796Z</time>
      </trkpt>
      <trkpt lat="45.69102" lon="5.70701">
        <ele>219</ele>
        <time>2021-06-06T08:42:52.790Z</time>
      </trkpt>
      <trkpt lat="45.69105" lon="5.70695">
        <ele>219</ele>
        <time>2021-06-06T08:42:56.804Z</time>
      </trkpt>
      <trkpt lat="45.69107" lon="5.70688">
        <ele>219</ele>
        <time>2021-06-06T08:43:00.821Z</time>
      </trkpt>
      <trkpt lat="45.6911" lon="5.70681">
        <ele>219</ele>
        <time>2021-06-06T08:43:05.816Z</time>
      </trkpt>
      <trkpt lat="45.69115" lon="5.70674">
        <ele>219</ele>
        <time>2021-06-06T08:43:10.787Z</time>
      </trkpt>
      <trkpt lat="45.69121" lon="5.70669">
        <ele>219</ele>
        <time>2021-06-06T08:43:15.752Z</time>
      </trkpt>
      <trkpt lat="45.69125" lon="5.70662">
        <ele>219</ele>
        <time>2021-06-06T08:43:20.749Z</time>
      </trkpt>
      <trkpt lat="45.6913" lon="5.70656">
        <ele>219</ele>
        <time>2021-06-06T08:43:25.796Z</time>
      </trkpt>
      <trkpt lat="45.69135" lon="5.70652">
        <ele>220</ele>
        <time>2021-06-06T08:43:29.793Z</time>
      </trkpt>
      <trkpt lat="45.69142" lon="5.70648">
        <ele>220</ele>
        <time>2021-06-06T08:43:34.785Z</time>
      </trkpt>
      <trkpt lat="45.69147" lon="5.70645">
        <ele>220</ele>
        <time>2021-06-06T08:43:38.778Z</time>
      </trkpt>
      <trkpt lat="45.69153" lon="5.70641">
        <ele>220</ele>
        <time>2021-06-06T08:43:43.793Z</time>
      </trkpt>
      <trkpt lat="45.69157" lon="5.70639">
        <ele>220</ele>
        <time>2021-06-06T08:43:47.813Z</time>
      </trkpt>
      <trkpt lat="45.69163" lon="5.70633">
        <ele>220</ele>
        <time>2021-06-06T08:43:52.798Z</time>
      </trkpt>
      <trkpt lat="45.69168" lon="5.7063">
        <ele>220</ele>
        <time>2021-06-06T08:43:56.821Z</time>
      </trkpt>
      <trkpt lat="45.69172" lon="5.70627">
        <ele>220</ele>
        <time>2021-06-06T08:44:00.832Z</time>
      </trkpt>
      <trkpt lat="45.69178" lon="5.7062">
        <ele>220</ele>
        <time>2021-06-06T08:44:05.802Z</time>
      </trkpt>
      <trkpt lat="45.69183" lon="5.70615">
        <ele>221</ele>
        <time>2021-06-06T08:44:09.827Z</time>
      </trkpt>
      <trkpt lat="45.69188" lon="5.70609">
        <ele>221</ele>
        <time>2021-06-06T08:44:14.795Z</time>
      </trkpt>
      <trkpt lat="45.69194" lon="5.70603">
        <ele>221</ele>
        <time>2021-06-06T08:44:19.800Z</time>
      </trkpt>
      <trkpt lat="45.692" lon="5.70596">
        <ele>220</ele>
        <time>2021-06-06T08:44:24.816Z</time>
      </trkpt>
      <trkpt lat="45.69206" lon="5.7059">
        <ele>220</ele>
        <time>2021-06-06T08:44:29.789Z</time>
      </trkpt>
      <trkpt lat="45.69211" lon="5.70582">
        <ele>221</ele>
        <time>2021-06-06T08:44:34.772Z</time>
      </trkpt>
      <trkpt lat="45.69215" lon="5.70576">
        <ele>221</ele>
        <time>2021-06-06T08:44:38.783Z</time>
      </trkpt>
      <trkpt lat="45.6922" lon="5.70571">
        <ele>221</ele>
        <time>2021-06-06T08:44:42.800Z</time>
      </trkpt>
      <trkpt lat="45.69227" lon="5.70565">
        <ele>220</ele>
        <time>2021-06-06T08:44:47.795Z</time>
      </trkpt>
      <trkpt lat="45.69232" lon="5.70561">
        <ele>220</ele>
        <time>2021-06-06T08:44:52.797Z</time>
      </trkpt>
      <trkpt lat="45.69238" lon="5.70557">
        <ele>220</ele>
        <time>2021-06-06T08:44:57.788Z</time>
      </trkpt>
      <trkpt lat="45.69244" lon="5.70552">
        <ele>220</ele>
        <time>2021-06-06T08:45:02.791Z</time>
      </trkpt>
      <trkpt lat="45.69249" lon="5.70547">
        <ele>220</ele>
        <time>2021-06-06T08:45:06.798Z</time>
      </trkpt>
      <trkpt lat="45.69254" lon="5.70533">
        <ele>219</ele>
        <time>2021-06-06T08:45:11.785Z</time>
      </trkpt>
      <trkpt lat="45.69257" lon="5.70523">
        <ele>219</ele>
        <time>2021-06-06T08:45:15.787Z</time>
      </trkpt>
      <trkpt lat="45.69262" lon="5.7052">
        <ele>219</ele>
        <time>2021-06-06T08:45:20.773Z</time>
      </trkpt>
      <trkpt lat="45.69265" lon="5.70515">
        <ele>220</ele>
        <time>2021-06-06T08:45:24.783Z</time>
      </trkpt>
      <trkpt lat="45.69269" lon="5.70508">
        <ele>220</ele>
        <time>2021-06-06T08:45:29.784Z</time>
      </trkpt>
      <trkpt lat="45.69273" lon="5.70501">
        <ele>220</ele>
        <time>2021-06-06T08:45:34.776Z</time>
      </trkpt>
      <trkpt lat="45.69277" lon="5.70499">
        <ele>220</ele>
        <time>2021-06-06T08:45:39.774Z</time>
      </trkpt>
      <trkpt lat="45.69282" lon="5.70492">
        <ele>220</ele>
        <time>2021-06-06T08:45:44.788Z</time>
      </trkpt>
      <trkpt lat="45.69284" lon="5.70486">
        <ele>219</ele>
        <time>2021-06-06T08:45:48.791Z</time>
      </trkpt>
      <trkpt lat="45.6929" lon="5.70481">
        <ele>219</ele>
        <time>2021-06-06T08:45:53.771Z</time>
      </trkpt>
      <trkpt lat="45.69294" lon="5.70476">
        <ele>221</ele>
        <time>2021-06-06T08:45:57.777Z</time>
      </trkpt>
      <trkpt lat="45.69299" lon="5.70473">
        <ele>221</ele>
        <time>2021-06-06T08:46:01.791Z</time>
      </trkpt>
      <trkpt lat="45.69305" lon="5.70469">
        <ele>221</ele>
        <time>2021-06-06T08:46:06.787Z</time>
      </trkpt>
      <trkpt lat="45.69311" lon="5.70464">
        <ele>221</ele>
        <time>2021-06-06T08:46:11.810Z</time>
      </trkpt>
      <trkpt lat="45.69318" lon="5.70459">
        <ele>221</ele>
        <time>2021-06-06T08:46:16.774Z</time>
      </trkpt>
      <trkpt lat="45.69323" lon="5.70456">
        <ele>222</ele>
        <time>2021-06-06T08:46:20.786Z</time>
      </trkpt>
      <trkpt lat="45.69328" lon="5.70453">
        <ele>222</ele>
        <time>2021-06-06T08:46:24.788Z</time>
      </trkpt>
      <trkpt lat="45.69335" lon="5.70449">
        <ele>222</ele>
        <time>2021-06-06T08:46:29.777Z</time>
      </trkpt>
      <trkpt lat="45.69339" lon="5.70446">
        <ele>222</ele>
        <time>2021-06-06T08:46:33.790Z</time>
      </trkpt>
      <trkpt lat="45.69344" lon="5.70441">
        <ele>222</ele>
        <time>2021-06-06T08:46:37.814Z</time>
      </trkpt>
      <trkpt lat="45.69351" lon="5.70438">
        <ele>222</ele>
        <time>2021-06-06T08:46:42.806Z</time>
      </trkpt>
      <trkpt lat="45.69359" lon="5.70436">
        <ele>222</ele>
        <time>2021-06-06T08:46:47.796Z</time>
      </trkpt>
      <trkpt lat="45.69365" lon="5.70431">
        <ele>222</ele>
        <time>2021-06-06T08:46:51.843Z</time>
      </trkpt>
      <trkpt lat="45.69371" lon="5.70427">
        <ele>221</ele>
        <time>2021-06-06T08:46:56.790Z</time>
      </trkpt>
      <trkpt lat="45.69377" lon="5.70422">
        <ele>221</ele>
        <time>2021-06-06T08:47:01.780Z</time>
      </trkpt>
      <trkpt lat="45.69384" lon="5.70418">
        <ele>221</ele>
        <time>2021-06-06T08:47:06.805Z</time>
      </trkpt>
      <trkpt lat="45.69391" lon="5.70414">
        <ele>221</ele>
        <time>2021-06-06T08:47:11.780Z</time>
      </trkpt>
      <trkpt lat="45.69396" lon="5.70411">
        <ele>221</ele>
        <time>2021-06-06T08:47:15.794Z</time>
      </trkpt>
      <trkpt lat="45.69402" lon="5.70407">
        <ele>221</ele>
        <time>2021-06-06T08:47:19.821Z</time>
      </trkpt>
      <trkpt lat="45.69407" lon="5.70404">
        <ele>221</ele>
        <time>2021-06-06T08:47:23.916Z</time>
      </trkpt>
      <trkpt lat="45.69414" lon="5.70401">
        <ele>221</ele>
        <time>2021-06-06T08:47:28.755Z</time>
      </trkpt>
      <trkpt lat="45.6942" lon="5.70397">
        <ele>221</ele>
        <time>2021-06-06T08:47:33.809Z</time>
      </trkpt>
      <trkpt lat="45.69428" lon="5.70393">
        <ele>221</ele>
        <time>2021-06-06T08:47:38.786Z</time>
      </trkpt>
      <trkpt lat="45.69432" lon="5.7039">
        <ele>221</ele>
        <time>2021-06-06T08:47:42.800Z</time>
      </trkpt>
      <trkpt lat="45.69437" lon="5.70388">
        <ele>221</ele>
        <time>2021-06-06T08:47:46.799Z</time>
      </trkpt>
      <trkpt lat="45.69444" lon="5.70384">
        <ele>221</ele>
        <time>2021-06-06T08:47:51.786Z</time>
      </trkpt>
      <trkpt lat="45.6945" lon="5.70383">
        <ele>221</ele>
        <time>2021-06-06T08:47:55.800Z</time>
      </trkpt>
      <trkpt lat="45.69455" lon="5.7038">
        <ele>221</ele>
        <time>2021-06-06T08:47:59.827Z</time>
      </trkpt>
      <trkpt lat="45.69461" lon="5.70375">
        <ele>221</ele>
        <time>2021-06-06T08:48:04.795Z</time>
      </trkpt>
      <trkpt lat="45.69468" lon="5.7037">
        <ele>221</ele>
        <time>2021-06-06T08:48:09.797Z</time>
      </trkpt>
      <trkpt lat="45.69474" lon="5.70366">
        <ele>221</ele>
        <time>2021-06-06T08:48:13.797Z</time>
      </trkpt>
      <trkpt lat="45.69481" lon="5.70364">
        <ele>221</ele>
        <time>2021-06-06T08:48:18.805Z</time>
      </trkpt>
      <trkpt lat="45.69488" lon="5.70361">
        <ele>221</ele>
        <time>2021-06-06T08:48:23.787Z</time>
      </trkpt>
      <trkpt lat="45.69495" lon="5.70357">
        <ele>221</ele>
        <time>2021-06-06T08:48:28.788Z</time>
      </trkpt>
      <trkpt lat="45.695" lon="5.70353">
        <ele>221</ele>
        <time>2021-06-06T08:48:32.797Z</time>
      </trkpt>
      <trkpt lat="45.69508" lon="5.70351">
        <ele>221</ele>
        <time>2021-06-06T08:48:37.818Z</time>
      </trkpt>
      <trkpt lat="45.69513" lon="5.70348">
        <ele>221</ele>
        <time>2021-06-06T08:48:41.831Z</time>
      </trkpt>
      <trkpt lat="45.6952" lon="5.70345">
        <ele>220</ele>
        <time>2021-06-06T08:48:46.781Z</time>
      </trkpt>
      <trkpt lat="45.69525" lon="5.70341">
        <ele>220</ele>
        <time>2021-06-06T08:48:50.783Z</time>
      </trkpt>
      <trkpt lat="45.69531" lon="5.70336">
        <ele>220</ele>
        <time>2021-06-06T08:48:55.794Z</time>
      </trkpt>
      <trkpt lat="45.69537" lon="5.70333">
        <ele>220</ele>
        <time>2021-06-06T08:49:00.792Z</time>
      </trkpt>
      <trkpt lat="45.69544" lon="5.7033">
        <ele>219</ele>
        <time>2021-06-06T08:49:05.786Z</time>
      </trkpt>
      <trkpt lat="45.6955" lon="5.70326">
        <ele>219</ele>
        <time>2021-06-06T08:49:10.783Z</time>
      </trkpt>
      <trkpt lat="45.69557" lon="5.7032">
        <ele>219</ele>
        <time>2021-06-06T08:49:15.759Z</time>
      </trkpt>
      <trkpt lat="45.69563" lon="5.70317">
        <ele>220</ele>
        <time>2021-06-06T08:49:19.784Z</time>
      </trkpt>
      <trkpt lat="45.69568" lon="5.70315">
        <ele>220</ele>
        <time>2021-06-06T08:49:23.792Z</time>
      </trkpt>
      <trkpt lat="45.69575" lon="5.70313">
        <ele>218</ele>
        <time>2021-06-06T08:49:28.790Z</time>
      </trkpt>
      <trkpt lat="45.69582" lon="5.70309">
        <ele>218</ele>
        <time>2021-06-06T08:49:33.756Z</time>
      </trkpt>
      <trkpt lat="45.69586" lon="5.70306">
        <ele>218</ele>
        <time>2021-06-06T08:49:37.773Z</time>
      </trkpt>
      <trkpt lat="45.69593" lon="5.70302">
        <ele>218</ele>
        <time>2021-06-06T08:49:42.806Z</time>
      </trkpt>
      <trkpt lat="45.69599" lon="5.70298">
        <ele>217</ele>
        <time>2021-06-06T08:49:47.798Z</time>
      </trkpt>
      <trkpt lat="45.69605" lon="5.70294">
        <ele>217</ele>
        <time>2021-06-06T08:49:52.795Z</time>
      </trkpt>
      <trkpt lat="45.69611" lon="5.7029">
        <ele>218</ele>
        <time>2021-06-06T08:49:56.802Z</time>
      </trkpt>
      <trkpt lat="45.69616" lon="5.70285">
        <ele>218</ele>
        <time>2021-06-06T08:50:01.790Z</time>
      </trkpt>
      <trkpt lat="45.69623" lon="5.7028">
        <ele>218</ele>
        <time>2021-06-06T08:50:06.762Z</time>
      </trkpt>
      <trkpt lat="45.69628" lon="5.70274">
        <ele>220</ele>
        <time>2021-06-06T08:50:11.752Z</time>
      </trkpt>
      <trkpt lat="45.69635" lon="5.70269">
        <ele>220</ele>
        <time>2021-06-06T08:50:16.754Z</time>
      </trkpt>
      <trkpt lat="45.69642" lon="5.70266">
        <ele>220</ele>
        <time>2021-06-06T08:50:21.754Z</time>
      </trkpt>
      <trkpt lat="45.69648" lon="5.70263">
        <ele>219</ele>
        <time>2021-06-06T08:50:25.757Z</time>
      </trkpt>
      <trkpt lat="45.69655" lon="5.70256">
        <ele>221</ele>
        <time>2021-06-06T08:50:30.750Z</time>
      </trkpt>
      <trkpt lat="45.6966" lon="5.70252">
        <ele>221</ele>
        <time>2021-06-06T08:50:34.755Z</time>
      </trkpt>
      <trkpt lat="45.69666" lon="5.70247">
        <ele>221</ele>
        <time>2021-06-06T08:50:39.747Z</time>
      </trkpt>
      <trkpt lat="45.69671" lon="5.70243">
        <ele>221</ele>
        <time>2021-06-06T08:50:43.787Z</time>
      </trkpt>
      <trkpt lat="45.69677" lon="5.70238">
        <ele>221</ele>
        <time>2021-06-06T08:50:48.756Z</time>
      </trkpt>
      <trkpt lat="45.69683" lon="5.70234">
        <ele>221</ele>
        <time>2021-06-06T08:50:52.815Z</time>
      </trkpt>
      <trkpt lat="45.6969" lon="5.7023">
        <ele>221</ele>
        <time>2021-06-06T08:50:57.754Z</time>
      </trkpt>
      <trkpt lat="45.69694" lon="5.70226">
        <ele>221</ele>
        <time>2021-06-06T08:51:01.788Z</time>
      </trkpt>
      <trkpt lat="45.69699" lon="5.70219">
        <ele>221</ele>
        <time>2021-06-06T08:51:06.759Z</time>
      </trkpt>
      <trkpt lat="45.69705" lon="5.70217">
        <ele>221</ele>
        <time>2021-06-06T08:51:10.783Z</time>
      </trkpt>
      <trkpt lat="45.69712" lon="5.70215">
        <ele>220</ele>
        <time>2021-06-06T08:51:14.820Z</time>
      </trkpt>
      <trkpt lat="45.69723" lon="5.70211">
        <ele>220</ele>
        <time>2021-06-06T08:51:19.794Z</time>
      </trkpt>
      <trkpt lat="45.6973" lon="5.70207">
        <ele>220</ele>
        <time>2021-06-06T08:51:24.803Z</time>
      </trkpt>
      <trkpt lat="45.69735" lon="5.70203">
        <ele>220</ele>
        <time>2021-06-06T08:51:28.826Z</time>
      </trkpt>
      <trkpt lat="45.69741" lon="5.70196">
        <ele>221</ele>
        <time>2021-06-06T08:51:33.759Z</time>
      </trkpt>
      <trkpt lat="45.69746" lon="5.70192">
        <ele>221</ele>
        <time>2021-06-06T08:51:37.784Z</time>
      </trkpt>
      <trkpt lat="45.69752" lon="5.70187">
        <ele>221</ele>
        <time>2021-06-06T08:51:42.755Z</time>
      </trkpt>
      <trkpt lat="45.69758" lon="5.70183">
        <ele>221</ele>
        <time>2021-06-06T08:51:47.755Z</time>
      </trkpt>
      <trkpt lat="45.69765" lon="5.70177">
        <ele>222</ele>
        <time>2021-06-06T08:51:52.757Z</time>
      </trkpt>
      <trkpt lat="45.6977" lon="5.70174">
        <ele>222</ele>
        <time>2021-06-06T08:51:56.778Z</time>
      </trkpt>
      <trkpt lat="45.69776" lon="5.7017">
        <ele>222</ele>
        <time>2021-06-06T08:52:00.825Z</time>
      </trkpt>
      <trkpt lat="45.69782" lon="5.70164">
        <ele>222</ele>
        <time>2021-06-06T08:52:05.793Z</time>
      </trkpt>
      <trkpt lat="45.69788" lon="5.70159">
        <ele>222</ele>
        <time>2021-06-06T08:52:09.790Z</time>
      </trkpt>
      <trkpt lat="45.69795" lon="5.70155">
        <ele>223</ele>
        <time>2021-06-06T08:52:14.795Z</time>
      </trkpt>
      <trkpt lat="45.698" lon="5.7015">
        <ele>223</ele>
        <time>2021-06-06T08:52:18.798Z</time>
      </trkpt>
      <trkpt lat="45.69805" lon="5.70144">
        <ele>223</ele>
        <time>2021-06-06T08:52:22.821Z</time>
      </trkpt>
      <trkpt lat="45.69811" lon="5.70138">
        <ele>223</ele>
        <time>2021-06-06T08:52:27.791Z</time>
      </trkpt>
      <trkpt lat="45.69816" lon="5.70132">
        <ele>223</ele>
        <time>2021-06-06T08:52:31.782Z</time>
      </trkpt>
      <trkpt lat="45.69822" lon="5.70125">
        <ele>223</ele>
        <time>2021-06-06T08:52:36.796Z</time>
      </trkpt>
      <trkpt lat="45.69825" lon="5.70116">
        <ele>223</ele>
        <time>2021-06-06T08:52:41.803Z</time>
      </trkpt>
      <trkpt lat="45.6983" lon="5.70107">
        <ele>223</ele>
        <time>2021-06-06T08:52:46.787Z</time>
      </trkpt>
      <trkpt lat="45.69834" lon="5.701">
        <ele>223</ele>
        <time>2021-06-06T08:52:50.795Z</time>
      </trkpt>
      <trkpt lat="45.69839" lon="5.70091">
        <ele>223</ele>
        <time>2021-06-06T08:52:55.835Z</time>
      </trkpt>
      <trkpt lat="45.69843" lon="5.70082">
        <ele>223</ele>
        <time>2021-06-06T08:53:00.786Z</time>
      </trkpt>
      <trkpt lat="45.69847" lon="5.70073">
        <ele>223</ele>
        <time>2021-06-06T08:53:05.760Z</time>
      </trkpt>
      <trkpt lat="45.69851" lon="5.70066">
        <ele>222</ele>
        <time>2021-06-06T08:53:09.799Z</time>
      </trkpt>
      <trkpt lat="45.69853" lon="5.70059">
        <ele>222</ele>
        <time>2021-06-06T08:53:13.819Z</time>
      </trkpt>
      <trkpt lat="45.69855" lon="5.70051">
        <ele>222</ele>
        <time>2021-06-06T08:53:18.803Z</time>
      </trkpt>
      <trkpt lat="45.69861" lon="5.70044">
        <ele>222</ele>
        <time>2021-06-06T08:53:23.752Z</time>
      </trkpt>
      <trkpt lat="45.69865" lon="5.70038">
        <ele>222</ele>
        <time>2021-06-06T08:53:27.779Z</time>
      </trkpt>
      <trkpt lat="45.69872" lon="5.70032">
        <ele>222</ele>
        <time>2021-06-06T08:53:32.756Z</time>
      </trkpt>
      <trkpt lat="45.69873" lon="5.70024">
        <ele>222</ele>
        <time>2021-06-06T08:53:36.784Z</time>
      </trkpt>
      <trkpt lat="45.69878" lon="5.70016">
        <ele>221</ele>
        <time>2021-06-06T08:53:41.759Z</time>
      </trkpt>
      <trkpt lat="45.69884" lon="5.70013">
        <ele>221</ele>
        <time>2021-06-06T08:53:46.806Z</time>
      </trkpt>
      <trkpt lat="45.69891" lon="5.70012">
        <ele>221</ele>
        <time>2021-06-06T08:53:51.758Z</time>
      </trkpt>
      <trkpt lat="45.69896" lon="5.70011">
        <ele>221</ele>
        <time>2021-06-06T08:53:55.760Z</time>
      </trkpt>
      <trkpt lat="45.69901" lon="5.70009">
        <ele>221</ele>
        <time>2021-06-06T08:53:59.795Z</time>
      </trkpt>
      <trkpt lat="45.69908" lon="5.70009">
        <ele>220</ele>
        <time>2021-06-06T08:54:04.786Z</time>
      </trkpt>
      <trkpt lat="45.69913" lon="5.70007">
        <ele>220</ele>
        <time>2021-06-06T08:54:08.816Z</time>
      </trkpt>
      <trkpt lat="45.69919" lon="5.70005">
        <ele>220</ele>
        <time>2021-06-06T08:54:12.819Z</time>
      </trkpt>
      <trkpt lat="45.69926" lon="5.70004">
        <ele>220</ele>
        <time>2021-06-06T08:54:17.785Z</time>
      </trkpt>
      <trkpt lat="45.69933" lon="5.70001">
        <ele>220</ele>
        <time>2021-06-06T08:54:21.786Z</time>
      </trkpt>
      <trkpt lat="45.69939" lon="5.7">
        <ele>220</ele>
        <time>2021-06-06T08:54:26.757Z</time>
      </trkpt>
      <trkpt lat="45.69945" lon="5.69998">
        <ele>220</ele>
        <time>2021-06-06T08:54:31.750Z</time>
      </trkpt>
      <trkpt lat="45.69951" lon="5.69996">
        <ele>220</ele>
        <time>2021-06-06T08:54:36.757Z</time>
      </trkpt>
      <trkpt lat="45.69957" lon="5.69993">
        <ele>220</ele>
        <time>2021-06-06T08:54:40.762Z</time>
      </trkpt>
      <trkpt lat="45.69962" lon="5.69991">
        <ele>221</ele>
        <time>2021-06-06T08:54:44.759Z</time>
      </trkpt>
      <trkpt lat="45.69969" lon="5.69988">
        <ele>221</ele>
        <time>2021-06-06T08:54:49.793Z</time>
      </trkpt>
      <trkpt lat="45.69981" lon="5.69987">
        <ele>221</ele>
        <time>2021-06-06T08:54:54.753Z</time>
      </trkpt>
      <trkpt lat="45.69989" lon="5.69982">
        <ele>221</ele>
        <time>2021-06-06T08:54:59.786Z</time>
      </trkpt>
      <trkpt lat="45.69995" lon="5.6998">
        <ele>221</ele>
        <time>2021-06-06T08:55:04.755Z</time>
      </trkpt>
      <trkpt lat="45.7" lon="5.69978">
        <ele>221</ele>
        <time>2021-06-06T08:55:08.788Z</time>
      </trkpt>
      <trkpt lat="45.70005" lon="5.69975">
        <ele>221</ele>
        <time>2021-06-06T08:55:12.848Z</time>
      </trkpt>
      <trkpt lat="45.70013" lon="5.69975">
        <ele>221</ele>
        <time>2021-06-06T08:55:17.784Z</time>
      </trkpt>
      <trkpt lat="45.7002" lon="5.69972">
        <ele>220</ele>
        <time>2021-06-06T08:55:22.825Z</time>
      </trkpt>
      <trkpt lat="45.70026" lon="5.6997">
        <ele>220</ele>
        <time>2021-06-06T08:55:27.787Z</time>
      </trkpt>
      <trkpt lat="45.70033" lon="5.69966">
        <ele>220</ele>
        <time>2021-06-06T08:55:32.797Z</time>
      </trkpt>
      <trkpt lat="45.70039" lon="5.69963">
        <ele>220</ele>
        <time>2021-06-06T08:55:37.788Z</time>
      </trkpt>
      <trkpt lat="45.70044" lon="5.69958">
        <ele>220</ele>
        <time>2021-06-06T08:55:41.796Z</time>
      </trkpt>
      <trkpt lat="45.70044" lon="5.69948">
        <ele>220</ele>
        <time>2021-06-06T08:55:46.803Z</time>
      </trkpt>
      <trkpt lat="45.70041" lon="5.69938">
        <ele>220</ele>
        <time>2021-06-06T08:55:51.799Z</time>
      </trkpt>
      <trkpt lat="45.70039" lon="5.69928">
        <ele>220</ele>
        <time>2021-06-06T08:55:56.758Z</time>
      </trkpt>
      <trkpt lat="45.70037" lon="5.69919">
        <ele>220</ele>
        <time>2021-06-06T08:56:01.751Z</time>
      </trkpt>
      <trkpt lat="45.70034" lon="5.69909">
        <ele>220</ele>
        <time>2021-06-06T08:56:06.789Z</time>
      </trkpt>
      <trkpt lat="45.70032" lon="5.69897">
        <ele>220</ele>
        <time>2021-06-06T08:56:11.754Z</time>
      </trkpt>
      <trkpt lat="45.70032" lon="5.69886">
        <ele>220</ele>
        <time>2021-06-06T08:56:15.785Z</time>
      </trkpt>
      <trkpt lat="45.70031" lon="5.69882">
        <ele>220</ele>
        <time>2021-06-06T08:56:20.799Z</time>
      </trkpt>
      <trkpt lat="45.70031" lon="5.6988">
        <ele>220</ele>
        <time>2021-06-06T08:56:25.795Z</time>
      </trkpt>
      <trkpt lat="45.70029" lon="5.69872">
        <ele>219</ele>
        <time>2021-06-06T08:56:30.831Z</time>
      </trkpt>
      <trkpt lat="45.70026" lon="5.69865">
        <ele>219</ele>
        <time>2021-06-06T08:56:35.757Z</time>
      </trkpt>
      <trkpt lat="45.70022" lon="5.69859">
        <ele>219</ele>
        <time>2021-06-06T08:56:39.793Z</time>
      </trkpt>
      <trkpt lat="45.70017" lon="5.69851">
        <ele>219</ele>
        <time>2021-06-06T08:56:44.813Z</time>
      </trkpt>
      <trkpt lat="45.70015" lon="5.69844">
        <ele>220</ele>
        <time>2021-06-06T08:56:49.783Z</time>
      </trkpt>
      <trkpt lat="45.70012" lon="5.69835">
        <ele>220</ele>
        <time>2021-06-06T08:56:53.793Z</time>
      </trkpt>
      <trkpt lat="45.7001" lon="5.69828">
        <ele>220</ele>
        <time>2021-06-06T08:56:57.820Z</time>
      </trkpt>
      <trkpt lat="45.70006" lon="5.69819">
        <ele>220</ele>
        <time>2021-06-06T08:57:02.798Z</time>
      </trkpt>
      <trkpt lat="45.70005" lon="5.69811">
        <ele>220</ele>
        <time>2021-06-06T08:57:06.822Z</time>
      </trkpt>
      <trkpt lat="45.70002" lon="5.69804">
        <ele>220</ele>
        <time>2021-06-06T08:57:10.819Z</time>
      </trkpt>
      <trkpt lat="45.70001" lon="5.69793">
        <ele>220</ele>
        <time>2021-06-06T08:57:15.791Z</time>
      </trkpt>
      <trkpt lat="45.7" lon="5.69784">
        <ele>220</ele>
        <time>2021-06-06T08:57:20.777Z</time>
      </trkpt>
      <trkpt lat="45.69999" lon="5.69773">
        <ele>220</ele>
        <time>2021-06-06T08:57:25.794Z</time>
      </trkpt>
      <trkpt lat="45.69996" lon="5.69764">
        <ele>220</ele>
        <time>2021-06-06T08:57:30.785Z</time>
      </trkpt>
      <trkpt lat="45.69996" lon="5.69754">
        <ele>220</ele>
        <time>2021-06-06T08:57:35.780Z</time>
      </trkpt>
      <trkpt lat="45.69996" lon="5.69744">
        <ele>220</ele>
        <time>2021-06-06T08:57:39.787Z</time>
      </trkpt>
      <trkpt lat="45.69993" lon="5.69734">
        <ele>220</ele>
        <time>2021-06-06T08:57:44.749Z</time>
      </trkpt>
      <trkpt lat="45.69993" lon="5.69724">
        <ele>220</ele>
        <time>2021-06-06T08:57:48.745Z</time>
      </trkpt>
      <trkpt lat="45.69992" lon="5.69712">
        <ele>220</ele>
        <time>2021-06-06T08:57:53.760Z</time>
      </trkpt>
      <trkpt lat="45.69992" lon="5.69699">
        <ele>221</ele>
        <time>2021-06-06T08:57:58.748Z</time>
      </trkpt>
      <trkpt lat="45.69992" lon="5.69691">
        <ele>221</ele>
        <time>2021-06-06T08:58:02.748Z</time>
      </trkpt>
      <trkpt lat="45.69991" lon="5.6968">
        <ele>222</ele>
        <time>2021-06-06T08:58:07.746Z</time>
      </trkpt>
      <trkpt lat="45.69988" lon="5.6967">
        <ele>222</ele>
        <time>2021-06-06T08:58:12.750Z</time>
      </trkpt>
      <trkpt lat="45.69989" lon="5.69658">
        <ele>222</ele>
        <time>2021-06-06T08:58:17.784Z</time>
      </trkpt>
      <trkpt lat="45.69991" lon="5.69647">
        <ele>223</ele>
        <time>2021-06-06T08:58:22.780Z</time>
      </trkpt>
      <trkpt lat="45.69993" lon="5.69638">
        <ele>223</ele>
        <time>2021-06-06T08:58:26.775Z</time>
      </trkpt>
      <trkpt lat="45.69995" lon="5.69628">
        <ele>223</ele>
        <time>2021-06-06T08:58:30.784Z</time>
      </trkpt>
      <trkpt lat="45.69999" lon="5.69612">
        <ele>223</ele>
        <time>2021-06-06T08:58:35.795Z</time>
      </trkpt>
      <trkpt lat="45.70004" lon="5.69604">
        <ele>223</ele>
        <time>2021-06-06T08:58:39.800Z</time>
      </trkpt>
      <trkpt lat="45.70006" lon="5.69596">
        <ele>224</ele>
        <time>2021-06-06T08:58:43.816Z</time>
      </trkpt>
      <trkpt lat="45.70011" lon="5.69586">
        <ele>224</ele>
        <time>2021-06-06T08:58:48.780Z</time>
      </trkpt>
      <trkpt lat="45.70014" lon="5.69581">
        <ele>220</ele>
        <time>2021-06-06T08:58:53.782Z</time>
      </trkpt>
      <trkpt lat="45.70018" lon="5.69579">
        <ele>220</ele>
        <time>2021-06-06T08:58:57.781Z</time>
      </trkpt>
      <trkpt lat="45.70025" lon="5.69576">
        <ele>220</ele>
        <time>2021-06-06T08:59:02.751Z</time>
      </trkpt>
      <trkpt lat="45.7003" lon="5.69575">
        <ele>220</ele>
        <time>2021-06-06T08:59:06.776Z</time>
      </trkpt>
      <trkpt lat="45.70038" lon="5.69576">
        <ele>220</ele>
        <time>2021-06-06T08:59:11.782Z</time>
      </trkpt>
      <trkpt lat="45.70046" lon="5.69575">
        <ele>219</ele>
        <time>2021-06-06T08:59:16.777Z</time>
      </trkpt>
      <trkpt lat="45.70051" lon="5.69574">
        <ele>219</ele>
        <time>2021-06-06T08:59:20.780Z</time>
      </trkpt>
      <trkpt lat="45.70057" lon="5.69574">
        <ele>219</ele>
        <time>2021-06-06T08:59:24.784Z</time>
      </trkpt>
      <trkpt lat="45.70064" lon="5.69574">
        <ele>219</ele>
        <time>2021-06-06T08:59:29.786Z</time>
      </trkpt>
      <trkpt lat="45.70072" lon="5.69574">
        <ele>219</ele>
        <time>2021-06-06T08:59:34.762Z</time>
      </trkpt>
      <trkpt lat="45.70078" lon="5.69574">
        <ele>219</ele>
        <time>2021-06-06T08:59:38.781Z</time>
      </trkpt>
      <trkpt lat="45.70086" lon="5.69573">
        <ele>219</ele>
        <time>2021-06-06T08:59:43.756Z</time>
      </trkpt>
      <trkpt lat="45.70092" lon="5.69572">
        <ele>219</ele>
        <time>2021-06-06T08:59:47.783Z</time>
      </trkpt>
      <trkpt lat="45.70098" lon="5.69571">
        <ele>219</ele>
        <time>2021-06-06T08:59:51.794Z</time>
      </trkpt>
      <trkpt lat="45.70105" lon="5.6957">
        <ele>219</ele>
        <time>2021-06-06T08:59:56.786Z</time>
      </trkpt>
      <trkpt lat="45.70113" lon="5.6957">
        <ele>219</ele>
        <time>2021-06-06T09:00:01.854Z</time>
      </trkpt>
      <trkpt lat="45.7012" lon="5.69569">
        <ele>219</ele>
        <time>2021-06-06T09:00:06.776Z</time>
      </trkpt>
      <trkpt lat="45.70127" lon="5.69568">
        <ele>219</ele>
        <time>2021-06-06T09:00:11.784Z</time>
      </trkpt>
      <trkpt lat="45.70132" lon="5.69565">
        <ele>219</ele>
        <time>2021-06-06T09:00:15.780Z</time>
      </trkpt>
      <trkpt lat="45.70138" lon="5.69558">
        <ele>219</ele>
        <time>2021-06-06T09:00:20.778Z</time>
      </trkpt>
      <trkpt lat="45.70141" lon="5.69552">
        <ele>219</ele>
        <time>2021-06-06T09:00:24.788Z</time>
      </trkpt>
      <trkpt lat="45.70146" lon="5.6954">
        <ele>219</ele>
        <time>2021-06-06T09:00:29.819Z</time>
      </trkpt>
      <trkpt lat="45.70151" lon="5.69528">
        <ele>219</ele>
        <time>2021-06-06T09:00:34.796Z</time>
      </trkpt>
      <trkpt lat="45.70153" lon="5.6952">
        <ele>219</ele>
        <time>2021-06-06T09:00:38.821Z</time>
      </trkpt>
      <trkpt lat="45.70155" lon="5.6951">
        <ele>219</ele>
        <time>2021-06-06T09:00:43.819Z</time>
      </trkpt>
      <trkpt lat="45.70159" lon="5.695">
        <ele>219</ele>
        <time>2021-06-06T09:00:48.834Z</time>
      </trkpt>
      <trkpt lat="45.70162" lon="5.69492">
        <ele>219</ele>
        <time>2021-06-06T09:00:53.818Z</time>
      </trkpt>
      <trkpt lat="45.70165" lon="5.69484">
        <ele>219</ele>
        <time>2021-06-06T09:00:57.830Z</time>
      </trkpt>
      <trkpt lat="45.70168" lon="5.69475">
        <ele>219</ele>
        <time>2021-06-06T09:01:02.754Z</time>
      </trkpt>
      <trkpt lat="45.70172" lon="5.69468">
        <ele>219</ele>
        <time>2021-06-06T09:01:06.752Z</time>
      </trkpt>
      <trkpt lat="45.70175" lon="5.6946">
        <ele>219</ele>
        <time>2021-06-06T09:01:10.755Z</time>
      </trkpt>
      <trkpt lat="45.70179" lon="5.69452">
        <ele>219</ele>
        <time>2021-06-06T09:01:15.776Z</time>
      </trkpt>
      <trkpt lat="45.70181" lon="5.69444">
        <ele>219</ele>
        <time>2021-06-06T09:01:19.785Z</time>
      </trkpt>
      <trkpt lat="45.70184" lon="5.69437">
        <ele>219</ele>
        <time>2021-06-06T09:01:23.788Z</time>
      </trkpt>
      <trkpt lat="45.70188" lon="5.69428">
        <ele>219</ele>
        <time>2021-06-06T09:01:28.839Z</time>
      </trkpt>
      <trkpt lat="45.70191" lon="5.6942">
        <ele>219</ele>
        <time>2021-06-06T09:01:32.852Z</time>
      </trkpt>
      <trkpt lat="45.70195" lon="5.69411">
        <ele>219</ele>
        <time>2021-06-06T09:01:37.787Z</time>
      </trkpt>
      <trkpt lat="45.70198" lon="5.69401">
        <ele>219</ele>
        <time>2021-06-06T09:01:42.815Z</time>
      </trkpt>
      <trkpt lat="45.70202" lon="5.69391">
        <ele>219</ele>
        <time>2021-06-06T09:01:47.796Z</time>
      </trkpt>
      <trkpt lat="45.70204" lon="5.69383">
        <ele>219</ele>
        <time>2021-06-06T09:01:51.796Z</time>
      </trkpt>
      <trkpt lat="45.70207" lon="5.69372">
        <ele>219</ele>
        <time>2021-06-06T09:01:56.801Z</time>
      </trkpt>
      <trkpt lat="45.70209" lon="5.69361">
        <ele>220</ele>
        <time>2021-06-06T09:02:01.803Z</time>
      </trkpt>
      <trkpt lat="45.70211" lon="5.6935">
        <ele>220</ele>
        <time>2021-06-06T09:02:06.790Z</time>
      </trkpt>
      <trkpt lat="45.70214" lon="5.69341">
        <ele>220</ele>
        <time>2021-06-06T09:02:11.761Z</time>
      </trkpt>
      <trkpt lat="45.70216" lon="5.6933">
        <ele>220</ele>
        <time>2021-06-06T09:02:16.782Z</time>
      </trkpt>
      <trkpt lat="45.70219" lon="5.6932">
        <ele>220</ele>
        <time>2021-06-06T09:02:21.796Z</time>
      </trkpt>
      <trkpt lat="45.70223" lon="5.69309">
        <ele>221</ele>
        <time>2021-06-06T09:02:26.795Z</time>
      </trkpt>
      <trkpt lat="45.70225" lon="5.69302">
        <ele>221</ele>
        <time>2021-06-06T09:02:30.850Z</time>
      </trkpt>
      <trkpt lat="45.70228" lon="5.69293">
        <ele>221</ele>
        <time>2021-06-06T09:02:35.801Z</time>
      </trkpt>
      <trkpt lat="45.70231" lon="5.69283">
        <ele>222</ele>
        <time>2021-06-06T09:02:40.821Z</time>
      </trkpt>
      <trkpt lat="45.70234" lon="5.69274">
        <ele>222</ele>
        <time>2021-06-06T09:02:45.797Z</time>
      </trkpt>
      <trkpt lat="45.70236" lon="5.69267">
        <ele>221</ele>
        <time>2021-06-06T09:02:49.821Z</time>
      </trkpt>
      <trkpt lat="45.7024" lon="5.69257">
        <ele>221</ele>
        <time>2021-06-06T09:02:54.788Z</time>
      </trkpt>
      <trkpt lat="45.70244" lon="5.69248">
        <ele>221</ele>
        <time>2021-06-06T09:02:59.779Z</time>
      </trkpt>
      <trkpt lat="45.70244" lon="5.69237">
        <ele>221</ele>
        <time>2021-06-06T09:03:04.772Z</time>
      </trkpt>
      <trkpt lat="45.70247" lon="5.69229">
        <ele>222</ele>
        <time>2021-06-06T09:03:08.781Z</time>
      </trkpt>
      <trkpt lat="45.70251" lon="5.69221">
        <ele>222</ele>
        <time>2021-06-06T09:03:12.786Z</time>
      </trkpt>
      <trkpt lat="45.70252" lon="5.69213">
        <ele>222</ele>
        <time>2021-06-06T09:03:16.819Z</time>
      </trkpt>
      <trkpt lat="45.70257" lon="5.69208">
        <ele>222</ele>
        <time>2021-06-06T09:03:21.816Z</time>
      </trkpt>
      <trkpt lat="45.70264" lon="5.6921">
        <ele>222</ele>
        <time>2021-06-06T09:03:26.790Z</time>
      </trkpt>
      <trkpt lat="45.70268" lon="5.69213">
        <ele>222</ele>
        <time>2021-06-06T09:03:30.826Z</time>
      </trkpt>
      <trkpt lat="45.70275" lon="5.69217">
        <ele>222</ele>
        <time>2021-06-06T09:03:35.766Z</time>
      </trkpt>
      <trkpt lat="45.70282" lon="5.6922">
        <ele>222</ele>
        <time>2021-06-06T09:03:39.800Z</time>
      </trkpt>
      <trkpt lat="45.70289" lon="5.69223">
        <ele>222</ele>
        <time>2021-06-06T09:03:44.796Z</time>
      </trkpt>
      <trkpt lat="45.70296" lon="5.69227">
        <ele>224</ele>
        <time>2021-06-06T09:03:49.784Z</time>
      </trkpt>
      <trkpt lat="45.70303" lon="5.69229">
        <ele>224</ele>
        <time>2021-06-06T09:03:54.745Z</time>
      </trkpt>
      <trkpt lat="45.70309" lon="5.69231">
        <ele>224</ele>
        <time>2021-06-06T09:03:58.759Z</time>
      </trkpt>
      <trkpt lat="45.70317" lon="5.69234">
        <ele>224</ele>
        <time>2021-06-06T09:04:03.791Z</time>
      </trkpt>
      <trkpt lat="45.70324" lon="5.69236">
        <ele>225</ele>
        <time>2021-06-06T09:04:08.820Z</time>
      </trkpt>
      <trkpt lat="45.70332" lon="5.69239">
        <ele>224</ele>
        <time>2021-06-06T09:04:13.818Z</time>
      </trkpt>
      <trkpt lat="45.70338" lon="5.6924">
        <ele>224</ele>
        <time>2021-06-06T09:04:17.833Z</time>
      </trkpt>
      <trkpt lat="45.70347" lon="5.69242">
        <ele>224</ele>
        <time>2021-06-06T09:04:22.794Z</time>
      </trkpt>
      <trkpt lat="45.70354" lon="5.69245">
        <ele>224</ele>
        <time>2021-06-06T09:04:27.793Z</time>
      </trkpt>
      <trkpt lat="45.7036" lon="5.69246">
        <ele>224</ele>
        <time>2021-06-06T09:04:31.814Z</time>
      </trkpt>
      <trkpt lat="45.70367" lon="5.69248">
        <ele>224</ele>
        <time>2021-06-06T09:04:35.815Z</time>
      </trkpt>
      <trkpt lat="45.70375" lon="5.69249">
        <ele>224</ele>
        <time>2021-06-06T09:04:40.790Z</time>
      </trkpt>
      <trkpt lat="45.70382" lon="5.69251">
        <ele>224</ele>
        <time>2021-06-06T09:04:45.755Z</time>
      </trkpt>
      <trkpt lat="45.70388" lon="5.69253">
        <ele>224</ele>
        <time>2021-06-06T09:04:49.819Z</time>
      </trkpt>
      <trkpt lat="45.70396" lon="5.69254">
        <ele>224</ele>
        <time>2021-06-06T09:04:54.803Z</time>
      </trkpt>
      <trkpt lat="45.70403" lon="5.69255">
        <ele>225</ele>
        <time>2021-06-06T09:04:59.792Z</time>
      </trkpt>
      <trkpt lat="45.70409" lon="5.69255">
        <ele>225</ele>
        <time>2021-06-06T09:05:03.796Z</time>
      </trkpt>
      <trkpt lat="45.70416" lon="5.69256">
        <ele>225</ele>
        <time>2021-06-06T09:05:07.796Z</time>
      </trkpt>
      <trkpt lat="45.70423" lon="5.69259">
        <ele>225</ele>
        <time>2021-06-06T09:05:12.782Z</time>
      </trkpt>
      <trkpt lat="45.70427" lon="5.69262">
        <ele>225</ele>
        <time>2021-06-06T09:05:16.795Z</time>
      </trkpt>
      <trkpt lat="45.70433" lon="5.69262">
        <ele>228</ele>
        <time>2021-06-06T09:05:20.823Z</time>
      </trkpt>
      <trkpt lat="45.7044" lon="5.69262">
        <ele>228</ele>
        <time>2021-06-06T09:05:25.791Z</time>
      </trkpt>
      <trkpt lat="45.70445" lon="5.69264">
        <ele>226</ele>
        <time>2021-06-06T09:05:29.818Z</time>
      </trkpt>
      <trkpt lat="45.70453" lon="5.69265">
        <ele>226</ele>
        <time>2021-06-06T09:05:34.797Z</time>
      </trkpt>
      <trkpt lat="45.70458" lon="5.69265">
        <ele>226</ele>
        <time>2021-06-06T09:05:38.817Z</time>
      </trkpt>
      <trkpt lat="45.70465" lon="5.69267">
        <ele>227</ele>
        <time>2021-06-06T09:05:43.792Z</time>
      </trkpt>
      <trkpt lat="45.70471" lon="5.69268">
        <ele>227</ele>
        <time>2021-06-06T09:05:47.819Z</time>
      </trkpt>
      <trkpt lat="45.70478" lon="5.69269">
        <ele>227</ele>
        <time>2021-06-06T09:05:52.795Z</time>
      </trkpt>
      <trkpt lat="45.70485" lon="5.6927">
        <ele>227</ele>
        <time>2021-06-06T09:05:57.816Z</time>
      </trkpt>
      <trkpt lat="45.70492" lon="5.6927">
        <ele>226</ele>
        <time>2021-06-06T09:06:02.786Z</time>
      </trkpt>
      <trkpt lat="45.70498" lon="5.69272">
        <ele>226</ele>
        <time>2021-06-06T09:06:06.816Z</time>
      </trkpt>
      <trkpt lat="45.70506" lon="5.69272">
        <ele>226</ele>
        <time>2021-06-06T09:06:11.780Z</time>
      </trkpt>
      <trkpt lat="45.70512" lon="5.69272">
        <ele>226</ele>
        <time>2021-06-06T09:06:15.789Z</time>
      </trkpt>
      <trkpt lat="45.70518" lon="5.69271">
        <ele>222</ele>
        <time>2021-06-06T09:06:19.775Z</time>
      </trkpt>
      <trkpt lat="45.70526" lon="5.69272">
        <ele>222</ele>
        <time>2021-06-06T09:06:24.786Z</time>
      </trkpt>
      <trkpt lat="45.70532" lon="5.69276">
        <ele>222</ele>
        <time>2021-06-06T09:06:28.782Z</time>
      </trkpt>
      <trkpt lat="45.70534" lon="5.69283">
        <ele>222</ele>
        <time>2021-06-06T09:06:32.805Z</time>
      </trkpt>
      <trkpt lat="45.70535" lon="5.69293">
        <ele>222</ele>
        <time>2021-06-06T09:06:37.755Z</time>
      </trkpt>
      <trkpt lat="45.70539" lon="5.693">
        <ele>222</ele>
        <time>2021-06-06T09:06:42.792Z</time>
      </trkpt>
      <trkpt lat="45.70547" lon="5.69301">
        <ele>220</ele>
        <time>2021-06-06T09:06:47.789Z</time>
      </trkpt>
      <trkpt lat="45.70553" lon="5.69302">
        <ele>220</ele>
        <time>2021-06-06T09:06:51.752Z</time>
      </trkpt>
      <trkpt lat="45.7056" lon="5.693">
        <ele>220</ele>
        <time>2021-06-06T09:06:56.777Z</time>
      </trkpt>
      <trkpt lat="45.70567" lon="5.69301">
        <ele>220</ele>
        <time>2021-06-06T09:07:00.784Z</time>
      </trkpt>
      <trkpt lat="45.70575" lon="5.693">
        <ele>219</ele>
        <time>2021-06-06T09:07:05.808Z</time>
      </trkpt>
      <trkpt lat="45.70582" lon="5.69296">
        <ele>219</ele>
        <time>2021-06-06T09:07:10.783Z</time>
      </trkpt>
      <trkpt lat="45.70588" lon="5.69294">
        <ele>219</ele>
        <time>2021-06-06T09:07:14.792Z</time>
      </trkpt>
      <trkpt lat="45.70596" lon="5.69296">
        <ele>219</ele>
        <time>2021-06-06T09:07:19.845Z</time>
      </trkpt>
      <trkpt lat="45.70603" lon="5.69296">
        <ele>220</ele>
        <time>2021-06-06T09:07:24.792Z</time>
      </trkpt>
      <trkpt lat="45.70612" lon="5.69297">
        <ele>220</ele>
        <time>2021-06-06T09:07:29.745Z</time>
      </trkpt>
      <trkpt lat="45.70617" lon="5.69298">
        <ele>220</ele>
        <time>2021-06-06T09:07:33.746Z</time>
      </trkpt>
      <trkpt lat="45.7062" lon="5.69298">
        <ele>220</ele>
        <time>2021-06-06T09:07:35.752Z</time>
      </trkpt>
      <trkpt lat="45.70634" lon="5.69297">
        <ele>221</ele>
        <time>2021-06-06T09:07:44.782Z</time>
      </trkpt>
      <trkpt lat="45.70641" lon="5.69298">
        <ele>221</ele>
        <time>2021-06-06T09:07:49.783Z</time>
      </trkpt>
      <trkpt lat="45.7065" lon="5.69297">
        <ele>221</ele>
        <time>2021-06-06T09:07:54.796Z</time>
      </trkpt>
      <trkpt lat="45.70656" lon="5.69297">
        <ele>222</ele>
        <time>2021-06-06T09:07:58.805Z</time>
      </trkpt>
      <trkpt lat="45.70664" lon="5.69297">
        <ele>222</ele>
        <time>2021-06-06T09:08:03.804Z</time>
      </trkpt>
      <trkpt lat="45.70672" lon="5.69297">
        <ele>222</ele>
        <time>2021-06-06T09:08:08.753Z</time>
      </trkpt>
      <trkpt lat="45.70679" lon="5.69297">
        <ele>222</ele>
        <time>2021-06-06T09:08:13.815Z</time>
      </trkpt>
      <trkpt lat="45.70686" lon="5.69296">
        <ele>222</ele>
        <time>2021-06-06T09:08:18.772Z</time>
      </trkpt>
      <trkpt lat="45.70693" lon="5.69296">
        <ele>222</ele>
        <time>2021-06-06T09:08:23.753Z</time>
      </trkpt>
      <trkpt lat="45.707" lon="5.69295">
        <ele>222</ele>
        <time>2021-06-06T09:08:28.746Z</time>
      </trkpt>
      <trkpt lat="45.70702" lon="5.69295">
        <ele>222</ele>
        <time>2021-06-06T09:08:29.790Z</time>
      </trkpt>
      <trkpt lat="45.70713" lon="5.693">
        <ele>222</ele>
        <time>2021-06-06T09:08:38.753Z</time>
      </trkpt>
      <trkpt lat="45.70718" lon="5.69302">
        <ele>222</ele>
        <time>2021-06-06T09:08:42.778Z</time>
      </trkpt>
      <trkpt lat="45.7072" lon="5.69309">
        <ele>222</ele>
        <time>2021-06-06T09:08:47.752Z</time>
      </trkpt>
      <trkpt lat="45.70721" lon="5.69318">
        <ele>222</ele>
        <time>2021-06-06T09:08:52.753Z</time>
      </trkpt>
      <trkpt lat="45.70721" lon="5.69327">
        <ele>222</ele>
        <time>2021-06-06T09:08:57.751Z</time>
      </trkpt>
      <trkpt lat="45.70724" lon="5.69335">
        <ele>222</ele>
        <time>2021-06-06T09:09:02.755Z</time>
      </trkpt>
      <trkpt lat="45.70725" lon="5.69343">
        <ele>222</ele>
        <time>2021-06-06T09:09:06.795Z</time>
      </trkpt>
      <trkpt lat="45.70727" lon="5.69353">
        <ele>222</ele>
        <time>2021-06-06T09:09:11.749Z</time>
      </trkpt>
      <trkpt lat="45.7073" lon="5.6936">
        <ele>222</ele>
        <time>2021-06-06T09:09:15.799Z</time>
      </trkpt>
      <trkpt lat="45.70732" lon="5.69369">
        <ele>222</ele>
        <time>2021-06-06T09:09:19.805Z</time>
      </trkpt>
      <trkpt lat="45.70734" lon="5.69377">
        <ele>222</ele>
        <time>2021-06-06T09:09:23.814Z</time>
      </trkpt>
      <trkpt lat="45.70736" lon="5.69387">
        <ele>222</ele>
        <time>2021-06-06T09:09:28.813Z</time>
      </trkpt>
      <trkpt lat="45.70738" lon="5.69397">
        <ele>223</ele>
        <time>2021-06-06T09:09:33.814Z</time>
      </trkpt>
      <trkpt lat="45.70741" lon="5.69408">
        <ele>222</ele>
        <time>2021-06-06T09:09:38.797Z</time>
      </trkpt>
      <trkpt lat="45.70743" lon="5.69419">
        <ele>222</ele>
        <time>2021-06-06T09:09:43.803Z</time>
      </trkpt>
      <trkpt lat="45.70746" lon="5.69428">
        <ele>222</ele>
        <time>2021-06-06T09:09:48.804Z</time>
      </trkpt>
      <trkpt lat="45.70748" lon="5.69439">
        <ele>222</ele>
        <time>2021-06-06T09:09:53.777Z</time>
      </trkpt>
      <trkpt lat="45.70748" lon="5.69448">
        <ele>222</ele>
        <time>2021-06-06T09:09:57.799Z</time>
      </trkpt>
      <trkpt lat="45.70751" lon="5.69458">
        <ele>222</ele>
        <time>2021-06-06T09:10:02.744Z</time>
      </trkpt>
      <trkpt lat="45.70752" lon="5.69466">
        <ele>222</ele>
        <time>2021-06-06T09:10:06.784Z</time>
      </trkpt>
      <trkpt lat="45.70753" lon="5.69475">
        <ele>222</ele>
        <time>2021-06-06T09:10:10.793Z</time>
      </trkpt>
      <trkpt lat="45.70755" lon="5.69483">
        <ele>222</ele>
        <time>2021-06-06T09:10:14.796Z</time>
      </trkpt>
      <trkpt lat="45.70757" lon="5.69491">
        <ele>223</ele>
        <time>2021-06-06T09:10:19.787Z</time>
      </trkpt>
      <trkpt lat="45.7076" lon="5.69501">
        <ele>223</ele>
        <time>2021-06-06T09:10:24.798Z</time>
      </trkpt>
      <trkpt lat="45.70762" lon="5.6951">
        <ele>223</ele>
        <time>2021-06-06T09:10:29.789Z</time>
      </trkpt>
      <trkpt lat="45.70762" lon="5.69519">
        <ele>224</ele>
        <time>2021-06-06T09:10:33.800Z</time>
      </trkpt>
      <trkpt lat="45.70764" lon="5.69529">
        <ele>224</ele>
        <time>2021-06-06T09:10:38.790Z</time>
      </trkpt>
      <trkpt lat="45.70766" lon="5.69538">
        <ele>222</ele>
        <time>2021-06-06T09:10:43.787Z</time>
      </trkpt>
      <trkpt lat="45.70768" lon="5.69549">
        <ele>223</ele>
        <time>2021-06-06T09:10:48.789Z</time>
      </trkpt>
      <trkpt lat="45.70772" lon="5.69558">
        <ele>223</ele>
        <time>2021-06-06T09:10:53.795Z</time>
      </trkpt>
      <trkpt lat="45.70775" lon="5.69568">
        <ele>223</ele>
        <time>2021-06-06T09:10:58.753Z</time>
      </trkpt>
      <trkpt lat="45.70778" lon="5.69577">
        <ele>223</ele>
        <time>2021-06-06T09:11:03.755Z</time>
      </trkpt>
      <trkpt lat="45.70781" lon="5.69584">
        <ele>223</ele>
        <time>2021-06-06T09:11:07.787Z</time>
      </trkpt>
      <trkpt lat="45.70782" lon="5.69593">
        <ele>223</ele>
        <time>2021-06-06T09:11:11.784Z</time>
      </trkpt>
      <trkpt lat="45.70785" lon="5.69599">
        <ele>223</ele>
        <time>2021-06-06T09:11:15.753Z</time>
      </trkpt>
      <trkpt lat="45.70787" lon="5.69611">
        <ele>223</ele>
        <time>2021-06-06T09:11:21.789Z</time>
      </trkpt>
      <trkpt lat="45.70789" lon="5.69622">
        <ele>223</ele>
        <time>2021-06-06T09:11:26.793Z</time>
      </trkpt>
      <trkpt lat="45.70792" lon="5.6963">
        <ele>223</ele>
        <time>2021-06-06T09:11:30.796Z</time>
      </trkpt>
      <trkpt lat="45.70794" lon="5.69641">
        <ele>222</ele>
        <time>2021-06-06T09:11:35.778Z</time>
      </trkpt>
      <trkpt lat="45.70795" lon="5.69649">
        <ele>222</ele>
        <time>2021-06-06T09:11:39.784Z</time>
      </trkpt>
      <trkpt lat="45.70795" lon="5.69657">
        <ele>222</ele>
        <time>2021-06-06T09:11:43.795Z</time>
      </trkpt>
      <trkpt lat="45.70797" lon="5.69668">
        <ele>222</ele>
        <time>2021-06-06T09:11:48.784Z</time>
      </trkpt>
      <trkpt lat="45.708" lon="5.69684">
        <ele>222</ele>
        <time>2021-06-06T09:11:53.825Z</time>
      </trkpt>
      <trkpt lat="45.70804" lon="5.69698">
        <ele>222</ele>
        <time>2021-06-06T09:11:58.782Z</time>
      </trkpt>
      <trkpt lat="45.70808" lon="5.69707">
        <ele>222</ele>
        <time>2021-06-06T09:12:02.793Z</time>
      </trkpt>
      <trkpt lat="45.70811" lon="5.69715">
        <ele>222</ele>
        <time>2021-06-06T09:12:07.777Z</time>
      </trkpt>
      <trkpt lat="45.70813" lon="5.69727">
        <ele>222</ele>
        <time>2021-06-06T09:12:12.756Z</time>
      </trkpt>
      <trkpt lat="45.70815" lon="5.69737">
        <ele>222</ele>
        <time>2021-06-06T09:12:17.757Z</time>
      </trkpt>
      <trkpt lat="45.7082" lon="5.69746">
        <ele>221</ele>
        <time>2021-06-06T09:12:22.759Z</time>
      </trkpt>
      <trkpt lat="45.70824" lon="5.69756">
        <ele>221</ele>
        <time>2021-06-06T09:12:27.757Z</time>
      </trkpt>
      <trkpt lat="45.70829" lon="5.69765">
        <ele>221</ele>
        <time>2021-06-06T09:12:32.756Z</time>
      </trkpt>
      <trkpt lat="45.70833" lon="5.69774">
        <ele>221</ele>
        <time>2021-06-06T09:12:37.756Z</time>
      </trkpt>
      <trkpt lat="45.70838" lon="5.69784">
        <ele>221</ele>
        <time>2021-06-06T09:12:42.753Z</time>
      </trkpt>
      <trkpt lat="45.70841" lon="5.69795">
        <ele>222</ele>
        <time>2021-06-06T09:12:47.757Z</time>
      </trkpt>
      <trkpt lat="45.70842" lon="5.69803">
        <ele>222</ele>
        <time>2021-06-06T09:12:51.753Z</time>
      </trkpt>
      <trkpt lat="45.70847" lon="5.69807">
        <ele>222</ele>
        <time>2021-06-06T09:12:56.751Z</time>
      </trkpt>
      <trkpt lat="45.70847" lon="5.69807">
        <ele>222</ele>
        <time>2021-06-06T09:13:01.754Z</time>
      </trkpt>
      <trkpt lat="45.70846" lon="5.69815">
        <ele>222</ele>
        <time>2021-06-06T09:13:06.752Z</time>
      </trkpt>
      <trkpt lat="45.70846" lon="5.69822">
        <ele>223</ele>
        <time>2021-06-06T09:13:10.753Z</time>
      </trkpt>
      <trkpt lat="45.70847" lon="5.69826">
        <ele>223</ele>
        <time>2021-06-06T09:13:32.752Z</time>
      </trkpt>
      <trkpt lat="45.70847" lon="5.69826">
        <ele>223</ele>
        <time>2021-06-06T09:13:37.753Z</time>
      </trkpt>
      <trkpt lat="45.70847" lon="5.69825">
        <ele>223</ele>
        <time>2021-06-06T09:13:42.753Z</time>
      </trkpt>
      <trkpt lat="45.70845" lon="5.69834">
        <ele>223</ele>
        <time>2021-06-06T09:13:47.758Z</time>
      </trkpt>
      <trkpt lat="45.70844" lon="5.69839">
        <ele>223</ele>
        <time>2021-06-06T09:13:52.796Z</time>
      </trkpt>
      <trkpt lat="45.70842" lon="5.69849">
        <ele>224</ele>
        <time>2021-06-06T09:14:06.784Z</time>
      </trkpt>
      <trkpt lat="45.70842" lon="5.6985">
        <ele>224</ele>
        <time>2021-06-06T09:14:10.798Z</time>
      </trkpt>
      <trkpt lat="45.70844" lon="5.69858">
        <ele>224</ele>
        <time>2021-06-06T09:14:15.783Z</time>
      </trkpt>
      <trkpt lat="45.70847" lon="5.69863">
        <ele>224</ele>
        <time>2021-06-06T09:14:19.793Z</time>
      </trkpt>
      <trkpt lat="45.70854" lon="5.69863">
        <ele>224</ele>
        <time>2021-06-06T09:14:24.754Z</time>
      </trkpt>
      <trkpt lat="45.70862" lon="5.69863">
        <ele>224</ele>
        <time>2021-06-06T09:14:29.757Z</time>
      </trkpt>
      <trkpt lat="45.70867" lon="5.69861">
        <ele>224</ele>
        <time>2021-06-06T09:14:33.755Z</time>
      </trkpt>
      <trkpt lat="45.70875" lon="5.69858">
        <ele>224</ele>
        <time>2021-06-06T09:14:38.754Z</time>
      </trkpt>
      <trkpt lat="45.70883" lon="5.69857">
        <ele>223</ele>
        <time>2021-06-06T09:14:43.757Z</time>
      </trkpt>
      <trkpt lat="45.70889" lon="5.69856">
        <ele>223</ele>
        <time>2021-06-06T09:14:47.803Z</time>
      </trkpt>
      <trkpt lat="45.70896" lon="5.69856">
        <ele>223</ele>
        <time>2021-06-06T09:14:52.777Z</time>
      </trkpt>
      <trkpt lat="45.70904" lon="5.69855">
        <ele>222</ele>
        <time>2021-06-06T09:14:57.757Z</time>
      </trkpt>
      <trkpt lat="45.7091" lon="5.69855">
        <ele>222</ele>
        <time>2021-06-06T09:15:02.754Z</time>
      </trkpt>
      <trkpt lat="45.70918" lon="5.69855">
        <ele>222</ele>
        <time>2021-06-06T09:15:07.799Z</time>
      </trkpt>
      <trkpt lat="45.70925" lon="5.69854">
        <ele>222</ele>
        <time>2021-06-06T09:15:12.787Z</time>
      </trkpt>
      <trkpt lat="45.70933" lon="5.69855">
        <ele>222</ele>
        <time>2021-06-06T09:15:17.790Z</time>
      </trkpt>
      <trkpt lat="45.7094" lon="5.69855">
        <ele>222</ele>
        <time>2021-06-06T09:15:22.793Z</time>
      </trkpt>
      <trkpt lat="45.70946" lon="5.69856">
        <ele>222</ele>
        <time>2021-06-06T09:15:26.803Z</time>
      </trkpt>
      <trkpt lat="45.70954" lon="5.69855">
        <ele>222</ele>
        <time>2021-06-06T09:15:31.797Z</time>
      </trkpt>
      <trkpt lat="45.70961" lon="5.69855">
        <ele>222</ele>
        <time>2021-06-06T09:15:36.813Z</time>
      </trkpt>
      <trkpt lat="45.70968" lon="5.69856">
        <ele>222</ele>
        <time>2021-06-06T09:15:41.776Z</time>
      </trkpt>
      <trkpt lat="45.70974" lon="5.69857">
        <ele>222</ele>
        <time>2021-06-06T09:15:45.796Z</time>
      </trkpt>
      <trkpt lat="45.70981" lon="5.69858">
        <ele>222</ele>
        <time>2021-06-06T09:15:50.751Z</time>
      </trkpt>
      <trkpt lat="45.70988" lon="5.69858">
        <ele>224</ele>
        <time>2021-06-06T09:15:54.757Z</time>
      </trkpt>
      <trkpt lat="45.70995" lon="5.69859">
        <ele>224</ele>
        <time>2021-06-06T09:15:59.746Z</time>
      </trkpt>
      <trkpt lat="45.71" lon="5.69859">
        <ele>224</ele>
        <time>2021-06-06T09:16:03.754Z</time>
      </trkpt>
      <trkpt lat="45.71007" lon="5.6986">
        <ele>224</ele>
        <time>2021-06-06T09:16:08.756Z</time>
      </trkpt>
      <trkpt lat="45.71013" lon="5.6986">
        <ele>224</ele>
        <time>2021-06-06T09:16:12.798Z</time>
      </trkpt>
      <trkpt lat="45.71021" lon="5.6986">
        <ele>224</ele>
        <time>2021-06-06T09:16:17.812Z</time>
      </trkpt>
      <trkpt lat="45.71028" lon="5.69861">
        <ele>224</ele>
        <time>2021-06-06T09:16:22.848Z</time>
      </trkpt>
      <trkpt lat="45.71035" lon="5.69863">
        <ele>224</ele>
        <time>2021-06-06T09:16:27.785Z</time>
      </trkpt>
      <trkpt lat="45.71042" lon="5.69862">
        <ele>223</ele>
        <time>2021-06-06T09:16:32.784Z</time>
      </trkpt>
      <trkpt lat="45.7105" lon="5.69861">
        <ele>223</ele>
        <time>2021-06-06T09:16:37.748Z</time>
      </trkpt>
      <trkpt lat="45.71056" lon="5.69862">
        <ele>223</ele>
        <time>2021-06-06T09:16:41.821Z</time>
      </trkpt>
      <trkpt lat="45.71064" lon="5.69862">
        <ele>223</ele>
        <time>2021-06-06T09:16:46.820Z</time>
      </trkpt>
      <trkpt lat="45.71071" lon="5.69862">
        <ele>222</ele>
        <time>2021-06-06T09:16:51.794Z</time>
      </trkpt>
      <trkpt lat="45.71078" lon="5.69862">
        <ele>222</ele>
        <time>2021-06-06T09:16:56.785Z</time>
      </trkpt>
      <trkpt lat="45.71085" lon="5.69861">
        <ele>222</ele>
        <time>2021-06-06T09:17:01.784Z</time>
      </trkpt>
      <trkpt lat="45.71091" lon="5.6986">
        <ele>222</ele>
        <time>2021-06-06T09:17:06.788Z</time>
      </trkpt>
      <trkpt lat="45.71098" lon="5.69859">
        <ele>221</ele>
        <time>2021-06-06T09:17:11.791Z</time>
      </trkpt>
      <trkpt lat="45.71104" lon="5.69856">
        <ele>221</ele>
        <time>2021-06-06T09:17:15.816Z</time>
      </trkpt>
      <trkpt lat="45.7111" lon="5.69852">
        <ele>221</ele>
        <time>2021-06-06T09:17:19.820Z</time>
      </trkpt>
      <trkpt lat="45.71117" lon="5.69848">
        <ele>221</ele>
        <time>2021-06-06T09:17:24.761Z</time>
      </trkpt>
      <trkpt lat="45.71124" lon="5.69845">
        <ele>221</ele>
        <time>2021-06-06T09:17:29.789Z</time>
      </trkpt>
      <trkpt lat="45.71132" lon="5.69841">
        <ele>221</ele>
        <time>2021-06-06T09:17:34.786Z</time>
      </trkpt>
      <trkpt lat="45.71144" lon="5.69849">
        <ele>220</ele>
        <time>2021-06-06T09:17:51.804Z</time>
      </trkpt>
      <trkpt lat="45.71139" lon="5.69857">
        <ele>220</ele>
        <time>2021-06-06T09:17:56.789Z</time>
      </trkpt>
      <trkpt lat="45.71134" lon="5.69862">
        <ele>220</ele>
        <time>2021-06-06T09:18:00.814Z</time>
      </trkpt>
      <trkpt lat="45.7113" lon="5.69866">
        <ele>220</ele>
        <time>2021-06-06T09:18:04.824Z</time>
      </trkpt>
      <trkpt lat="45.71124" lon="5.69873">
        <ele>221</ele>
        <time>2021-06-06T09:18:09.788Z</time>
      </trkpt>
      <trkpt lat="45.7112" lon="5.69877">
        <ele>221</ele>
        <time>2021-06-06T09:18:13.795Z</time>
      </trkpt>
      <trkpt lat="45.71114" lon="5.69884">
        <ele>221</ele>
        <time>2021-06-06T09:18:18.757Z</time>
      </trkpt>
      <trkpt lat="45.71111" lon="5.6989">
        <ele>221</ele>
        <time>2021-06-06T09:18:22.830Z</time>
      </trkpt>
      <trkpt lat="45.71105" lon="5.69897">
        <ele>221</ele>
        <time>2021-06-06T09:18:27.752Z</time>
      </trkpt>
      <trkpt lat="45.71101" lon="5.69902">
        <ele>221</ele>
        <time>2021-06-06T09:18:31.747Z</time>
      </trkpt>
      <trkpt lat="45.71098" lon="5.69909">
        <ele>221</ele>
        <time>2021-06-06T09:18:35.778Z</time>
      </trkpt>
      <trkpt lat="45.71095" lon="5.69918">
        <ele>222</ele>
        <time>2021-06-06T09:18:40.766Z</time>
      </trkpt>
      <trkpt lat="45.71098" lon="5.69927">
        <ele>221</ele>
        <time>2021-06-06T09:18:45.756Z</time>
      </trkpt>
      <trkpt lat="45.71102" lon="5.69929">
        <ele>221</ele>
        <time>2021-06-06T09:18:49.799Z</time>
      </trkpt>
      <trkpt lat="45.71109" lon="5.69929">
        <ele>221</ele>
        <time>2021-06-06T09:18:54.752Z</time>
      </trkpt>
      <trkpt lat="45.71114" lon="5.6993">
        <ele>221</ele>
        <time>2021-06-06T09:18:58.785Z</time>
      </trkpt>
      <trkpt lat="45.7112" lon="5.6993">
        <ele>221</ele>
        <time>2021-06-06T09:19:03.753Z</time>
      </trkpt>
      <trkpt lat="45.71125" lon="5.69932">
        <ele>220</ele>
        <time>2021-06-06T09:19:07.785Z</time>
      </trkpt>
      <trkpt lat="45.71132" lon="5.69931">
        <ele>220</ele>
        <time>2021-06-06T09:19:12.785Z</time>
      </trkpt>
      <trkpt lat="45.71135" lon="5.69931">
        <ele>220</ele>
        <time>2021-06-06T09:19:15.755Z</time>
      </trkpt>
      <trkpt lat="45.71148" lon="5.69928">
        <ele>221</ele>
        <time>2021-06-06T09:19:24.755Z</time>
      </trkpt>
      <trkpt lat="45.71153" lon="5.69929">
        <ele>221</ele>
        <time>2021-06-06T09:19:28.798Z</time>
      </trkpt>
      <trkpt lat="45.7116" lon="5.69929">
        <ele>221</ele>
        <time>2021-06-06T09:19:33.758Z</time>
      </trkpt>
      <trkpt lat="45.71168" lon="5.6993">
        <ele>221</ele>
        <time>2021-06-06T09:19:38.744Z</time>
      </trkpt>
      <trkpt lat="45.71174" lon="5.69931">
        <ele>220</ele>
        <time>2021-06-06T09:19:42.753Z</time>
      </trkpt>
      <trkpt lat="45.71179" lon="5.69931">
        <ele>220</ele>
        <time>2021-06-06T09:19:46.758Z</time>
      </trkpt>
      <trkpt lat="45.71185" lon="5.69929">
        <ele>221</ele>
        <time>2021-06-06T09:19:51.790Z</time>
      </trkpt>
      <trkpt lat="45.7119" lon="5.69929">
        <ele>221</ele>
        <time>2021-06-06T09:19:55.800Z</time>
      </trkpt>
      <trkpt lat="45.71196" lon="5.69928">
        <ele>221</ele>
        <time>2021-06-06T09:19:59.820Z</time>
      </trkpt>
      <trkpt lat="45.71203" lon="5.69927">
        <ele>221</ele>
        <time>2021-06-06T09:20:04.755Z</time>
      </trkpt>
      <trkpt lat="45.7121" lon="5.69929">
        <ele>221</ele>
        <time>2021-06-06T09:20:09.759Z</time>
      </trkpt>
      <trkpt lat="45.71217" lon="5.69929">
        <ele>221</ele>
        <time>2021-06-06T09:20:14.758Z</time>
      </trkpt>
      <trkpt lat="45.71225" lon="5.69929">
        <ele>221</ele>
        <time>2021-06-06T09:20:19.776Z</time>
      </trkpt>
      <trkpt lat="45.71231" lon="5.69928">
        <ele>221</ele>
        <time>2021-06-06T09:20:23.752Z</time>
      </trkpt>
      <trkpt lat="45.71238" lon="5.69927">
        <ele>221</ele>
        <time>2021-06-06T09:20:28.758Z</time>
      </trkpt>
      <trkpt lat="45.71246" lon="5.69927">
        <ele>221</ele>
        <time>2021-06-06T09:20:33.759Z</time>
      </trkpt>
      <trkpt lat="45.71254" lon="5.69927">
        <ele>221</ele>
        <time>2021-06-06T09:20:38.747Z</time>
      </trkpt>
      <trkpt lat="45.7126" lon="5.69928">
        <ele>221</ele>
        <time>2021-06-06T09:20:42.758Z</time>
      </trkpt>
      <trkpt lat="45.71266" lon="5.69929">
        <ele>221</ele>
        <time>2021-06-06T09:20:46.756Z</time>
      </trkpt>
      <trkpt lat="45.71273" lon="5.69928">
        <ele>221</ele>
        <time>2021-06-06T09:20:51.751Z</time>
      </trkpt>
      <trkpt lat="45.71278" lon="5.69928">
        <ele>221</ele>
        <time>2021-06-06T09:20:55.760Z</time>
      </trkpt>
      <trkpt lat="45.71284" lon="5.69929">
        <ele>221</ele>
        <time>2021-06-06T09:20:59.757Z</time>
      </trkpt>
      <trkpt lat="45.7129" lon="5.6993">
        <ele>221</ele>
        <time>2021-06-06T09:21:04.760Z</time>
      </trkpt>
      <trkpt lat="45.71296" lon="5.69931">
        <ele>220</ele>
        <time>2021-06-06T09:21:08.793Z</time>
      </trkpt>
      <trkpt lat="45.71302" lon="5.69931">
        <ele>220</ele>
        <time>2021-06-06T09:21:13.802Z</time>
      </trkpt>
      <trkpt lat="45.71309" lon="5.69931">
        <ele>220</ele>
        <time>2021-06-06T09:21:18.793Z</time>
      </trkpt>
      <trkpt lat="45.71317" lon="5.6993">
        <ele>221</ele>
        <time>2021-06-06T09:21:23.759Z</time>
      </trkpt>
      <trkpt lat="45.71323" lon="5.69929">
        <ele>221</ele>
        <time>2021-06-06T09:21:27.760Z</time>
      </trkpt>
      <trkpt lat="45.71329" lon="5.69929">
        <ele>221</ele>
        <time>2021-06-06T09:21:32.753Z</time>
      </trkpt>
      <trkpt lat="45.71337" lon="5.69928">
        <ele>221</ele>
        <time>2021-06-06T09:21:37.752Z</time>
      </trkpt>
      <trkpt lat="45.71345" lon="5.69928">
        <ele>221</ele>
        <time>2021-06-06T09:21:42.756Z</time>
      </trkpt>
      <trkpt lat="45.71352" lon="5.69928">
        <ele>221</ele>
        <time>2021-06-06T09:21:47.756Z</time>
      </trkpt>
      <trkpt lat="45.71357" lon="5.69928">
        <ele>221</ele>
        <time>2021-06-06T09:21:51.819Z</time>
      </trkpt>
      <trkpt lat="45.71365" lon="5.69928">
        <ele>221</ele>
        <time>2021-06-06T09:21:56.793Z</time>
      </trkpt>
      <trkpt lat="45.7137" lon="5.69929">
        <ele>221</ele>
        <time>2021-06-06T09:22:00.817Z</time>
      </trkpt>
      <trkpt lat="45.71375" lon="5.69927">
        <ele>221</ele>
        <time>2021-06-06T09:22:04.830Z</time>
      </trkpt>
      <trkpt lat="45.7138" lon="5.69921">
        <ele>221</ele>
        <time>2021-06-06T09:22:09.799Z</time>
      </trkpt>
      <trkpt lat="45.71381" lon="5.6992">
        <ele>221</ele>
        <time>2021-06-06T09:22:14.793Z</time>
      </trkpt>
      <trkpt lat="45.71388" lon="5.69923">
        <ele>221</ele>
        <time>2021-06-06T09:22:19.776Z</time>
      </trkpt>
      <trkpt lat="45.71394" lon="5.69924">
        <ele>221</ele>
        <time>2021-06-06T09:22:24.778Z</time>
      </trkpt>
      <trkpt lat="45.71398" lon="5.69926">
        <ele>221</ele>
        <time>2021-06-06T09:22:28.828Z</time>
      </trkpt>
      <trkpt lat="45.71401" lon="5.69932">
        <ele>222</ele>
        <time>2021-06-06T09:22:51.800Z</time>
      </trkpt>
      <trkpt lat="45.71405" lon="5.69927">
        <ele>220</ele>
        <time>2021-06-06T09:22:56.797Z</time>
      </trkpt>
      <trkpt lat="45.7141" lon="5.69926">
        <ele>220</ele>
        <time>2021-06-06T09:23:00.811Z</time>
      </trkpt>
      <trkpt lat="45.71416" lon="5.69924">
        <ele>220</ele>
        <time>2021-06-06T09:23:05.791Z</time>
      </trkpt>
      <trkpt lat="45.71422" lon="5.69926">
        <ele>220</ele>
        <time>2021-06-06T09:23:09.793Z</time>
      </trkpt>
      <trkpt lat="45.71428" lon="5.69926">
        <ele>220</ele>
        <time>2021-06-06T09:23:13.807Z</time>
      </trkpt>
      <trkpt lat="45.71433" lon="5.69927">
        <ele>219</ele>
        <time>2021-06-06T09:23:17.812Z</time>
      </trkpt>
      <trkpt lat="45.71439" lon="5.69926">
        <ele>219</ele>
        <time>2021-06-06T09:23:22.794Z</time>
      </trkpt>
      <trkpt lat="45.71447" lon="5.69926">
        <ele>219</ele>
        <time>2021-06-06T09:23:27.769Z</time>
      </trkpt>
      <trkpt lat="45.71452" lon="5.69922">
        <ele>219</ele>
        <time>2021-06-06T09:23:31.780Z</time>
      </trkpt>
      <trkpt lat="45.71459" lon="5.69922">
        <ele>218</ele>
        <time>2021-06-06T09:23:36.793Z</time>
      </trkpt>
      <trkpt lat="45.71467" lon="5.69925">
        <ele>218</ele>
        <time>2021-06-06T09:23:41.814Z</time>
      </trkpt>
      <trkpt lat="45.71474" lon="5.69927">
        <ele>218</ele>
        <time>2021-06-06T09:23:46.787Z</time>
      </trkpt>
      <trkpt lat="45.7148" lon="5.6993">
        <ele>218</ele>
        <time>2021-06-06T09:23:51.752Z</time>
      </trkpt>
      <trkpt lat="45.71486" lon="5.6993">
        <ele>218</ele>
        <time>2021-06-06T09:23:55.832Z</time>
      </trkpt>
      <trkpt lat="45.71493" lon="5.69928">
        <ele>218</ele>
        <time>2021-06-06T09:24:00.819Z</time>
      </trkpt>
      <trkpt lat="45.715" lon="5.69926">
        <ele>218</ele>
        <time>2021-06-06T09:24:05.780Z</time>
      </trkpt>
      <trkpt lat="45.71506" lon="5.69926">
        <ele>218</ele>
        <time>2021-06-06T09:24:09.825Z</time>
      </trkpt>
      <trkpt lat="45.71514" lon="5.69926">
        <ele>219</ele>
        <time>2021-06-06T09:24:14.799Z</time>
      </trkpt>
      <trkpt lat="45.7152" lon="5.69926">
        <ele>219</ele>
        <time>2021-06-06T09:24:18.822Z</time>
      </trkpt>
      <trkpt lat="45.71527" lon="5.69927">
        <ele>219</ele>
        <time>2021-06-06T09:24:23.810Z</time>
      </trkpt>
      <trkpt lat="45.71532" lon="5.69926">
        <ele>219</ele>
        <time>2021-06-06T09:24:27.825Z</time>
      </trkpt>
      <trkpt lat="45.71538" lon="5.69925">
        <ele>219</ele>
        <time>2021-06-06T09:24:31.829Z</time>
      </trkpt>
      <trkpt lat="45.71545" lon="5.69924">
        <ele>220</ele>
        <time>2021-06-06T09:24:36.789Z</time>
      </trkpt>
      <trkpt lat="45.71551" lon="5.69923">
        <ele>220</ele>
        <time>2021-06-06T09:24:40.834Z</time>
      </trkpt>
      <trkpt lat="45.71559" lon="5.69921">
        <ele>220</ele>
        <time>2021-06-06T09:24:45.816Z</time>
      </trkpt>
      <trkpt lat="45.71564" lon="5.69918">
        <ele>220</ele>
        <time>2021-06-06T09:24:49.839Z</time>
      </trkpt>
      <trkpt lat="45.71572" lon="5.69921">
        <ele>219</ele>
        <time>2021-06-06T09:24:54.780Z</time>
      </trkpt>
      <trkpt lat="45.71579" lon="5.69922">
        <ele>219</ele>
        <time>2021-06-06T09:24:59.792Z</time>
      </trkpt>
      <trkpt lat="45.71586" lon="5.69923">
        <ele>219</ele>
        <time>2021-06-06T09:25:03.798Z</time>
      </trkpt>
      <trkpt lat="45.71595" lon="5.69921">
        <ele>219</ele>
        <time>2021-06-06T09:25:07.849Z</time>
      </trkpt>
      <trkpt lat="45.71613" lon="5.69918">
        <ele>220</ele>
        <time>2021-06-06T09:25:12.795Z</time>
      </trkpt>
      <trkpt lat="45.71633" lon="5.69918">
        <ele>223</ele>
        <time>2021-06-06T09:25:17.787Z</time>
      </trkpt>
      <trkpt lat="45.71649" lon="5.69918">
        <ele>223</ele>
        <time>2021-06-06T09:25:21.793Z</time>
      </trkpt>
      <trkpt lat="45.7167" lon="5.69917">
        <ele>223</ele>
        <time>2021-06-06T09:25:26.822Z</time>
      </trkpt>
      <trkpt lat="45.71691" lon="5.69917">
        <ele>222</ele>
        <time>2021-06-06T09:25:31.820Z</time>
      </trkpt>
      <trkpt lat="45.71709" lon="5.69918">
        <ele>222</ele>
        <time>2021-06-06T09:25:36.784Z</time>
      </trkpt>
      <trkpt lat="45.71726" lon="5.69919">
        <ele>222</ele>
        <time>2021-06-06T09:25:40.797Z</time>
      </trkpt>
      <trkpt lat="45.71734" lon="5.69914">
        <ele>222</ele>
        <time>2021-06-06T09:25:44.823Z</time>
      </trkpt>
      <trkpt lat="45.71745" lon="5.69911">
        <ele>221</ele>
        <time>2021-06-06T09:25:49.786Z</time>
      </trkpt>
      <trkpt lat="45.71757" lon="5.6991">
        <ele>221</ele>
        <time>2021-06-06T09:25:54.775Z</time>
      </trkpt>
      <trkpt lat="45.71767" lon="5.6991">
        <ele>221</ele>
        <time>2021-06-06T09:25:58.843Z</time>
      </trkpt>
      <trkpt lat="45.71778" lon="5.6991">
        <ele>221</ele>
        <time>2021-06-06T09:26:03.784Z</time>
      </trkpt>
      <trkpt lat="45.71789" lon="5.69909">
        <ele>221</ele>
        <time>2021-06-06T09:26:08.823Z</time>
      </trkpt>
      <trkpt lat="45.71797" lon="5.69907">
        <ele>220</ele>
        <time>2021-06-06T09:26:12.827Z</time>
      </trkpt>
      <trkpt lat="45.71809" lon="5.69909">
        <ele>220</ele>
        <time>2021-06-06T09:26:17.793Z</time>
      </trkpt>
      <trkpt lat="45.7182" lon="5.69908">
        <ele>221</ele>
        <time>2021-06-06T09:26:22.784Z</time>
      </trkpt>
      <trkpt lat="45.71829" lon="5.69911">
        <ele>221</ele>
        <time>2021-06-06T09:26:26.784Z</time>
      </trkpt>
      <trkpt lat="45.7204" lon="5.69909">
        <ele>223</ele>
        <time>2021-06-06T09:28:06.757Z</time>
      </trkpt>
      <trkpt lat="45.7205" lon="5.6991">
        <ele>223</ele>
        <time>2021-06-06T09:28:11.796Z</time>
      </trkpt>
      <trkpt lat="45.72059" lon="5.69909">
        <ele>223</ele>
        <time>2021-06-06T09:28:15.793Z</time>
      </trkpt>
      <trkpt lat="45.72069" lon="5.6991">
        <ele>223</ele>
        <time>2021-06-06T09:28:20.794Z</time>
      </trkpt>
      <trkpt lat="45.72078" lon="5.69911">
        <ele>223</ele>
        <time>2021-06-06T09:28:25.830Z</time>
      </trkpt>
      <trkpt lat="45.72088" lon="5.69911">
        <ele>223</ele>
        <time>2021-06-06T09:28:30.754Z</time>
      </trkpt>
      <trkpt lat="45.72097" lon="5.6991">
        <ele>223</ele>
        <time>2021-06-06T09:28:34.788Z</time>
      </trkpt>
      <trkpt lat="45.72107" lon="5.69905">
        <ele>222</ele>
        <time>2021-06-06T09:28:39.781Z</time>
      </trkpt>
      <trkpt lat="45.72115" lon="5.69901">
        <ele>226</ele>
        <time>2021-06-06T09:28:43.796Z</time>
      </trkpt>
      <trkpt lat="45.72126" lon="5.69896">
        <ele>227</ele>
        <time>2021-06-06T09:28:48.776Z</time>
      </trkpt>
      <trkpt lat="45.72134" lon="5.6989">
        <ele>227</ele>
        <time>2021-06-06T09:28:52.786Z</time>
      </trkpt>
      <trkpt lat="45.7214" lon="5.69879">
        <ele>227</ele>
        <time>2021-06-06T09:28:57.815Z</time>
      </trkpt>
      <trkpt lat="45.72145" lon="5.69868">
        <ele>228</ele>
        <time>2021-06-06T09:29:02.791Z</time>
      </trkpt>
      <trkpt lat="45.72151" lon="5.69861">
        <ele>228</ele>
        <time>2021-06-06T09:29:06.821Z</time>
      </trkpt>
      <trkpt lat="45.72158" lon="5.69851">
        <ele>230</ele>
        <time>2021-06-06T09:29:11.798Z</time>
      </trkpt>
      <trkpt lat="45.72163" lon="5.69843">
        <ele>230</ele>
        <time>2021-06-06T09:29:15.821Z</time>
      </trkpt>
      <trkpt lat="45.72174" lon="5.69829">
        <ele>230</ele>
        <time>2021-06-06T09:29:20.789Z</time>
      </trkpt>
      <trkpt lat="45.72183" lon="5.69821">
        <ele>232</ele>
        <time>2021-06-06T09:29:24.811Z</time>
      </trkpt>
      <trkpt lat="45.72197" lon="5.69814">
        <ele>232</ele>
        <time>2021-06-06T09:29:29.783Z</time>
      </trkpt>
      <trkpt lat="45.72209" lon="5.69809">
        <ele>231</ele>
        <time>2021-06-06T09:29:33.797Z</time>
      </trkpt>
      <trkpt lat="45.72221" lon="5.69807">
        <ele>231</ele>
        <time>2021-06-06T09:29:37.801Z</time>
      </trkpt>
      <trkpt lat="45.72236" lon="5.69806">
        <ele>231</ele>
        <time>2021-06-06T09:29:42.818Z</time>
      </trkpt>
      <trkpt lat="45.72247" lon="5.69804">
        <ele>229</ele>
        <time>2021-06-06T09:29:46.829Z</time>
      </trkpt>
      <trkpt lat="45.7226" lon="5.69802">
        <ele>229</ele>
        <time>2021-06-06T09:29:51.821Z</time>
      </trkpt>
      <trkpt lat="45.72269" lon="5.69798">
        <ele>227</ele>
        <time>2021-06-06T09:29:55.830Z</time>
      </trkpt>
      <trkpt lat="45.72279" lon="5.69796">
        <ele>227</ele>
        <time>2021-06-06T09:30:00.781Z</time>
      </trkpt>
      <trkpt lat="45.72289" lon="5.69791">
        <ele>232</ele>
        <time>2021-06-06T09:30:05.778Z</time>
      </trkpt>
      <trkpt lat="45.72299" lon="5.69787">
        <ele>229</ele>
        <time>2021-06-06T09:30:10.800Z</time>
      </trkpt>
      <trkpt lat="45.72306" lon="5.69784">
        <ele>229</ele>
        <time>2021-06-06T09:30:14.808Z</time>
      </trkpt>
      <trkpt lat="45.72314" lon="5.69781">
        <ele>229</ele>
        <time>2021-06-06T09:30:19.777Z</time>
      </trkpt>
      <trkpt lat="45.72321" lon="5.69779">
        <ele>224</ele>
        <time>2021-06-06T09:30:23.843Z</time>
      </trkpt>
      <trkpt lat="45.72329" lon="5.69777">
        <ele>224</ele>
        <time>2021-06-06T09:30:28.789Z</time>
      </trkpt>
      <trkpt lat="45.72336" lon="5.69775">
        <ele>224</ele>
        <time>2021-06-06T09:30:32.848Z</time>
      </trkpt>
      <trkpt lat="45.72343" lon="5.69771">
        <ele>224</ele>
        <time>2021-06-06T09:30:37.784Z</time>
      </trkpt>
      <trkpt lat="45.72352" lon="5.69768">
        <ele>224</ele>
        <time>2021-06-06T09:30:42.800Z</time>
      </trkpt>
      <trkpt lat="45.72359" lon="5.69765">
        <ele>224</ele>
        <time>2021-06-06T09:30:47.789Z</time>
      </trkpt>
      <trkpt lat="45.72366" lon="5.69761">
        <ele>226</ele>
        <time>2021-06-06T09:30:52.751Z</time>
      </trkpt>
      <trkpt lat="45.72372" lon="5.69758">
        <ele>226</ele>
        <time>2021-06-06T09:30:56.785Z</time>
      </trkpt>
      <trkpt lat="45.72377" lon="5.69757">
        <ele>224</ele>
        <time>2021-06-06T09:31:00.787Z</time>
      </trkpt>
      <trkpt lat="45.72383" lon="5.69754">
        <ele>224</ele>
        <time>2021-06-06T09:31:04.847Z</time>
      </trkpt>
      <trkpt lat="45.72389" lon="5.69752">
        <ele>224</ele>
        <time>2021-06-06T09:31:09.828Z</time>
      </trkpt>
      <trkpt lat="45.72395" lon="5.69748">
        <ele>224</ele>
        <time>2021-06-06T09:31:14.788Z</time>
      </trkpt>
      <trkpt lat="45.724" lon="5.69746">
        <ele>224</ele>
        <time>2021-06-06T09:31:18.833Z</time>
      </trkpt>
      <trkpt lat="45.72407" lon="5.69744">
        <ele>223</ele>
        <time>2021-06-06T09:31:23.823Z</time>
      </trkpt>
      <trkpt lat="45.72414" lon="5.69743">
        <ele>223</ele>
        <time>2021-06-06T09:31:28.794Z</time>
      </trkpt>
      <trkpt lat="45.72422" lon="5.69739">
        <ele>223</ele>
        <time>2021-06-06T09:31:33.817Z</time>
      </trkpt>
      <trkpt lat="45.72429" lon="5.69734">
        <ele>225</ele>
        <time>2021-06-06T09:31:38.825Z</time>
      </trkpt>
      <trkpt lat="45.72436" lon="5.69729">
        <ele>226</ele>
        <time>2021-06-06T09:31:43.795Z</time>
      </trkpt>
      <trkpt lat="45.72441" lon="5.69727">
        <ele>226</ele>
        <time>2021-06-06T09:31:47.793Z</time>
      </trkpt>
      <trkpt lat="45.72446" lon="5.69724">
        <ele>226</ele>
        <time>2021-06-06T09:31:51.820Z</time>
      </trkpt>
      <trkpt lat="45.72453" lon="5.69719">
        <ele>226</ele>
        <time>2021-06-06T09:31:56.789Z</time>
      </trkpt>
      <trkpt lat="45.72458" lon="5.69714">
        <ele>226</ele>
        <time>2021-06-06T09:32:01.749Z</time>
      </trkpt>
      <trkpt lat="45.72464" lon="5.69707">
        <ele>229</ele>
        <time>2021-06-06T09:32:06.740Z</time>
      </trkpt>
      <trkpt lat="45.72472" lon="5.69704">
        <ele>229</ele>
        <time>2021-06-06T09:32:10.746Z</time>
      </trkpt>
      <trkpt lat="45.72481" lon="5.697">
        <ele>229</ele>
        <time>2021-06-06T09:32:15.749Z</time>
      </trkpt>
      <trkpt lat="45.72488" lon="5.69697">
        <ele>227</ele>
        <time>2021-06-06T09:32:20.754Z</time>
      </trkpt>
      <trkpt lat="45.72495" lon="5.69693">
        <ele>227</ele>
        <time>2021-06-06T09:32:25.746Z</time>
      </trkpt>
      <trkpt lat="45.72504" lon="5.69689">
        <ele>227</ele>
        <time>2021-06-06T09:32:30.749Z</time>
      </trkpt>
      <trkpt lat="45.72514" lon="5.69683">
        <ele>226</ele>
        <time>2021-06-06T09:32:35.746Z</time>
      </trkpt>
      <trkpt lat="45.72522" lon="5.69679">
        <ele>227</ele>
        <time>2021-06-06T09:32:40.743Z</time>
      </trkpt>
      <trkpt lat="45.72527" lon="5.69676">
        <ele>227</ele>
        <time>2021-06-06T09:32:44.740Z</time>
      </trkpt>
      <trkpt lat="45.72532" lon="5.69673">
        <ele>227</ele>
        <time>2021-06-06T09:32:48.743Z</time>
      </trkpt>
      <trkpt lat="45.72539" lon="5.6967">
        <ele>227</ele>
        <time>2021-06-06T09:32:53.740Z</time>
      </trkpt>
      <trkpt lat="45.72545" lon="5.69668">
        <ele>228</ele>
        <time>2021-06-06T09:32:57.746Z</time>
      </trkpt>
      <trkpt lat="45.72552" lon="5.69666">
        <ele>228</ele>
        <time>2021-06-06T09:33:02.744Z</time>
      </trkpt>
      <trkpt lat="45.72559" lon="5.69666">
        <ele>228</ele>
        <time>2021-06-06T09:33:07.746Z</time>
      </trkpt>
      <trkpt lat="45.72566" lon="5.69666">
        <ele>228</ele>
        <time>2021-06-06T09:33:12.744Z</time>
      </trkpt>
      <trkpt lat="45.72574" lon="5.69663">
        <ele>228</ele>
        <time>2021-06-06T09:33:17.754Z</time>
      </trkpt>
      <trkpt lat="45.72581" lon="5.69662">
        <ele>228</ele>
        <time>2021-06-06T09:33:22.747Z</time>
      </trkpt>
      <trkpt lat="45.72588" lon="5.69661">
        <ele>228</ele>
        <time>2021-06-06T09:33:26.745Z</time>
      </trkpt>
      <trkpt lat="45.72596" lon="5.69661">
        <ele>228</ele>
        <time>2021-06-06T09:33:31.742Z</time>
      </trkpt>
      <trkpt lat="45.72603" lon="5.6966">
        <ele>227</ele>
        <time>2021-06-06T09:33:35.747Z</time>
      </trkpt>
      <trkpt lat="45.72611" lon="5.69659">
        <ele>227</ele>
        <time>2021-06-06T09:33:40.748Z</time>
      </trkpt>
      <trkpt lat="45.72618" lon="5.69661">
        <ele>227</ele>
        <time>2021-06-06T09:33:45.747Z</time>
      </trkpt>
      <trkpt lat="45.72625" lon="5.69662">
        <ele>227</ele>
        <time>2021-06-06T09:33:50.741Z</time>
      </trkpt>
      <trkpt lat="45.72632" lon="5.69662">
        <ele>227</ele>
        <time>2021-06-06T09:33:54.745Z</time>
      </trkpt>
      <trkpt lat="45.7264" lon="5.69664">
        <ele>227</ele>
        <time>2021-06-06T09:33:59.751Z</time>
      </trkpt>
      <trkpt lat="45.72648" lon="5.69667">
        <ele>227</ele>
        <time>2021-06-06T09:34:04.745Z</time>
      </trkpt>
      <trkpt lat="45.72655" lon="5.69672">
        <ele>227</ele>
        <time>2021-06-06T09:34:09.746Z</time>
      </trkpt>
      <trkpt lat="45.72662" lon="5.69678">
        <ele>227</ele>
        <time>2021-06-06T09:34:14.746Z</time>
      </trkpt>
      <trkpt lat="45.72669" lon="5.69683">
        <ele>226</ele>
        <time>2021-06-06T09:34:19.746Z</time>
      </trkpt>
      <trkpt lat="45.72676" lon="5.69686">
        <ele>226</ele>
        <time>2021-06-06T09:34:24.748Z</time>
      </trkpt>
      <trkpt lat="45.72682" lon="5.6969">
        <ele>228</ele>
        <time>2021-06-06T09:34:29.746Z</time>
      </trkpt>
      <trkpt lat="45.72687" lon="5.69697">
        <ele>228</ele>
        <time>2021-06-06T09:34:34.743Z</time>
      </trkpt>
      <trkpt lat="45.72692" lon="5.69703">
        <ele>228</ele>
        <time>2021-06-06T09:34:39.745Z</time>
      </trkpt>
      <trkpt lat="45.72699" lon="5.69706">
        <ele>228</ele>
        <time>2021-06-06T09:34:44.749Z</time>
      </trkpt>
      <trkpt lat="45.72705" lon="5.69706">
        <ele>228</ele>
        <time>2021-06-06T09:34:49.749Z</time>
      </trkpt>
      <trkpt lat="45.72712" lon="5.69708">
        <ele>228</ele>
        <time>2021-06-06T09:34:54.746Z</time>
      </trkpt>
      <trkpt lat="45.72719" lon="5.69707">
        <ele>228</ele>
        <time>2021-06-06T09:34:59.745Z</time>
      </trkpt>
      <trkpt lat="45.72725" lon="5.69705">
        <ele>228</ele>
        <time>2021-06-06T09:35:03.747Z</time>
      </trkpt>
      <trkpt lat="45.72732" lon="5.69704">
        <ele>228</ele>
        <time>2021-06-06T09:35:08.745Z</time>
      </trkpt>
      <trkpt lat="45.72737" lon="5.69705">
        <ele>228</ele>
        <time>2021-06-06T09:35:12.745Z</time>
      </trkpt>
      <trkpt lat="45.72744" lon="5.69705">
        <ele>228</ele>
        <time>2021-06-06T09:35:17.745Z</time>
      </trkpt>
      <trkpt lat="45.7275" lon="5.69705">
        <ele>228</ele>
        <time>2021-06-06T09:35:21.743Z</time>
      </trkpt>
      <trkpt lat="45.72757" lon="5.69705">
        <ele>228</ele>
        <time>2021-06-06T09:35:26.742Z</time>
      </trkpt>
      <trkpt lat="45.72762" lon="5.69705">
        <ele>228</ele>
        <time>2021-06-06T09:35:30.752Z</time>
      </trkpt>
      <trkpt lat="45.72768" lon="5.69706">
        <ele>228</ele>
        <time>2021-06-06T09:35:34.747Z</time>
      </trkpt>
      <trkpt lat="45.72775" lon="5.69705">
        <ele>228</ele>
        <time>2021-06-06T09:35:39.745Z</time>
      </trkpt>
      <trkpt lat="45.72781" lon="5.69705">
        <ele>228</ele>
        <time>2021-06-06T09:35:43.747Z</time>
      </trkpt>
      <trkpt lat="45.72786" lon="5.69706">
        <ele>228</ele>
        <time>2021-06-06T09:35:47.756Z</time>
      </trkpt>
      <trkpt lat="45.72792" lon="5.69706">
        <ele>228</ele>
        <time>2021-06-06T09:35:52.749Z</time>
      </trkpt>
      <trkpt lat="45.72799" lon="5.69707">
        <ele>228</ele>
        <time>2021-06-06T09:35:57.757Z</time>
      </trkpt>
      <trkpt lat="45.72806" lon="5.69708">
        <ele>228</ele>
        <time>2021-06-06T09:36:02.746Z</time>
      </trkpt>
      <trkpt lat="45.72814" lon="5.69709">
        <ele>229</ele>
        <time>2021-06-06T09:36:07.746Z</time>
      </trkpt>
      <trkpt lat="45.72819" lon="5.69713">
        <ele>229</ele>
        <time>2021-06-06T09:36:12.749Z</time>
      </trkpt>
      <trkpt lat="45.72823" lon="5.69713">
        <ele>228</ele>
        <time>2021-06-06T09:36:17.752Z</time>
      </trkpt>
      <trkpt lat="45.72826" lon="5.69712">
        <ele>228</ele>
        <time>2021-06-06T09:36:21.753Z</time>
      </trkpt>
      <trkpt lat="45.72832" lon="5.69714">
        <ele>228</ele>
        <time>2021-06-06T09:36:26.744Z</time>
      </trkpt>
      <trkpt lat="45.72838" lon="5.69717">
        <ele>228</ele>
        <time>2021-06-06T09:36:30.754Z</time>
      </trkpt>
      <trkpt lat="45.72843" lon="5.69719">
        <ele>228</ele>
        <time>2021-06-06T09:36:34.754Z</time>
      </trkpt>
      <trkpt lat="45.7285" lon="5.69719">
        <ele>228</ele>
        <time>2021-06-06T09:36:39.756Z</time>
      </trkpt>
      <trkpt lat="45.72857" lon="5.6972">
        <ele>228</ele>
        <time>2021-06-06T09:36:44.754Z</time>
      </trkpt>
      <trkpt lat="45.72863" lon="5.69721">
        <ele>228</ele>
        <time>2021-06-06T09:36:49.754Z</time>
      </trkpt>
      <trkpt lat="45.7287" lon="5.69723">
        <ele>228</ele>
        <time>2021-06-06T09:36:54.748Z</time>
      </trkpt>
      <trkpt lat="45.72877" lon="5.69723">
        <ele>226</ele>
        <time>2021-06-06T09:36:59.751Z</time>
      </trkpt>
      <trkpt lat="45.72884" lon="5.69726">
        <ele>226</ele>
        <time>2021-06-06T09:37:04.750Z</time>
      </trkpt>
      <trkpt lat="45.72889" lon="5.69727">
        <ele>226</ele>
        <time>2021-06-06T09:37:09.750Z</time>
      </trkpt>
      <trkpt lat="45.72895" lon="5.6973">
        <ele>226</ele>
        <time>2021-06-06T09:37:14.757Z</time>
      </trkpt>
      <trkpt lat="45.72902" lon="5.69732">
        <ele>226</ele>
        <time>2021-06-06T09:37:19.751Z</time>
      </trkpt>
      <trkpt lat="45.72908" lon="5.69734">
        <ele>226</ele>
        <time>2021-06-06T09:37:23.751Z</time>
      </trkpt>
      <trkpt lat="45.72915" lon="5.69736">
        <ele>226</ele>
        <time>2021-06-06T09:37:28.753Z</time>
      </trkpt>
      <trkpt lat="45.72922" lon="5.69738">
        <ele>226</ele>
        <time>2021-06-06T09:37:33.754Z</time>
      </trkpt>
      <trkpt lat="45.72929" lon="5.6974">
        <ele>226</ele>
        <time>2021-06-06T09:37:38.754Z</time>
      </trkpt>
      <trkpt lat="45.72936" lon="5.69743">
        <ele>227</ele>
        <time>2021-06-06T09:37:43.755Z</time>
      </trkpt>
      <trkpt lat="45.72943" lon="5.69746">
        <ele>227</ele>
        <time>2021-06-06T09:37:48.760Z</time>
      </trkpt>
      <trkpt lat="45.72948" lon="5.69749">
        <ele>227</ele>
        <time>2021-06-06T09:37:52.757Z</time>
      </trkpt>
      <trkpt lat="45.72954" lon="5.69752">
        <ele>227</ele>
        <time>2021-06-06T09:37:57.750Z</time>
      </trkpt>
      <trkpt lat="45.7296" lon="5.69754">
        <ele>227</ele>
        <time>2021-06-06T09:38:01.759Z</time>
      </trkpt>
      <trkpt lat="45.72966" lon="5.69758">
        <ele>227</ele>
        <time>2021-06-06T09:38:06.742Z</time>
      </trkpt>
      <trkpt lat="45.72971" lon="5.69761">
        <ele>227</ele>
        <time>2021-06-06T09:38:10.750Z</time>
      </trkpt>
      <trkpt lat="45.72976" lon="5.69763">
        <ele>227</ele>
        <time>2021-06-06T09:38:14.784Z</time>
      </trkpt>
      <trkpt lat="45.72981" lon="5.69766">
        <ele>227</ele>
        <time>2021-06-06T09:38:18.798Z</time>
      </trkpt>
      <trkpt lat="45.72989" lon="5.6977">
        <ele>227</ele>
        <time>2021-06-06T09:38:23.778Z</time>
      </trkpt>
      <trkpt lat="45.72995" lon="5.69771">
        <ele>227</ele>
        <time>2021-06-06T09:38:27.792Z</time>
      </trkpt>
      <trkpt lat="45.73001" lon="5.69775">
        <ele>227</ele>
        <time>2021-06-06T09:38:32.833Z</time>
      </trkpt>
      <trkpt lat="45.73008" lon="5.69778">
        <ele>227</ele>
        <time>2021-06-06T09:38:37.790Z</time>
      </trkpt>
      <trkpt lat="45.73014" lon="5.69782">
        <ele>226</ele>
        <time>2021-06-06T09:38:42.780Z</time>
      </trkpt>
      <trkpt lat="45.73019" lon="5.69786">
        <ele>226</ele>
        <time>2021-06-06T09:38:46.820Z</time>
      </trkpt>
      <trkpt lat="45.73026" lon="5.6979">
        <ele>226</ele>
        <time>2021-06-06T09:38:51.744Z</time>
      </trkpt>
      <trkpt lat="45.73032" lon="5.69795">
        <ele>226</ele>
        <time>2021-06-06T09:38:55.789Z</time>
      </trkpt>
      <trkpt lat="45.73038" lon="5.69798">
        <ele>226</ele>
        <time>2021-06-06T09:39:00.793Z</time>
      </trkpt>
      <trkpt lat="45.73045" lon="5.69802">
        <ele>228</ele>
        <time>2021-06-06T09:39:05.743Z</time>
      </trkpt>
      <trkpt lat="45.73051" lon="5.69806">
        <ele>228</ele>
        <time>2021-06-06T09:39:09.743Z</time>
      </trkpt>
      <trkpt lat="45.73058" lon="5.6981">
        <ele>228</ele>
        <time>2021-06-06T09:39:14.737Z</time>
      </trkpt>
      <trkpt lat="45.73063" lon="5.69814">
        <ele>228</ele>
        <time>2021-06-06T09:39:18.741Z</time>
      </trkpt>
      <trkpt lat="45.73068" lon="5.69818">
        <ele>228</ele>
        <time>2021-06-06T09:39:22.755Z</time>
      </trkpt>
      <trkpt lat="45.73074" lon="5.69822">
        <ele>230</ele>
        <time>2021-06-06T09:39:27.743Z</time>
      </trkpt>
      <trkpt lat="45.73078" lon="5.69825">
        <ele>230</ele>
        <time>2021-06-06T09:39:31.742Z</time>
      </trkpt>
      <trkpt lat="45.73083" lon="5.69829">
        <ele>230</ele>
        <time>2021-06-06T09:39:35.750Z</time>
      </trkpt>
      <trkpt lat="45.73089" lon="5.69833">
        <ele>230</ele>
        <time>2021-06-06T09:39:40.742Z</time>
      </trkpt>
      <trkpt lat="45.73095" lon="5.69837">
        <ele>230</ele>
        <time>2021-06-06T09:39:45.750Z</time>
      </trkpt>
      <trkpt lat="45.73101" lon="5.69842">
        <ele>227</ele>
        <time>2021-06-06T09:39:50.740Z</time>
      </trkpt>
      <trkpt lat="45.73106" lon="5.69846">
        <ele>227</ele>
        <time>2021-06-06T09:39:54.747Z</time>
      </trkpt>
      <trkpt lat="45.73112" lon="5.6985">
        <ele>228</ele>
        <time>2021-06-06T09:39:59.744Z</time>
      </trkpt>
      <trkpt lat="45.73119" lon="5.69856">
        <ele>228</ele>
        <time>2021-06-06T09:40:04.747Z</time>
      </trkpt>
      <trkpt lat="45.73125" lon="5.69861">
        <ele>227</ele>
        <time>2021-06-06T09:40:09.743Z</time>
      </trkpt>
      <trkpt lat="45.73131" lon="5.69864">
        <ele>227</ele>
        <time>2021-06-06T09:40:13.747Z</time>
      </trkpt>
      <trkpt lat="45.73137" lon="5.69869">
        <ele>227</ele>
        <time>2021-06-06T09:40:18.749Z</time>
      </trkpt>
      <trkpt lat="45.73144" lon="5.69874">
        <ele>227</ele>
        <time>2021-06-06T09:40:23.748Z</time>
      </trkpt>
      <trkpt lat="45.73151" lon="5.69878">
        <ele>229</ele>
        <time>2021-06-06T09:40:28.749Z</time>
      </trkpt>
      <trkpt lat="45.73157" lon="5.69879">
        <ele>228</ele>
        <time>2021-06-06T09:40:33.748Z</time>
      </trkpt>
      <trkpt lat="45.73162" lon="5.69882">
        <ele>228</ele>
        <time>2021-06-06T09:40:37.750Z</time>
      </trkpt>
      <trkpt lat="45.7317" lon="5.69886">
        <ele>228</ele>
        <time>2021-06-06T09:40:42.752Z</time>
      </trkpt>
      <trkpt lat="45.73175" lon="5.69887">
        <ele>228</ele>
        <time>2021-06-06T09:40:46.779Z</time>
      </trkpt>
      <trkpt lat="45.73182" lon="5.69888">
        <ele>229</ele>
        <time>2021-06-06T09:40:51.749Z</time>
      </trkpt>
      <trkpt lat="45.73189" lon="5.69892">
        <ele>229</ele>
        <time>2021-06-06T09:40:56.759Z</time>
      </trkpt>
      <trkpt lat="45.73195" lon="5.69894">
        <ele>229</ele>
        <time>2021-06-06T09:41:00.751Z</time>
      </trkpt>
      <trkpt lat="45.73201" lon="5.69897">
        <ele>229</ele>
        <time>2021-06-06T09:41:05.755Z</time>
      </trkpt>
      <trkpt lat="45.73208" lon="5.699">
        <ele>229</ele>
        <time>2021-06-06T09:41:10.751Z</time>
      </trkpt>
      <trkpt lat="45.73214" lon="5.69904">
        <ele>230</ele>
        <time>2021-06-06T09:41:15.744Z</time>
      </trkpt>
      <trkpt lat="45.73221" lon="5.69908">
        <ele>230</ele>
        <time>2021-06-06T09:41:20.748Z</time>
      </trkpt>
      <trkpt lat="45.73228" lon="5.69912">
        <ele>230</ele>
        <time>2021-06-06T09:41:25.747Z</time>
      </trkpt>
      <trkpt lat="45.73234" lon="5.69916">
        <ele>230</ele>
        <time>2021-06-06T09:41:30.749Z</time>
      </trkpt>
      <trkpt lat="45.7324" lon="5.6992">
        <ele>229</ele>
        <time>2021-06-06T09:41:35.748Z</time>
      </trkpt>
      <trkpt lat="45.73246" lon="5.69925">
        <ele>229</ele>
        <time>2021-06-06T09:41:40.747Z</time>
      </trkpt>
      <trkpt lat="45.73252" lon="5.69929">
        <ele>229</ele>
        <time>2021-06-06T09:41:44.747Z</time>
      </trkpt>
      <trkpt lat="45.73258" lon="5.69933">
        <ele>229</ele>
        <time>2021-06-06T09:41:49.750Z</time>
      </trkpt>
      <trkpt lat="45.73263" lon="5.69937">
        <ele>229</ele>
        <time>2021-06-06T09:41:53.752Z</time>
      </trkpt>
      <trkpt lat="45.7327" lon="5.69942">
        <ele>229</ele>
        <time>2021-06-06T09:41:58.753Z</time>
      </trkpt>
      <trkpt lat="45.73275" lon="5.69946">
        <ele>229</ele>
        <time>2021-06-06T09:42:02.751Z</time>
      </trkpt>
      <trkpt lat="45.73282" lon="5.69952">
        <ele>229</ele>
        <time>2021-06-06T09:42:07.749Z</time>
      </trkpt>
      <trkpt lat="45.73288" lon="5.69957">
        <ele>229</ele>
        <time>2021-06-06T09:42:12.756Z</time>
      </trkpt>
      <trkpt lat="45.73295" lon="5.69962">
        <ele>229</ele>
        <time>2021-06-06T09:42:17.755Z</time>
      </trkpt>
      <trkpt lat="45.733" lon="5.69969">
        <ele>229</ele>
        <time>2021-06-06T09:42:22.751Z</time>
      </trkpt>
      <trkpt lat="45.73304" lon="5.69975">
        <ele>229</ele>
        <time>2021-06-06T09:42:26.747Z</time>
      </trkpt>
      <trkpt lat="45.73311" lon="5.69982">
        <ele>229</ele>
        <time>2021-06-06T09:42:31.748Z</time>
      </trkpt>
      <trkpt lat="45.73318" lon="5.69988">
        <ele>229</ele>
        <time>2021-06-06T09:42:36.757Z</time>
      </trkpt>
      <trkpt lat="45.73322" lon="5.69994">
        <ele>230</ele>
        <time>2021-06-06T09:42:40.755Z</time>
      </trkpt>
      <trkpt lat="45.73327" lon="5.69998">
        <ele>230</ele>
        <time>2021-06-06T09:42:44.752Z</time>
      </trkpt>
      <trkpt lat="45.73334" lon="5.70002">
        <ele>230</ele>
        <time>2021-06-06T09:42:49.741Z</time>
      </trkpt>
      <trkpt lat="45.7334" lon="5.70006">
        <ele>230</ele>
        <time>2021-06-06T09:42:53.751Z</time>
      </trkpt>
      <trkpt lat="45.73347" lon="5.70009">
        <ele>230</ele>
        <time>2021-06-06T09:42:58.755Z</time>
      </trkpt>
      <trkpt lat="45.73354" lon="5.70013">
        <ele>231</ele>
        <time>2021-06-06T09:43:03.756Z</time>
      </trkpt>
      <trkpt lat="45.73361" lon="5.70018">
        <ele>231</ele>
        <time>2021-06-06T09:43:08.749Z</time>
      </trkpt>
      <trkpt lat="45.73367" lon="5.70023">
        <ele>231</ele>
        <time>2021-06-06T09:43:13.753Z</time>
      </trkpt>
      <trkpt lat="45.73374" lon="5.70023">
        <ele>231</ele>
        <time>2021-06-06T09:43:18.753Z</time>
      </trkpt>
      <trkpt lat="45.73381" lon="5.70027">
        <ele>233</ele>
        <time>2021-06-06T09:43:23.754Z</time>
      </trkpt>
      <trkpt lat="45.73387" lon="5.70033">
        <ele>233</ele>
        <time>2021-06-06T09:43:28.750Z</time>
      </trkpt>
      <trkpt lat="45.73395" lon="5.70036">
        <ele>233</ele>
        <time>2021-06-06T09:43:33.752Z</time>
      </trkpt>
      <trkpt lat="45.73401" lon="5.70041">
        <ele>233</ele>
        <time>2021-06-06T09:43:38.744Z</time>
      </trkpt>
      <trkpt lat="45.73408" lon="5.70045">
        <ele>231</ele>
        <time>2021-06-06T09:43:43.751Z</time>
      </trkpt>
      <trkpt lat="45.73416" lon="5.70049">
        <ele>231</ele>
        <time>2021-06-06T09:43:48.749Z</time>
      </trkpt>
      <trkpt lat="45.73422" lon="5.70055">
        <ele>231</ele>
        <time>2021-06-06T09:43:53.749Z</time>
      </trkpt>
      <trkpt lat="45.73429" lon="5.7006">
        <ele>231</ele>
        <time>2021-06-06T09:43:58.747Z</time>
      </trkpt>
      <trkpt lat="45.73435" lon="5.70066">
        <ele>229</ele>
        <time>2021-06-06T09:44:03.752Z</time>
      </trkpt>
      <trkpt lat="45.73441" lon="5.70072">
        <ele>228</ele>
        <time>2021-06-06T09:44:08.751Z</time>
      </trkpt>
      <trkpt lat="45.73448" lon="5.70079">
        <ele>228</ele>
        <time>2021-06-06T09:44:13.747Z</time>
      </trkpt>
      <trkpt lat="45.73453" lon="5.70085">
        <ele>228</ele>
        <time>2021-06-06T09:44:17.753Z</time>
      </trkpt>
      <trkpt lat="45.7346" lon="5.70089">
        <ele>228</ele>
        <time>2021-06-06T09:44:22.753Z</time>
      </trkpt>
      <trkpt lat="45.73465" lon="5.70096">
        <ele>228</ele>
        <time>2021-06-06T09:44:27.749Z</time>
      </trkpt>
      <trkpt lat="45.73471" lon="5.70102">
        <ele>227</ele>
        <time>2021-06-06T09:44:32.751Z</time>
      </trkpt>
      <trkpt lat="45.73479" lon="5.70108">
        <ele>227</ele>
        <time>2021-06-06T09:44:37.752Z</time>
      </trkpt>
      <trkpt lat="45.73491" lon="5.70121">
        <ele>229</ele>
        <time>2021-06-06T09:44:42.742Z</time>
      </trkpt>
      <trkpt lat="45.73497" lon="5.70127">
        <ele>227</ele>
        <time>2021-06-06T09:44:46.748Z</time>
      </trkpt>
      <trkpt lat="45.73502" lon="5.70132">
        <ele>227</ele>
        <time>2021-06-06T09:44:50.755Z</time>
      </trkpt>
      <trkpt lat="45.73508" lon="5.70137">
        <ele>227</ele>
        <time>2021-06-06T09:44:55.751Z</time>
      </trkpt>
      <trkpt lat="45.73514" lon="5.70142">
        <ele>227</ele>
        <time>2021-06-06T09:45:00.751Z</time>
      </trkpt>
      <trkpt lat="45.73519" lon="5.70148">
        <ele>230</ele>
        <time>2021-06-06T09:45:05.748Z</time>
      </trkpt>
      <trkpt lat="45.73525" lon="5.70154">
        <ele>230</ele>
        <time>2021-06-06T09:45:10.750Z</time>
      </trkpt>
      <trkpt lat="45.7353" lon="5.7016">
        <ele>230</ele>
        <time>2021-06-06T09:45:14.757Z</time>
      </trkpt>
      <trkpt lat="45.73535" lon="5.70166">
        <ele>230</ele>
        <time>2021-06-06T09:45:19.752Z</time>
      </trkpt>
      <trkpt lat="45.73539" lon="5.70173">
        <ele>230</ele>
        <time>2021-06-06T09:45:24.747Z</time>
      </trkpt>
      <trkpt lat="45.73545" lon="5.70179">
        <ele>235</ele>
        <time>2021-06-06T09:45:29.751Z</time>
      </trkpt>
      <trkpt lat="45.73549" lon="5.70182">
        <ele>233</ele>
        <time>2021-06-06T09:45:33.749Z</time>
      </trkpt>
      <trkpt lat="45.73554" lon="5.70187">
        <ele>233</ele>
        <time>2021-06-06T09:45:38.753Z</time>
      </trkpt>
      <trkpt lat="45.73559" lon="5.70192">
        <ele>233</ele>
        <time>2021-06-06T09:45:42.752Z</time>
      </trkpt>
      <trkpt lat="45.73565" lon="5.70196">
        <ele>233</ele>
        <time>2021-06-06T09:45:47.751Z</time>
      </trkpt>
      <trkpt lat="45.73571" lon="5.702">
        <ele>238</ele>
        <time>2021-06-06T09:45:52.749Z</time>
      </trkpt>
      <trkpt lat="45.73577" lon="5.70204">
        <ele>238</ele>
        <time>2021-06-06T09:45:57.749Z</time>
      </trkpt>
      <trkpt lat="45.73582" lon="5.70209">
        <ele>233</ele>
        <time>2021-06-06T09:46:01.750Z</time>
      </trkpt>
      <trkpt lat="45.73588" lon="5.70214">
        <ele>233</ele>
        <time>2021-06-06T09:46:06.745Z</time>
      </trkpt>
      <trkpt lat="45.73593" lon="5.70219">
        <ele>233</ele>
        <time>2021-06-06T09:46:10.747Z</time>
      </trkpt>
      <trkpt lat="45.73601" lon="5.70223">
        <ele>238</ele>
        <time>2021-06-06T09:46:15.759Z</time>
      </trkpt>
      <trkpt lat="45.73607" lon="5.70227">
        <ele>238</ele>
        <time>2021-06-06T09:46:20.759Z</time>
      </trkpt>
      <trkpt lat="45.73612" lon="5.70232">
        <ele>238</ele>
        <time>2021-06-06T09:46:24.755Z</time>
      </trkpt>
      <trkpt lat="45.73618" lon="5.70237">
        <ele>233</ele>
        <time>2021-06-06T09:46:29.750Z</time>
      </trkpt>
      <trkpt lat="45.73624" lon="5.70242">
        <ele>233</ele>
        <time>2021-06-06T09:46:34.744Z</time>
      </trkpt>
      <trkpt lat="45.73629" lon="5.70245">
        <ele>239</ele>
        <time>2021-06-06T09:46:38.745Z</time>
      </trkpt>
      <trkpt lat="45.73634" lon="5.70248">
        <ele>239</ele>
        <time>2021-06-06T09:46:42.753Z</time>
      </trkpt>
      <trkpt lat="45.7364" lon="5.70252">
        <ele>239</ele>
        <time>2021-06-06T09:46:47.748Z</time>
      </trkpt>
      <trkpt lat="45.73646" lon="5.70256">
        <ele>239</ele>
        <time>2021-06-06T09:46:52.756Z</time>
      </trkpt>
      <trkpt lat="45.73653" lon="5.70259">
        <ele>243</ele>
        <time>2021-06-06T09:46:57.750Z</time>
      </trkpt>
      <trkpt lat="45.73659" lon="5.70262">
        <ele>243</ele>
        <time>2021-06-06T09:47:01.747Z</time>
      </trkpt>
      <trkpt lat="45.73665" lon="5.70267">
        <ele>239</ele>
        <time>2021-06-06T09:47:06.742Z</time>
      </trkpt>
      <trkpt lat="45.73672" lon="5.70272">
        <ele>239</ele>
        <time>2021-06-06T09:47:11.743Z</time>
      </trkpt>
      <trkpt lat="45.73678" lon="5.70276">
        <ele>239</ele>
        <time>2021-06-06T09:47:16.742Z</time>
      </trkpt>
      <trkpt lat="45.73684" lon="5.70277">
        <ele>244</ele>
        <time>2021-06-06T09:47:20.756Z</time>
      </trkpt>
      <trkpt lat="45.73691" lon="5.70279">
        <ele>244</ele>
        <time>2021-06-06T09:47:25.749Z</time>
      </trkpt>
      <trkpt lat="45.73698" lon="5.70281">
        <ele>244</ele>
        <time>2021-06-06T09:47:30.756Z</time>
      </trkpt>
      <trkpt lat="45.73706" lon="5.70285">
        <ele>244</ele>
        <time>2021-06-06T09:47:35.747Z</time>
      </trkpt>
      <trkpt lat="45.73713" lon="5.70287">
        <ele>250</ele>
        <time>2021-06-06T09:47:40.745Z</time>
      </trkpt>
      <trkpt lat="45.7372" lon="5.70291">
        <ele>250</ele>
        <time>2021-06-06T09:47:45.745Z</time>
      </trkpt>
      <trkpt lat="45.73724" lon="5.70296">
        <ele>240</ele>
        <time>2021-06-06T09:47:49.755Z</time>
      </trkpt>
      <trkpt lat="45.73732" lon="5.70299">
        <ele>240</ele>
        <time>2021-06-06T09:47:54.756Z</time>
      </trkpt>
      <trkpt lat="45.73739" lon="5.70303">
        <ele>242</ele>
        <time>2021-06-06T09:47:59.751Z</time>
      </trkpt>
      <trkpt lat="45.73746" lon="5.70304">
        <ele>242</ele>
        <time>2021-06-06T09:48:04.752Z</time>
      </trkpt>
      <trkpt lat="45.73752" lon="5.70301">
        <ele>242</ele>
        <time>2021-06-06T09:48:08.749Z</time>
      </trkpt>
      <trkpt lat="45.7376" lon="5.70302">
        <ele>242</ele>
        <time>2021-06-06T09:48:13.749Z</time>
      </trkpt>
      <trkpt lat="45.73768" lon="5.70304">
        <ele>245</ele>
        <time>2021-06-06T09:48:18.750Z</time>
      </trkpt>
      <trkpt lat="45.73775" lon="5.70308">
        <ele>245</ele>
        <time>2021-06-06T09:48:23.751Z</time>
      </trkpt>
      <trkpt lat="45.73782" lon="5.7031">
        <ele>245</ele>
        <time>2021-06-06T09:48:28.751Z</time>
      </trkpt>
      <trkpt lat="45.73789" lon="5.70315">
        <ele>245</ele>
        <time>2021-06-06T09:48:33.755Z</time>
      </trkpt>
      <trkpt lat="45.73796" lon="5.70321">
        <ele>239</ele>
        <time>2021-06-06T09:48:38.749Z</time>
      </trkpt>
      <trkpt lat="45.73802" lon="5.70323">
        <ele>239</ele>
        <time>2021-06-06T09:48:42.794Z</time>
      </trkpt>
      <trkpt lat="45.73809" lon="5.70326">
        <ele>239</ele>
        <time>2021-06-06T09:48:47.783Z</time>
      </trkpt>
      <trkpt lat="45.73819" lon="5.70345">
        <ele>240</ele>
        <time>2021-06-06T09:57:26.787Z</time>
      </trkpt>
      <trkpt lat="45.73816" lon="5.70347">
        <ele>239</ele>
        <time>2021-06-06T09:57:31.779Z</time>
      </trkpt>
      <trkpt lat="45.73809" lon="5.70354">
        <ele>234</ele>
        <time>2021-06-06T09:57:36.776Z</time>
      </trkpt>
      <trkpt lat="45.73803" lon="5.70361">
        <ele>234</ele>
        <time>2021-06-06T09:57:41.746Z</time>
      </trkpt>
      <trkpt lat="45.73798" lon="5.70368">
        <ele>234</ele>
        <time>2021-06-06T09:57:45.779Z</time>
      </trkpt>
      <trkpt lat="45.73794" lon="5.70374">
        <ele>234</ele>
        <time>2021-06-06T09:57:49.811Z</time>
      </trkpt>
      <trkpt lat="45.73789" lon="5.70382">
        <ele>232</ele>
        <time>2021-06-06T09:57:54.795Z</time>
      </trkpt>
      <trkpt lat="45.73785" lon="5.7039">
        <ele>232</ele>
        <time>2021-06-06T09:57:59.784Z</time>
      </trkpt>
      <trkpt lat="45.73781" lon="5.704">
        <ele>232</ele>
        <time>2021-06-06T09:58:04.747Z</time>
      </trkpt>
      <trkpt lat="45.73778" lon="5.7041">
        <ele>234</ele>
        <time>2021-06-06T09:58:09.745Z</time>
      </trkpt>
      <trkpt lat="45.73775" lon="5.7042">
        <ele>234</ele>
        <time>2021-06-06T09:58:14.783Z</time>
      </trkpt>
      <trkpt lat="45.73772" lon="5.7043">
        <ele>234</ele>
        <time>2021-06-06T09:58:19.786Z</time>
      </trkpt>
      <trkpt lat="45.73768" lon="5.70439">
        <ele>234</ele>
        <time>2021-06-06T09:58:24.774Z</time>
      </trkpt>
      <trkpt lat="45.73766" lon="5.70448">
        <ele>234</ele>
        <time>2021-06-06T09:58:28.785Z</time>
      </trkpt>
      <trkpt lat="45.73763" lon="5.70454">
        <ele>234</ele>
        <time>2021-06-06T09:58:32.784Z</time>
      </trkpt>
      <trkpt lat="45.7376" lon="5.70463">
        <ele>226</ele>
        <time>2021-06-06T09:58:37.774Z</time>
      </trkpt>
      <trkpt lat="45.73759" lon="5.7047">
        <ele>226</ele>
        <time>2021-06-06T09:58:41.791Z</time>
      </trkpt>
      <trkpt lat="45.73756" lon="5.70479">
        <ele>226</ele>
        <time>2021-06-06T09:58:46.774Z</time>
      </trkpt>
      <trkpt lat="45.73753" lon="5.70486">
        <ele>226</ele>
        <time>2021-06-06T09:58:50.770Z</time>
      </trkpt>
      <trkpt lat="45.73751" lon="5.70495">
        <ele>226</ele>
        <time>2021-06-06T09:58:54.785Z</time>
      </trkpt>
      <trkpt lat="45.73747" lon="5.70504">
        <ele>226</ele>
        <time>2021-06-06T09:58:59.791Z</time>
      </trkpt>
      <trkpt lat="45.73744" lon="5.70514">
        <ele>226</ele>
        <time>2021-06-06T09:59:04.827Z</time>
      </trkpt>
      <trkpt lat="45.73741" lon="5.70523">
        <ele>226</ele>
        <time>2021-06-06T09:59:09.819Z</time>
      </trkpt>
      <trkpt lat="45.73737" lon="5.70531">
        <ele>226</ele>
        <time>2021-06-06T09:59:13.837Z</time>
      </trkpt>
      <trkpt lat="45.73733" lon="5.70541">
        <ele>226</ele>
        <time>2021-06-06T09:59:18.787Z</time>
      </trkpt>
      <trkpt lat="45.7373" lon="5.70551">
        <ele>236</ele>
        <time>2021-06-06T09:59:23.773Z</time>
      </trkpt>
      <trkpt lat="45.73726" lon="5.70559">
        <ele>236</ele>
        <time>2021-06-06T09:59:27.778Z</time>
      </trkpt>
      <trkpt lat="45.73723" lon="5.70567">
        <ele>236</ele>
        <time>2021-06-06T09:59:31.784Z</time>
      </trkpt>
      <trkpt lat="45.7372" lon="5.70574">
        <ele>236</ele>
        <time>2021-06-06T09:59:35.829Z</time>
      </trkpt>
      <trkpt lat="45.73717" lon="5.70583">
        <ele>236</ele>
        <time>2021-06-06T09:59:40.792Z</time>
      </trkpt>
      <trkpt lat="45.73713" lon="5.70592">
        <ele>236</ele>
        <time>2021-06-06T09:59:45.783Z</time>
      </trkpt>
      <trkpt lat="45.73709" lon="5.70601">
        <ele>237</ele>
        <time>2021-06-06T09:59:50.793Z</time>
      </trkpt>
      <trkpt lat="45.73706" lon="5.7061">
        <ele>238</ele>
        <time>2021-06-06T09:59:55.793Z</time>
      </trkpt>
      <trkpt lat="45.73703" lon="5.70621">
        <ele>238</ele>
        <time>2021-06-06T10:00:00.768Z</time>
      </trkpt>
      <trkpt lat="45.737" lon="5.70628">
        <ele>239</ele>
        <time>2021-06-06T10:00:04.810Z</time>
      </trkpt>
      <trkpt lat="45.73695" lon="5.70638">
        <ele>239</ele>
        <time>2021-06-06T10:00:09.766Z</time>
      </trkpt>
      <trkpt lat="45.73691" lon="5.70645">
        <ele>239</ele>
        <time>2021-06-06T10:00:13.796Z</time>
      </trkpt>
      <trkpt lat="45.73688" lon="5.70654">
        <ele>240</ele>
        <time>2021-06-06T10:00:18.788Z</time>
      </trkpt>
      <trkpt lat="45.73683" lon="5.70662">
        <ele>240</ele>
        <time>2021-06-06T10:00:23.775Z</time>
      </trkpt>
      <trkpt lat="45.73678" lon="5.70669">
        <ele>248</ele>
        <time>2021-06-06T10:00:28.779Z</time>
      </trkpt>
      <trkpt lat="45.73673" lon="5.70672">
        <ele>248</ele>
        <time>2021-06-06T10:00:32.783Z</time>
      </trkpt>
      <trkpt lat="45.73667" lon="5.70678">
        <ele>248</ele>
        <time>2021-06-06T10:00:37.774Z</time>
      </trkpt>
      <trkpt lat="45.73661" lon="5.70682">
        <ele>248</ele>
        <time>2021-06-06T10:00:42.775Z</time>
      </trkpt>
      <trkpt lat="45.73655" lon="5.70685">
        <ele>248</ele>
        <time>2021-06-06T10:00:47.791Z</time>
      </trkpt>
      <trkpt lat="45.73648" lon="5.70688">
        <ele>255</ele>
        <time>2021-06-06T10:00:52.747Z</time>
      </trkpt>
      <trkpt lat="45.73642" lon="5.7069">
        <ele>255</ele>
        <time>2021-06-06T10:00:56.786Z</time>
      </trkpt>
      <trkpt lat="45.7364" lon="5.70702">
        <ele>255</ele>
        <time>2021-06-06T10:01:00.789Z</time>
      </trkpt>
      <trkpt lat="45.73631" lon="5.70708">
        <ele>255</ele>
        <time>2021-06-06T10:01:05.784Z</time>
      </trkpt>
      <trkpt lat="45.73627" lon="5.70715">
        <ele>254</ele>
        <time>2021-06-06T10:01:10.782Z</time>
      </trkpt>
      <trkpt lat="45.73628" lon="5.70724">
        <ele>254</ele>
        <time>2021-06-06T10:01:14.810Z</time>
      </trkpt>
      <trkpt lat="45.73638" lon="5.70727">
        <ele>254</ele>
        <time>2021-06-06T10:01:19.784Z</time>
      </trkpt>
      <trkpt lat="45.73646" lon="5.70723">
        <ele>254</ele>
        <time>2021-06-06T10:01:24.765Z</time>
      </trkpt>
      <trkpt lat="45.73651" lon="5.7072">
        <ele>254</ele>
        <time>2021-06-06T10:01:28.775Z</time>
      </trkpt>
      <trkpt lat="45.73657" lon="5.70719">
        <ele>248</ele>
        <time>2021-06-06T10:01:32.786Z</time>
      </trkpt>
      <trkpt lat="45.73663" lon="5.70718">
        <ele>248</ele>
        <time>2021-06-06T10:01:36.787Z</time>
      </trkpt>
      <trkpt lat="45.7367" lon="5.70716">
        <ele>248</ele>
        <time>2021-06-06T10:01:41.803Z</time>
      </trkpt>
      <trkpt lat="45.73675" lon="5.70715">
        <ele>248</ele>
        <time>2021-06-06T10:01:46.777Z</time>
      </trkpt>
      <trkpt lat="45.7368" lon="5.70712">
        <ele>248</ele>
        <time>2021-06-06T10:01:51.790Z</time>
      </trkpt>
      <trkpt lat="45.73683" lon="5.70709">
        <ele>246</ele>
        <time>2021-06-06T10:01:55.811Z</time>
      </trkpt>
      <trkpt lat="45.73688" lon="5.70706">
        <ele>243</ele>
        <time>2021-06-06T10:01:59.810Z</time>
      </trkpt>
      <trkpt lat="45.73693" lon="5.70703">
        <ele>243</ele>
        <time>2021-06-06T10:02:04.783Z</time>
      </trkpt>
      <trkpt lat="45.737" lon="5.70703">
        <ele>243</ele>
        <time>2021-06-06T10:02:09.745Z</time>
      </trkpt>
      <trkpt lat="45.73704" lon="5.70705">
        <ele>243</ele>
        <time>2021-06-06T10:02:13.766Z</time>
      </trkpt>
      <trkpt lat="45.73709" lon="5.70703">
        <ele>238</ele>
        <time>2021-06-06T10:02:17.792Z</time>
      </trkpt>
      <trkpt lat="45.73712" lon="5.70701">
        <ele>238</ele>
        <time>2021-06-06T10:02:22.794Z</time>
      </trkpt>
      <trkpt lat="45.73714" lon="5.70703">
        <ele>238</ele>
        <time>2021-06-06T10:02:26.815Z</time>
      </trkpt>
      <trkpt lat="45.73716" lon="5.7071">
        <ele>241</ele>
        <time>2021-06-06T10:02:31.776Z</time>
      </trkpt>
      <trkpt lat="45.73718" lon="5.70715">
        <ele>241</ele>
        <time>2021-06-06T10:02:36.814Z</time>
      </trkpt>
      <trkpt lat="45.73723" lon="5.7072">
        <ele>241</ele>
        <time>2021-06-06T10:02:41.833Z</time>
      </trkpt>
      <trkpt lat="45.73729" lon="5.70726">
        <ele>241</ele>
        <time>2021-06-06T10:02:46.782Z</time>
      </trkpt>
      <trkpt lat="45.73736" lon="5.70731">
        <ele>241</ele>
        <time>2021-06-06T10:02:51.817Z</time>
      </trkpt>
      <trkpt lat="45.73742" lon="5.70734">
        <ele>239</ele>
        <time>2021-06-06T10:02:55.831Z</time>
      </trkpt>
      <trkpt lat="45.73748" lon="5.70737">
        <ele>241</ele>
        <time>2021-06-06T10:03:00.762Z</time>
      </trkpt>
      <trkpt lat="45.73753" lon="5.7074">
        <ele>241</ele>
        <time>2021-06-06T10:03:04.786Z</time>
      </trkpt>
      <trkpt lat="45.73759" lon="5.70744">
        <ele>241</ele>
        <time>2021-06-06T10:03:09.761Z</time>
      </trkpt>
      <trkpt lat="45.73766" lon="5.70748">
        <ele>241</ele>
        <time>2021-06-06T10:03:14.785Z</time>
      </trkpt>
      <trkpt lat="45.73771" lon="5.7075">
        <ele>241</ele>
        <time>2021-06-06T10:03:18.808Z</time>
      </trkpt>
      <trkpt lat="45.73775" lon="5.70756">
        <ele>241</ele>
        <time>2021-06-06T10:03:23.781Z</time>
      </trkpt>
      <trkpt lat="45.7378" lon="5.70764">
        <ele>241</ele>
        <time>2021-06-06T10:03:28.768Z</time>
      </trkpt>
      <trkpt lat="45.73784" lon="5.70768">
        <ele>245</ele>
        <time>2021-06-06T10:03:32.840Z</time>
      </trkpt>
      <trkpt lat="45.73791" lon="5.70771">
        <ele>245</ele>
        <time>2021-06-06T10:03:37.824Z</time>
      </trkpt>
      <trkpt lat="45.73801" lon="5.70781">
        <ele>242</ele>
        <time>2021-06-06T10:03:51.809Z</time>
      </trkpt>
      <trkpt lat="45.73801" lon="5.70782">
        <ele>242</ele>
        <time>2021-06-06T10:03:56.784Z</time>
      </trkpt>
      <trkpt lat="45.73801" lon="5.70782">
        <ele>242</ele>
        <time>2021-06-06T10:04:01.788Z</time>
      </trkpt>
      <trkpt lat="45.73806" lon="5.70789">
        <ele>242</ele>
        <time>2021-06-06T10:04:06.774Z</time>
      </trkpt>
      <trkpt lat="45.73812" lon="5.7079">
        <ele>242</ele>
        <time>2021-06-06T10:04:11.819Z</time>
      </trkpt>
      <trkpt lat="45.73823" lon="5.70795">
        <ele>246</ele>
        <time>2021-06-06T10:04:34.791Z</time>
      </trkpt>
      <trkpt lat="45.73822" lon="5.70803">
        <ele>246</ele>
        <time>2021-06-06T10:04:39.749Z</time>
      </trkpt>
      <trkpt lat="45.73819" lon="5.7081">
        <ele>247</ele>
        <time>2021-06-06T10:04:43.799Z</time>
      </trkpt>
      <trkpt lat="45.73814" lon="5.70815">
        <ele>247</ele>
        <time>2021-06-06T10:04:48.793Z</time>
      </trkpt>
      <trkpt lat="45.73808" lon="5.70821">
        <ele>251</ele>
        <time>2021-06-06T10:04:52.783Z</time>
      </trkpt>
      <trkpt lat="45.73804" lon="5.70825">
        <ele>251</ele>
        <time>2021-06-06T10:04:56.817Z</time>
      </trkpt>
      <trkpt lat="45.73797" lon="5.70831">
        <ele>251</ele>
        <time>2021-06-06T10:05:01.775Z</time>
      </trkpt>
      <trkpt lat="45.73791" lon="5.70835">
        <ele>252</ele>
        <time>2021-06-06T10:05:06.772Z</time>
      </trkpt>
      <trkpt lat="45.73786" lon="5.7084">
        <ele>252</ele>
        <time>2021-06-06T10:05:10.775Z</time>
      </trkpt>
      <trkpt lat="45.7378" lon="5.70845">
        <ele>252</ele>
        <time>2021-06-06T10:05:15.776Z</time>
      </trkpt>
      <trkpt lat="45.73775" lon="5.70846">
        <ele>252</ele>
        <time>2021-06-06T10:05:19.779Z</time>
      </trkpt>
      <trkpt lat="45.7377" lon="5.70846">
        <ele>252</ele>
        <time>2021-06-06T10:05:23.796Z</time>
      </trkpt>
      <trkpt lat="45.73763" lon="5.70847">
        <ele>250</ele>
        <time>2021-06-06T10:05:28.822Z</time>
      </trkpt>
      <trkpt lat="45.7376" lon="5.70855">
        <ele>255</ele>
        <time>2021-06-06T10:05:33.813Z</time>
      </trkpt>
      <trkpt lat="45.73765" lon="5.70864">
        <ele>254</ele>
        <time>2021-06-06T10:05:38.790Z</time>
      </trkpt>
      <trkpt lat="45.73771" lon="5.7087">
        <ele>254</ele>
        <time>2021-06-06T10:05:42.817Z</time>
      </trkpt>
      <trkpt lat="45.73775" lon="5.70877">
        <ele>256</ele>
        <time>2021-06-06T10:05:47.806Z</time>
      </trkpt>
      <trkpt lat="45.7378" lon="5.70884">
        <ele>256</ele>
        <time>2021-06-06T10:05:52.766Z</time>
      </trkpt>
      <trkpt lat="45.73784" lon="5.70888">
        <ele>256</ele>
        <time>2021-06-06T10:05:56.780Z</time>
      </trkpt>
      <trkpt lat="45.73788" lon="5.70892">
        <ele>256</ele>
        <time>2021-06-06T10:06:00.795Z</time>
      </trkpt>
      <trkpt lat="45.73794" lon="5.70894">
        <ele>256</ele>
        <time>2021-06-06T10:06:04.820Z</time>
      </trkpt>
      <trkpt lat="45.73799" lon="5.709">
        <ele>256</ele>
        <time>2021-06-06T10:06:09.791Z</time>
      </trkpt>
      <trkpt lat="45.73803" lon="5.70906">
        <ele>257</ele>
        <time>2021-06-06T10:06:13.811Z</time>
      </trkpt>
      <trkpt lat="45.73808" lon="5.70912">
        <ele>257</ele>
        <time>2021-06-06T10:06:18.786Z</time>
      </trkpt>
      <trkpt lat="45.73813" lon="5.70917">
        <ele>257</ele>
        <time>2021-06-06T10:06:23.810Z</time>
      </trkpt>
      <trkpt lat="45.73818" lon="5.70923">
        <ele>257</ele>
        <time>2021-06-06T10:06:28.783Z</time>
      </trkpt>
      <trkpt lat="45.73821" lon="5.70928">
        <ele>259</ele>
        <time>2021-06-06T10:06:32.809Z</time>
      </trkpt>
      <trkpt lat="45.73825" lon="5.70935">
        <ele>260</ele>
        <time>2021-06-06T10:06:37.785Z</time>
      </trkpt>
      <trkpt lat="45.73829" lon="5.7094">
        <ele>260</ele>
        <time>2021-06-06T10:06:41.837Z</time>
      </trkpt>
      <trkpt lat="45.73835" lon="5.70945">
        <ele>260</ele>
        <time>2021-06-06T10:06:46.790Z</time>
      </trkpt>
      <trkpt lat="45.7384" lon="5.70949">
        <ele>260</ele>
        <time>2021-06-06T10:06:50.810Z</time>
      </trkpt>
      <trkpt lat="45.73845" lon="5.70954">
        <ele>260</ele>
        <time>2021-06-06T10:06:55.811Z</time>
      </trkpt>
      <trkpt lat="45.7385" lon="5.70957">
        <ele>260</ele>
        <time>2021-06-06T10:06:59.812Z</time>
      </trkpt>
      <trkpt lat="45.73856" lon="5.70961">
        <ele>262</ele>
        <time>2021-06-06T10:07:04.816Z</time>
      </trkpt>
      <trkpt lat="45.73862" lon="5.70965">
        <ele>262</ele>
        <time>2021-06-06T10:07:09.790Z</time>
      </trkpt>
      <trkpt lat="45.73873" lon="5.70969">
        <ele>262</ele>
        <time>2021-06-06T10:07:14.787Z</time>
      </trkpt>
      <trkpt lat="45.73883" lon="5.70973">
        <ele>263</ele>
        <time>2021-06-06T10:07:18.784Z</time>
      </trkpt>
      <trkpt lat="45.73898" lon="5.7098">
        <ele>263</ele>
        <time>2021-06-06T10:07:23.773Z</time>
      </trkpt>
      <trkpt lat="45.73912" lon="5.70984">
        <ele>262</ele>
        <time>2021-06-06T10:07:28.762Z</time>
      </trkpt>
      <trkpt lat="45.73919" lon="5.7099">
        <ele>264</ele>
        <time>2021-06-06T10:07:32.775Z</time>
      </trkpt>
      <trkpt lat="45.73926" lon="5.70992">
        <ele>264</ele>
        <time>2021-06-06T10:07:37.844Z</time>
      </trkpt>
      <trkpt lat="45.73933" lon="5.70995">
        <ele>264</ele>
        <time>2021-06-06T10:07:42.784Z</time>
      </trkpt>
      <trkpt lat="45.73938" lon="5.70997">
        <ele>264</ele>
        <time>2021-06-06T10:07:46.845Z</time>
      </trkpt>
      <trkpt lat="45.73944" lon="5.71">
        <ele>264</ele>
        <time>2021-06-06T10:07:51.774Z</time>
      </trkpt>
      <trkpt lat="45.7395" lon="5.71004">
        <ele>264</ele>
        <time>2021-06-06T10:07:56.816Z</time>
      </trkpt>
      <trkpt lat="45.73957" lon="5.71006">
        <ele>264</ele>
        <time>2021-06-06T10:08:01.814Z</time>
      </trkpt>
      <trkpt lat="45.73962" lon="5.71011">
        <ele>264</ele>
        <time>2021-06-06T10:08:06.786Z</time>
      </trkpt>
      <trkpt lat="45.73965" lon="5.71018">
        <ele>265</ele>
        <time>2021-06-06T10:08:10.798Z</time>
      </trkpt>
      <trkpt lat="45.73966" lon="5.71028">
        <ele>265</ele>
        <time>2021-06-06T10:08:15.752Z</time>
      </trkpt>
      <trkpt lat="45.73967" lon="5.71036">
        <ele>265</ele>
        <time>2021-06-06T10:08:20.752Z</time>
      </trkpt>
      <trkpt lat="45.73967" lon="5.71044">
        <ele>266</ele>
        <time>2021-06-06T10:08:24.790Z</time>
      </trkpt>
      <trkpt lat="45.73965" lon="5.71052">
        <ele>266</ele>
        <time>2021-06-06T10:08:29.777Z</time>
      </trkpt>
      <trkpt lat="45.73963" lon="5.71059">
        <ele>266</ele>
        <time>2021-06-06T10:08:33.802Z</time>
      </trkpt>
      <trkpt lat="45.73961" lon="5.71068">
        <ele>266</ele>
        <time>2021-06-06T10:08:38.776Z</time>
      </trkpt>
      <trkpt lat="45.7396" lon="5.7108">
        <ele>267</ele>
        <time>2021-06-06T10:08:42.793Z</time>
      </trkpt>
      <trkpt lat="45.73957" lon="5.71103">
        <ele>271</ele>
        <time>2021-06-06T10:08:47.792Z</time>
      </trkpt>
      <trkpt lat="45.73958" lon="5.71121">
        <ele>271</ele>
        <time>2021-06-06T10:08:52.821Z</time>
      </trkpt>
      <trkpt lat="45.73957" lon="5.71134">
        <ele>272</ele>
        <time>2021-06-06T10:08:57.814Z</time>
      </trkpt>
      <trkpt lat="45.73957" lon="5.71144">
        <ele>272</ele>
        <time>2021-06-06T10:09:02.748Z</time>
      </trkpt>
      <trkpt lat="45.73958" lon="5.71153">
        <ele>272</ele>
        <time>2021-06-06T10:09:06.751Z</time>
      </trkpt>
      <trkpt lat="45.73959" lon="5.71163">
        <ele>271</ele>
        <time>2021-06-06T10:09:11.743Z</time>
      </trkpt>
      <trkpt lat="45.7396" lon="5.71175">
        <ele>271</ele>
        <time>2021-06-06T10:09:16.738Z</time>
      </trkpt>
      <trkpt lat="45.7396" lon="5.71185">
        <ele>270</ele>
        <time>2021-06-06T10:09:20.750Z</time>
      </trkpt>
      <trkpt lat="45.7396" lon="5.71194">
        <ele>270</ele>
        <time>2021-06-06T10:09:25.748Z</time>
      </trkpt>
      <trkpt lat="45.73962" lon="5.71205">
        <ele>270</ele>
        <time>2021-06-06T10:09:30.747Z</time>
      </trkpt>
      <trkpt lat="45.73964" lon="5.71214">
        <ele>269</ele>
        <time>2021-06-06T10:09:35.753Z</time>
      </trkpt>
      <trkpt lat="45.73968" lon="5.71232">
        <ele>269</ele>
        <time>2021-06-06T10:09:40.752Z</time>
      </trkpt>
      <trkpt lat="45.73973" lon="5.7126">
        <ele>268</ele>
        <time>2021-06-06T10:09:45.749Z</time>
      </trkpt>
      <trkpt lat="45.73978" lon="5.71281">
        <ele>268</ele>
        <time>2021-06-06T10:09:50.764Z</time>
      </trkpt>
      <trkpt lat="45.73982" lon="5.71301">
        <ele>269</ele>
        <time>2021-06-06T10:09:54.746Z</time>
      </trkpt>
      <trkpt lat="45.73982" lon="5.71321">
        <ele>272</ele>
        <time>2021-06-06T10:09:59.745Z</time>
      </trkpt>
      <trkpt lat="45.73976" lon="5.71333">
        <ele>272</ele>
        <time>2021-06-06T10:10:04.751Z</time>
      </trkpt>
      <trkpt lat="45.73969" lon="5.71335">
        <ele>272</ele>
        <time>2021-06-06T10:10:09.747Z</time>
      </trkpt>
      <trkpt lat="45.73961" lon="5.71333">
        <ele>272</ele>
        <time>2021-06-06T10:10:14.749Z</time>
      </trkpt>
      <trkpt lat="45.73956" lon="5.7133">
        <ele>271</ele>
        <time>2021-06-06T10:10:18.750Z</time>
      </trkpt>
      <trkpt lat="45.73949" lon="5.71327">
        <ele>271</ele>
        <time>2021-06-06T10:10:23.750Z</time>
      </trkpt>
      <trkpt lat="45.73941" lon="5.71326">
        <ele>271</ele>
        <time>2021-06-06T10:10:28.750Z</time>
      </trkpt>
      <trkpt lat="45.73934" lon="5.71323">
        <ele>271</ele>
        <time>2021-06-06T10:10:33.747Z</time>
      </trkpt>
      <trkpt lat="45.73927" lon="5.71321">
        <ele>274</ele>
        <time>2021-06-06T10:10:38.738Z</time>
      </trkpt>
      <trkpt lat="45.7392" lon="5.7132">
        <ele>274</ele>
        <time>2021-06-06T10:10:42.751Z</time>
      </trkpt>
      <trkpt lat="45.73913" lon="5.71318">
        <ele>272</ele>
        <time>2021-06-06T10:10:47.767Z</time>
      </trkpt>
      <trkpt lat="45.73905" lon="5.71318">
        <ele>272</ele>
        <time>2021-06-06T10:10:52.774Z</time>
      </trkpt>
      <trkpt lat="45.73899" lon="5.71317">
        <ele>274</ele>
        <time>2021-06-06T10:10:56.806Z</time>
      </trkpt>
      <trkpt lat="45.73892" lon="5.71315">
        <ele>274</ele>
        <time>2021-06-06T10:11:01.757Z</time>
      </trkpt>
      <trkpt lat="45.73886" lon="5.71315">
        <ele>274</ele>
        <time>2021-06-06T10:11:05.780Z</time>
      </trkpt>
      <trkpt lat="45.7388" lon="5.71315">
        <ele>274</ele>
        <time>2021-06-06T10:11:09.812Z</time>
      </trkpt>
      <trkpt lat="45.73874" lon="5.71317">
        <ele>277</ele>
        <time>2021-06-06T10:11:13.808Z</time>
      </trkpt>
      <trkpt lat="45.73867" lon="5.7132">
        <ele>279</ele>
        <time>2021-06-06T10:11:18.785Z</time>
      </trkpt>
      <trkpt lat="45.73861" lon="5.7132">
        <ele>279</ele>
        <time>2021-06-06T10:11:22.793Z</time>
      </trkpt>
      <trkpt lat="45.73855" lon="5.71321">
        <ele>279</ele>
        <time>2021-06-06T10:11:26.811Z</time>
      </trkpt>
      <trkpt lat="45.73848" lon="5.71321">
        <ele>279</ele>
        <time>2021-06-06T10:11:31.797Z</time>
      </trkpt>
      <trkpt lat="45.7384" lon="5.71322">
        <ele>281</ele>
        <time>2021-06-06T10:11:36.772Z</time>
      </trkpt>
      <trkpt lat="45.73834" lon="5.71324">
        <ele>281</ele>
        <time>2021-06-06T10:11:41.792Z</time>
      </trkpt>
      <trkpt lat="45.73827" lon="5.71327">
        <ele>281</ele>
        <time>2021-06-06T10:11:46.748Z</time>
      </trkpt>
      <trkpt lat="45.73822" lon="5.71331">
        <ele>281</ele>
        <time>2021-06-06T10:11:50.770Z</time>
      </trkpt>
      <trkpt lat="45.73817" lon="5.71335">
        <ele>280</ele>
        <time>2021-06-06T10:11:54.776Z</time>
      </trkpt>
      <trkpt lat="45.73811" lon="5.71337">
        <ele>280</ele>
        <time>2021-06-06T10:11:59.766Z</time>
      </trkpt>
      <trkpt lat="45.73807" lon="5.71341">
        <ele>280</ele>
        <time>2021-06-06T10:12:03.783Z</time>
      </trkpt>
      <trkpt lat="45.73802" lon="5.71347">
        <ele>280</ele>
        <time>2021-06-06T10:12:08.762Z</time>
      </trkpt>
      <trkpt lat="45.73798" lon="5.71351">
        <ele>281</ele>
        <time>2021-06-06T10:12:12.767Z</time>
      </trkpt>
      <trkpt lat="45.73795" lon="5.71357">
        <ele>281</ele>
        <time>2021-06-06T10:12:16.778Z</time>
      </trkpt>
      <trkpt lat="45.73791" lon="5.71364">
        <ele>278</ele>
        <time>2021-06-06T10:12:21.786Z</time>
      </trkpt>
      <trkpt lat="45.73791" lon="5.71373">
        <ele>278</ele>
        <time>2021-06-06T10:12:26.779Z</time>
      </trkpt>
      <trkpt lat="45.73792" lon="5.71379">
        <ele>278</ele>
        <time>2021-06-06T10:12:30.783Z</time>
      </trkpt>
      <trkpt lat="45.73797" lon="5.71385">
        <ele>281</ele>
        <time>2021-06-06T10:12:35.796Z</time>
      </trkpt>
      <trkpt lat="45.73802" lon="5.71389">
        <ele>281</ele>
        <time>2021-06-06T10:12:39.811Z</time>
      </trkpt>
      <trkpt lat="45.73807" lon="5.71394">
        <ele>281</ele>
        <time>2021-06-06T10:12:44.750Z</time>
      </trkpt>
      <trkpt lat="45.73813" lon="5.71398">
        <ele>281</ele>
        <time>2021-06-06T10:12:48.779Z</time>
      </trkpt>
      <trkpt lat="45.73818" lon="5.71402">
        <ele>281</ele>
        <time>2021-06-06T10:12:52.787Z</time>
      </trkpt>
      <trkpt lat="45.73823" lon="5.71406">
        <ele>282</ele>
        <time>2021-06-06T10:12:56.809Z</time>
      </trkpt>
      <trkpt lat="45.73828" lon="5.71411">
        <ele>282</ele>
        <time>2021-06-06T10:13:01.775Z</time>
      </trkpt>
      <trkpt lat="45.73831" lon="5.71418">
        <ele>282</ele>
        <time>2021-06-06T10:13:05.813Z</time>
      </trkpt>
      <trkpt lat="45.73833" lon="5.71428">
        <ele>282</ele>
        <time>2021-06-06T10:13:10.771Z</time>
      </trkpt>
      <trkpt lat="45.73833" lon="5.71438">
        <ele>280</ele>
        <time>2021-06-06T10:13:15.779Z</time>
      </trkpt>
      <trkpt lat="45.73831" lon="5.71446">
        <ele>280</ele>
        <time>2021-06-06T10:13:19.796Z</time>
      </trkpt>
      <trkpt lat="45.73828" lon="5.71454">
        <ele>280</ele>
        <time>2021-06-06T10:13:24.785Z</time>
      </trkpt>
      <trkpt lat="45.73824" lon="5.71463">
        <ele>281</ele>
        <time>2021-06-06T10:13:29.778Z</time>
      </trkpt>
      <trkpt lat="45.73821" lon="5.71469">
        <ele>281</ele>
        <time>2021-06-06T10:13:34.765Z</time>
      </trkpt>
      <trkpt lat="45.73817" lon="5.71477">
        <ele>280</ele>
        <time>2021-06-06T10:13:39.780Z</time>
      </trkpt>
      <trkpt lat="45.73814" lon="5.71484">
        <ele>280</ele>
        <time>2021-06-06T10:13:44.786Z</time>
      </trkpt>
      <trkpt lat="45.73811" lon="5.71492">
        <ele>281</ele>
        <time>2021-06-06T10:13:49.785Z</time>
      </trkpt>
      <trkpt lat="45.7381" lon="5.71501">
        <ele>281</ele>
        <time>2021-06-06T10:13:54.779Z</time>
      </trkpt>
      <trkpt lat="45.73808" lon="5.71508">
        <ele>281</ele>
        <time>2021-06-06T10:13:58.780Z</time>
      </trkpt>
      <trkpt lat="45.73805" lon="5.71516">
        <ele>281</ele>
        <time>2021-06-06T10:14:03.820Z</time>
      </trkpt>
      <trkpt lat="45.73801" lon="5.71525">
        <ele>281</ele>
        <time>2021-06-06T10:14:08.826Z</time>
      </trkpt>
      <trkpt lat="45.738" lon="5.71534">
        <ele>281</ele>
        <time>2021-06-06T10:14:13.781Z</time>
      </trkpt>
      <trkpt lat="45.73796" lon="5.7154">
        <ele>281</ele>
        <time>2021-06-06T10:14:17.795Z</time>
      </trkpt>
      <trkpt lat="45.73795" lon="5.71543">
        <ele>279</ele>
        <time>2021-06-06T10:14:22.787Z</time>
      </trkpt>
      <trkpt lat="45.73793" lon="5.71544">
        <ele>279</ele>
        <time>2021-06-06T10:14:27.772Z</time>
      </trkpt>
      <trkpt lat="45.73789" lon="5.71542">
        <ele>278</ele>
        <time>2021-06-06T10:14:32.777Z</time>
      </trkpt>
      <trkpt lat="45.73789" lon="5.71547">
        <ele>278</ele>
        <time>2021-06-06T10:14:37.776Z</time>
      </trkpt>
      <trkpt lat="45.73788" lon="5.71552">
        <ele>278</ele>
        <time>2021-06-06T10:14:41.805Z</time>
      </trkpt>
      <trkpt lat="45.73784" lon="5.71557">
        <ele>278</ele>
        <time>2021-06-06T10:14:46.815Z</time>
      </trkpt>
      <trkpt lat="45.73781" lon="5.71563">
        <ele>278</ele>
        <time>2021-06-06T10:14:50.838Z</time>
      </trkpt>
      <trkpt lat="45.73777" lon="5.71568">
        <ele>278</ele>
        <time>2021-06-06T10:14:55.780Z</time>
      </trkpt>
      <trkpt lat="45.73774" lon="5.71575">
        <ele>274</ele>
        <time>2021-06-06T10:15:00.743Z</time>
      </trkpt>
      <trkpt lat="45.73771" lon="5.71581">
        <ele>274</ele>
        <time>2021-06-06T10:15:04.798Z</time>
      </trkpt>
      <trkpt lat="45.73766" lon="5.71586">
        <ele>274</ele>
        <time>2021-06-06T10:15:09.788Z</time>
      </trkpt>
      <trkpt lat="45.73764" lon="5.71595">
        <ele>273</ele>
        <time>2021-06-06T10:15:14.779Z</time>
      </trkpt>
      <trkpt lat="45.73761" lon="5.71601">
        <ele>270</ele>
        <time>2021-06-06T10:15:18.813Z</time>
      </trkpt>
      <trkpt lat="45.73759" lon="5.7161">
        <ele>270</ele>
        <time>2021-06-06T10:15:23.780Z</time>
      </trkpt>
      <trkpt lat="45.73757" lon="5.71617">
        <ele>270</ele>
        <time>2021-06-06T10:15:27.794Z</time>
      </trkpt>
      <trkpt lat="45.73752" lon="5.71619">
        <ele>270</ele>
        <time>2021-06-06T10:15:32.794Z</time>
      </trkpt>
      <trkpt lat="45.73747" lon="5.71616">
        <ele>270</ele>
        <time>2021-06-06T10:15:37.780Z</time>
      </trkpt>
      <trkpt lat="45.73745" lon="5.71614">
        <ele>270</ele>
        <time>2021-06-06T10:15:41.812Z</time>
      </trkpt>
      <trkpt lat="45.73745" lon="5.71615">
        <ele>270</ele>
        <time>2021-06-06T10:16:52.772Z</time>
      </trkpt>
      <trkpt lat="45.73741" lon="5.71615">
        <ele>270</ele>
        <time>2021-06-06T10:16:56.779Z</time>
      </trkpt>
      <trkpt lat="45.73737" lon="5.71612">
        <ele>270</ele>
        <time>2021-06-06T10:17:01.809Z</time>
      </trkpt>
      <trkpt lat="45.73734" lon="5.71607">
        <ele>269</ele>
        <time>2021-06-06T10:17:06.775Z</time>
      </trkpt>
      <trkpt lat="45.73731" lon="5.71607">
        <ele>269</ele>
        <time>2021-06-06T10:17:10.791Z</time>
      </trkpt>
      <trkpt lat="45.73732" lon="5.71601">
        <ele>269</ele>
        <time>2021-06-06T10:17:42.775Z</time>
      </trkpt>
      <trkpt lat="45.73733" lon="5.71601">
        <ele>269</ele>
        <time>2021-06-06T10:17:47.765Z</time>
      </trkpt>
      <trkpt lat="45.73736" lon="5.71604">
        <ele>269</ele>
        <time>2021-06-06T10:17:51.771Z</time>
      </trkpt>
      <trkpt lat="45.73738" lon="5.71605">
        <ele>270</ele>
        <time>2021-06-06T10:17:55.775Z</time>
      </trkpt>
      <trkpt lat="45.73741" lon="5.71603">
        <ele>270</ele>
        <time>2021-06-06T10:17:59.800Z</time>
      </trkpt>
      <trkpt lat="45.73743" lon="5.71601">
        <ele>270</ele>
        <time>2021-06-06T10:18:22.786Z</time>
      </trkpt>
      <trkpt lat="45.73743" lon="5.716">
        <ele>270</ele>
        <time>2021-06-06T10:18:26.815Z</time>
      </trkpt>
      <trkpt lat="45.73736" lon="5.71597">
        <ele>273</ele>
        <time>2021-06-06T10:18:31.808Z</time>
      </trkpt>
      <trkpt lat="45.7373" lon="5.71603">
        <ele>269</ele>
        <time>2021-06-06T10:18:36.748Z</time>
      </trkpt>
      <trkpt lat="45.73728" lon="5.716">
        <ele>269</ele>
        <time>2021-06-06T10:18:40.793Z</time>
      </trkpt>
      <trkpt lat="45.73736" lon="5.71606">
        <ele>269</ele>
        <time>2021-06-06T12:48:11.720Z</time>
      </trkpt>
      <trkpt lat="45.73735" lon="5.71607">
        <ele>269</ele>
        <time>2021-06-06T12:48:15.743Z</time>
      </trkpt>
      <trkpt lat="45.73735" lon="5.71607">
        <ele>269</ele>
        <time>2021-06-06T12:48:20.727Z</time>
      </trkpt>
      <trkpt lat="45.73736" lon="5.71608">
        <ele>270</ele>
        <time>2021-06-06T12:48:24.759Z</time>
      </trkpt>
      <trkpt lat="45.73739" lon="5.71609">
        <ele>270</ele>
        <time>2021-06-06T12:48:29.760Z</time>
      </trkpt>
      <trkpt lat="45.73741" lon="5.71611">
        <ele>270</ele>
        <time>2021-06-06T12:48:33.765Z</time>
      </trkpt>
      <trkpt lat="45.73742" lon="5.71616">
        <ele>270</ele>
        <time>2021-06-06T12:48:38.736Z</time>
      </trkpt>
      <trkpt lat="45.73745" lon="5.71619">
        <ele>270</ele>
        <time>2021-06-06T12:48:42.785Z</time>
      </trkpt>
      <trkpt lat="45.73749" lon="5.71621">
        <ele>270</ele>
        <time>2021-06-06T12:48:47.773Z</time>
      </trkpt>
      <trkpt lat="45.73753" lon="5.71624">
        <ele>270</ele>
        <time>2021-06-06T12:48:52.755Z</time>
      </trkpt>
      <trkpt lat="45.73757" lon="5.71623">
        <ele>270</ele>
        <time>2021-06-06T12:48:56.763Z</time>
      </trkpt>
      <trkpt lat="45.7376" lon="5.71621">
        <ele>270</ele>
        <time>2021-06-06T12:49:00.764Z</time>
      </trkpt>
      <trkpt lat="45.73759" lon="5.71613">
        <ele>270</ele>
        <time>2021-06-06T12:49:05.753Z</time>
      </trkpt>
      <trkpt lat="45.73761" lon="5.71608">
        <ele>270</ele>
        <time>2021-06-06T12:49:09.770Z</time>
      </trkpt>
      <trkpt lat="45.73763" lon="5.71601">
        <ele>270</ele>
        <time>2021-06-06T12:49:14.752Z</time>
      </trkpt>
      <trkpt lat="45.73764" lon="5.71597">
        <ele>273</ele>
        <time>2021-06-06T12:49:19.763Z</time>
      </trkpt>
      <trkpt lat="45.73765" lon="5.71594">
        <ele>274</ele>
        <time>2021-06-06T12:49:24.746Z</time>
      </trkpt>
      <trkpt lat="45.73759" lon="5.71596">
        <ele>273</ele>
        <time>2021-06-06T12:49:37.759Z</time>
      </trkpt>
      <trkpt lat="45.73759" lon="5.71593">
        <ele>273</ele>
        <time>2021-06-06T12:49:42.759Z</time>
      </trkpt>
      <trkpt lat="45.73754" lon="5.71591">
        <ele>273</ele>
        <time>2021-06-06T12:49:46.774Z</time>
      </trkpt>
      <trkpt lat="45.73748" lon="5.7159">
        <ele>273</ele>
        <time>2021-06-06T12:49:52.721Z</time>
      </trkpt>
      <trkpt lat="45.73741" lon="5.71587">
        <ele>273</ele>
        <time>2021-06-06T12:49:57.718Z</time>
      </trkpt>
      <trkpt lat="45.73735" lon="5.71583">
        <ele>272</ele>
        <time>2021-06-06T12:50:02.717Z</time>
      </trkpt>
      <trkpt lat="45.7373" lon="5.71581">
        <ele>272</ele>
        <time>2021-06-06T12:50:06.786Z</time>
      </trkpt>
      <trkpt lat="45.73724" lon="5.7158">
        <ele>272</ele>
        <time>2021-06-06T12:50:11.730Z</time>
      </trkpt>
      <trkpt lat="45.73718" lon="5.71578">
        <ele>272</ele>
        <time>2021-06-06T12:50:15.733Z</time>
      </trkpt>
      <trkpt lat="45.73712" lon="5.71577">
        <ele>272</ele>
        <time>2021-06-06T12:50:20.748Z</time>
      </trkpt>
      <trkpt lat="45.73706" lon="5.71577">
        <ele>273</ele>
        <time>2021-06-06T12:50:24.742Z</time>
      </trkpt>
      <trkpt lat="45.737" lon="5.71578">
        <ele>273</ele>
        <time>2021-06-06T12:50:29.750Z</time>
      </trkpt>
      <trkpt lat="45.73694" lon="5.71578">
        <ele>273</ele>
        <time>2021-06-06T12:50:34.772Z</time>
      </trkpt>
      <trkpt lat="45.73689" lon="5.71582">
        <ele>273</ele>
        <time>2021-06-06T12:50:39.750Z</time>
      </trkpt>
      <trkpt lat="45.73686" lon="5.71588">
        <ele>273</ele>
        <time>2021-06-06T12:50:44.714Z</time>
      </trkpt>
      <trkpt lat="45.73682" lon="5.71593">
        <ele>273</ele>
        <time>2021-06-06T12:50:49.729Z</time>
      </trkpt>
      <trkpt lat="45.7368" lon="5.71599">
        <ele>266</ele>
        <time>2021-06-06T12:50:53.730Z</time>
      </trkpt>
      <trkpt lat="45.73677" lon="5.71604">
        <ele>266</ele>
        <time>2021-06-06T12:50:57.758Z</time>
      </trkpt>
      <trkpt lat="45.73673" lon="5.71609">
        <ele>266</ele>
        <time>2021-06-06T12:51:02.735Z</time>
      </trkpt>
      <trkpt lat="45.7367" lon="5.71612">
        <ele>266</ele>
        <time>2021-06-06T12:51:06.772Z</time>
      </trkpt>
      <trkpt lat="45.73667" lon="5.71615">
        <ele>266</ele>
        <time>2021-06-06T12:51:11.729Z</time>
      </trkpt>
      <trkpt lat="45.73663" lon="5.71618">
        <ele>266</ele>
        <time>2021-06-06T12:51:15.753Z</time>
      </trkpt>
      <trkpt lat="45.73659" lon="5.71621">
        <ele>266</ele>
        <time>2021-06-06T12:51:20.746Z</time>
      </trkpt>
      <trkpt lat="45.73655" lon="5.71626">
        <ele>262</ele>
        <time>2021-06-06T12:51:25.739Z</time>
      </trkpt>
      <trkpt lat="45.73653" lon="5.71632">
        <ele>259</ele>
        <time>2021-06-06T12:51:30.742Z</time>
      </trkpt>
      <trkpt lat="45.73651" lon="5.71636">
        <ele>259</ele>
        <time>2021-06-06T12:51:34.727Z</time>
      </trkpt>
      <trkpt lat="45.73649" lon="5.71642">
        <ele>259</ele>
        <time>2021-06-06T12:51:39.741Z</time>
      </trkpt>
      <trkpt lat="45.73647" lon="5.71649">
        <ele>259</ele>
        <time>2021-06-06T12:51:44.714Z</time>
      </trkpt>
      <trkpt lat="45.73646" lon="5.71653">
        <ele>255</ele>
        <time>2021-06-06T12:51:48.741Z</time>
      </trkpt>
      <trkpt lat="45.73644" lon="5.71656">
        <ele>255</ele>
        <time>2021-06-06T12:51:52.775Z</time>
      </trkpt>
      <trkpt lat="45.73642" lon="5.71661">
        <ele>255</ele>
        <time>2021-06-06T12:51:57.721Z</time>
      </trkpt>
      <trkpt lat="45.73641" lon="5.71667">
        <ele>255</ele>
        <time>2021-06-06T12:52:01.752Z</time>
      </trkpt>
      <trkpt lat="45.73641" lon="5.71673">
        <ele>255</ele>
        <time>2021-06-06T12:52:06.773Z</time>
      </trkpt>
      <trkpt lat="45.7364" lon="5.71674">
        <ele>255</ele>
        <time>2021-06-06T12:52:29.748Z</time>
      </trkpt>
      <trkpt lat="45.7364" lon="5.71674">
        <ele>255</ele>
        <time>2021-06-06T12:52:34.728Z</time>
      </trkpt>
      <trkpt lat="45.73639" lon="5.71675">
        <ele>255</ele>
        <time>2021-06-06T12:52:38.743Z</time>
      </trkpt>
      <trkpt lat="45.73637" lon="5.71682">
        <ele>251</ele>
        <time>2021-06-06T12:52:43.748Z</time>
      </trkpt>
      <trkpt lat="45.73636" lon="5.71688">
        <ele>251</ele>
        <time>2021-06-06T12:52:48.745Z</time>
      </trkpt>
      <trkpt lat="45.73635" lon="5.71693">
        <ele>251</ele>
        <time>2021-06-06T12:52:52.770Z</time>
      </trkpt>
      <trkpt lat="45.73633" lon="5.717">
        <ele>251</ele>
        <time>2021-06-06T12:52:57.752Z</time>
      </trkpt>
      <trkpt lat="45.73632" lon="5.71706">
        <ele>251</ele>
        <time>2021-06-06T12:53:01.751Z</time>
      </trkpt>
      <trkpt lat="45.73631" lon="5.71712">
        <ele>249</ele>
        <time>2021-06-06T12:53:05.771Z</time>
      </trkpt>
      <trkpt lat="45.73629" lon="5.71719">
        <ele>249</ele>
        <time>2021-06-06T12:53:10.728Z</time>
      </trkpt>
      <trkpt lat="45.73627" lon="5.71726">
        <ele>249</ele>
        <time>2021-06-06T12:53:15.722Z</time>
      </trkpt>
      <trkpt lat="45.73625" lon="5.71733">
        <ele>249</ele>
        <time>2021-06-06T12:53:20.727Z</time>
      </trkpt>
      <trkpt lat="45.73625" lon="5.71738">
        <ele>247</ele>
        <time>2021-06-06T12:53:24.790Z</time>
      </trkpt>
      <trkpt lat="45.73624" lon="5.7173">
        <ele>249</ele>
        <time>2021-06-06T12:53:56.717Z</time>
      </trkpt>
      <trkpt lat="45.73625" lon="5.7174">
        <ele>249</ele>
        <time>2021-06-06T12:54:01.718Z</time>
      </trkpt>
      <trkpt lat="45.73624" lon="5.71747">
        <ele>249</ele>
        <time>2021-06-06T12:54:06.720Z</time>
      </trkpt>
      <trkpt lat="45.73627" lon="5.7175">
        <ele>247</ele>
        <time>2021-06-06T12:54:11.715Z</time>
      </trkpt>
      <trkpt lat="45.73628" lon="5.71753">
        <ele>247</ele>
        <time>2021-06-06T12:54:15.715Z</time>
      </trkpt>
      <trkpt lat="45.73624" lon="5.71769">
        <ele>250</ele>
        <time>2021-06-06T12:54:43.744Z</time>
      </trkpt>
      <trkpt lat="45.73623" lon="5.71771">
        <ele>250</ele>
        <time>2021-06-06T12:54:48.773Z</time>
      </trkpt>
      <trkpt lat="45.73621" lon="5.71777">
        <ele>250</ele>
        <time>2021-06-06T12:54:53.750Z</time>
      </trkpt>
      <trkpt lat="45.73619" lon="5.71781">
        <ele>250</ele>
        <time>2021-06-06T12:54:57.774Z</time>
      </trkpt>
      <trkpt lat="45.73616" lon="5.71787">
        <ele>250</ele>
        <time>2021-06-06T12:55:02.748Z</time>
      </trkpt>
      <trkpt lat="45.73613" lon="5.71793">
        <ele>250</ele>
        <time>2021-06-06T12:55:07.739Z</time>
      </trkpt>
      <trkpt lat="45.7361" lon="5.71796">
        <ele>250</ele>
        <time>2021-06-06T12:55:11.804Z</time>
      </trkpt>
      <trkpt lat="45.73605" lon="5.71797">
        <ele>250</ele>
        <time>2021-06-06T12:55:16.722Z</time>
      </trkpt>
      <trkpt lat="45.73602" lon="5.71797">
        <ele>250</ele>
        <time>2021-06-06T12:55:20.729Z</time>
      </trkpt>
      <trkpt lat="45.73598" lon="5.71795">
        <ele>250</ele>
        <time>2021-06-06T12:55:24.749Z</time>
      </trkpt>
      <trkpt lat="45.73593" lon="5.71794">
        <ele>248</ele>
        <time>2021-06-06T12:55:29.745Z</time>
      </trkpt>
      <trkpt lat="45.73589" lon="5.71792">
        <ele>248</ele>
        <time>2021-06-06T12:55:33.749Z</time>
      </trkpt>
      <trkpt lat="45.73584" lon="5.71792">
        <ele>248</ele>
        <time>2021-06-06T12:55:38.772Z</time>
      </trkpt>
      <trkpt lat="45.7358" lon="5.71793">
        <ele>248</ele>
        <time>2021-06-06T12:55:42.783Z</time>
      </trkpt>
      <trkpt lat="45.73576" lon="5.71795">
        <ele>248</ele>
        <time>2021-06-06T12:55:47.710Z</time>
      </trkpt>
      <trkpt lat="45.73572" lon="5.71798">
        <ele>248</ele>
        <time>2021-06-06T12:55:51.718Z</time>
      </trkpt>
      <trkpt lat="45.73567" lon="5.71804">
        <ele>244</ele>
        <time>2021-06-06T12:55:56.737Z</time>
      </trkpt>
      <trkpt lat="45.73565" lon="5.71808">
        <ele>244</ele>
        <time>2021-06-06T12:56:00.750Z</time>
      </trkpt>
      <trkpt lat="45.73562" lon="5.71813">
        <ele>244</ele>
        <time>2021-06-06T12:56:05.711Z</time>
      </trkpt>
      <trkpt lat="45.73558" lon="5.71816">
        <ele>244</ele>
        <time>2021-06-06T12:56:09.749Z</time>
      </trkpt>
      <trkpt lat="45.73551" lon="5.71819">
        <ele>244</ele>
        <time>2021-06-06T12:56:14.740Z</time>
      </trkpt>
      <trkpt lat="45.73545" lon="5.71821">
        <ele>244</ele>
        <time>2021-06-06T12:56:18.808Z</time>
      </trkpt>
      <trkpt lat="45.73537" lon="5.71823">
        <ele>242</ele>
        <time>2021-06-06T12:56:23.793Z</time>
      </trkpt>
      <trkpt lat="45.73529" lon="5.71823">
        <ele>242</ele>
        <time>2021-06-06T12:56:28.779Z</time>
      </trkpt>
      <trkpt lat="45.73521" lon="5.71823">
        <ele>242</ele>
        <time>2021-06-06T12:56:33.771Z</time>
      </trkpt>
      <trkpt lat="45.73512" lon="5.71822">
        <ele>239</ele>
        <time>2021-06-06T12:56:38.737Z</time>
      </trkpt>
      <trkpt lat="45.73501" lon="5.71819">
        <ele>238</ele>
        <time>2021-06-06T12:56:43.748Z</time>
      </trkpt>
      <trkpt lat="45.7349" lon="5.71818">
        <ele>238</ele>
        <time>2021-06-06T12:56:48.745Z</time>
      </trkpt>
      <trkpt lat="45.73482" lon="5.71817">
        <ele>234</ele>
        <time>2021-06-06T12:56:52.778Z</time>
      </trkpt>
      <trkpt lat="45.73474" lon="5.71819">
        <ele>234</ele>
        <time>2021-06-06T12:56:57.749Z</time>
      </trkpt>
      <trkpt lat="45.73464" lon="5.71822">
        <ele>236</ele>
        <time>2021-06-06T12:57:02.711Z</time>
      </trkpt>
      <trkpt lat="45.73447" lon="5.71818">
        <ele>235</ele>
        <time>2021-06-06T12:57:06.729Z</time>
      </trkpt>
      <trkpt lat="45.73429" lon="5.71813">
        <ele>233</ele>
        <time>2021-06-06T12:57:11.727Z</time>
      </trkpt>
      <trkpt lat="45.73415" lon="5.7181">
        <ele>233</ele>
        <time>2021-06-06T12:57:16.745Z</time>
      </trkpt>
      <trkpt lat="45.73402" lon="5.71807">
        <ele>231</ele>
        <time>2021-06-06T12:57:21.716Z</time>
      </trkpt>
      <trkpt lat="45.73393" lon="5.71804">
        <ele>231</ele>
        <time>2021-06-06T12:57:25.725Z</time>
      </trkpt>
      <trkpt lat="45.73384" lon="5.71807">
        <ele>231</ele>
        <time>2021-06-06T12:57:29.735Z</time>
      </trkpt>
      <trkpt lat="45.73371" lon="5.71802">
        <ele>230</ele>
        <time>2021-06-06T12:57:34.730Z</time>
      </trkpt>
      <trkpt lat="45.73361" lon="5.718">
        <ele>230</ele>
        <time>2021-06-06T12:57:38.747Z</time>
      </trkpt>
      <trkpt lat="45.73347" lon="5.71794">
        <ele>230</ele>
        <time>2021-06-06T12:57:43.751Z</time>
      </trkpt>
      <trkpt lat="45.73337" lon="5.71791">
        <ele>228</ele>
        <time>2021-06-06T12:57:47.744Z</time>
      </trkpt>
      <trkpt lat="45.73327" lon="5.71787">
        <ele>228</ele>
        <time>2021-06-06T12:57:51.773Z</time>
      </trkpt>
      <trkpt lat="45.73315" lon="5.71784">
        <ele>229</ele>
        <time>2021-06-06T12:57:56.757Z</time>
      </trkpt>
      <trkpt lat="45.73301" lon="5.71781">
        <ele>229</ele>
        <time>2021-06-06T12:58:01.740Z</time>
      </trkpt>
      <trkpt lat="45.73289" lon="5.71777">
        <ele>229</ele>
        <time>2021-06-06T12:58:06.752Z</time>
      </trkpt>
      <trkpt lat="45.73279" lon="5.71773">
        <ele>229</ele>
        <time>2021-06-06T12:58:10.778Z</time>
      </trkpt>
      <trkpt lat="45.73267" lon="5.71769">
        <ele>229</ele>
        <time>2021-06-06T12:58:15.780Z</time>
      </trkpt>
      <trkpt lat="45.73259" lon="5.71766">
        <ele>228</ele>
        <time>2021-06-06T12:58:19.778Z</time>
      </trkpt>
      <trkpt lat="45.73248" lon="5.71764">
        <ele>228</ele>
        <time>2021-06-06T12:58:24.747Z</time>
      </trkpt>
      <trkpt lat="45.73241" lon="5.71765">
        <ele>228</ele>
        <time>2021-06-06T12:58:28.786Z</time>
      </trkpt>
      <trkpt lat="45.73232" lon="5.71765">
        <ele>228</ele>
        <time>2021-06-06T12:58:33.772Z</time>
      </trkpt>
      <trkpt lat="45.73224" lon="5.71764">
        <ele>228</ele>
        <time>2021-06-06T12:58:38.736Z</time>
      </trkpt>
      <trkpt lat="45.73217" lon="5.71764">
        <ele>228</ele>
        <time>2021-06-06T12:58:42.773Z</time>
      </trkpt>
      <trkpt lat="45.73209" lon="5.71763">
        <ele>228</ele>
        <time>2021-06-06T12:58:47.748Z</time>
      </trkpt>
      <trkpt lat="45.73202" lon="5.71765">
        <ele>231</ele>
        <time>2021-06-06T12:58:52.730Z</time>
      </trkpt>
      <trkpt lat="45.73197" lon="5.71766">
        <ele>231</ele>
        <time>2021-06-06T12:58:56.786Z</time>
      </trkpt>
      <trkpt lat="45.7319" lon="5.71766">
        <ele>231</ele>
        <time>2021-06-06T12:59:01.736Z</time>
      </trkpt>
      <trkpt lat="45.73185" lon="5.71766">
        <ele>231</ele>
        <time>2021-06-06T12:59:05.765Z</time>
      </trkpt>
      <trkpt lat="45.73179" lon="5.71767">
        <ele>232</ele>
        <time>2021-06-06T12:59:09.808Z</time>
      </trkpt>
      <trkpt lat="45.73171" lon="5.71769">
        <ele>232</ele>
        <time>2021-06-06T12:59:14.747Z</time>
      </trkpt>
      <trkpt lat="45.73164" lon="5.7177">
        <ele>232</ele>
        <time>2021-06-06T12:59:19.778Z</time>
      </trkpt>
      <trkpt lat="45.73157" lon="5.71769">
        <ele>232</ele>
        <time>2021-06-06T12:59:24.774Z</time>
      </trkpt>
      <trkpt lat="45.7315" lon="5.71769">
        <ele>232</ele>
        <time>2021-06-06T12:59:29.752Z</time>
      </trkpt>
      <trkpt lat="45.73142" lon="5.71769">
        <ele>232</ele>
        <time>2021-06-06T12:59:34.771Z</time>
      </trkpt>
      <trkpt lat="45.73137" lon="5.71769">
        <ele>232</ele>
        <time>2021-06-06T12:59:38.775Z</time>
      </trkpt>
      <trkpt lat="45.73129" lon="5.7177">
        <ele>232</ele>
        <time>2021-06-06T12:59:43.739Z</time>
      </trkpt>
      <trkpt lat="45.73123" lon="5.71774">
        <ele>231</ele>
        <time>2021-06-06T12:59:48.706Z</time>
      </trkpt>
      <trkpt lat="45.73118" lon="5.71779">
        <ele>231</ele>
        <time>2021-06-06T12:59:52.747Z</time>
      </trkpt>
      <trkpt lat="45.73115" lon="5.71788">
        <ele>231</ele>
        <time>2021-06-06T12:59:57.744Z</time>
      </trkpt>
      <trkpt lat="45.73111" lon="5.71804">
        <ele>229</ele>
        <time>2021-06-06T13:00:02.718Z</time>
      </trkpt>
      <trkpt lat="45.73106" lon="5.7183">
        <ele>228</ele>
        <time>2021-06-06T13:00:07.715Z</time>
      </trkpt>
      <trkpt lat="45.73105" lon="5.71846">
        <ele>228</ele>
        <time>2021-06-06T13:00:12.726Z</time>
      </trkpt>
      <trkpt lat="45.73106" lon="5.71859">
        <ele>228</ele>
        <time>2021-06-06T13:00:17.803Z</time>
      </trkpt>
      <trkpt lat="45.73108" lon="5.71871">
        <ele>228</ele>
        <time>2021-06-06T13:00:22.716Z</time>
      </trkpt>
      <trkpt lat="45.73106" lon="5.71882">
        <ele>229</ele>
        <time>2021-06-06T13:00:26.744Z</time>
      </trkpt>
      <trkpt lat="45.73101" lon="5.71899">
        <ele>229</ele>
        <time>2021-06-06T13:00:31.750Z</time>
      </trkpt>
      <trkpt lat="45.73098" lon="5.7191">
        <ele>231</ele>
        <time>2021-06-06T13:00:36.773Z</time>
      </trkpt>
      <trkpt lat="45.73091" lon="5.71916">
        <ele>232</ele>
        <time>2021-06-06T13:00:41.740Z</time>
      </trkpt>
      <trkpt lat="45.73084" lon="5.71915">
        <ele>232</ele>
        <time>2021-06-06T13:00:46.741Z</time>
      </trkpt>
      <trkpt lat="45.73075" lon="5.71917">
        <ele>232</ele>
        <time>2021-06-06T13:00:51.743Z</time>
      </trkpt>
      <trkpt lat="45.73068" lon="5.71917">
        <ele>233</ele>
        <time>2021-06-06T13:00:56.777Z</time>
      </trkpt>
      <trkpt lat="45.73059" lon="5.71915">
        <ele>233</ele>
        <time>2021-06-06T13:01:01.746Z</time>
      </trkpt>
      <trkpt lat="45.73052" lon="5.71914">
        <ele>233</ele>
        <time>2021-06-06T13:01:05.777Z</time>
      </trkpt>
      <trkpt lat="45.73045" lon="5.71909">
        <ele>233</ele>
        <time>2021-06-06T13:01:10.749Z</time>
      </trkpt>
      <trkpt lat="45.7304" lon="5.7191">
        <ele>233</ele>
        <time>2021-06-06T13:01:14.729Z</time>
      </trkpt>
      <trkpt lat="45.73031" lon="5.71911">
        <ele>233</ele>
        <time>2021-06-06T13:01:19.738Z</time>
      </trkpt>
      <trkpt lat="45.73024" lon="5.7191">
        <ele>233</ele>
        <time>2021-06-06T13:01:23.749Z</time>
      </trkpt>
      <trkpt lat="45.73015" lon="5.71908">
        <ele>233</ele>
        <time>2021-06-06T13:01:28.727Z</time>
      </trkpt>
      <trkpt lat="45.73005" lon="5.7191">
        <ele>232</ele>
        <time>2021-06-06T13:01:33.750Z</time>
      </trkpt>
      <trkpt lat="45.72998" lon="5.71912">
        <ele>232</ele>
        <time>2021-06-06T13:01:38.781Z</time>
      </trkpt>
      <trkpt lat="45.7299" lon="5.71911">
        <ele>232</ele>
        <time>2021-06-06T13:01:43.770Z</time>
      </trkpt>
      <trkpt lat="45.72983" lon="5.71914">
        <ele>233</ele>
        <time>2021-06-06T13:01:47.787Z</time>
      </trkpt>
      <trkpt lat="45.72976" lon="5.71915">
        <ele>233</ele>
        <time>2021-06-06T13:01:52.772Z</time>
      </trkpt>
      <trkpt lat="45.7297" lon="5.71916">
        <ele>233</ele>
        <time>2021-06-06T13:01:56.776Z</time>
      </trkpt>
      <trkpt lat="45.72962" lon="5.71913">
        <ele>233</ele>
        <time>2021-06-06T13:02:01.774Z</time>
      </trkpt>
      <trkpt lat="45.72955" lon="5.71913">
        <ele>236</ele>
        <time>2021-06-06T13:02:06.746Z</time>
      </trkpt>
      <trkpt lat="45.72947" lon="5.71915">
        <ele>236</ele>
        <time>2021-06-06T13:02:11.737Z</time>
      </trkpt>
      <trkpt lat="45.7294" lon="5.71921">
        <ele>236</ele>
        <time>2021-06-06T13:02:16.744Z</time>
      </trkpt>
      <trkpt lat="45.72933" lon="5.71924">
        <ele>236</ele>
        <time>2021-06-06T13:02:20.762Z</time>
      </trkpt>
      <trkpt lat="45.72925" lon="5.71924">
        <ele>237</ele>
        <time>2021-06-06T13:02:25.782Z</time>
      </trkpt>
      <trkpt lat="45.72918" lon="5.71922">
        <ele>237</ele>
        <time>2021-06-06T13:02:30.727Z</time>
      </trkpt>
      <trkpt lat="45.72913" lon="5.7192">
        <ele>237</ele>
        <time>2021-06-06T13:02:34.739Z</time>
      </trkpt>
      <trkpt lat="45.72906" lon="5.71917">
        <ele>237</ele>
        <time>2021-06-06T13:02:39.785Z</time>
      </trkpt>
      <trkpt lat="45.72898" lon="5.71914">
        <ele>239</ele>
        <time>2021-06-06T13:02:44.748Z</time>
      </trkpt>
      <trkpt lat="45.72891" lon="5.71913">
        <ele>239</ele>
        <time>2021-06-06T13:02:48.770Z</time>
      </trkpt>
      <trkpt lat="45.72884" lon="5.71911">
        <ele>239</ele>
        <time>2021-06-06T13:02:53.743Z</time>
      </trkpt>
      <trkpt lat="45.72879" lon="5.71909">
        <ele>239</ele>
        <time>2021-06-06T13:02:57.768Z</time>
      </trkpt>
      <trkpt lat="45.72871" lon="5.71908">
        <ele>241</ele>
        <time>2021-06-06T13:03:02.781Z</time>
      </trkpt>
      <trkpt lat="45.72865" lon="5.71907">
        <ele>241</ele>
        <time>2021-06-06T13:03:06.797Z</time>
      </trkpt>
      <trkpt lat="45.72859" lon="5.71908">
        <ele>241</ele>
        <time>2021-06-06T13:03:11.750Z</time>
      </trkpt>
      <trkpt lat="45.72851" lon="5.71909">
        <ele>241</ele>
        <time>2021-06-06T13:03:16.737Z</time>
      </trkpt>
      <trkpt lat="45.72844" lon="5.71913">
        <ele>246</ele>
        <time>2021-06-06T13:03:21.727Z</time>
      </trkpt>
      <trkpt lat="45.72836" lon="5.71913">
        <ele>246</ele>
        <time>2021-06-06T13:03:26.732Z</time>
      </trkpt>
      <trkpt lat="45.72829" lon="5.71912">
        <ele>246</ele>
        <time>2021-06-06T13:03:30.731Z</time>
      </trkpt>
      <trkpt lat="45.72822" lon="5.71909">
        <ele>246</ele>
        <time>2021-06-06T13:03:35.727Z</time>
      </trkpt>
      <trkpt lat="45.72816" lon="5.71906">
        <ele>248</ele>
        <time>2021-06-06T13:03:39.729Z</time>
      </trkpt>
      <trkpt lat="45.7281" lon="5.71902">
        <ele>244</ele>
        <time>2021-06-06T13:03:43.740Z</time>
      </trkpt>
      <trkpt lat="45.72804" lon="5.71898">
        <ele>244</ele>
        <time>2021-06-06T13:03:47.733Z</time>
      </trkpt>
      <trkpt lat="45.72797" lon="5.71895">
        <ele>244</ele>
        <time>2021-06-06T13:03:52.783Z</time>
      </trkpt>
      <trkpt lat="45.7279" lon="5.71893">
        <ele>242</ele>
        <time>2021-06-06T13:03:57.745Z</time>
      </trkpt>
      <trkpt lat="45.72782" lon="5.71896">
        <ele>242</ele>
        <time>2021-06-06T13:04:02.736Z</time>
      </trkpt>
      <trkpt lat="45.72773" lon="5.71901">
        <ele>242</ele>
        <time>2021-06-06T13:04:07.744Z</time>
      </trkpt>
      <trkpt lat="45.72768" lon="5.71902">
        <ele>242</ele>
        <time>2021-06-06T13:04:11.751Z</time>
      </trkpt>
      <trkpt lat="45.7276" lon="5.71902">
        <ele>242</ele>
        <time>2021-06-06T13:04:16.750Z</time>
      </trkpt>
      <trkpt lat="45.72754" lon="5.719">
        <ele>242</ele>
        <time>2021-06-06T13:04:21.727Z</time>
      </trkpt>
      <trkpt lat="45.72749" lon="5.71897">
        <ele>242</ele>
        <time>2021-06-06T13:04:25.758Z</time>
      </trkpt>
      <trkpt lat="45.72742" lon="5.71896">
        <ele>242</ele>
        <time>2021-06-06T13:04:30.771Z</time>
      </trkpt>
      <trkpt lat="45.72735" lon="5.71895">
        <ele>243</ele>
        <time>2021-06-06T13:04:35.751Z</time>
      </trkpt>
      <trkpt lat="45.72727" lon="5.71897">
        <ele>243</ele>
        <time>2021-06-06T13:04:40.771Z</time>
      </trkpt>
      <trkpt lat="45.72719" lon="5.71896">
        <ele>243</ele>
        <time>2021-06-06T13:04:45.719Z</time>
      </trkpt>
      <trkpt lat="45.72712" lon="5.71894">
        <ele>243</ele>
        <time>2021-06-06T13:04:50.745Z</time>
      </trkpt>
      <trkpt lat="45.72704" lon="5.71892">
        <ele>246</ele>
        <time>2021-06-06T13:04:55.726Z</time>
      </trkpt>
      <trkpt lat="45.72698" lon="5.71889">
        <ele>246</ele>
        <time>2021-06-06T13:04:59.751Z</time>
      </trkpt>
      <trkpt lat="45.7269" lon="5.71885">
        <ele>246</ele>
        <time>2021-06-06T13:05:04.738Z</time>
      </trkpt>
      <trkpt lat="45.72685" lon="5.71881">
        <ele>246</ele>
        <time>2021-06-06T13:05:08.749Z</time>
      </trkpt>
      <trkpt lat="45.72678" lon="5.71876">
        <ele>247</ele>
        <time>2021-06-06T13:05:13.753Z</time>
      </trkpt>
      <trkpt lat="45.72671" lon="5.71874">
        <ele>240</ele>
        <time>2021-06-06T13:05:18.796Z</time>
      </trkpt>
      <trkpt lat="45.72663" lon="5.71874">
        <ele>240</ele>
        <time>2021-06-06T13:05:23.748Z</time>
      </trkpt>
      <trkpt lat="45.72656" lon="5.71871">
        <ele>240</ele>
        <time>2021-06-06T13:05:28.774Z</time>
      </trkpt>
      <trkpt lat="45.72649" lon="5.71868">
        <ele>239</ele>
        <time>2021-06-06T13:05:33.738Z</time>
      </trkpt>
      <trkpt lat="45.72641" lon="5.71867">
        <ele>239</ele>
        <time>2021-06-06T13:05:38.745Z</time>
      </trkpt>
      <trkpt lat="45.72635" lon="5.71864">
        <ele>239</ele>
        <time>2021-06-06T13:05:42.799Z</time>
      </trkpt>
      <trkpt lat="45.72628" lon="5.7186">
        <ele>239</ele>
        <time>2021-06-06T13:05:47.724Z</time>
      </trkpt>
      <trkpt lat="45.72621" lon="5.71859">
        <ele>241</ele>
        <time>2021-06-06T13:05:51.724Z</time>
      </trkpt>
      <trkpt lat="45.72614" lon="5.71855">
        <ele>241</ele>
        <time>2021-06-06T13:05:56.732Z</time>
      </trkpt>
      <trkpt lat="45.72608" lon="5.7185">
        <ele>241</ele>
        <time>2021-06-06T13:06:00.750Z</time>
      </trkpt>
      <trkpt lat="45.72603" lon="5.71846">
        <ele>235</ele>
        <time>2021-06-06T13:06:04.768Z</time>
      </trkpt>
      <trkpt lat="45.72599" lon="5.7184">
        <ele>235</ele>
        <time>2021-06-06T13:06:08.769Z</time>
      </trkpt>
      <trkpt lat="45.72595" lon="5.71835">
        <ele>238</ele>
        <time>2021-06-06T13:06:13.748Z</time>
      </trkpt>
      <trkpt lat="45.72591" lon="5.71828">
        <ele>238</ele>
        <time>2021-06-06T13:06:17.747Z</time>
      </trkpt>
      <trkpt lat="45.72585" lon="5.71821">
        <ele>238</ele>
        <time>2021-06-06T13:06:22.722Z</time>
      </trkpt>
      <trkpt lat="45.72581" lon="5.71816">
        <ele>233</ele>
        <time>2021-06-06T13:06:26.744Z</time>
      </trkpt>
      <trkpt lat="45.72574" lon="5.71811">
        <ele>233</ele>
        <time>2021-06-06T13:06:31.710Z</time>
      </trkpt>
      <trkpt lat="45.72568" lon="5.71809">
        <ele>236</ele>
        <time>2021-06-06T13:06:35.749Z</time>
      </trkpt>
      <trkpt lat="45.72561" lon="5.71807">
        <ele>236</ele>
        <time>2021-06-06T13:06:40.744Z</time>
      </trkpt>
      <trkpt lat="45.72555" lon="5.71805">
        <ele>236</ele>
        <time>2021-06-06T13:06:45.737Z</time>
      </trkpt>
      <trkpt lat="45.72549" lon="5.71802">
        <ele>236</ele>
        <time>2021-06-06T13:06:50.752Z</time>
      </trkpt>
      <trkpt lat="45.72543" lon="5.718">
        <ele>236</ele>
        <time>2021-06-06T13:06:54.744Z</time>
      </trkpt>
      <trkpt lat="45.72537" lon="5.718">
        <ele>237</ele>
        <time>2021-06-06T13:06:58.769Z</time>
      </trkpt>
      <trkpt lat="45.7253" lon="5.718">
        <ele>237</ele>
        <time>2021-06-06T13:07:03.714Z</time>
      </trkpt>
      <trkpt lat="45.72523" lon="5.71798">
        <ele>237</ele>
        <time>2021-06-06T13:07:07.747Z</time>
      </trkpt>
      <trkpt lat="45.72519" lon="5.71794">
        <ele>237</ele>
        <time>2021-06-06T13:07:11.750Z</time>
      </trkpt>
      <trkpt lat="45.72513" lon="5.71788">
        <ele>236</ele>
        <time>2021-06-06T13:07:16.771Z</time>
      </trkpt>
      <trkpt lat="45.72508" lon="5.71781">
        <ele>236</ele>
        <time>2021-06-06T13:07:21.712Z</time>
      </trkpt>
      <trkpt lat="45.72505" lon="5.71775">
        <ele>236</ele>
        <time>2021-06-06T13:07:25.749Z</time>
      </trkpt>
      <trkpt lat="45.72499" lon="5.71768">
        <ele>236</ele>
        <time>2021-06-06T13:07:30.738Z</time>
      </trkpt>
      <trkpt lat="45.72495" lon="5.71762">
        <ele>231</ele>
        <time>2021-06-06T13:07:34.746Z</time>
      </trkpt>
      <trkpt lat="45.7249" lon="5.71755">
        <ele>231</ele>
        <time>2021-06-06T13:07:39.748Z</time>
      </trkpt>
      <trkpt lat="45.72486" lon="5.7175">
        <ele>232</ele>
        <time>2021-06-06T13:07:43.779Z</time>
      </trkpt>
      <trkpt lat="45.7248" lon="5.71743">
        <ele>232</ele>
        <time>2021-06-06T13:07:48.750Z</time>
      </trkpt>
      <trkpt lat="45.72475" lon="5.71737">
        <ele>232</ele>
        <time>2021-06-06T13:07:52.771Z</time>
      </trkpt>
      <trkpt lat="45.72469" lon="5.71731">
        <ele>229</ele>
        <time>2021-06-06T13:07:57.746Z</time>
      </trkpt>
      <trkpt lat="45.72464" lon="5.71727">
        <ele>229</ele>
        <time>2021-06-06T13:08:01.777Z</time>
      </trkpt>
      <trkpt lat="45.72457" lon="5.71725">
        <ele>231</ele>
        <time>2021-06-06T13:08:06.742Z</time>
      </trkpt>
      <trkpt lat="45.72451" lon="5.71722">
        <ele>231</ele>
        <time>2021-06-06T13:08:10.744Z</time>
      </trkpt>
      <trkpt lat="45.72444" lon="5.7172">
        <ele>231</ele>
        <time>2021-06-06T13:08:15.753Z</time>
      </trkpt>
      <trkpt lat="45.72436" lon="5.71717">
        <ele>231</ele>
        <time>2021-06-06T13:08:20.778Z</time>
      </trkpt>
      <trkpt lat="45.72431" lon="5.71713">
        <ele>231</ele>
        <time>2021-06-06T13:08:25.729Z</time>
      </trkpt>
      <trkpt lat="45.72426" lon="5.71712">
        <ele>231</ele>
        <time>2021-06-06T13:08:30.737Z</time>
      </trkpt>
      <trkpt lat="45.72419" lon="5.71708">
        <ele>229</ele>
        <time>2021-06-06T13:08:35.771Z</time>
      </trkpt>
      <trkpt lat="45.72412" lon="5.71705">
        <ele>229</ele>
        <time>2021-06-06T13:08:40.749Z</time>
      </trkpt>
      <trkpt lat="45.72406" lon="5.71702">
        <ele>229</ele>
        <time>2021-06-06T13:08:45.772Z</time>
      </trkpt>
      <trkpt lat="45.72398" lon="5.717">
        <ele>232</ele>
        <time>2021-06-06T13:08:50.721Z</time>
      </trkpt>
      <trkpt lat="45.72392" lon="5.71697">
        <ele>232</ele>
        <time>2021-06-06T13:08:54.752Z</time>
      </trkpt>
      <trkpt lat="45.72385" lon="5.71695">
        <ele>232</ele>
        <time>2021-06-06T13:08:59.735Z</time>
      </trkpt>
      <trkpt lat="45.7238" lon="5.71692">
        <ele>232</ele>
        <time>2021-06-06T13:09:03.767Z</time>
      </trkpt>
      <trkpt lat="45.72373" lon="5.71688">
        <ele>236</ele>
        <time>2021-06-06T13:09:08.741Z</time>
      </trkpt>
      <trkpt lat="45.72368" lon="5.71685">
        <ele>236</ele>
        <time>2021-06-06T13:09:12.745Z</time>
      </trkpt>
      <trkpt lat="45.72361" lon="5.71683">
        <ele>236</ele>
        <time>2021-06-06T13:09:17.746Z</time>
      </trkpt>
      <trkpt lat="45.72353" lon="5.71683">
        <ele>236</ele>
        <time>2021-06-06T13:09:22.742Z</time>
      </trkpt>
      <trkpt lat="45.72347" lon="5.71681">
        <ele>236</ele>
        <time>2021-06-06T13:09:26.749Z</time>
      </trkpt>
      <trkpt lat="45.72341" lon="5.71675">
        <ele>233</ele>
        <time>2021-06-06T13:09:31.754Z</time>
      </trkpt>
      <trkpt lat="45.72336" lon="5.71667">
        <ele>233</ele>
        <time>2021-06-06T13:09:36.742Z</time>
      </trkpt>
      <trkpt lat="45.72328" lon="5.71648">
        <ele>230</ele>
        <time>2021-06-06T13:10:13.720Z</time>
      </trkpt>
      <trkpt lat="45.72323" lon="5.71645">
        <ele>230</ele>
        <time>2021-06-06T13:10:18.722Z</time>
      </trkpt>
      <trkpt lat="45.72319" lon="5.71641">
        <ele>233</ele>
        <time>2021-06-06T13:10:22.754Z</time>
      </trkpt>
      <trkpt lat="45.72314" lon="5.71631">
        <ele>233</ele>
        <time>2021-06-06T13:10:27.735Z</time>
      </trkpt>
      <trkpt lat="45.72311" lon="5.71622">
        <ele>231</ele>
        <time>2021-06-06T13:10:32.736Z</time>
      </trkpt>
      <trkpt lat="45.72308" lon="5.71616">
        <ele>231</ele>
        <time>2021-06-06T13:10:36.736Z</time>
      </trkpt>
      <trkpt lat="45.72304" lon="5.7161">
        <ele>231</ele>
        <time>2021-06-06T13:10:40.748Z</time>
      </trkpt>
      <trkpt lat="45.72302" lon="5.71604">
        <ele>231</ele>
        <time>2021-06-06T13:10:44.752Z</time>
      </trkpt>
      <trkpt lat="45.72298" lon="5.71597">
        <ele>230</ele>
        <time>2021-06-06T13:10:49.776Z</time>
      </trkpt>
      <trkpt lat="45.72295" lon="5.71589">
        <ele>230</ele>
        <time>2021-06-06T13:10:54.735Z</time>
      </trkpt>
      <trkpt lat="45.72292" lon="5.71582">
        <ele>232</ele>
        <time>2021-06-06T13:10:58.787Z</time>
      </trkpt>
      <trkpt lat="45.72287" lon="5.71575">
        <ele>232</ele>
        <time>2021-06-06T13:11:03.741Z</time>
      </trkpt>
      <trkpt lat="45.72283" lon="5.7157">
        <ele>232</ele>
        <time>2021-06-06T13:11:07.746Z</time>
      </trkpt>
      <trkpt lat="45.72277" lon="5.71566">
        <ele>230</ele>
        <time>2021-06-06T13:11:11.774Z</time>
      </trkpt>
      <trkpt lat="45.72271" lon="5.71561">
        <ele>230</ele>
        <time>2021-06-06T13:11:16.743Z</time>
      </trkpt>
      <trkpt lat="45.72264" lon="5.71557">
        <ele>230</ele>
        <time>2021-06-06T13:11:21.750Z</time>
      </trkpt>
      <trkpt lat="45.72257" lon="5.71552">
        <ele>230</ele>
        <time>2021-06-06T13:11:26.774Z</time>
      </trkpt>
      <trkpt lat="45.72251" lon="5.71547">
        <ele>230</ele>
        <time>2021-06-06T13:11:31.741Z</time>
      </trkpt>
      <trkpt lat="45.72246" lon="5.71543">
        <ele>230</ele>
        <time>2021-06-06T13:11:35.741Z</time>
      </trkpt>
      <trkpt lat="45.72241" lon="5.71537">
        <ele>228</ele>
        <time>2021-06-06T13:11:39.751Z</time>
      </trkpt>
      <trkpt lat="45.72237" lon="5.71531">
        <ele>228</ele>
        <time>2021-06-06T13:11:43.749Z</time>
      </trkpt>
      <trkpt lat="45.72233" lon="5.71525">
        <ele>227</ele>
        <time>2021-06-06T13:11:47.770Z</time>
      </trkpt>
      <trkpt lat="45.72228" lon="5.71517">
        <ele>227</ele>
        <time>2021-06-06T13:11:52.742Z</time>
      </trkpt>
      <trkpt lat="45.72224" lon="5.71512">
        <ele>228</ele>
        <time>2021-06-06T13:11:56.752Z</time>
      </trkpt>
      <trkpt lat="45.72218" lon="5.71504">
        <ele>228</ele>
        <time>2021-06-06T13:12:01.781Z</time>
      </trkpt>
      <trkpt lat="45.72213" lon="5.71496">
        <ele>228</ele>
        <time>2021-06-06T13:12:06.735Z</time>
      </trkpt>
      <trkpt lat="45.72209" lon="5.7149">
        <ele>228</ele>
        <time>2021-06-06T13:12:10.741Z</time>
      </trkpt>
      <trkpt lat="45.72206" lon="5.71483">
        <ele>228</ele>
        <time>2021-06-06T13:12:14.775Z</time>
      </trkpt>
      <trkpt lat="45.72203" lon="5.71476">
        <ele>228</ele>
        <time>2021-06-06T13:12:18.796Z</time>
      </trkpt>
      <trkpt lat="45.72198" lon="5.7147">
        <ele>228</ele>
        <time>2021-06-06T13:12:23.739Z</time>
      </trkpt>
      <trkpt lat="45.72193" lon="5.71465">
        <ele>228</ele>
        <time>2021-06-06T13:12:28.744Z</time>
      </trkpt>
      <trkpt lat="45.72187" lon="5.71461">
        <ele>228</ele>
        <time>2021-06-06T13:12:33.774Z</time>
      </trkpt>
      <trkpt lat="45.7218" lon="5.7146">
        <ele>227</ele>
        <time>2021-06-06T13:12:38.741Z</time>
      </trkpt>
      <trkpt lat="45.72173" lon="5.71459">
        <ele>227</ele>
        <time>2021-06-06T13:12:43.745Z</time>
      </trkpt>
      <trkpt lat="45.72166" lon="5.71454">
        <ele>226</ele>
        <time>2021-06-06T13:12:48.743Z</time>
      </trkpt>
      <trkpt lat="45.72159" lon="5.7145">
        <ele>226</ele>
        <time>2021-06-06T13:12:53.734Z</time>
      </trkpt>
      <trkpt lat="45.72154" lon="5.71447">
        <ele>226</ele>
        <time>2021-06-06T13:12:57.769Z</time>
      </trkpt>
      <trkpt lat="45.72146" lon="5.71444">
        <ele>227</ele>
        <time>2021-06-06T13:13:02.746Z</time>
      </trkpt>
      <trkpt lat="45.72141" lon="5.7144">
        <ele>227</ele>
        <time>2021-06-06T13:13:06.779Z</time>
      </trkpt>
      <trkpt lat="45.72135" lon="5.71435">
        <ele>227</ele>
        <time>2021-06-06T13:13:11.737Z</time>
      </trkpt>
      <trkpt lat="45.72128" lon="5.71429">
        <ele>227</ele>
        <time>2021-06-06T13:13:16.742Z</time>
      </trkpt>
      <trkpt lat="45.72122" lon="5.71426">
        <ele>229</ele>
        <time>2021-06-06T13:13:20.740Z</time>
      </trkpt>
      <trkpt lat="45.72116" lon="5.71421">
        <ele>229</ele>
        <time>2021-06-06T13:13:25.742Z</time>
      </trkpt>
      <trkpt lat="45.72109" lon="5.71417">
        <ele>229</ele>
        <time>2021-06-06T13:13:30.742Z</time>
      </trkpt>
      <trkpt lat="45.72102" lon="5.71414">
        <ele>229</ele>
        <time>2021-06-06T13:13:35.741Z</time>
      </trkpt>
      <trkpt lat="45.72096" lon="5.71412">
        <ele>229</ele>
        <time>2021-06-06T13:13:39.771Z</time>
      </trkpt>
      <trkpt lat="45.72088" lon="5.71408">
        <ele>229</ele>
        <time>2021-06-06T13:13:44.759Z</time>
      </trkpt>
      <trkpt lat="45.7208" lon="5.71405">
        <ele>229</ele>
        <time>2021-06-06T13:13:49.734Z</time>
      </trkpt>
      <trkpt lat="45.72074" lon="5.71401">
        <ele>229</ele>
        <time>2021-06-06T13:13:53.738Z</time>
      </trkpt>
      <trkpt lat="45.72067" lon="5.71398">
        <ele>229</ele>
        <time>2021-06-06T13:13:58.718Z</time>
      </trkpt>
      <trkpt lat="45.72061" lon="5.71396">
        <ele>229</ele>
        <time>2021-06-06T13:14:02.735Z</time>
      </trkpt>
      <trkpt lat="45.72055" lon="5.71393">
        <ele>229</ele>
        <time>2021-06-06T13:14:06.750Z</time>
      </trkpt>
      <trkpt lat="45.72048" lon="5.7139">
        <ele>229</ele>
        <time>2021-06-06T13:14:11.727Z</time>
      </trkpt>
      <trkpt lat="45.72042" lon="5.71386">
        <ele>229</ele>
        <time>2021-06-06T13:14:16.721Z</time>
      </trkpt>
      <trkpt lat="45.72037" lon="5.71383">
        <ele>229</ele>
        <time>2021-06-06T13:14:20.726Z</time>
      </trkpt>
      <trkpt lat="45.72031" lon="5.7138">
        <ele>229</ele>
        <time>2021-06-06T13:14:24.742Z</time>
      </trkpt>
      <trkpt lat="45.72025" lon="5.71377">
        <ele>229</ele>
        <time>2021-06-06T13:14:29.727Z</time>
      </trkpt>
      <trkpt lat="45.7202" lon="5.71375">
        <ele>229</ele>
        <time>2021-06-06T13:14:33.760Z</time>
      </trkpt>
      <trkpt lat="45.72014" lon="5.71371">
        <ele>229</ele>
        <time>2021-06-06T13:14:38.717Z</time>
      </trkpt>
      <trkpt lat="45.72008" lon="5.7137">
        <ele>229</ele>
        <time>2021-06-06T13:14:42.787Z</time>
      </trkpt>
      <trkpt lat="45.72001" lon="5.71368">
        <ele>229</ele>
        <time>2021-06-06T13:14:47.775Z</time>
      </trkpt>
      <trkpt lat="45.71994" lon="5.71364">
        <ele>229</ele>
        <time>2021-06-06T13:14:52.754Z</time>
      </trkpt>
      <trkpt lat="45.71986" lon="5.71363">
        <ele>228</ele>
        <time>2021-06-06T13:14:57.775Z</time>
      </trkpt>
      <trkpt lat="45.71978" lon="5.71361">
        <ele>228</ele>
        <time>2021-06-06T13:15:02.751Z</time>
      </trkpt>
      <trkpt lat="45.71971" lon="5.7136">
        <ele>228</ele>
        <time>2021-06-06T13:15:07.724Z</time>
      </trkpt>
      <trkpt lat="45.71964" lon="5.71359">
        <ele>228</ele>
        <time>2021-06-06T13:15:12.710Z</time>
      </trkpt>
      <trkpt lat="45.71956" lon="5.7136">
        <ele>227</ele>
        <time>2021-06-06T13:15:17.702Z</time>
      </trkpt>
      <trkpt lat="45.7195" lon="5.71359">
        <ele>227</ele>
        <time>2021-06-06T13:15:21.753Z</time>
      </trkpt>
      <trkpt lat="45.71943" lon="5.71357">
        <ele>227</ele>
        <time>2021-06-06T13:15:26.725Z</time>
      </trkpt>
      <trkpt lat="45.71936" lon="5.71357">
        <ele>227</ele>
        <time>2021-06-06T13:15:30.752Z</time>
      </trkpt>
      <trkpt lat="45.71929" lon="5.71355">
        <ele>226</ele>
        <time>2021-06-06T13:15:35.712Z</time>
      </trkpt>
      <trkpt lat="45.71923" lon="5.71355">
        <ele>226</ele>
        <time>2021-06-06T13:15:39.753Z</time>
      </trkpt>
      <trkpt lat="45.71917" lon="5.71357">
        <ele>226</ele>
        <time>2021-06-06T13:15:44.740Z</time>
      </trkpt>
      <trkpt lat="45.71918" lon="5.71359">
        <ele>226</ele>
        <time>2021-06-06T13:16:41.737Z</time>
      </trkpt>
      <trkpt lat="45.71915" lon="5.71357">
        <ele>226</ele>
        <time>2021-06-06T13:16:45.741Z</time>
      </trkpt>
      <trkpt lat="45.7191" lon="5.71352">
        <ele>226</ele>
        <time>2021-06-06T13:16:50.723Z</time>
      </trkpt>
      <trkpt lat="45.71905" lon="5.71349">
        <ele>226</ele>
        <time>2021-06-06T13:16:54.734Z</time>
      </trkpt>
      <trkpt lat="45.71899" lon="5.7135">
        <ele>226</ele>
        <time>2021-06-06T13:16:59.723Z</time>
      </trkpt>
      <trkpt lat="45.71894" lon="5.71351">
        <ele>226</ele>
        <time>2021-06-06T13:17:03.734Z</time>
      </trkpt>
      <trkpt lat="45.71887" lon="5.71351">
        <ele>226</ele>
        <time>2021-06-06T13:17:08.740Z</time>
      </trkpt>
      <trkpt lat="45.7188" lon="5.71351">
        <ele>226</ele>
        <time>2021-06-06T13:17:13.755Z</time>
      </trkpt>
      <trkpt lat="45.71877" lon="5.7136">
        <ele>226</ele>
        <time>2021-06-06T13:17:18.732Z</time>
      </trkpt>
      <trkpt lat="45.71877" lon="5.71367">
        <ele>226</ele>
        <time>2021-06-06T13:17:22.741Z</time>
      </trkpt>
      <trkpt lat="45.71875" lon="5.71378">
        <ele>227</ele>
        <time>2021-06-06T13:17:27.725Z</time>
      </trkpt>
      <trkpt lat="45.71874" lon="5.71386">
        <ele>227</ele>
        <time>2021-06-06T13:17:31.738Z</time>
      </trkpt>
      <trkpt lat="45.71876" lon="5.71398">
        <ele>227</ele>
        <time>2021-06-06T13:17:35.749Z</time>
      </trkpt>
      <trkpt lat="45.71877" lon="5.71411">
        <ele>228</ele>
        <time>2021-06-06T13:17:39.778Z</time>
      </trkpt>
      <trkpt lat="45.7188" lon="5.71426">
        <ele>228</ele>
        <time>2021-06-06T13:17:44.743Z</time>
      </trkpt>
      <trkpt lat="45.71872" lon="5.71439">
        <ele>234</ele>
        <time>2021-06-06T13:17:49.732Z</time>
      </trkpt>
      <trkpt lat="45.71859" lon="5.71446">
        <ele>234</ele>
        <time>2021-06-06T13:17:54.772Z</time>
      </trkpt>
      <trkpt lat="45.71847" lon="5.71455">
        <ele>238</ele>
        <time>2021-06-06T13:17:59.745Z</time>
      </trkpt>
      <trkpt lat="45.71843" lon="5.71463">
        <ele>244</ele>
        <time>2021-06-06T13:18:03.748Z</time>
      </trkpt>
      <trkpt lat="45.71838" lon="5.71477">
        <ele>244</ele>
        <time>2021-06-06T13:18:08.749Z</time>
      </trkpt>
      <trkpt lat="45.71834" lon="5.71487">
        <ele>247</ele>
        <time>2021-06-06T13:18:12.778Z</time>
      </trkpt>
      <trkpt lat="45.71834" lon="5.71497">
        <ele>247</ele>
        <time>2021-06-06T13:18:16.786Z</time>
      </trkpt>
      <trkpt lat="45.71832" lon="5.71511">
        <ele>247</ele>
        <time>2021-06-06T13:18:21.751Z</time>
      </trkpt>
      <trkpt lat="45.71831" lon="5.71525">
        <ele>250</ele>
        <time>2021-06-06T13:18:26.717Z</time>
      </trkpt>
      <trkpt lat="45.71829" lon="5.71534">
        <ele>250</ele>
        <time>2021-06-06T13:18:30.733Z</time>
      </trkpt>
      <trkpt lat="45.71827" lon="5.71545">
        <ele>256</ele>
        <time>2021-06-06T13:18:35.747Z</time>
      </trkpt>
      <trkpt lat="45.71826" lon="5.71554">
        <ele>256</ele>
        <time>2021-06-06T13:18:39.773Z</time>
      </trkpt>
      <trkpt lat="45.71826" lon="5.71562">
        <ele>256</ele>
        <time>2021-06-06T13:18:43.788Z</time>
      </trkpt>
      <trkpt lat="45.71823" lon="5.71571">
        <ele>262</ele>
        <time>2021-06-06T13:18:48.771Z</time>
      </trkpt>
      <trkpt lat="45.71822" lon="5.71579">
        <ele>262</ele>
        <time>2021-06-06T13:18:53.742Z</time>
      </trkpt>
      <trkpt lat="45.71818" lon="5.71585">
        <ele>262</ele>
        <time>2021-06-06T13:18:57.750Z</time>
      </trkpt>
      <trkpt lat="45.71817" lon="5.71592">
        <ele>262</ele>
        <time>2021-06-06T13:19:01.772Z</time>
      </trkpt>
      <trkpt lat="45.71813" lon="5.71595">
        <ele>262</ele>
        <time>2021-06-06T13:19:06.746Z</time>
      </trkpt>
      <trkpt lat="45.71807" lon="5.71593">
        <ele>262</ele>
        <time>2021-06-06T13:19:11.746Z</time>
      </trkpt>
      <trkpt lat="45.71802" lon="5.71591">
        <ele>262</ele>
        <time>2021-06-06T13:19:16.749Z</time>
      </trkpt>
      <trkpt lat="45.71794" lon="5.71584">
        <ele>262</ele>
        <time>2021-06-06T13:19:21.742Z</time>
      </trkpt>
      <trkpt lat="45.71784" lon="5.71582">
        <ele>265</ele>
        <time>2021-06-06T13:19:26.746Z</time>
      </trkpt>
      <trkpt lat="45.71773" lon="5.71576">
        <ele>265</ele>
        <time>2021-06-06T13:19:31.721Z</time>
      </trkpt>
      <trkpt lat="45.71766" lon="5.71572">
        <ele>265</ele>
        <time>2021-06-06T13:19:36.743Z</time>
      </trkpt>
      <trkpt lat="45.71759" lon="5.7157">
        <ele>270</ele>
        <time>2021-06-06T13:19:41.716Z</time>
      </trkpt>
      <trkpt lat="45.71752" lon="5.71568">
        <ele>266</ele>
        <time>2021-06-06T13:19:45.733Z</time>
      </trkpt>
      <trkpt lat="45.71746" lon="5.71566">
        <ele>266</ele>
        <time>2021-06-06T13:19:49.739Z</time>
      </trkpt>
      <trkpt lat="45.71741" lon="5.71564">
        <ele>266</ele>
        <time>2021-06-06T13:19:53.743Z</time>
      </trkpt>
      <trkpt lat="45.71736" lon="5.71562">
        <ele>266</ele>
        <time>2021-06-06T13:19:57.780Z</time>
      </trkpt>
      <trkpt lat="45.71729" lon="5.71559">
        <ele>269</ele>
        <time>2021-06-06T13:20:02.739Z</time>
      </trkpt>
      <trkpt lat="45.71723" lon="5.71557">
        <ele>269</ele>
        <time>2021-06-06T13:20:06.751Z</time>
      </trkpt>
      <trkpt lat="45.71715" lon="5.71555">
        <ele>269</ele>
        <time>2021-06-06T13:20:10.780Z</time>
      </trkpt>
      <trkpt lat="45.71709" lon="5.71551">
        <ele>269</ele>
        <time>2021-06-06T13:20:14.790Z</time>
      </trkpt>
      <trkpt lat="45.71703" lon="5.71548">
        <ele>271</ele>
        <time>2021-06-06T13:20:18.803Z</time>
      </trkpt>
      <trkpt lat="45.71694" lon="5.71548">
        <ele>271</ele>
        <time>2021-06-06T13:20:23.733Z</time>
      </trkpt>
      <trkpt lat="45.71685" lon="5.71547">
        <ele>271</ele>
        <time>2021-06-06T13:20:28.733Z</time>
      </trkpt>
      <trkpt lat="45.71679" lon="5.71546">
        <ele>271</ele>
        <time>2021-06-06T13:20:32.745Z</time>
      </trkpt>
      <trkpt lat="45.7167" lon="5.71546">
        <ele>271</ele>
        <time>2021-06-06T13:20:37.737Z</time>
      </trkpt>
      <trkpt lat="45.71664" lon="5.71545">
        <ele>271</ele>
        <time>2021-06-06T13:20:41.749Z</time>
      </trkpt>
      <trkpt lat="45.71656" lon="5.71545">
        <ele>271</ele>
        <time>2021-06-06T13:20:46.740Z</time>
      </trkpt>
      <trkpt lat="45.7165" lon="5.71545">
        <ele>269</ele>
        <time>2021-06-06T13:20:50.772Z</time>
      </trkpt>
      <trkpt lat="45.71642" lon="5.71546">
        <ele>269</ele>
        <time>2021-06-06T13:20:55.738Z</time>
      </trkpt>
      <trkpt lat="45.71635" lon="5.71546">
        <ele>269</ele>
        <time>2021-06-06T13:20:59.774Z</time>
      </trkpt>
      <trkpt lat="45.71628" lon="5.71546">
        <ele>269</ele>
        <time>2021-06-06T13:21:04.723Z</time>
      </trkpt>
      <trkpt lat="45.71621" lon="5.71547">
        <ele>268</ele>
        <time>2021-06-06T13:21:08.737Z</time>
      </trkpt>
      <trkpt lat="45.71612" lon="5.71546">
        <ele>268</ele>
        <time>2021-06-06T13:21:13.715Z</time>
      </trkpt>
      <trkpt lat="45.71604" lon="5.71544">
        <ele>268</ele>
        <time>2021-06-06T13:21:17.742Z</time>
      </trkpt>
      <trkpt lat="45.71598" lon="5.71544">
        <ele>268</ele>
        <time>2021-06-06T13:21:21.769Z</time>
      </trkpt>
      <trkpt lat="45.71588" lon="5.71542">
        <ele>268</ele>
        <time>2021-06-06T13:21:26.769Z</time>
      </trkpt>
      <trkpt lat="45.71577" lon="5.7154">
        <ele>265</ele>
        <time>2021-06-06T13:21:31.731Z</time>
      </trkpt>
      <trkpt lat="45.71571" lon="5.71539">
        <ele>265</ele>
        <time>2021-06-06T13:21:35.748Z</time>
      </trkpt>
      <trkpt lat="45.71563" lon="5.71538">
        <ele>263</ele>
        <time>2021-06-06T13:21:40.740Z</time>
      </trkpt>
      <trkpt lat="45.71556" lon="5.71538">
        <ele>263</ele>
        <time>2021-06-06T13:21:44.748Z</time>
      </trkpt>
      <trkpt lat="45.71547" lon="5.71538">
        <ele>263</ele>
        <time>2021-06-06T13:21:49.736Z</time>
      </trkpt>
      <trkpt lat="45.71541" lon="5.71539">
        <ele>262</ele>
        <time>2021-06-06T13:21:53.778Z</time>
      </trkpt>
      <trkpt lat="45.71534" lon="5.71544">
        <ele>266</ele>
        <time>2021-06-06T13:21:58.743Z</time>
      </trkpt>
      <trkpt lat="45.71528" lon="5.71548">
        <ele>266</ele>
        <time>2021-06-06T13:22:03.736Z</time>
      </trkpt>
      <trkpt lat="45.71521" lon="5.71551">
        <ele>266</ele>
        <time>2021-06-06T13:22:08.738Z</time>
      </trkpt>
      <trkpt lat="45.71515" lon="5.71554">
        <ele>266</ele>
        <time>2021-06-06T13:22:12.743Z</time>
      </trkpt>
      <trkpt lat="45.71508" lon="5.71558">
        <ele>265</ele>
        <time>2021-06-06T13:22:17.771Z</time>
      </trkpt>
      <trkpt lat="45.71502" lon="5.71563">
        <ele>265</ele>
        <time>2021-06-06T13:22:22.727Z</time>
      </trkpt>
      <trkpt lat="45.71497" lon="5.71566">
        <ele>265</ele>
        <time>2021-06-06T13:22:26.771Z</time>
      </trkpt>
      <trkpt lat="45.7149" lon="5.71571">
        <ele>267</ele>
        <time>2021-06-06T13:22:31.747Z</time>
      </trkpt>
      <trkpt lat="45.71484" lon="5.71575">
        <ele>266</ele>
        <time>2021-06-06T13:22:35.767Z</time>
      </trkpt>
      <trkpt lat="45.71477" lon="5.71579">
        <ele>266</ele>
        <time>2021-06-06T13:22:40.735Z</time>
      </trkpt>
      <trkpt lat="45.71471" lon="5.71581">
        <ele>266</ele>
        <time>2021-06-06T13:22:44.768Z</time>
      </trkpt>
      <trkpt lat="45.71465" lon="5.71586">
        <ele>266</ele>
        <time>2021-06-06T13:22:49.732Z</time>
      </trkpt>
      <trkpt lat="45.71459" lon="5.71591">
        <ele>266</ele>
        <time>2021-06-06T13:22:53.734Z</time>
      </trkpt>
      <trkpt lat="45.71452" lon="5.71593">
        <ele>265</ele>
        <time>2021-06-06T13:22:57.744Z</time>
      </trkpt>
      <trkpt lat="45.71445" lon="5.71595">
        <ele>265</ele>
        <time>2021-06-06T13:23:02.742Z</time>
      </trkpt>
      <trkpt lat="45.71436" lon="5.71599">
        <ele>267</ele>
        <time>2021-06-06T13:23:07.728Z</time>
      </trkpt>
      <trkpt lat="45.71428" lon="5.71602">
        <ele>266</ele>
        <time>2021-06-06T13:23:12.742Z</time>
      </trkpt>
      <trkpt lat="45.7142" lon="5.71606">
        <ele>266</ele>
        <time>2021-06-06T13:23:17.725Z</time>
      </trkpt>
      <trkpt lat="45.71414" lon="5.71609">
        <ele>266</ele>
        <time>2021-06-06T13:23:22.716Z</time>
      </trkpt>
      <trkpt lat="45.71408" lon="5.7161">
        <ele>266</ele>
        <time>2021-06-06T13:23:26.734Z</time>
      </trkpt>
      <trkpt lat="45.71403" lon="5.71603">
        <ele>266</ele>
        <time>2021-06-06T13:23:30.768Z</time>
      </trkpt>
      <trkpt lat="45.71399" lon="5.71594">
        <ele>260</ele>
        <time>2021-06-06T13:23:35.733Z</time>
      </trkpt>
      <trkpt lat="45.71394" lon="5.71587">
        <ele>260</ele>
        <time>2021-06-06T13:23:39.750Z</time>
      </trkpt>
      <trkpt lat="45.71389" lon="5.71578">
        <ele>260</ele>
        <time>2021-06-06T13:23:44.715Z</time>
      </trkpt>
      <trkpt lat="45.71384" lon="5.71572">
        <ele>260</ele>
        <time>2021-06-06T13:23:48.742Z</time>
      </trkpt>
      <trkpt lat="45.71379" lon="5.71567">
        <ele>258</ele>
        <time>2021-06-06T13:23:53.771Z</time>
      </trkpt>
      <trkpt lat="45.71372" lon="5.71563">
        <ele>257</ele>
        <time>2021-06-06T13:23:58.735Z</time>
      </trkpt>
      <trkpt lat="45.71367" lon="5.71568">
        <ele>257</ele>
        <time>2021-06-06T13:24:02.773Z</time>
      </trkpt>
      <trkpt lat="45.7136" lon="5.71575">
        <ele>259</ele>
        <time>2021-06-06T13:24:07.749Z</time>
      </trkpt>
      <trkpt lat="45.71352" lon="5.7158">
        <ele>259</ele>
        <time>2021-06-06T13:24:12.741Z</time>
      </trkpt>
      <trkpt lat="45.71342" lon="5.71584">
        <ele>260</ele>
        <time>2021-06-06T13:24:17.741Z</time>
      </trkpt>
      <trkpt lat="45.71334" lon="5.71589">
        <ele>260</ele>
        <time>2021-06-06T13:24:22.741Z</time>
      </trkpt>
      <trkpt lat="45.71328" lon="5.71592">
        <ele>260</ele>
        <time>2021-06-06T13:24:26.744Z</time>
      </trkpt>
      <trkpt lat="45.71322" lon="5.71599">
        <ele>263</ele>
        <time>2021-06-06T13:24:31.750Z</time>
      </trkpt>
      <trkpt lat="45.71318" lon="5.71606">
        <ele>262</ele>
        <time>2021-06-06T13:24:35.766Z</time>
      </trkpt>
      <trkpt lat="45.71314" lon="5.71615">
        <ele>262</ele>
        <time>2021-06-06T13:24:40.746Z</time>
      </trkpt>
      <trkpt lat="45.71311" lon="5.71622">
        <ele>262</ele>
        <time>2021-06-06T13:24:44.766Z</time>
      </trkpt>
      <trkpt lat="45.71308" lon="5.71632">
        <ele>266</ele>
        <time>2021-06-06T13:24:49.729Z</time>
      </trkpt>
      <trkpt lat="45.71306" lon="5.71639">
        <ele>266</ele>
        <time>2021-06-06T13:24:53.743Z</time>
      </trkpt>
      <trkpt lat="45.713" lon="5.71646">
        <ele>266</ele>
        <time>2021-06-06T13:24:58.742Z</time>
      </trkpt>
      <trkpt lat="45.71296" lon="5.71654">
        <ele>270</ele>
        <time>2021-06-06T13:25:03.742Z</time>
      </trkpt>
      <trkpt lat="45.7129" lon="5.71658">
        <ele>271</ele>
        <time>2021-06-06T13:25:08.721Z</time>
      </trkpt>
      <trkpt lat="45.71286" lon="5.71664">
        <ele>271</ele>
        <time>2021-06-06T13:25:12.724Z</time>
      </trkpt>
      <trkpt lat="45.71281" lon="5.71671">
        <ele>271</ele>
        <time>2021-06-06T13:25:17.740Z</time>
      </trkpt>
      <trkpt lat="45.71274" lon="5.71677">
        <ele>271</ele>
        <time>2021-06-06T13:25:22.716Z</time>
      </trkpt>
      <trkpt lat="45.71269" lon="5.71681">
        <ele>276</ele>
        <time>2021-06-06T13:25:26.738Z</time>
      </trkpt>
      <trkpt lat="45.71264" lon="5.71688">
        <ele>276</ele>
        <time>2021-06-06T13:25:31.749Z</time>
      </trkpt>
      <trkpt lat="45.71266" lon="5.71698">
        <ele>276</ele>
        <time>2021-06-06T13:25:36.738Z</time>
      </trkpt>
      <trkpt lat="45.71267" lon="5.71706">
        <ele>276</ele>
        <time>2021-06-06T13:25:40.734Z</time>
      </trkpt>
      <trkpt lat="45.71267" lon="5.71715">
        <ele>281</ele>
        <time>2021-06-06T13:25:45.747Z</time>
      </trkpt>
      <trkpt lat="45.71267" lon="5.71725">
        <ele>281</ele>
        <time>2021-06-06T13:25:50.751Z</time>
      </trkpt>
      <trkpt lat="45.71266" lon="5.71733">
        <ele>281</ele>
        <time>2021-06-06T13:25:54.765Z</time>
      </trkpt>
      <trkpt lat="45.71267" lon="5.71743">
        <ele>285</ele>
        <time>2021-06-06T13:25:59.753Z</time>
      </trkpt>
      <trkpt lat="45.71267" lon="5.71753">
        <ele>285</ele>
        <time>2021-06-06T13:26:04.744Z</time>
      </trkpt>
      <trkpt lat="45.71266" lon="5.71762">
        <ele>285</ele>
        <time>2021-06-06T13:26:09.730Z</time>
      </trkpt>
      <trkpt lat="45.71267" lon="5.7177">
        <ele>289</ele>
        <time>2021-06-06T13:26:13.738Z</time>
      </trkpt>
      <trkpt lat="45.71266" lon="5.71779">
        <ele>289</ele>
        <time>2021-06-06T13:26:18.748Z</time>
      </trkpt>
      <trkpt lat="45.71266" lon="5.71788">
        <ele>289</ele>
        <time>2021-06-06T13:26:23.742Z</time>
      </trkpt>
      <trkpt lat="45.71265" lon="5.71796">
        <ele>293</ele>
        <time>2021-06-06T13:26:27.757Z</time>
      </trkpt>
      <trkpt lat="45.71262" lon="5.71806">
        <ele>291</ele>
        <time>2021-06-06T13:26:32.733Z</time>
      </trkpt>
      <trkpt lat="45.71261" lon="5.71813">
        <ele>291</ele>
        <time>2021-06-06T13:26:36.739Z</time>
      </trkpt>
      <trkpt lat="45.71259" lon="5.71821">
        <ele>293</ele>
        <time>2021-06-06T13:26:41.725Z</time>
      </trkpt>
      <trkpt lat="45.71257" lon="5.71829">
        <ele>293</ele>
        <time>2021-06-06T13:26:46.730Z</time>
      </trkpt>
      <trkpt lat="45.71255" lon="5.71838">
        <ele>293</ele>
        <time>2021-06-06T13:26:51.724Z</time>
      </trkpt>
      <trkpt lat="45.71253" lon="5.71845">
        <ele>293</ele>
        <time>2021-06-06T13:26:55.746Z</time>
      </trkpt>
      <trkpt lat="45.7125" lon="5.71852">
        <ele>297</ele>
        <time>2021-06-06T13:26:59.769Z</time>
      </trkpt>
      <trkpt lat="45.71249" lon="5.71861">
        <ele>297</ele>
        <time>2021-06-06T13:27:04.747Z</time>
      </trkpt>
      <trkpt lat="45.71246" lon="5.7187">
        <ele>297</ele>
        <time>2021-06-06T13:27:09.804Z</time>
      </trkpt>
      <trkpt lat="45.71242" lon="5.71878">
        <ele>304</ele>
        <time>2021-06-06T13:27:14.790Z</time>
      </trkpt>
      <trkpt lat="45.71236" lon="5.71886">
        <ele>304</ele>
        <time>2021-06-06T13:27:19.789Z</time>
      </trkpt>
      <trkpt lat="45.71231" lon="5.71894">
        <ele>296</ele>
        <time>2021-06-06T13:27:24.723Z</time>
      </trkpt>
      <trkpt lat="45.71226" lon="5.71903">
        <ele>303</ele>
        <time>2021-06-06T13:27:29.744Z</time>
      </trkpt>
      <trkpt lat="45.71223" lon="5.71913">
        <ele>303</ele>
        <time>2021-06-06T13:27:34.734Z</time>
      </trkpt>
      <trkpt lat="45.71221" lon="5.7192">
        <ele>303</ele>
        <time>2021-06-06T13:27:38.770Z</time>
      </trkpt>
      <trkpt lat="45.71219" lon="5.71927">
        <ele>303</ele>
        <time>2021-06-06T13:27:42.800Z</time>
      </trkpt>
      <trkpt lat="45.71213" lon="5.71934">
        <ele>311</ele>
        <time>2021-06-06T13:27:47.749Z</time>
      </trkpt>
      <trkpt lat="45.71209" lon="5.71941">
        <ele>311</ele>
        <time>2021-06-06T13:27:51.776Z</time>
      </trkpt>
      <trkpt lat="45.71206" lon="5.7195">
        <ele>299</ele>
        <time>2021-06-06T13:27:56.774Z</time>
      </trkpt>
      <trkpt lat="45.71202" lon="5.71956">
        <ele>299</ele>
        <time>2021-06-06T13:28:00.793Z</time>
      </trkpt>
      <trkpt lat="45.71198" lon="5.71965">
        <ele>303</ele>
        <time>2021-06-06T13:28:05.771Z</time>
      </trkpt>
      <trkpt lat="45.71193" lon="5.71973">
        <ele>303</ele>
        <time>2021-06-06T13:28:10.734Z</time>
      </trkpt>
      <trkpt lat="45.7119" lon="5.71981">
        <ele>303</ele>
        <time>2021-06-06T13:28:15.721Z</time>
      </trkpt>
      <trkpt lat="45.71187" lon="5.71988">
        <ele>312</ele>
        <time>2021-06-06T13:28:19.726Z</time>
      </trkpt>
      <trkpt lat="45.71183" lon="5.71995">
        <ele>312</ele>
        <time>2021-06-06T13:28:23.740Z</time>
      </trkpt>
      <trkpt lat="45.71179" lon="5.72001">
        <ele>301</ele>
        <time>2021-06-06T13:28:27.739Z</time>
      </trkpt>
      <trkpt lat="45.71174" lon="5.7201">
        <ele>301</ele>
        <time>2021-06-06T13:28:32.740Z</time>
      </trkpt>
      <trkpt lat="45.71169" lon="5.72016">
        <ele>314</ele>
        <time>2021-06-06T13:28:36.744Z</time>
      </trkpt>
      <trkpt lat="45.71164" lon="5.72024">
        <ele>314</ele>
        <time>2021-06-06T13:28:41.743Z</time>
      </trkpt>
      <trkpt lat="45.7116" lon="5.72033">
        <ele>314</ele>
        <time>2021-06-06T13:28:46.702Z</time>
      </trkpt>
      <trkpt lat="45.71157" lon="5.7204">
        <ele>314</ele>
        <time>2021-06-06T13:28:50.747Z</time>
      </trkpt>
      <trkpt lat="45.71155" lon="5.72049">
        <ele>327</ele>
        <time>2021-06-06T13:28:55.785Z</time>
      </trkpt>
      <trkpt lat="45.71154" lon="5.72059">
        <ele>327</ele>
        <time>2021-06-06T13:29:00.773Z</time>
      </trkpt>
      <trkpt lat="45.71152" lon="5.72068">
        <ele>319</ele>
        <time>2021-06-06T13:29:05.743Z</time>
      </trkpt>
      <trkpt lat="45.7115" lon="5.72078">
        <ele>328</ele>
        <time>2021-06-06T13:29:10.749Z</time>
      </trkpt>
      <trkpt lat="45.71149" lon="5.72086">
        <ele>328</ele>
        <time>2021-06-06T13:29:14.765Z</time>
      </trkpt>
      <trkpt lat="45.71147" lon="5.72094">
        <ele>328</ele>
        <time>2021-06-06T13:29:19.736Z</time>
      </trkpt>
      <trkpt lat="45.71145" lon="5.72103">
        <ele>340</ele>
        <time>2021-06-06T13:29:24.745Z</time>
      </trkpt>
      <trkpt lat="45.71141" lon="5.72112">
        <ele>340</ele>
        <time>2021-06-06T13:29:29.730Z</time>
      </trkpt>
      <trkpt lat="45.71136" lon="5.72119">
        <ele>340</ele>
        <time>2021-06-06T13:29:33.750Z</time>
      </trkpt>
      <trkpt lat="45.7113" lon="5.72122">
        <ele>340</ele>
        <time>2021-06-06T13:29:37.755Z</time>
      </trkpt>
      <trkpt lat="45.71124" lon="5.72128">
        <ele>351</ele>
        <time>2021-06-06T13:29:42.753Z</time>
      </trkpt>
      <trkpt lat="45.71117" lon="5.72126">
        <ele>351</ele>
        <time>2021-06-06T13:29:47.704Z</time>
      </trkpt>
      <trkpt lat="45.7111" lon="5.72127">
        <ele>351</ele>
        <time>2021-06-06T13:29:52.704Z</time>
      </trkpt>
      <trkpt lat="45.71106" lon="5.72131">
        <ele>351</ele>
        <time>2021-06-06T13:29:57.705Z</time>
      </trkpt>
      <trkpt lat="45.71109" lon="5.72138">
        <ele>351</ele>
        <time>2021-06-06T13:30:02.703Z</time>
      </trkpt>
      <trkpt lat="45.71115" lon="5.72143">
        <ele>351</ele>
        <time>2021-06-06T13:30:06.703Z</time>
      </trkpt>
      <trkpt lat="45.71117" lon="5.72143">
        <ele>351</ele>
        <time>2021-06-06T13:30:11.701Z</time>
      </trkpt>
      <trkpt lat="45.71128" lon="5.72152">
        <ele>357</ele>
        <time>2021-06-06T13:30:31.703Z</time>
      </trkpt>
      <trkpt lat="45.71124" lon="5.72157">
        <ele>370</ele>
        <time>2021-06-06T13:30:35.708Z</time>
      </trkpt>
      <trkpt lat="45.7112" lon="5.72161">
        <ele>370</ele>
        <time>2021-06-06T13:30:40.704Z</time>
      </trkpt>
      <trkpt lat="45.71119" lon="5.72167">
        <ele>370</ele>
        <time>2021-06-06T13:30:44.702Z</time>
      </trkpt>
      <trkpt lat="45.71123" lon="5.72171">
        <ele>370</ele>
        <time>2021-06-06T13:30:49.703Z</time>
      </trkpt>
      <trkpt lat="45.71128" lon="5.7217">
        <ele>368</ele>
        <time>2021-06-06T13:31:04.712Z</time>
      </trkpt>
      <trkpt lat="45.71124" lon="5.72167">
        <ele>370</ele>
        <time>2021-06-06T13:31:09.704Z</time>
      </trkpt>
      <trkpt lat="45.7112" lon="5.72174">
        <ele>370</ele>
        <time>2021-06-06T13:31:14.705Z</time>
      </trkpt>
      <trkpt lat="45.71119" lon="5.72182">
        <ele>375</ele>
        <time>2021-06-06T13:31:18.704Z</time>
      </trkpt>
      <trkpt lat="45.71119" lon="5.72193">
        <ele>375</ele>
        <time>2021-06-06T13:31:23.709Z</time>
      </trkpt>
      <trkpt lat="45.71123" lon="5.72202">
        <ele>375</ele>
        <time>2021-06-06T13:31:28.704Z</time>
      </trkpt>
      <trkpt lat="45.71126" lon="5.72202">
        <ele>375</ele>
        <time>2021-06-06T13:31:32.712Z</time>
      </trkpt>
      <trkpt lat="45.71127" lon="5.722">
        <ele>375</ele>
        <time>2021-06-06T13:31:37.703Z</time>
      </trkpt>
      <trkpt lat="45.71131" lon="5.72195">
        <ele>375</ele>
        <time>2021-06-06T13:31:42.705Z</time>
      </trkpt>
      <trkpt lat="45.71135" lon="5.72197">
        <ele>375</ele>
        <time>2021-06-06T13:31:47.708Z</time>
      </trkpt>
      <trkpt lat="45.71137" lon="5.72202">
        <ele>375</ele>
        <time>2021-06-06T13:31:52.697Z</time>
      </trkpt>
      <trkpt lat="45.71133" lon="5.7221">
        <ele>378</ele>
        <time>2021-06-06T13:31:57.702Z</time>
      </trkpt>
      <trkpt lat="45.71127" lon="5.72217">
        <ele>378</ele>
        <time>2021-06-06T13:32:02.706Z</time>
      </trkpt>
      <trkpt lat="45.71119" lon="5.72225">
        <ele>379</ele>
        <time>2021-06-06T13:32:07.706Z</time>
      </trkpt>
      <trkpt lat="45.71114" lon="5.72232">
        <ele>379</ele>
        <time>2021-06-06T13:32:12.701Z</time>
      </trkpt>
      <trkpt lat="45.71112" lon="5.72241">
        <ele>381</ele>
        <time>2021-06-06T13:32:16.706Z</time>
      </trkpt>
      <trkpt lat="45.71111" lon="5.7225">
        <ele>381</ele>
        <time>2021-06-06T13:32:21.708Z</time>
      </trkpt>
      <trkpt lat="45.71115" lon="5.72258">
        <ele>381</ele>
        <time>2021-06-06T13:32:26.708Z</time>
      </trkpt>
      <trkpt lat="45.71122" lon="5.72253">
        <ele>381</ele>
        <time>2021-06-06T13:32:31.706Z</time>
      </trkpt>
      <trkpt lat="45.71127" lon="5.72243">
        <ele>382</ele>
        <time>2021-06-06T13:32:36.705Z</time>
      </trkpt>
      <trkpt lat="45.71129" lon="5.72237">
        <ele>382</ele>
        <time>2021-06-06T13:32:40.704Z</time>
      </trkpt>
      <trkpt lat="45.71134" lon="5.72233">
        <ele>378</ele>
        <time>2021-06-06T13:32:44.705Z</time>
      </trkpt>
      <trkpt lat="45.71138" lon="5.72234">
        <ele>378</ele>
        <time>2021-06-06T13:32:48.710Z</time>
      </trkpt>
      <trkpt lat="45.71137" lon="5.72243">
        <ele>382</ele>
        <time>2021-06-06T13:32:53.700Z</time>
      </trkpt>
      <trkpt lat="45.71135" lon="5.72249">
        <ele>382</ele>
        <time>2021-06-06T13:32:57.710Z</time>
      </trkpt>
      <trkpt lat="45.71129" lon="5.72257">
        <ele>382</ele>
        <time>2021-06-06T13:33:02.706Z</time>
      </trkpt>
      <trkpt lat="45.71126" lon="5.72263">
        <ele>382</ele>
        <time>2021-06-06T13:33:06.707Z</time>
      </trkpt>
      <trkpt lat="45.71122" lon="5.72273">
        <ele>381</ele>
        <time>2021-06-06T13:33:11.703Z</time>
      </trkpt>
      <trkpt lat="45.71118" lon="5.7228">
        <ele>381</ele>
        <time>2021-06-06T13:33:15.709Z</time>
      </trkpt>
      <trkpt lat="45.71114" lon="5.72289">
        <ele>381</ele>
        <time>2021-06-06T13:33:20.706Z</time>
      </trkpt>
      <trkpt lat="45.7111" lon="5.72297">
        <ele>385</ele>
        <time>2021-06-06T13:33:25.702Z</time>
      </trkpt>
      <trkpt lat="45.7111" lon="5.72307">
        <ele>385</ele>
        <time>2021-06-06T13:33:30.703Z</time>
      </trkpt>
      <trkpt lat="45.71109" lon="5.72313">
        <ele>385</ele>
        <time>2021-06-06T13:33:34.711Z</time>
      </trkpt>
      <trkpt lat="45.71107" lon="5.7232">
        <ele>388</ele>
        <time>2021-06-06T13:33:39.704Z</time>
      </trkpt>
      <trkpt lat="45.71105" lon="5.72329">
        <ele>388</ele>
        <time>2021-06-06T13:33:44.705Z</time>
      </trkpt>
      <trkpt lat="45.71104" lon="5.7234">
        <ele>388</ele>
        <time>2021-06-06T13:33:48.706Z</time>
      </trkpt>
      <trkpt lat="45.71112" lon="5.72351">
        <ele>388</ele>
        <time>2021-06-06T13:33:52.707Z</time>
      </trkpt>
      <trkpt lat="45.71116" lon="5.72359">
        <ele>388</ele>
        <time>2021-06-06T13:33:56.707Z</time>
      </trkpt>
      <trkpt lat="45.71116" lon="5.72367">
        <ele>388</ele>
        <time>2021-06-06T13:34:01.703Z</time>
      </trkpt>
      <trkpt lat="45.71113" lon="5.72381">
        <ele>389</ele>
        <time>2021-06-06T13:34:06.711Z</time>
      </trkpt>
      <trkpt lat="45.71109" lon="5.72391">
        <ele>389</ele>
        <time>2021-06-06T13:34:11.699Z</time>
      </trkpt>
      <trkpt lat="45.71106" lon="5.72397">
        <ele>389</ele>
        <time>2021-06-06T13:34:16.708Z</time>
      </trkpt>
      <trkpt lat="45.71101" lon="5.72407">
        <ele>388</ele>
        <time>2021-06-06T13:34:21.704Z</time>
      </trkpt>
      <trkpt lat="45.71102" lon="5.72416">
        <ele>388</ele>
        <time>2021-06-06T13:34:25.703Z</time>
      </trkpt>
      <trkpt lat="45.71105" lon="5.72426">
        <ele>388</ele>
        <time>2021-06-06T13:34:30.711Z</time>
      </trkpt>
      <trkpt lat="45.71106" lon="5.72436">
        <ele>392</ele>
        <time>2021-06-06T13:34:35.706Z</time>
      </trkpt>
      <trkpt lat="45.71108" lon="5.72442">
        <ele>392</ele>
        <time>2021-06-06T13:34:40.707Z</time>
      </trkpt>
      <trkpt lat="45.71109" lon="5.7245">
        <ele>392</ele>
        <time>2021-06-06T13:34:44.716Z</time>
      </trkpt>
      <trkpt lat="45.7111" lon="5.72458">
        <ele>392</ele>
        <time>2021-06-06T13:34:49.708Z</time>
      </trkpt>
      <trkpt lat="45.71115" lon="5.72466">
        <ele>393</ele>
        <time>2021-06-06T13:34:54.715Z</time>
      </trkpt>
      <trkpt lat="45.71115" lon="5.72473">
        <ele>393</ele>
        <time>2021-06-06T13:34:58.713Z</time>
      </trkpt>
      <trkpt lat="45.71116" lon="5.72484">
        <ele>393</ele>
        <time>2021-06-06T13:35:03.712Z</time>
      </trkpt>
      <trkpt lat="45.71118" lon="5.72491">
        <ele>388</ele>
        <time>2021-06-06T13:35:08.706Z</time>
      </trkpt>
      <trkpt lat="45.71122" lon="5.72498">
        <ele>388</ele>
        <time>2021-06-06T13:35:13.712Z</time>
      </trkpt>
      <trkpt lat="45.71128" lon="5.72503">
        <ele>397</ele>
        <time>2021-06-06T13:35:18.712Z</time>
      </trkpt>
      <trkpt lat="45.71134" lon="5.72507">
        <ele>397</ele>
        <time>2021-06-06T13:35:23.715Z</time>
      </trkpt>
      <trkpt lat="45.7114" lon="5.7251">
        <ele>397</ele>
        <time>2021-06-06T13:35:28.716Z</time>
      </trkpt>
      <trkpt lat="45.71146" lon="5.72514">
        <ele>397</ele>
        <time>2021-06-06T13:35:33.711Z</time>
      </trkpt>
      <trkpt lat="45.71151" lon="5.72521">
        <ele>397</ele>
        <time>2021-06-06T13:35:38.709Z</time>
      </trkpt>
      <trkpt lat="45.71154" lon="5.72534">
        <ele>408</ele>
        <time>2021-06-06T13:35:43.713Z</time>
      </trkpt>
      <trkpt lat="45.71155" lon="5.72546">
        <ele>410</ele>
        <time>2021-06-06T13:35:48.714Z</time>
      </trkpt>
      <trkpt lat="45.71157" lon="5.72553">
        <ele>410</ele>
        <time>2021-06-06T13:35:53.718Z</time>
      </trkpt>
      <trkpt lat="45.71158" lon="5.7256">
        <ele>410</ele>
        <time>2021-06-06T13:35:57.714Z</time>
      </trkpt>
      <trkpt lat="45.7116" lon="5.72568">
        <ele>410</ele>
        <time>2021-06-06T13:36:02.708Z</time>
      </trkpt>
      <trkpt lat="45.71159" lon="5.72575">
        <ele>411</ele>
        <time>2021-06-06T13:36:06.709Z</time>
      </trkpt>
      <trkpt lat="45.71158" lon="5.72582">
        <ele>411</ele>
        <time>2021-06-06T13:36:10.711Z</time>
      </trkpt>
      <trkpt lat="45.71154" lon="5.7259">
        <ele>411</ele>
        <time>2021-06-06T13:36:15.719Z</time>
      </trkpt>
      <trkpt lat="45.71153" lon="5.72598">
        <ele>403</ele>
        <time>2021-06-06T13:36:20.724Z</time>
      </trkpt>
      <trkpt lat="45.71149" lon="5.72604">
        <ele>394</ele>
        <time>2021-06-06T13:36:25.713Z</time>
      </trkpt>
      <trkpt lat="45.71145" lon="5.72608">
        <ele>394</ele>
        <time>2021-06-06T13:36:30.707Z</time>
      </trkpt>
      <trkpt lat="45.71137" lon="5.72607">
        <ele>394</ele>
        <time>2021-06-06T13:36:39.711Z</time>
      </trkpt>
      <trkpt lat="45.71137" lon="5.72606">
        <ele>394</ele>
        <time>2021-06-06T13:36:44.712Z</time>
      </trkpt>
      <trkpt lat="45.71137" lon="5.72606">
        <ele>394</ele>
        <time>2021-06-06T13:36:49.720Z</time>
      </trkpt>
      <trkpt lat="45.71135" lon="5.72611">
        <ele>394</ele>
        <time>2021-06-06T13:36:54.714Z</time>
      </trkpt>
      <trkpt lat="45.7113" lon="5.72617">
        <ele>394</ele>
        <time>2021-06-06T13:36:59.719Z</time>
      </trkpt>
      <trkpt lat="45.71125" lon="5.7262">
        <ele>394</ele>
        <time>2021-06-06T13:37:04.710Z</time>
      </trkpt>
      <trkpt lat="45.71122" lon="5.72626">
        <ele>380</ele>
        <time>2021-06-06T13:37:09.717Z</time>
      </trkpt>
      <trkpt lat="45.7112" lon="5.72634">
        <ele>380</ele>
        <time>2021-06-06T13:37:13.718Z</time>
      </trkpt>
      <trkpt lat="45.71117" lon="5.72642">
        <ele>380</ele>
        <time>2021-06-06T13:37:18.713Z</time>
      </trkpt>
      <trkpt lat="45.71116" lon="5.72655">
        <ele>374</ele>
        <time>2021-06-06T13:37:23.710Z</time>
      </trkpt>
      <trkpt lat="45.71115" lon="5.72663">
        <ele>374</ele>
        <time>2021-06-06T13:37:27.706Z</time>
      </trkpt>
      <trkpt lat="45.71113" lon="5.72669">
        <ele>374</ele>
        <time>2021-06-06T13:37:31.709Z</time>
      </trkpt>
      <trkpt lat="45.71112" lon="5.72677">
        <ele>374</ele>
        <time>2021-06-06T13:37:36.712Z</time>
      </trkpt>
      <trkpt lat="45.71113" lon="5.72686">
        <ele>373</ele>
        <time>2021-06-06T13:37:40.727Z</time>
      </trkpt>
      <trkpt lat="45.71115" lon="5.72694">
        <ele>373</ele>
        <time>2021-06-06T13:37:45.722Z</time>
      </trkpt>
      <trkpt lat="45.71117" lon="5.72703">
        <ele>373</ele>
        <time>2021-06-06T13:37:50.718Z</time>
      </trkpt>
      <trkpt lat="45.7112" lon="5.72709">
        <ele>371</ele>
        <time>2021-06-06T13:37:54.718Z</time>
      </trkpt>
      <trkpt lat="45.71122" lon="5.72717">
        <ele>371</ele>
        <time>2021-06-06T13:37:59.724Z</time>
      </trkpt>
      <trkpt lat="45.71124" lon="5.72724">
        <ele>371</ele>
        <time>2021-06-06T13:38:04.722Z</time>
      </trkpt>
      <trkpt lat="45.71126" lon="5.72733">
        <ele>388</ele>
        <time>2021-06-06T13:38:09.723Z</time>
      </trkpt>
      <trkpt lat="45.71127" lon="5.72743">
        <ele>383</ele>
        <time>2021-06-06T13:38:14.712Z</time>
      </trkpt>
      <trkpt lat="45.7113" lon="5.72751">
        <ele>383</ele>
        <time>2021-06-06T13:38:19.720Z</time>
      </trkpt>
      <trkpt lat="45.71132" lon="5.72759">
        <ele>383</ele>
        <time>2021-06-06T13:38:24.729Z</time>
      </trkpt>
      <trkpt lat="45.71134" lon="5.72766">
        <ele>379</ele>
        <time>2021-06-06T13:38:28.721Z</time>
      </trkpt>
      <trkpt lat="45.71138" lon="5.72773">
        <ele>379</ele>
        <time>2021-06-06T13:38:33.718Z</time>
      </trkpt>
      <trkpt lat="45.7114" lon="5.7278">
        <ele>379</ele>
        <time>2021-06-06T13:38:37.718Z</time>
      </trkpt>
      <trkpt lat="45.71141" lon="5.72791">
        <ele>379</ele>
        <time>2021-06-06T13:38:42.710Z</time>
      </trkpt>
      <trkpt lat="45.71142" lon="5.728">
        <ele>367</ele>
        <time>2021-06-06T13:38:47.743Z</time>
      </trkpt>
      <trkpt lat="45.71145" lon="5.72807">
        <ele>367</ele>
        <time>2021-06-06T13:38:52.718Z</time>
      </trkpt>
      <trkpt lat="45.71148" lon="5.72818">
        <ele>367</ele>
        <time>2021-06-06T13:38:57.715Z</time>
      </trkpt>
      <trkpt lat="45.7115" lon="5.72823">
        <ele>359</ele>
        <time>2021-06-06T13:39:01.724Z</time>
      </trkpt>
      <trkpt lat="45.71156" lon="5.72828">
        <ele>380</ele>
        <time>2021-06-06T13:39:06.718Z</time>
      </trkpt>
      <trkpt lat="45.71156" lon="5.72836">
        <ele>380</ele>
        <time>2021-06-06T13:39:10.716Z</time>
      </trkpt>
      <trkpt lat="45.71158" lon="5.72843">
        <ele>380</ele>
        <time>2021-06-06T13:39:15.722Z</time>
      </trkpt>
      <trkpt lat="45.7116" lon="5.7285">
        <ele>371</ele>
        <time>2021-06-06T13:39:20.718Z</time>
      </trkpt>
      <trkpt lat="45.71162" lon="5.7286">
        <ele>371</ele>
        <time>2021-06-06T13:39:25.718Z</time>
      </trkpt>
      <trkpt lat="45.71165" lon="5.72868">
        <ele>371</ele>
        <time>2021-06-06T13:39:30.725Z</time>
      </trkpt>
      <trkpt lat="45.71168" lon="5.72876">
        <ele>365</ele>
        <time>2021-06-06T13:39:35.721Z</time>
      </trkpt>
      <trkpt lat="45.71171" lon="5.72884">
        <ele>365</ele>
        <time>2021-06-06T13:39:40.724Z</time>
      </trkpt>
      <trkpt lat="45.71175" lon="5.72894">
        <ele>365</ele>
        <time>2021-06-06T13:39:45.723Z</time>
      </trkpt>
      <trkpt lat="45.71178" lon="5.72901">
        <ele>365</ele>
        <time>2021-06-06T13:39:49.749Z</time>
      </trkpt>
      <trkpt lat="45.71181" lon="5.72909">
        <ele>382</ele>
        <time>2021-06-06T13:39:54.722Z</time>
      </trkpt>
      <trkpt lat="45.71186" lon="5.72917">
        <ele>382</ele>
        <time>2021-06-06T13:39:59.729Z</time>
      </trkpt>
      <trkpt lat="45.71189" lon="5.72923">
        <ele>382</ele>
        <time>2021-06-06T13:40:04.705Z</time>
      </trkpt>
      <trkpt lat="45.71192" lon="5.72932">
        <ele>373</ele>
        <time>2021-06-06T13:40:09.702Z</time>
      </trkpt>
      <trkpt lat="45.71193" lon="5.72939">
        <ele>373</ele>
        <time>2021-06-06T13:40:14.701Z</time>
      </trkpt>
      <trkpt lat="45.71193" lon="5.72943">
        <ele>373</ele>
        <time>2021-06-06T13:40:16.701Z</time>
      </trkpt>
      <trkpt lat="45.71197" lon="5.72953">
        <ele>373</ele>
        <time>2021-06-06T13:40:23.699Z</time>
      </trkpt>
      <trkpt lat="45.71199" lon="5.7296">
        <ele>370</ele>
        <time>2021-06-06T13:40:27.703Z</time>
      </trkpt>
      <trkpt lat="45.71202" lon="5.72969">
        <ele>370</ele>
        <time>2021-06-06T13:40:32.698Z</time>
      </trkpt>
      <trkpt lat="45.71204" lon="5.72975">
        <ele>370</ele>
        <time>2021-06-06T13:40:36.704Z</time>
      </trkpt>
      <trkpt lat="45.71207" lon="5.72981">
        <ele>370</ele>
        <time>2021-06-06T13:40:40.707Z</time>
      </trkpt>
      <trkpt lat="45.71211" lon="5.72992">
        <ele>375</ele>
        <time>2021-06-06T13:40:45.704Z</time>
      </trkpt>
      <trkpt lat="45.71214" lon="5.73">
        <ele>375</ele>
        <time>2021-06-06T13:40:50.700Z</time>
      </trkpt>
      <trkpt lat="45.71217" lon="5.73006">
        <ele>375</ele>
        <time>2021-06-06T13:40:54.704Z</time>
      </trkpt>
      <trkpt lat="45.71219" lon="5.73012">
        <ele>375</ele>
        <time>2021-06-06T13:40:58.723Z</time>
      </trkpt>
      <trkpt lat="45.71221" lon="5.7302">
        <ele>366</ele>
        <time>2021-06-06T13:41:02.760Z</time>
      </trkpt>
      <trkpt lat="45.71224" lon="5.73028">
        <ele>366</ele>
        <time>2021-06-06T13:41:07.707Z</time>
      </trkpt>
      <trkpt lat="45.71228" lon="5.73035">
        <ele>366</ele>
        <time>2021-06-06T13:41:11.760Z</time>
      </trkpt>
      <trkpt lat="45.71231" lon="5.73043">
        <ele>363</ele>
        <time>2021-06-06T13:41:16.748Z</time>
      </trkpt>
      <trkpt lat="45.71237" lon="5.73049">
        <ele>378</ele>
        <time>2021-06-06T13:41:21.729Z</time>
      </trkpt>
      <trkpt lat="45.71239" lon="5.73051">
        <ele>378</ele>
        <time>2021-06-06T13:41:25.746Z</time>
      </trkpt>
      <trkpt lat="45.71243" lon="5.73057">
        <ele>378</ele>
        <time>2021-06-06T13:41:30.742Z</time>
      </trkpt>
      <trkpt lat="45.71244" lon="5.73062">
        <ele>378</ele>
        <time>2021-06-06T13:41:34.738Z</time>
      </trkpt>
      <trkpt lat="45.71245" lon="5.73068">
        <ele>378</ele>
        <time>2021-06-06T13:41:38.743Z</time>
      </trkpt>
      <trkpt lat="45.71246" lon="5.73079">
        <ele>378</ele>
        <time>2021-06-06T13:41:43.744Z</time>
      </trkpt>
      <trkpt lat="45.71247" lon="5.73087">
        <ele>378</ele>
        <time>2021-06-06T13:41:48.731Z</time>
      </trkpt>
      <trkpt lat="45.71248" lon="5.73094">
        <ele>378</ele>
        <time>2021-06-06T13:41:52.743Z</time>
      </trkpt>
      <trkpt lat="45.7125" lon="5.73103">
        <ele>383</ele>
        <time>2021-06-06T13:41:57.736Z</time>
      </trkpt>
      <trkpt lat="45.7125" lon="5.73112">
        <ele>383</ele>
        <time>2021-06-06T13:42:02.750Z</time>
      </trkpt>
      <trkpt lat="45.71251" lon="5.73122">
        <ele>383</ele>
        <time>2021-06-06T13:42:07.742Z</time>
      </trkpt>
      <trkpt lat="45.71251" lon="5.73131">
        <ele>380</ele>
        <time>2021-06-06T13:42:12.738Z</time>
      </trkpt>
      <trkpt lat="45.71251" lon="5.73138">
        <ele>380</ele>
        <time>2021-06-06T13:42:16.750Z</time>
      </trkpt>
      <trkpt lat="45.71252" lon="5.73148">
        <ele>380</ele>
        <time>2021-06-06T13:42:21.722Z</time>
      </trkpt>
      <trkpt lat="45.71253" lon="5.73155">
        <ele>380</ele>
        <time>2021-06-06T13:42:25.748Z</time>
      </trkpt>
      <trkpt lat="45.71253" lon="5.73164">
        <ele>380</ele>
        <time>2021-06-06T13:42:30.737Z</time>
      </trkpt>
      <trkpt lat="45.71253" lon="5.73172">
        <ele>380</ele>
        <time>2021-06-06T13:42:34.753Z</time>
      </trkpt>
      <trkpt lat="45.71253" lon="5.73181">
        <ele>378</ele>
        <time>2021-06-06T13:42:39.716Z</time>
      </trkpt>
      <trkpt lat="45.71252" lon="5.73191">
        <ele>378</ele>
        <time>2021-06-06T13:42:43.759Z</time>
      </trkpt>
      <trkpt lat="45.71251" lon="5.732">
        <ele>378</ele>
        <time>2021-06-06T13:42:48.742Z</time>
      </trkpt>
      <trkpt lat="45.71251" lon="5.7321">
        <ele>374</ele>
        <time>2021-06-06T13:42:53.732Z</time>
      </trkpt>
      <trkpt lat="45.71252" lon="5.73218">
        <ele>374</ele>
        <time>2021-06-06T13:42:57.751Z</time>
      </trkpt>
      <trkpt lat="45.71254" lon="5.73226">
        <ele>374</ele>
        <time>2021-06-06T13:43:02.735Z</time>
      </trkpt>
      <trkpt lat="45.71257" lon="5.73232">
        <ele>374</ele>
        <time>2021-06-06T13:43:06.735Z</time>
      </trkpt>
      <trkpt lat="45.71258" lon="5.73238">
        <ele>370</ele>
        <time>2021-06-06T13:43:10.744Z</time>
      </trkpt>
      <trkpt lat="45.71257" lon="5.73247">
        <ele>370</ele>
        <time>2021-06-06T13:43:15.738Z</time>
      </trkpt>
      <trkpt lat="45.71256" lon="5.73254">
        <ele>370</ele>
        <time>2021-06-06T13:43:19.741Z</time>
      </trkpt>
      <trkpt lat="45.71255" lon="5.73264">
        <ele>370</ele>
        <time>2021-06-06T13:43:24.741Z</time>
      </trkpt>
      <trkpt lat="45.71254" lon="5.73272">
        <ele>368</ele>
        <time>2021-06-06T13:43:29.735Z</time>
      </trkpt>
      <trkpt lat="45.71254" lon="5.73279">
        <ele>368</ele>
        <time>2021-06-06T13:43:33.758Z</time>
      </trkpt>
      <trkpt lat="45.71254" lon="5.73287">
        <ele>368</ele>
        <time>2021-06-06T13:43:38.749Z</time>
      </trkpt>
      <trkpt lat="45.71255" lon="5.73297">
        <ele>363</ele>
        <time>2021-06-06T13:43:43.746Z</time>
      </trkpt>
      <trkpt lat="45.71256" lon="5.73304">
        <ele>363</ele>
        <time>2021-06-06T13:43:47.753Z</time>
      </trkpt>
      <trkpt lat="45.71256" lon="5.73312">
        <ele>363</ele>
        <time>2021-06-06T13:43:51.758Z</time>
      </trkpt>
      <trkpt lat="45.71257" lon="5.73321">
        <ele>359</ele>
        <time>2021-06-06T13:43:56.748Z</time>
      </trkpt>
      <trkpt lat="45.71257" lon="5.73331">
        <ele>359</ele>
        <time>2021-06-06T13:44:01.729Z</time>
      </trkpt>
      <trkpt lat="45.7126" lon="5.73342">
        <ele>359</ele>
        <time>2021-06-06T13:44:06.734Z</time>
      </trkpt>
      <trkpt lat="45.71263" lon="5.73352">
        <ele>356</ele>
        <time>2021-06-06T13:44:11.704Z</time>
      </trkpt>
      <trkpt lat="45.71264" lon="5.7336">
        <ele>368</ele>
        <time>2021-06-06T13:44:15.706Z</time>
      </trkpt>
      <trkpt lat="45.71266" lon="5.7337">
        <ele>368</ele>
        <time>2021-06-06T13:44:20.705Z</time>
      </trkpt>
      <trkpt lat="45.71267" lon="5.73377">
        <ele>362</ele>
        <time>2021-06-06T13:44:25.702Z</time>
      </trkpt>
      <trkpt lat="45.71267" lon="5.73387">
        <ele>362</ele>
        <time>2021-06-06T13:44:29.701Z</time>
      </trkpt>
      <trkpt lat="45.7127" lon="5.73396">
        <ele>362</ele>
        <time>2021-06-06T13:44:34.700Z</time>
      </trkpt>
      <trkpt lat="45.71273" lon="5.73402">
        <ele>362</ele>
        <time>2021-06-06T13:44:38.699Z</time>
      </trkpt>
      <trkpt lat="45.71277" lon="5.73413">
        <ele>360</ele>
        <time>2021-06-06T13:44:43.699Z</time>
      </trkpt>
      <trkpt lat="45.71281" lon="5.73422">
        <ele>360</ele>
        <time>2021-06-06T13:44:48.709Z</time>
      </trkpt>
      <trkpt lat="45.71284" lon="5.73431">
        <ele>358</ele>
        <time>2021-06-06T13:44:53.718Z</time>
      </trkpt>
      <trkpt lat="45.71287" lon="5.73437">
        <ele>358</ele>
        <time>2021-06-06T13:44:57.726Z</time>
      </trkpt>
      <trkpt lat="45.71291" lon="5.73445">
        <ele>358</ele>
        <time>2021-06-06T13:45:02.756Z</time>
      </trkpt>
      <trkpt lat="45.71295" lon="5.73453">
        <ele>372</ele>
        <time>2021-06-06T13:45:07.722Z</time>
      </trkpt>
      <trkpt lat="45.71298" lon="5.73459">
        <ele>367</ele>
        <time>2021-06-06T13:45:11.742Z</time>
      </trkpt>
      <trkpt lat="45.71302" lon="5.73466">
        <ele>367</ele>
        <time>2021-06-06T13:45:16.710Z</time>
      </trkpt>
      <trkpt lat="45.71307" lon="5.7347">
        <ele>367</ele>
        <time>2021-06-06T13:45:20.748Z</time>
      </trkpt>
      <trkpt lat="45.71313" lon="5.73477">
        <ele>367</ele>
        <time>2021-06-06T13:45:25.736Z</time>
      </trkpt>
      <trkpt lat="45.71318" lon="5.73483">
        <ele>367</ele>
        <time>2021-06-06T13:45:29.740Z</time>
      </trkpt>
      <trkpt lat="45.71323" lon="5.73489">
        <ele>370</ele>
        <time>2021-06-06T13:45:34.732Z</time>
      </trkpt>
      <trkpt lat="45.71328" lon="5.73491">
        <ele>370</ele>
        <time>2021-06-06T13:45:38.750Z</time>
      </trkpt>
      <trkpt lat="45.71334" lon="5.73496">
        <ele>370</ele>
        <time>2021-06-06T13:45:43.748Z</time>
      </trkpt>
      <trkpt lat="45.71339" lon="5.73502">
        <ele>370</ele>
        <time>2021-06-06T13:45:48.737Z</time>
      </trkpt>
      <trkpt lat="45.71343" lon="5.73509">
        <ele>370</ele>
        <time>2021-06-06T13:45:53.737Z</time>
      </trkpt>
      <trkpt lat="45.71346" lon="5.73517">
        <ele>369</ele>
        <time>2021-06-06T13:45:58.742Z</time>
      </trkpt>
      <trkpt lat="45.71347" lon="5.73524">
        <ele>369</ele>
        <time>2021-06-06T13:46:02.756Z</time>
      </trkpt>
      <trkpt lat="45.71349" lon="5.73533">
        <ele>379</ele>
        <time>2021-06-06T13:46:07.750Z</time>
      </trkpt>
      <trkpt lat="45.71351" lon="5.73541">
        <ele>379</ele>
        <time>2021-06-06T13:46:12.736Z</time>
      </trkpt>
      <trkpt lat="45.71353" lon="5.73549">
        <ele>375</ele>
        <time>2021-06-06T13:46:17.742Z</time>
      </trkpt>
      <trkpt lat="45.71353" lon="5.7356">
        <ele>375</ele>
        <time>2021-06-06T13:46:22.760Z</time>
      </trkpt>
      <trkpt lat="45.71352" lon="5.73569">
        <ele>375</ele>
        <time>2021-06-06T13:46:27.759Z</time>
      </trkpt>
      <trkpt lat="45.71352" lon="5.73577">
        <ele>370</ele>
        <time>2021-06-06T13:46:31.751Z</time>
      </trkpt>
      <trkpt lat="45.71353" lon="5.73586">
        <ele>370</ele>
        <time>2021-06-06T13:46:36.742Z</time>
      </trkpt>
      <trkpt lat="45.71355" lon="5.73594">
        <ele>370</ele>
        <time>2021-06-06T13:46:41.705Z</time>
      </trkpt>
      <trkpt lat="45.71357" lon="5.73603">
        <ele>365</ele>
        <time>2021-06-06T13:46:46.709Z</time>
      </trkpt>
      <trkpt lat="45.71359" lon="5.73611">
        <ele>365</ele>
        <time>2021-06-06T13:46:51.745Z</time>
      </trkpt>
      <trkpt lat="45.71362" lon="5.73619">
        <ele>365</ele>
        <time>2021-06-06T13:46:56.748Z</time>
      </trkpt>
      <trkpt lat="45.71365" lon="5.73627">
        <ele>363</ele>
        <time>2021-06-06T13:47:01.741Z</time>
      </trkpt>
      <trkpt lat="45.71369" lon="5.73636">
        <ele>363</ele>
        <time>2021-06-06T13:47:06.752Z</time>
      </trkpt>
      <trkpt lat="45.71374" lon="5.73643">
        <ele>363</ele>
        <time>2021-06-06T13:47:11.748Z</time>
      </trkpt>
      <trkpt lat="45.7138" lon="5.73645">
        <ele>376</ele>
        <time>2021-06-06T13:47:16.733Z</time>
      </trkpt>
      <trkpt lat="45.71386" lon="5.7365">
        <ele>376</ele>
        <time>2021-06-06T13:47:21.707Z</time>
      </trkpt>
      <trkpt lat="45.7139" lon="5.73654">
        <ele>374</ele>
        <time>2021-06-06T13:47:25.729Z</time>
      </trkpt>
      <trkpt lat="45.71394" lon="5.73663">
        <ele>374</ele>
        <time>2021-06-06T13:47:30.708Z</time>
      </trkpt>
      <trkpt lat="45.71397" lon="5.7367">
        <ele>374</ele>
        <time>2021-06-06T13:47:35.732Z</time>
      </trkpt>
      <trkpt lat="45.714" lon="5.73675">
        <ele>374</ele>
        <time>2021-06-06T13:47:39.740Z</time>
      </trkpt>
      <trkpt lat="45.71403" lon="5.73681">
        <ele>372</ele>
        <time>2021-06-06T13:47:43.736Z</time>
      </trkpt>
      <trkpt lat="45.71405" lon="5.73691">
        <ele>380</ele>
        <time>2021-06-06T13:47:48.725Z</time>
      </trkpt>
      <trkpt lat="45.71406" lon="5.73703">
        <ele>380</ele>
        <time>2021-06-06T13:47:53.750Z</time>
      </trkpt>
      <trkpt lat="45.7141" lon="5.73708">
        <ele>378</ele>
        <time>2021-06-06T13:47:57.750Z</time>
      </trkpt>
      <trkpt lat="45.71414" lon="5.73716">
        <ele>378</ele>
        <time>2021-06-06T13:48:02.762Z</time>
      </trkpt>
      <trkpt lat="45.7142" lon="5.7372">
        <ele>378</ele>
        <time>2021-06-06T13:48:07.708Z</time>
      </trkpt>
      <trkpt lat="45.71425" lon="5.7372">
        <ele>378</ele>
        <time>2021-06-06T13:48:11.756Z</time>
      </trkpt>
      <trkpt lat="45.7143" lon="5.73721">
        <ele>378</ele>
        <time>2021-06-06T13:48:16.713Z</time>
      </trkpt>
      <trkpt lat="45.71435" lon="5.73718">
        <ele>385</ele>
        <time>2021-06-06T13:48:20.723Z</time>
      </trkpt>
      <trkpt lat="45.71441" lon="5.73719">
        <ele>385</ele>
        <time>2021-06-06T13:48:25.748Z</time>
      </trkpt>
      <trkpt lat="45.71445" lon="5.73722">
        <ele>385</ele>
        <time>2021-06-06T13:48:30.735Z</time>
      </trkpt>
      <trkpt lat="45.7145" lon="5.7373">
        <ele>385</ele>
        <time>2021-06-06T13:48:35.734Z</time>
      </trkpt>
      <trkpt lat="45.71453" lon="5.73736">
        <ele>383</ele>
        <time>2021-06-06T13:48:39.758Z</time>
      </trkpt>
      <trkpt lat="45.71455" lon="5.73744">
        <ele>383</ele>
        <time>2021-06-06T13:48:44.728Z</time>
      </trkpt>
      <trkpt lat="45.71459" lon="5.73748">
        <ele>386</ele>
        <time>2021-06-06T13:48:48.734Z</time>
      </trkpt>
      <trkpt lat="45.71462" lon="5.73753">
        <ele>386</ele>
        <time>2021-06-06T13:48:52.751Z</time>
      </trkpt>
      <trkpt lat="45.71467" lon="5.73758">
        <ele>386</ele>
        <time>2021-06-06T13:48:57.733Z</time>
      </trkpt>
      <trkpt lat="45.71473" lon="5.7376">
        <ele>386</ele>
        <time>2021-06-06T13:49:02.749Z</time>
      </trkpt>
      <trkpt lat="45.71478" lon="5.73765">
        <ele>384</ele>
        <time>2021-06-06T13:49:07.736Z</time>
      </trkpt>
      <trkpt lat="45.71484" lon="5.7377">
        <ele>384</ele>
        <time>2021-06-06T13:49:12.711Z</time>
      </trkpt>
      <trkpt lat="45.71487" lon="5.73776">
        <ele>386</ele>
        <time>2021-06-06T13:49:16.748Z</time>
      </trkpt>
      <trkpt lat="45.71493" lon="5.7378">
        <ele>386</ele>
        <time>2021-06-06T13:49:21.728Z</time>
      </trkpt>
      <trkpt lat="45.71499" lon="5.73781">
        <ele>386</ele>
        <time>2021-06-06T13:49:26.721Z</time>
      </trkpt>
      <trkpt lat="45.71505" lon="5.73782">
        <ele>386</ele>
        <time>2021-06-06T13:49:31.713Z</time>
      </trkpt>
      <trkpt lat="45.7151" lon="5.73784">
        <ele>386</ele>
        <time>2021-06-06T13:49:35.732Z</time>
      </trkpt>
      <trkpt lat="45.71516" lon="5.73785">
        <ele>391</ele>
        <time>2021-06-06T13:49:40.726Z</time>
      </trkpt>
      <trkpt lat="45.71521" lon="5.73786">
        <ele>391</ele>
        <time>2021-06-06T13:49:44.722Z</time>
      </trkpt>
      <trkpt lat="45.71526" lon="5.73789">
        <ele>391</ele>
        <time>2021-06-06T13:49:49.736Z</time>
      </trkpt>
      <trkpt lat="45.71533" lon="5.73792">
        <ele>387</ele>
        <time>2021-06-06T13:49:54.716Z</time>
      </trkpt>
      <trkpt lat="45.7154" lon="5.73797">
        <ele>387</ele>
        <time>2021-06-06T13:49:58.739Z</time>
      </trkpt>
      <trkpt lat="45.71542" lon="5.73801">
        <ele>392</ele>
        <time>2021-06-06T13:50:02.744Z</time>
      </trkpt>
      <trkpt lat="45.71545" lon="5.73808">
        <ele>392</ele>
        <time>2021-06-06T13:50:07.751Z</time>
      </trkpt>
      <trkpt lat="45.71548" lon="5.73812">
        <ele>392</ele>
        <time>2021-06-06T13:50:11.745Z</time>
      </trkpt>
      <trkpt lat="45.71549" lon="5.7382">
        <ele>388</ele>
        <time>2021-06-06T13:50:16.728Z</time>
      </trkpt>
      <trkpt lat="45.71551" lon="5.73826">
        <ele>388</ele>
        <time>2021-06-06T13:50:20.729Z</time>
      </trkpt>
      <trkpt lat="45.71554" lon="5.73833">
        <ele>388</ele>
        <time>2021-06-06T13:50:25.742Z</time>
      </trkpt>
      <trkpt lat="45.71556" lon="5.73839">
        <ele>388</ele>
        <time>2021-06-06T13:50:29.717Z</time>
      </trkpt>
      <trkpt lat="45.71559" lon="5.73846">
        <ele>388</ele>
        <time>2021-06-06T13:50:34.735Z</time>
      </trkpt>
      <trkpt lat="45.7156" lon="5.73854">
        <ele>386</ele>
        <time>2021-06-06T13:50:38.748Z</time>
      </trkpt>
      <trkpt lat="45.71563" lon="5.73863">
        <ele>386</ele>
        <time>2021-06-06T13:50:43.731Z</time>
      </trkpt>
      <trkpt lat="45.71565" lon="5.7387">
        <ele>386</ele>
        <time>2021-06-06T13:50:47.744Z</time>
      </trkpt>
      <trkpt lat="45.71568" lon="5.73878">
        <ele>384</ele>
        <time>2021-06-06T13:50:51.735Z</time>
      </trkpt>
      <trkpt lat="45.71572" lon="5.73885">
        <ele>387</ele>
        <time>2021-06-06T13:50:56.708Z</time>
      </trkpt>
      <trkpt lat="45.71576" lon="5.73892">
        <ele>387</ele>
        <time>2021-06-06T13:51:01.724Z</time>
      </trkpt>
      <trkpt lat="45.71579" lon="5.73897">
        <ele>387</ele>
        <time>2021-06-06T13:51:05.747Z</time>
      </trkpt>
      <trkpt lat="45.71583" lon="5.73905">
        <ele>386</ele>
        <time>2021-06-06T13:51:10.730Z</time>
      </trkpt>
      <trkpt lat="45.71585" lon="5.73913">
        <ele>386</ele>
        <time>2021-06-06T13:51:15.768Z</time>
      </trkpt>
      <trkpt lat="45.71589" lon="5.73922">
        <ele>386</ele>
        <time>2021-06-06T13:51:20.736Z</time>
      </trkpt>
      <trkpt lat="45.71591" lon="5.73931">
        <ele>385</ele>
        <time>2021-06-06T13:51:24.747Z</time>
      </trkpt>
      <trkpt lat="45.71593" lon="5.73938">
        <ele>385</ele>
        <time>2021-06-06T13:51:28.767Z</time>
      </trkpt>
      <trkpt lat="45.71597" lon="5.73946">
        <ele>385</ele>
        <time>2021-06-06T13:51:33.711Z</time>
      </trkpt>
      <trkpt lat="45.71601" lon="5.73958">
        <ele>389</ele>
        <time>2021-06-06T13:51:38.745Z</time>
      </trkpt>
      <trkpt lat="45.71604" lon="5.73965">
        <ele>390</ele>
        <time>2021-06-06T13:51:43.705Z</time>
      </trkpt>
      <trkpt lat="45.71608" lon="5.73971">
        <ele>390</ele>
        <time>2021-06-06T13:51:47.723Z</time>
      </trkpt>
      <trkpt lat="45.71613" lon="5.7398">
        <ele>390</ele>
        <time>2021-06-06T13:51:52.721Z</time>
      </trkpt>
      <trkpt lat="45.71615" lon="5.73989">
        <ele>392</ele>
        <time>2021-06-06T13:51:57.729Z</time>
      </trkpt>
      <trkpt lat="45.71617" lon="5.73999">
        <ele>392</ele>
        <time>2021-06-06T13:52:02.730Z</time>
      </trkpt>
      <trkpt lat="45.71621" lon="5.7401">
        <ele>392</ele>
        <time>2021-06-06T13:52:07.715Z</time>
      </trkpt>
      <trkpt lat="45.71626" lon="5.74022">
        <ele>399</ele>
        <time>2021-06-06T13:52:11.752Z</time>
      </trkpt>
      <trkpt lat="45.71624" lon="5.74038">
        <ele>394</ele>
        <time>2021-06-06T13:52:16.714Z</time>
      </trkpt>
      <trkpt lat="45.71619" lon="5.74047">
        <ele>397</ele>
        <time>2021-06-06T13:52:20.739Z</time>
      </trkpt>
      <trkpt lat="45.71613" lon="5.74055">
        <ele>397</ele>
        <time>2021-06-06T13:52:25.729Z</time>
      </trkpt>
      <trkpt lat="45.71611" lon="5.74055">
        <ele>397</ele>
        <time>2021-06-06T13:52:29.737Z</time>
      </trkpt>
      <trkpt lat="45.71608" lon="5.74059">
        <ele>397</ele>
        <time>2021-06-06T13:52:33.741Z</time>
      </trkpt>
      <trkpt lat="45.716" lon="5.74075">
        <ele>403</ele>
        <time>2021-06-06T13:52:38.748Z</time>
      </trkpt>
      <trkpt lat="45.71596" lon="5.74091">
        <ele>397</ele>
        <time>2021-06-06T13:52:43.736Z</time>
      </trkpt>
      <trkpt lat="45.71591" lon="5.74097">
        <ele>397</ele>
        <time>2021-06-06T13:52:47.739Z</time>
      </trkpt>
      <trkpt lat="45.71587" lon="5.74101">
        <ele>403</ele>
        <time>2021-06-06T13:52:51.781Z</time>
      </trkpt>
      <trkpt lat="45.71584" lon="5.74112">
        <ele>403</ele>
        <time>2021-06-06T13:52:56.767Z</time>
      </trkpt>
      <trkpt lat="45.7158" lon="5.74119">
        <ele>403</ele>
        <time>2021-06-06T13:53:01.736Z</time>
      </trkpt>
      <trkpt lat="45.71576" lon="5.74122">
        <ele>403</ele>
        <time>2021-06-06T13:53:05.788Z</time>
      </trkpt>
      <trkpt lat="45.71573" lon="5.7413">
        <ele>407</ele>
        <time>2021-06-06T13:53:10.744Z</time>
      </trkpt>
      <trkpt lat="45.71572" lon="5.74139">
        <ele>407</ele>
        <time>2021-06-06T13:53:15.756Z</time>
      </trkpt>
      <trkpt lat="45.71571" lon="5.7415">
        <ele>407</ele>
        <time>2021-06-06T13:53:20.754Z</time>
      </trkpt>
      <trkpt lat="45.71569" lon="5.74158">
        <ele>406</ele>
        <time>2021-06-06T13:53:25.736Z</time>
      </trkpt>
      <trkpt lat="45.71564" lon="5.74164">
        <ele>406</ele>
        <time>2021-06-06T13:53:30.752Z</time>
      </trkpt>
      <trkpt lat="45.7156" lon="5.74172">
        <ele>406</ele>
        <time>2021-06-06T13:53:35.770Z</time>
      </trkpt>
      <trkpt lat="45.71555" lon="5.74176">
        <ele>406</ele>
        <time>2021-06-06T13:53:40.733Z</time>
      </trkpt>
      <trkpt lat="45.71553" lon="5.74184">
        <ele>411</ele>
        <time>2021-06-06T13:53:44.768Z</time>
      </trkpt>
      <trkpt lat="45.71551" lon="5.74192">
        <ele>411</ele>
        <time>2021-06-06T13:53:49.744Z</time>
      </trkpt>
      <trkpt lat="45.71554" lon="5.74198">
        <ele>411</ele>
        <time>2021-06-06T13:53:53.769Z</time>
      </trkpt>
      <trkpt lat="45.71561" lon="5.74203">
        <ele>411</ele>
        <time>2021-06-06T13:53:58.742Z</time>
      </trkpt>
      <trkpt lat="45.7157" lon="5.74206">
        <ele>416</ele>
        <time>2021-06-06T13:54:02.746Z</time>
      </trkpt>
      <trkpt lat="45.71576" lon="5.74212">
        <ele>419</ele>
        <time>2021-06-06T13:54:07.737Z</time>
      </trkpt>
      <trkpt lat="45.71578" lon="5.74217">
        <ele>419</ele>
        <time>2021-06-06T13:54:11.722Z</time>
      </trkpt>
      <trkpt lat="45.71581" lon="5.74221">
        <ele>419</ele>
        <time>2021-06-06T13:54:15.751Z</time>
      </trkpt>
      <trkpt lat="45.71585" lon="5.74225">
        <ele>419</ele>
        <time>2021-06-06T13:54:19.774Z</time>
      </trkpt>
      <trkpt lat="45.71589" lon="5.7423">
        <ele>419</ele>
        <time>2021-06-06T13:54:24.753Z</time>
      </trkpt>
      <trkpt lat="45.71593" lon="5.74232">
        <ele>419</ele>
        <time>2021-06-06T13:54:29.713Z</time>
      </trkpt>
      <trkpt lat="45.71597" lon="5.74234">
        <ele>419</ele>
        <time>2021-06-06T13:54:33.746Z</time>
      </trkpt>
      <trkpt lat="45.71601" lon="5.74237">
        <ele>422</ele>
        <time>2021-06-06T13:54:38.743Z</time>
      </trkpt>
      <trkpt lat="45.71605" lon="5.74239">
        <ele>422</ele>
        <time>2021-06-06T13:54:42.767Z</time>
      </trkpt>
      <trkpt lat="45.7161" lon="5.74241">
        <ele>422</ele>
        <time>2021-06-06T13:54:47.734Z</time>
      </trkpt>
      <trkpt lat="45.71614" lon="5.74245">
        <ele>422</ele>
        <time>2021-06-06T13:54:52.721Z</time>
      </trkpt>
      <trkpt lat="45.71618" lon="5.74247">
        <ele>422</ele>
        <time>2021-06-06T13:54:56.733Z</time>
      </trkpt>
      <trkpt lat="45.71624" lon="5.74245">
        <ele>422</ele>
        <time>2021-06-06T13:55:01.735Z</time>
      </trkpt>
      <trkpt lat="45.7163" lon="5.74246">
        <ele>424</ele>
        <time>2021-06-06T13:55:06.737Z</time>
      </trkpt>
      <trkpt lat="45.71636" lon="5.74248">
        <ele>424</ele>
        <time>2021-06-06T13:55:11.707Z</time>
      </trkpt>
      <trkpt lat="45.71641" lon="5.74248">
        <ele>424</ele>
        <time>2021-06-06T13:55:15.710Z</time>
      </trkpt>
      <trkpt lat="45.71646" lon="5.74248">
        <ele>424</ele>
        <time>2021-06-06T13:55:19.756Z</time>
      </trkpt>
      <trkpt lat="45.71652" lon="5.74249">
        <ele>424</ele>
        <time>2021-06-06T13:55:24.730Z</time>
      </trkpt>
      <trkpt lat="45.71657" lon="5.74247">
        <ele>427</ele>
        <time>2021-06-06T13:55:28.742Z</time>
      </trkpt>
      <trkpt lat="45.71663" lon="5.74247">
        <ele>427</ele>
        <time>2021-06-06T13:55:33.742Z</time>
      </trkpt>
      <trkpt lat="45.7167" lon="5.74245">
        <ele>427</ele>
        <time>2021-06-06T13:55:38.729Z</time>
      </trkpt>
      <trkpt lat="45.71675" lon="5.74241">
        <ele>427</ele>
        <time>2021-06-06T13:55:42.747Z</time>
      </trkpt>
      <trkpt lat="45.71682" lon="5.74241">
        <ele>428</ele>
        <time>2021-06-06T13:55:47.717Z</time>
      </trkpt>
      <trkpt lat="45.71686" lon="5.74245">
        <ele>428</ele>
        <time>2021-06-06T13:55:51.757Z</time>
      </trkpt>
      <trkpt lat="45.71693" lon="5.74251">
        <ele>428</ele>
        <time>2021-06-06T13:55:56.716Z</time>
      </trkpt>
      <trkpt lat="45.71698" lon="5.74255">
        <ele>428</ele>
        <time>2021-06-06T13:56:00.732Z</time>
      </trkpt>
      <trkpt lat="45.71706" lon="5.7426">
        <ele>428</ele>
        <time>2021-06-06T13:56:05.732Z</time>
      </trkpt>
      <trkpt lat="45.71712" lon="5.74262">
        <ele>431</ele>
        <time>2021-06-06T13:56:09.741Z</time>
      </trkpt>
      <trkpt lat="45.71719" lon="5.74263">
        <ele>431</ele>
        <time>2021-06-06T13:56:14.709Z</time>
      </trkpt>
      <trkpt lat="45.71725" lon="5.74266">
        <ele>429</ele>
        <time>2021-06-06T13:56:18.710Z</time>
      </trkpt>
      <trkpt lat="45.71732" lon="5.74268">
        <ele>429</ele>
        <time>2021-06-06T13:56:22.727Z</time>
      </trkpt>
      <trkpt lat="45.71737" lon="5.74269">
        <ele>431</ele>
        <time>2021-06-06T13:56:26.736Z</time>
      </trkpt>
      <trkpt lat="45.71742" lon="5.74269">
        <ele>431</ele>
        <time>2021-06-06T13:56:30.751Z</time>
      </trkpt>
      <trkpt lat="45.71748" lon="5.74271">
        <ele>431</ele>
        <time>2021-06-06T13:56:35.742Z</time>
      </trkpt>
      <trkpt lat="45.71753" lon="5.74272">
        <ele>431</ele>
        <time>2021-06-06T13:56:39.749Z</time>
      </trkpt>
      <trkpt lat="45.71759" lon="5.74273">
        <ele>431</ele>
        <time>2021-06-06T13:56:44.748Z</time>
      </trkpt>
      <trkpt lat="45.71765" lon="5.74277">
        <ele>434</ele>
        <time>2021-06-06T13:56:49.702Z</time>
      </trkpt>
      <trkpt lat="45.71769" lon="5.7428">
        <ele>434</ele>
        <time>2021-06-06T13:56:53.721Z</time>
      </trkpt>
      <trkpt lat="45.71775" lon="5.74282">
        <ele>434</ele>
        <time>2021-06-06T13:56:58.731Z</time>
      </trkpt>
      <trkpt lat="45.7178" lon="5.74283">
        <ele>434</ele>
        <time>2021-06-06T13:57:02.756Z</time>
      </trkpt>
      <trkpt lat="45.71787" lon="5.74284">
        <ele>434</ele>
        <time>2021-06-06T13:57:07.724Z</time>
      </trkpt>
      <trkpt lat="45.71793" lon="5.74285">
        <ele>435</ele>
        <time>2021-06-06T13:57:12.758Z</time>
      </trkpt>
      <trkpt lat="45.71799" lon="5.74286">
        <ele>435</ele>
        <time>2021-06-06T13:57:17.733Z</time>
      </trkpt>
      <trkpt lat="45.71805" lon="5.74288">
        <ele>435</ele>
        <time>2021-06-06T13:57:22.709Z</time>
      </trkpt>
      <trkpt lat="45.7181" lon="5.74289">
        <ele>435</ele>
        <time>2021-06-06T13:57:26.739Z</time>
      </trkpt>
      <trkpt lat="45.71816" lon="5.7429">
        <ele>435</ele>
        <time>2021-06-06T13:57:31.736Z</time>
      </trkpt>
      <trkpt lat="45.71822" lon="5.7429">
        <ele>437</ele>
        <time>2021-06-06T13:57:36.710Z</time>
      </trkpt>
      <trkpt lat="45.71827" lon="5.74292">
        <ele>436</ele>
        <time>2021-06-06T13:57:40.731Z</time>
      </trkpt>
      <trkpt lat="45.71831" lon="5.74293">
        <ele>436</ele>
        <time>2021-06-06T13:57:44.733Z</time>
      </trkpt>
      <trkpt lat="45.71836" lon="5.74296">
        <ele>436</ele>
        <time>2021-06-06T13:57:49.739Z</time>
      </trkpt>
      <trkpt lat="45.71841" lon="5.74297">
        <ele>436</ele>
        <time>2021-06-06T13:57:53.756Z</time>
      </trkpt>
      <trkpt lat="45.71848" lon="5.743">
        <ele>436</ele>
        <time>2021-06-06T13:57:58.741Z</time>
      </trkpt>
      <trkpt lat="45.71853" lon="5.74302">
        <ele>436</ele>
        <time>2021-06-06T13:58:02.746Z</time>
      </trkpt>
      <trkpt lat="45.71858" lon="5.74307">
        <ele>436</ele>
        <time>2021-06-06T13:58:06.775Z</time>
      </trkpt>
      <trkpt lat="45.71865" lon="5.7431">
        <ele>436</ele>
        <time>2021-06-06T13:58:11.757Z</time>
      </trkpt>
      <trkpt lat="45.7187" lon="5.74313">
        <ele>436</ele>
        <time>2021-06-06T13:58:15.756Z</time>
      </trkpt>
      <trkpt lat="45.71876" lon="5.74314">
        <ele>437</ele>
        <time>2021-06-06T13:58:20.759Z</time>
      </trkpt>
      <trkpt lat="45.71883" lon="5.74317">
        <ele>437</ele>
        <time>2021-06-06T13:58:25.736Z</time>
      </trkpt>
      <trkpt lat="45.71887" lon="5.74321">
        <ele>437</ele>
        <time>2021-06-06T13:58:29.750Z</time>
      </trkpt>
      <trkpt lat="45.71892" lon="5.7433">
        <ele>437</ele>
        <time>2021-06-06T13:58:34.737Z</time>
      </trkpt>
      <trkpt lat="45.71896" lon="5.74336">
        <ele>437</ele>
        <time>2021-06-06T13:58:38.749Z</time>
      </trkpt>
      <trkpt lat="45.71897" lon="5.74346">
        <ele>437</ele>
        <time>2021-06-06T13:58:43.739Z</time>
      </trkpt>
      <trkpt lat="45.71898" lon="5.74356">
        <ele>436</ele>
        <time>2021-06-06T13:58:48.706Z</time>
      </trkpt>
      <trkpt lat="45.71898" lon="5.74364">
        <ele>436</ele>
        <time>2021-06-06T13:58:52.739Z</time>
      </trkpt>
      <trkpt lat="45.719" lon="5.74374">
        <ele>436</ele>
        <time>2021-06-06T13:58:57.720Z</time>
      </trkpt>
      <trkpt lat="45.71902" lon="5.74383">
        <ele>435</ele>
        <time>2021-06-06T13:59:02.737Z</time>
      </trkpt>
      <trkpt lat="45.71904" lon="5.7439">
        <ele>437</ele>
        <time>2021-06-06T13:59:06.749Z</time>
      </trkpt>
      <trkpt lat="45.71906" lon="5.74398">
        <ele>437</ele>
        <time>2021-06-06T13:59:10.773Z</time>
      </trkpt>
      <trkpt lat="45.7191" lon="5.74407">
        <ele>436</ele>
        <time>2021-06-06T13:59:15.735Z</time>
      </trkpt>
      <trkpt lat="45.71912" lon="5.74414">
        <ele>436</ele>
        <time>2021-06-06T13:59:19.781Z</time>
      </trkpt>
      <trkpt lat="45.71916" lon="5.74423">
        <ele>436</ele>
        <time>2021-06-06T13:59:24.748Z</time>
      </trkpt>
      <trkpt lat="45.71919" lon="5.74432">
        <ele>436</ele>
        <time>2021-06-06T13:59:29.733Z</time>
      </trkpt>
      <trkpt lat="45.71922" lon="5.7444">
        <ele>436</ele>
        <time>2021-06-06T13:59:33.752Z</time>
      </trkpt>
      <trkpt lat="45.71924" lon="5.74448">
        <ele>436</ele>
        <time>2021-06-06T13:59:37.775Z</time>
      </trkpt>
      <trkpt lat="45.71927" lon="5.74457">
        <ele>436</ele>
        <time>2021-06-06T13:59:42.747Z</time>
      </trkpt>
      <trkpt lat="45.7193" lon="5.74464">
        <ele>435</ele>
        <time>2021-06-06T13:59:46.773Z</time>
      </trkpt>
      <trkpt lat="45.71932" lon="5.74471">
        <ele>437</ele>
        <time>2021-06-06T13:59:50.785Z</time>
      </trkpt>
      <trkpt lat="45.71936" lon="5.74479">
        <ele>437</ele>
        <time>2021-06-06T13:59:55.730Z</time>
      </trkpt>
      <trkpt lat="45.71939" lon="5.74487">
        <ele>435</ele>
        <time>2021-06-06T14:00:00.710Z</time>
      </trkpt>
      <trkpt lat="45.71941" lon="5.74496">
        <ele>435</ele>
        <time>2021-06-06T14:00:05.723Z</time>
      </trkpt>
      <trkpt lat="45.71943" lon="5.74507">
        <ele>435</ele>
        <time>2021-06-06T14:00:10.731Z</time>
      </trkpt>
      <trkpt lat="45.71945" lon="5.74517">
        <ele>433</ele>
        <time>2021-06-06T14:00:15.711Z</time>
      </trkpt>
      <trkpt lat="45.71944" lon="5.74525">
        <ele>433</ele>
        <time>2021-06-06T14:00:19.734Z</time>
      </trkpt>
      <trkpt lat="45.71943" lon="5.74536">
        <ele>433</ele>
        <time>2021-06-06T14:00:24.714Z</time>
      </trkpt>
      <trkpt lat="45.71943" lon="5.74544">
        <ele>433</ele>
        <time>2021-06-06T14:00:28.731Z</time>
      </trkpt>
      <trkpt lat="45.71942" lon="5.74551">
        <ele>433</ele>
        <time>2021-06-06T14:00:32.731Z</time>
      </trkpt>
      <trkpt lat="45.71942" lon="5.7456">
        <ele>433</ele>
        <time>2021-06-06T14:00:37.730Z</time>
      </trkpt>
      <trkpt lat="45.71942" lon="5.74567">
        <ele>433</ele>
        <time>2021-06-06T14:00:41.742Z</time>
      </trkpt>
      <trkpt lat="45.71943" lon="5.74575">
        <ele>432</ele>
        <time>2021-06-06T14:00:45.768Z</time>
      </trkpt>
      <trkpt lat="45.71943" lon="5.74584">
        <ele>432</ele>
        <time>2021-06-06T14:00:50.736Z</time>
      </trkpt>
      <trkpt lat="45.71944" lon="5.74592">
        <ele>432</ele>
        <time>2021-06-06T14:00:54.761Z</time>
      </trkpt>
      <trkpt lat="45.71942" lon="5.74604">
        <ele>431</ele>
        <time>2021-06-06T14:00:59.724Z</time>
      </trkpt>
      <trkpt lat="45.71941" lon="5.74613">
        <ele>431</ele>
        <time>2021-06-06T14:01:04.708Z</time>
      </trkpt>
      <trkpt lat="45.7194" lon="5.74621">
        <ele>431</ele>
        <time>2021-06-06T14:01:08.730Z</time>
      </trkpt>
      <trkpt lat="45.71939" lon="5.74629">
        <ele>430</ele>
        <time>2021-06-06T14:01:12.738Z</time>
      </trkpt>
      <trkpt lat="45.71937" lon="5.74638">
        <ele>430</ele>
        <time>2021-06-06T14:01:17.737Z</time>
      </trkpt>
      <trkpt lat="45.71936" lon="5.74649">
        <ele>430</ele>
        <time>2021-06-06T14:03:31.789Z</time>
      </trkpt>
      <trkpt lat="45.71932" lon="5.74653">
        <ele>430</ele>
        <time>2021-06-06T14:03:35.791Z</time>
      </trkpt>
      <trkpt lat="45.71927" lon="5.74658">
        <ele>427</ele>
        <time>2021-06-06T14:03:40.766Z</time>
      </trkpt>
      <trkpt lat="45.71922" lon="5.74663">
        <ele>427</ele>
        <time>2021-06-06T14:03:45.796Z</time>
      </trkpt>
      <trkpt lat="45.71917" lon="5.74668">
        <ele>427</ele>
        <time>2021-06-06T14:03:50.737Z</time>
      </trkpt>
      <trkpt lat="45.71913" lon="5.74671">
        <ele>427</ele>
        <time>2021-06-06T14:03:54.798Z</time>
      </trkpt>
      <trkpt lat="45.71908" lon="5.74675">
        <ele>427</ele>
        <time>2021-06-06T14:03:59.733Z</time>
      </trkpt>
      <trkpt lat="45.71903" lon="5.74678">
        <ele>427</ele>
        <time>2021-06-06T14:04:03.795Z</time>
      </trkpt>
      <trkpt lat="45.71898" lon="5.74684">
        <ele>424</ele>
        <time>2021-06-06T14:04:08.741Z</time>
      </trkpt>
      <trkpt lat="45.719" lon="5.74694">
        <ele>424</ele>
        <time>2021-06-06T14:04:13.771Z</time>
      </trkpt>
      <trkpt lat="45.71889" lon="5.74693">
        <ele>424</ele>
        <time>2021-06-06T14:04:18.743Z</time>
      </trkpt>
      <trkpt lat="45.71886" lon="5.747">
        <ele>424</ele>
        <time>2021-06-06T14:04:23.701Z</time>
      </trkpt>
      <trkpt lat="45.71882" lon="5.74706">
        <ele>424</ele>
        <time>2021-06-06T14:04:28.717Z</time>
      </trkpt>
      <trkpt lat="45.7188" lon="5.74712">
        <ele>424</ele>
        <time>2021-06-06T14:04:33.711Z</time>
      </trkpt>
      <trkpt lat="45.71877" lon="5.74717">
        <ele>424</ele>
        <time>2021-06-06T14:04:37.720Z</time>
      </trkpt>
      <trkpt lat="45.71874" lon="5.74724">
        <ele>423</ele>
        <time>2021-06-06T14:04:42.731Z</time>
      </trkpt>
      <trkpt lat="45.7187" lon="5.74729">
        <ele>423</ele>
        <time>2021-06-06T14:04:47.772Z</time>
      </trkpt>
      <trkpt lat="45.71868" lon="5.74736">
        <ele>423</ele>
        <time>2021-06-06T14:04:52.743Z</time>
      </trkpt>
      <trkpt lat="45.71865" lon="5.74744">
        <ele>423</ele>
        <time>2021-06-06T14:04:57.734Z</time>
      </trkpt>
      <trkpt lat="45.71861" lon="5.74751">
        <ele>423</ele>
        <time>2021-06-06T14:05:02.768Z</time>
      </trkpt>
      <trkpt lat="45.71856" lon="5.74756">
        <ele>423</ele>
        <time>2021-06-06T14:05:07.729Z</time>
      </trkpt>
      <trkpt lat="45.71853" lon="5.74761">
        <ele>423</ele>
        <time>2021-06-06T14:05:11.738Z</time>
      </trkpt>
      <trkpt lat="45.7185" lon="5.74766">
        <ele>422</ele>
        <time>2021-06-06T14:05:15.742Z</time>
      </trkpt>
      <trkpt lat="45.71846" lon="5.74772">
        <ele>420</ele>
        <time>2021-06-06T14:05:20.723Z</time>
      </trkpt>
      <trkpt lat="45.71842" lon="5.74777">
        <ele>420</ele>
        <time>2021-06-06T14:05:24.733Z</time>
      </trkpt>
      <trkpt lat="45.71838" lon="5.74782">
        <ele>420</ele>
        <time>2021-06-06T14:05:28.745Z</time>
      </trkpt>
      <trkpt lat="45.71833" lon="5.74786">
        <ele>420</ele>
        <time>2021-06-06T14:05:33.731Z</time>
      </trkpt>
      <trkpt lat="45.71829" lon="5.74792">
        <ele>419</ele>
        <time>2021-06-06T14:05:38.771Z</time>
      </trkpt>
      <trkpt lat="45.71825" lon="5.74799">
        <ele>419</ele>
        <time>2021-06-06T14:05:43.764Z</time>
      </trkpt>
      <trkpt lat="45.71819" lon="5.74804">
        <ele>417</ele>
        <time>2021-06-06T14:05:48.737Z</time>
      </trkpt>
      <trkpt lat="45.71814" lon="5.7481">
        <ele>417</ele>
        <time>2021-06-06T14:05:53.741Z</time>
      </trkpt>
      <trkpt lat="45.7181" lon="5.74815">
        <ele>417</ele>
        <time>2021-06-06T14:05:57.734Z</time>
      </trkpt>
      <trkpt lat="45.71807" lon="5.74821">
        <ele>416</ele>
        <time>2021-06-06T14:06:01.754Z</time>
      </trkpt>
      <trkpt lat="45.71803" lon="5.74824">
        <ele>416</ele>
        <time>2021-06-06T14:06:05.762Z</time>
      </trkpt>
      <trkpt lat="45.71802" lon="5.74833">
        <ele>416</ele>
        <time>2021-06-06T14:06:10.735Z</time>
      </trkpt>
      <trkpt lat="45.718" lon="5.74842">
        <ele>416</ele>
        <time>2021-06-06T14:06:15.734Z</time>
      </trkpt>
      <trkpt lat="45.71798" lon="5.74848">
        <ele>415</ele>
        <time>2021-06-06T14:06:19.747Z</time>
      </trkpt>
      <trkpt lat="45.71794" lon="5.74855">
        <ele>415</ele>
        <time>2021-06-06T14:06:24.748Z</time>
      </trkpt>
      <trkpt lat="45.7179" lon="5.74862">
        <ele>412</ele>
        <time>2021-06-06T14:06:29.724Z</time>
      </trkpt>
      <trkpt lat="45.71788" lon="5.74868">
        <ele>412</ele>
        <time>2021-06-06T14:06:33.737Z</time>
      </trkpt>
      <trkpt lat="45.71785" lon="5.74876">
        <ele>410</ele>
        <time>2021-06-06T14:06:38.802Z</time>
      </trkpt>
      <trkpt lat="45.71783" lon="5.74883">
        <ele>410</ele>
        <time>2021-06-06T14:06:43.737Z</time>
      </trkpt>
      <trkpt lat="45.7178" lon="5.7489">
        <ele>410</ele>
        <time>2021-06-06T14:06:48.779Z</time>
      </trkpt>
      <trkpt lat="45.71778" lon="5.74898">
        <ele>410</ele>
        <time>2021-06-06T14:06:53.767Z</time>
      </trkpt>
      <trkpt lat="45.71776" lon="5.74906">
        <ele>407</ele>
        <time>2021-06-06T14:06:58.741Z</time>
      </trkpt>
      <trkpt lat="45.71774" lon="5.74912">
        <ele>407</ele>
        <time>2021-06-06T14:07:02.755Z</time>
      </trkpt>
      <trkpt lat="45.71772" lon="5.74921">
        <ele>407</ele>
        <time>2021-06-06T14:07:07.744Z</time>
      </trkpt>
      <trkpt lat="45.71771" lon="5.74927">
        <ele>407</ele>
        <time>2021-06-06T14:07:11.745Z</time>
      </trkpt>
      <trkpt lat="45.7177" lon="5.74936">
        <ele>405</ele>
        <time>2021-06-06T14:07:16.734Z</time>
      </trkpt>
      <trkpt lat="45.71768" lon="5.74943">
        <ele>405</ele>
        <time>2021-06-06T14:07:21.699Z</time>
      </trkpt>
      <trkpt lat="45.71767" lon="5.7495">
        <ele>405</ele>
        <time>2021-06-06T14:07:25.720Z</time>
      </trkpt>
      <trkpt lat="45.71765" lon="5.74957">
        <ele>405</ele>
        <time>2021-06-06T14:07:29.744Z</time>
      </trkpt>
      <trkpt lat="45.71764" lon="5.74964">
        <ele>401</ele>
        <time>2021-06-06T14:07:33.736Z</time>
      </trkpt>
      <trkpt lat="45.71761" lon="5.74971">
        <ele>401</ele>
        <time>2021-06-06T14:07:38.772Z</time>
      </trkpt>
      <trkpt lat="45.7176" lon="5.74979">
        <ele>401</ele>
        <time>2021-06-06T14:07:43.729Z</time>
      </trkpt>
      <trkpt lat="45.71757" lon="5.74987">
        <ele>400</ele>
        <time>2021-06-06T14:07:48.701Z</time>
      </trkpt>
      <trkpt lat="45.71755" lon="5.74992">
        <ele>400</ele>
        <time>2021-06-06T14:07:52.705Z</time>
      </trkpt>
      <trkpt lat="45.71751" lon="5.74999">
        <ele>400</ele>
        <time>2021-06-06T14:07:57.731Z</time>
      </trkpt>
      <trkpt lat="45.71749" lon="5.75005">
        <ele>400</ele>
        <time>2021-06-06T14:08:01.741Z</time>
      </trkpt>
      <trkpt lat="45.71745" lon="5.75013">
        <ele>400</ele>
        <time>2021-06-06T14:08:06.733Z</time>
      </trkpt>
      <trkpt lat="45.71741" lon="5.75018">
        <ele>397</ele>
        <time>2021-06-06T14:08:11.741Z</time>
      </trkpt>
      <trkpt lat="45.71739" lon="5.75023">
        <ele>397</ele>
        <time>2021-06-06T14:08:15.736Z</time>
      </trkpt>
      <trkpt lat="45.71735" lon="5.75029">
        <ele>397</ele>
        <time>2021-06-06T14:08:19.763Z</time>
      </trkpt>
      <trkpt lat="45.71732" lon="5.75035">
        <ele>397</ele>
        <time>2021-06-06T14:08:23.765Z</time>
      </trkpt>
      <trkpt lat="45.71729" lon="5.75041">
        <ele>397</ele>
        <time>2021-06-06T14:08:28.738Z</time>
      </trkpt>
      <trkpt lat="45.71727" lon="5.75047">
        <ele>393</ele>
        <time>2021-06-06T14:08:32.770Z</time>
      </trkpt>
      <trkpt lat="45.71723" lon="5.75054">
        <ele>393</ele>
        <time>2021-06-06T14:08:37.740Z</time>
      </trkpt>
      <trkpt lat="45.71721" lon="5.7506">
        <ele>393</ele>
        <time>2021-06-06T14:08:41.762Z</time>
      </trkpt>
      <trkpt lat="45.71718" lon="5.75065">
        <ele>393</ele>
        <time>2021-06-06T14:08:46.745Z</time>
      </trkpt>
      <trkpt lat="45.71715" lon="5.75072">
        <ele>390</ele>
        <time>2021-06-06T14:08:51.715Z</time>
      </trkpt>
      <trkpt lat="45.71711" lon="5.75077">
        <ele>390</ele>
        <time>2021-06-06T14:08:55.745Z</time>
      </trkpt>
      <trkpt lat="45.71708" lon="5.75081">
        <ele>387</ele>
        <time>2021-06-06T14:08:59.739Z</time>
      </trkpt>
      <trkpt lat="45.71705" lon="5.75086">
        <ele>387</ele>
        <time>2021-06-06T14:09:04.729Z</time>
      </trkpt>
      <trkpt lat="45.71703" lon="5.75093">
        <ele>387</ele>
        <time>2021-06-06T14:09:09.745Z</time>
      </trkpt>
      <trkpt lat="45.71703" lon="5.751">
        <ele>382</ele>
        <time>2021-06-06T14:09:14.743Z</time>
      </trkpt>
      <trkpt lat="45.71702" lon="5.75106">
        <ele>382</ele>
        <time>2021-06-06T14:09:18.752Z</time>
      </trkpt>
      <trkpt lat="45.71701" lon="5.75114">
        <ele>382</ele>
        <time>2021-06-06T14:09:23.747Z</time>
      </trkpt>
      <trkpt lat="45.71701" lon="5.75122">
        <ele>382</ele>
        <time>2021-06-06T14:09:28.733Z</time>
      </trkpt>
      <trkpt lat="45.717" lon="5.75129">
        <ele>378</ele>
        <time>2021-06-06T14:09:33.735Z</time>
      </trkpt>
      <trkpt lat="45.71699" lon="5.75131">
        <ele>378</ele>
        <time>2021-06-06T14:09:38.733Z</time>
      </trkpt>
      <trkpt lat="45.71698" lon="5.75135">
        <ele>378</ele>
        <time>2021-06-06T14:09:43.757Z</time>
      </trkpt>
      <trkpt lat="45.71695" lon="5.7514">
        <ele>378</ele>
        <time>2021-06-06T14:09:48.734Z</time>
      </trkpt>
      <trkpt lat="45.71693" lon="5.75146">
        <ele>378</ele>
        <time>2021-06-06T14:09:53.753Z</time>
      </trkpt>
      <trkpt lat="45.7169" lon="5.75151">
        <ele>378</ele>
        <time>2021-06-06T14:09:58.735Z</time>
      </trkpt>
      <trkpt lat="45.71688" lon="5.75156">
        <ele>376</ele>
        <time>2021-06-06T14:10:02.738Z</time>
      </trkpt>
      <trkpt lat="45.71684" lon="5.75162">
        <ele>376</ele>
        <time>2021-06-06T14:10:07.738Z</time>
      </trkpt>
      <trkpt lat="45.71681" lon="5.75167">
        <ele>376</ele>
        <time>2021-06-06T14:10:11.783Z</time>
      </trkpt>
      <trkpt lat="45.71677" lon="5.75174">
        <ele>375</ele>
        <time>2021-06-06T14:10:16.724Z</time>
      </trkpt>
      <trkpt lat="45.71673" lon="5.7518">
        <ele>375</ele>
        <time>2021-06-06T14:10:21.728Z</time>
      </trkpt>
      <trkpt lat="45.7167" lon="5.75182">
        <ele>371</ele>
        <time>2021-06-06T14:10:25.752Z</time>
      </trkpt>
      <trkpt lat="45.71669" lon="5.75184">
        <ele>371</ele>
        <time>2021-06-06T14:10:30.734Z</time>
      </trkpt>
      <trkpt lat="45.71666" lon="5.75189">
        <ele>371</ele>
        <time>2021-06-06T14:10:34.743Z</time>
      </trkpt>
      <trkpt lat="45.71664" lon="5.75194">
        <ele>371</ele>
        <time>2021-06-06T14:10:38.736Z</time>
      </trkpt>
      <trkpt lat="45.71661" lon="5.75199">
        <ele>371</ele>
        <time>2021-06-06T14:10:43.743Z</time>
      </trkpt>
      <trkpt lat="45.71657" lon="5.75204">
        <ele>371</ele>
        <time>2021-06-06T14:10:48.744Z</time>
      </trkpt>
      <trkpt lat="45.71654" lon="5.75208">
        <ele>371</ele>
        <time>2021-06-06T14:10:52.767Z</time>
      </trkpt>
      <trkpt lat="45.71651" lon="5.75212">
        <ele>364</ele>
        <time>2021-06-06T14:10:57.740Z</time>
      </trkpt>
      <trkpt lat="45.71648" lon="5.75217">
        <ele>364</ele>
        <time>2021-06-06T14:11:02.736Z</time>
      </trkpt>
      <trkpt lat="45.71644" lon="5.75222">
        <ele>364</ele>
        <time>2021-06-06T14:11:07.717Z</time>
      </trkpt>
      <trkpt lat="45.71641" lon="5.75226">
        <ele>364</ele>
        <time>2021-06-06T14:11:11.744Z</time>
      </trkpt>
      <trkpt lat="45.71637" lon="5.75228">
        <ele>364</ele>
        <time>2021-06-06T14:11:16.706Z</time>
      </trkpt>
      <trkpt lat="45.71633" lon="5.75232">
        <ele>364</ele>
        <time>2021-06-06T14:11:21.712Z</time>
      </trkpt>
      <trkpt lat="45.71629" lon="5.75235">
        <ele>364</ele>
        <time>2021-06-06T14:11:26.744Z</time>
      </trkpt>
      <trkpt lat="45.71624" lon="5.75237">
        <ele>359</ele>
        <time>2021-06-06T14:11:31.736Z</time>
      </trkpt>
      <trkpt lat="45.7162" lon="5.75236">
        <ele>362</ele>
        <time>2021-06-06T14:11:36.726Z</time>
      </trkpt>
      <trkpt lat="45.71622" lon="5.7524">
        <ele>359</ele>
        <time>2021-06-06T14:13:13.733Z</time>
      </trkpt>
      <trkpt lat="45.71618" lon="5.75242">
        <ele>359</ele>
        <time>2021-06-06T14:13:17.760Z</time>
      </trkpt>
      <trkpt lat="45.71613" lon="5.75245">
        <ele>359</ele>
        <time>2021-06-06T14:13:22.747Z</time>
      </trkpt>
      <trkpt lat="45.71609" lon="5.75246">
        <ele>359</ele>
        <time>2021-06-06T14:13:26.744Z</time>
      </trkpt>
      <trkpt lat="45.71604" lon="5.75249">
        <ele>359</ele>
        <time>2021-06-06T14:13:31.793Z</time>
      </trkpt>
      <trkpt lat="45.71598" lon="5.75251">
        <ele>359</ele>
        <time>2021-06-06T14:13:36.729Z</time>
      </trkpt>
      <trkpt lat="45.71595" lon="5.75253">
        <ele>359</ele>
        <time>2021-06-06T14:13:40.746Z</time>
      </trkpt>
      <trkpt lat="45.71589" lon="5.75256">
        <ele>359</ele>
        <time>2021-06-06T14:13:45.729Z</time>
      </trkpt>
      <trkpt lat="45.71586" lon="5.75258">
        <ele>359</ele>
        <time>2021-06-06T14:13:49.751Z</time>
      </trkpt>
      <trkpt lat="45.71582" lon="5.7526">
        <ele>359</ele>
        <time>2021-06-06T14:13:54.769Z</time>
      </trkpt>
      <trkpt lat="45.71578" lon="5.75263">
        <ele>359</ele>
        <time>2021-06-06T14:13:59.728Z</time>
      </trkpt>
      <trkpt lat="45.71575" lon="5.75265">
        <ele>355</ele>
        <time>2021-06-06T14:14:03.730Z</time>
      </trkpt>
      <trkpt lat="45.71571" lon="5.75269">
        <ele>355</ele>
        <time>2021-06-06T14:14:08.738Z</time>
      </trkpt>
      <trkpt lat="45.71567" lon="5.75271">
        <ele>353</ele>
        <time>2021-06-06T14:14:13.724Z</time>
      </trkpt>
      <trkpt lat="45.71564" lon="5.75273">
        <ele>353</ele>
        <time>2021-06-06T14:14:18.708Z</time>
      </trkpt>
      <trkpt lat="45.71561" lon="5.75275">
        <ele>353</ele>
        <time>2021-06-06T14:14:22.730Z</time>
      </trkpt>
      <trkpt lat="45.71557" lon="5.75278">
        <ele>353</ele>
        <time>2021-06-06T14:14:26.733Z</time>
      </trkpt>
      <trkpt lat="45.71555" lon="5.75281">
        <ele>353</ele>
        <time>2021-06-06T14:14:30.769Z</time>
      </trkpt>
      <trkpt lat="45.71552" lon="5.75285">
        <ele>353</ele>
        <time>2021-06-06T14:14:35.755Z</time>
      </trkpt>
      <trkpt lat="45.71551" lon="5.75287">
        <ele>353</ele>
        <time>2021-06-06T14:14:40.745Z</time>
      </trkpt>
      <trkpt lat="45.7155" lon="5.75292">
        <ele>348</ele>
        <time>2021-06-06T14:14:45.733Z</time>
      </trkpt>
      <trkpt lat="45.71546" lon="5.75299">
        <ele>348</ele>
        <time>2021-06-06T14:14:50.716Z</time>
      </trkpt>
      <trkpt lat="45.71544" lon="5.75305">
        <ele>348</ele>
        <time>2021-06-06T14:14:55.755Z</time>
      </trkpt>
      <trkpt lat="45.71542" lon="5.75312">
        <ele>348</ele>
        <time>2021-06-06T14:15:00.744Z</time>
      </trkpt>
      <trkpt lat="45.71541" lon="5.75319">
        <ele>347</ele>
        <time>2021-06-06T14:15:05.744Z</time>
      </trkpt>
      <trkpt lat="45.71538" lon="5.75325">
        <ele>341</ele>
        <time>2021-06-06T14:15:10.742Z</time>
      </trkpt>
      <trkpt lat="45.71536" lon="5.75332">
        <ele>341</ele>
        <time>2021-06-06T14:15:15.719Z</time>
      </trkpt>
      <trkpt lat="45.71533" lon="5.75338">
        <ele>341</ele>
        <time>2021-06-06T14:15:20.713Z</time>
      </trkpt>
      <trkpt lat="45.71531" lon="5.75341">
        <ele>341</ele>
        <time>2021-06-06T14:15:24.733Z</time>
      </trkpt>
      <trkpt lat="45.71527" lon="5.75346">
        <ele>341</ele>
        <time>2021-06-06T14:15:29.731Z</time>
      </trkpt>
      <trkpt lat="45.71524" lon="5.75351">
        <ele>335</ele>
        <time>2021-06-06T14:15:33.749Z</time>
      </trkpt>
      <trkpt lat="45.7152" lon="5.75356">
        <ele>335</ele>
        <time>2021-06-06T14:15:38.738Z</time>
      </trkpt>
      <trkpt lat="45.71517" lon="5.75361">
        <ele>335</ele>
        <time>2021-06-06T14:15:42.737Z</time>
      </trkpt>
      <trkpt lat="45.71514" lon="5.75364">
        <ele>334</ele>
        <time>2021-06-06T14:15:46.744Z</time>
      </trkpt>
      <trkpt lat="45.7151" lon="5.75367">
        <ele>334</ele>
        <time>2021-06-06T14:15:50.768Z</time>
      </trkpt>
      <trkpt lat="45.71506" lon="5.7537">
        <ele>334</ele>
        <time>2021-06-06T14:15:55.739Z</time>
      </trkpt>
      <trkpt lat="45.71501" lon="5.75373">
        <ele>334</ele>
        <time>2021-06-06T14:16:00.743Z</time>
      </trkpt>
      <trkpt lat="45.71497" lon="5.75372">
        <ele>334</ele>
        <time>2021-06-06T14:16:04.741Z</time>
      </trkpt>
      <trkpt lat="45.71496" lon="5.75372">
        <ele>334</ele>
        <time>2021-06-06T14:16:08.776Z</time>
      </trkpt>
      <trkpt lat="45.71492" lon="5.75371">
        <ele>334</ele>
        <time>2021-06-06T14:16:13.744Z</time>
      </trkpt>
      <trkpt lat="45.71487" lon="5.75371">
        <ele>334</ele>
        <time>2021-06-06T14:16:17.746Z</time>
      </trkpt>
      <trkpt lat="45.71482" lon="5.75372">
        <ele>334</ele>
        <time>2021-06-06T14:16:22.736Z</time>
      </trkpt>
      <trkpt lat="45.71477" lon="5.75373">
        <ele>334</ele>
        <time>2021-06-06T14:16:26.733Z</time>
      </trkpt>
      <trkpt lat="45.71473" lon="5.75375">
        <ele>334</ele>
        <time>2021-06-06T14:16:30.800Z</time>
      </trkpt>
      <trkpt lat="45.71467" lon="5.75375">
        <ele>334</ele>
        <time>2021-06-06T14:16:35.743Z</time>
      </trkpt>
      <trkpt lat="45.7146" lon="5.75374">
        <ele>334</ele>
        <time>2021-06-06T14:16:40.744Z</time>
      </trkpt>
      <trkpt lat="45.71453" lon="5.75374">
        <ele>332</ele>
        <time>2021-06-06T14:16:45.731Z</time>
      </trkpt>
      <trkpt lat="45.71448" lon="5.75375">
        <ele>332</ele>
        <time>2021-06-06T14:16:49.725Z</time>
      </trkpt>
      <trkpt lat="45.71441" lon="5.75375">
        <ele>332</ele>
        <time>2021-06-06T14:16:54.722Z</time>
      </trkpt>
      <trkpt lat="45.71435" lon="5.75374">
        <ele>332</ele>
        <time>2021-06-06T14:16:58.737Z</time>
      </trkpt>
      <trkpt lat="45.71431" lon="5.75375">
        <ele>332</ele>
        <time>2021-06-06T14:17:02.790Z</time>
      </trkpt>
      <trkpt lat="45.71426" lon="5.75376">
        <ele>318</ele>
        <time>2021-06-06T14:17:07.735Z</time>
      </trkpt>
      <trkpt lat="45.7142" lon="5.75378">
        <ele>318</ele>
        <time>2021-06-06T14:17:12.748Z</time>
      </trkpt>
      <trkpt lat="45.71413" lon="5.75377">
        <ele>318</ele>
        <time>2021-06-06T14:17:17.729Z</time>
      </trkpt>
      <trkpt lat="45.71407" lon="5.75376">
        <ele>318</ele>
        <time>2021-06-06T14:17:22.719Z</time>
      </trkpt>
      <trkpt lat="45.71401" lon="5.75374">
        <ele>323</ele>
        <time>2021-06-06T14:17:27.724Z</time>
      </trkpt>
      <trkpt lat="45.71395" lon="5.75374">
        <ele>323</ele>
        <time>2021-06-06T14:17:31.714Z</time>
      </trkpt>
      <trkpt lat="45.71391" lon="5.75373">
        <ele>323</ele>
        <time>2021-06-06T14:17:35.762Z</time>
      </trkpt>
      <trkpt lat="45.71385" lon="5.75372">
        <ele>323</ele>
        <time>2021-06-06T14:17:40.703Z</time>
      </trkpt>
      <trkpt lat="45.71379" lon="5.7537">
        <ele>323</ele>
        <time>2021-06-06T14:17:45.739Z</time>
      </trkpt>
      <trkpt lat="45.71373" lon="5.75369">
        <ele>317</ele>
        <time>2021-06-06T14:17:50.750Z</time>
      </trkpt>
      <trkpt lat="45.71367" lon="5.75368">
        <ele>317</ele>
        <time>2021-06-06T14:17:55.705Z</time>
      </trkpt>
      <trkpt lat="45.71363" lon="5.75369">
        <ele>317</ele>
        <time>2021-06-06T14:17:59.729Z</time>
      </trkpt>
      <trkpt lat="45.71356" lon="5.75369">
        <ele>317</ele>
        <time>2021-06-06T14:18:04.708Z</time>
      </trkpt>
      <trkpt lat="45.71351" lon="5.75369">
        <ele>317</ele>
        <time>2021-06-06T14:18:08.735Z</time>
      </trkpt>
      <trkpt lat="45.71345" lon="5.75367">
        <ele>316</ele>
        <time>2021-06-06T14:18:13.725Z</time>
      </trkpt>
      <trkpt lat="45.7134" lon="5.75367">
        <ele>316</ele>
        <time>2021-06-06T14:18:17.734Z</time>
      </trkpt>
      <trkpt lat="45.71335" lon="5.75368">
        <ele>316</ele>
        <time>2021-06-06T14:18:22.769Z</time>
      </trkpt>
      <trkpt lat="45.71328" lon="5.75367">
        <ele>316</ele>
        <time>2021-06-06T14:18:27.738Z</time>
      </trkpt>
      <trkpt lat="45.71323" lon="5.75367">
        <ele>316</ele>
        <time>2021-06-06T14:18:31.765Z</time>
      </trkpt>
      <trkpt lat="45.71317" lon="5.75368">
        <ele>315</ele>
        <time>2021-06-06T14:18:36.742Z</time>
      </trkpt>
      <trkpt lat="45.71313" lon="5.75365">
        <ele>315</ele>
        <time>2021-06-06T14:18:40.763Z</time>
      </trkpt>
      <trkpt lat="45.7131" lon="5.75363">
        <ele>315</ele>
        <time>2021-06-06T14:18:45.742Z</time>
      </trkpt>
      <trkpt lat="45.71304" lon="5.75361">
        <ele>315</ele>
        <time>2021-06-06T14:18:49.775Z</time>
      </trkpt>
      <trkpt lat="45.71299" lon="5.7536">
        <ele>315</ele>
        <time>2021-06-06T14:18:54.726Z</time>
      </trkpt>
      <trkpt lat="45.71295" lon="5.75361">
        <ele>315</ele>
        <time>2021-06-06T14:18:58.726Z</time>
      </trkpt>
      <trkpt lat="45.71289" lon="5.7536">
        <ele>310</ele>
        <time>2021-06-06T14:19:03.728Z</time>
      </trkpt>
      <trkpt lat="45.71283" lon="5.75357">
        <ele>310</ele>
        <time>2021-06-06T14:19:08.745Z</time>
      </trkpt>
      <trkpt lat="45.71277" lon="5.75358">
        <ele>310</ele>
        <time>2021-06-06T14:19:12.743Z</time>
      </trkpt>
      <trkpt lat="45.71273" lon="5.75357">
        <ele>310</ele>
        <time>2021-06-06T14:19:16.726Z</time>
      </trkpt>
      <trkpt lat="45.71268" lon="5.75353">
        <ele>310</ele>
        <time>2021-06-06T14:19:21.737Z</time>
      </trkpt>
      <trkpt lat="45.71263" lon="5.75351">
        <ele>305</ele>
        <time>2021-06-06T14:19:26.742Z</time>
      </trkpt>
      <trkpt lat="45.71257" lon="5.75352">
        <ele>305</ele>
        <time>2021-06-06T14:19:31.706Z</time>
      </trkpt>
      <trkpt lat="45.7125" lon="5.75351">
        <ele>305</ele>
        <time>2021-06-06T14:19:36.712Z</time>
      </trkpt>
      <trkpt lat="45.71246" lon="5.7535">
        <ele>305</ele>
        <time>2021-06-06T14:19:40.724Z</time>
      </trkpt>
      <trkpt lat="45.7124" lon="5.75348">
        <ele>305</ele>
        <time>2021-06-06T14:19:45.723Z</time>
      </trkpt>
      <trkpt lat="45.71235" lon="5.75347">
        <ele>306</ele>
        <time>2021-06-06T14:19:49.730Z</time>
      </trkpt>
      <trkpt lat="45.7123" lon="5.75346">
        <ele>306</ele>
        <time>2021-06-06T14:19:53.730Z</time>
      </trkpt>
      <trkpt lat="45.71224" lon="5.75345">
        <ele>306</ele>
        <time>2021-06-06T14:19:58.707Z</time>
      </trkpt>
      <trkpt lat="45.71218" lon="5.75344">
        <ele>306</ele>
        <time>2021-06-06T14:20:03.726Z</time>
      </trkpt>
      <trkpt lat="45.71212" lon="5.75342">
        <ele>306</ele>
        <time>2021-06-06T14:20:08.730Z</time>
      </trkpt>
      <trkpt lat="45.71208" lon="5.7534">
        <ele>302</ele>
        <time>2021-06-06T14:20:12.742Z</time>
      </trkpt>
      <trkpt lat="45.71203" lon="5.75339">
        <ele>302</ele>
        <time>2021-06-06T14:20:17.718Z</time>
      </trkpt>
      <trkpt lat="45.71198" lon="5.75337">
        <ele>302</ele>
        <time>2021-06-06T14:20:21.734Z</time>
      </trkpt>
      <trkpt lat="45.71193" lon="5.75336">
        <ele>302</ele>
        <time>2021-06-06T14:20:26.730Z</time>
      </trkpt>
      <trkpt lat="45.71189" lon="5.75337">
        <ele>302</ele>
        <time>2021-06-06T14:20:30.733Z</time>
      </trkpt>
      <trkpt lat="45.71184" lon="5.75339">
        <ele>302</ele>
        <time>2021-06-06T14:20:34.747Z</time>
      </trkpt>
      <trkpt lat="45.71179" lon="5.75343">
        <ele>295</ele>
        <time>2021-06-06T14:20:39.734Z</time>
      </trkpt>
      <trkpt lat="45.71174" lon="5.75347">
        <ele>292</ele>
        <time>2021-06-06T14:20:44.726Z</time>
      </trkpt>
      <trkpt lat="45.7117" lon="5.7535">
        <ele>292</ele>
        <time>2021-06-06T14:20:48.732Z</time>
      </trkpt>
      <trkpt lat="45.71165" lon="5.75354">
        <ele>292</ele>
        <time>2021-06-06T14:20:53.721Z</time>
      </trkpt>
      <trkpt lat="45.7116" lon="5.75357">
        <ele>292</ele>
        <time>2021-06-06T14:20:58.709Z</time>
      </trkpt>
      <trkpt lat="45.71156" lon="5.75359">
        <ele>292</ele>
        <time>2021-06-06T14:21:02.738Z</time>
      </trkpt>
      <trkpt lat="45.71151" lon="5.75359">
        <ele>283</ele>
        <time>2021-06-06T14:21:06.730Z</time>
      </trkpt>
      <trkpt lat="45.71147" lon="5.7536">
        <ele>283</ele>
        <time>2021-06-06T14:21:10.745Z</time>
      </trkpt>
      <trkpt lat="45.71142" lon="5.75361">
        <ele>283</ele>
        <time>2021-06-06T14:21:15.732Z</time>
      </trkpt>
      <trkpt lat="45.71138" lon="5.75361">
        <ele>283</ele>
        <time>2021-06-06T14:21:19.737Z</time>
      </trkpt>
      <trkpt lat="45.71133" lon="5.75363">
        <ele>283</ele>
        <time>2021-06-06T14:21:24.732Z</time>
      </trkpt>
      <trkpt lat="45.71127" lon="5.75363">
        <ele>283</ele>
        <time>2021-06-06T14:21:29.730Z</time>
      </trkpt>
      <trkpt lat="45.71122" lon="5.75363">
        <ele>278</ele>
        <time>2021-06-06T14:21:33.744Z</time>
      </trkpt>
      <trkpt lat="45.71119" lon="5.75363">
        <ele>278</ele>
        <time>2021-06-06T14:21:37.761Z</time>
      </trkpt>
      <trkpt lat="45.71114" lon="5.75364">
        <ele>278</ele>
        <time>2021-06-06T14:21:42.738Z</time>
      </trkpt>
      <trkpt lat="45.7111" lon="5.75365">
        <ele>278</ele>
        <time>2021-06-06T14:21:46.761Z</time>
      </trkpt>
      <trkpt lat="45.71105" lon="5.75367">
        <ele>278</ele>
        <time>2021-06-06T14:21:51.734Z</time>
      </trkpt>
      <trkpt lat="45.71101" lon="5.75371">
        <ele>278</ele>
        <time>2021-06-06T14:21:56.771Z</time>
      </trkpt>
      <trkpt lat="45.71096" lon="5.75374">
        <ele>272</ele>
        <time>2021-06-06T14:22:01.733Z</time>
      </trkpt>
      <trkpt lat="45.71091" lon="5.75376">
        <ele>268</ele>
        <time>2021-06-06T14:22:06.708Z</time>
      </trkpt>
      <trkpt lat="45.71088" lon="5.75376">
        <ele>268</ele>
        <time>2021-06-06T14:22:10.708Z</time>
      </trkpt>
      <trkpt lat="45.71084" lon="5.75377">
        <ele>268</ele>
        <time>2021-06-06T14:22:14.719Z</time>
      </trkpt>
      <trkpt lat="45.71078" lon="5.75379">
        <ele>268</ele>
        <time>2021-06-06T14:22:19.713Z</time>
      </trkpt>
      <trkpt lat="45.71073" lon="5.75381">
        <ele>268</ele>
        <time>2021-06-06T14:22:23.728Z</time>
      </trkpt>
      <trkpt lat="45.71068" lon="5.75382">
        <ele>262</ele>
        <time>2021-06-06T14:22:28.743Z</time>
      </trkpt>
      <trkpt lat="45.71062" lon="5.75382">
        <ele>262</ele>
        <time>2021-06-06T14:22:33.719Z</time>
      </trkpt>
      <trkpt lat="45.71057" lon="5.75379">
        <ele>262</ele>
        <time>2021-06-06T14:22:38.733Z</time>
      </trkpt>
      <trkpt lat="45.71052" lon="5.7538">
        <ele>262</ele>
        <time>2021-06-06T14:22:43.730Z</time>
      </trkpt>
      <trkpt lat="45.71046" lon="5.75381">
        <ele>262</ele>
        <time>2021-06-06T14:22:48.794Z</time>
      </trkpt>
      <trkpt lat="45.7104" lon="5.75381">
        <ele>256</ele>
        <time>2021-06-06T14:22:53.732Z</time>
      </trkpt>
      <trkpt lat="45.71035" lon="5.75381">
        <ele>256</ele>
        <time>2021-06-06T14:22:58.710Z</time>
      </trkpt>
      <trkpt lat="45.71029" lon="5.75381">
        <ele>256</ele>
        <time>2021-06-06T14:23:03.737Z</time>
      </trkpt>
      <trkpt lat="45.71024" lon="5.75379">
        <ele>256</ele>
        <time>2021-06-06T14:23:08.742Z</time>
      </trkpt>
      <trkpt lat="45.71025" lon="5.75379">
        <ele>256</ele>
        <time>2021-06-06T14:23:13.746Z</time>
      </trkpt>
      <trkpt lat="45.7102" lon="5.75378">
        <ele>256</ele>
        <time>2021-06-06T14:23:17.745Z</time>
      </trkpt>
      <trkpt lat="45.71016" lon="5.75378">
        <ele>256</ele>
        <time>2021-06-06T14:23:22.767Z</time>
      </trkpt>
      <trkpt lat="45.71011" lon="5.75377">
        <ele>253</ele>
        <time>2021-06-06T14:23:27.701Z</time>
      </trkpt>
      <trkpt lat="45.71007" lon="5.75375">
        <ele>253</ele>
        <time>2021-06-06T14:23:31.725Z</time>
      </trkpt>
      <trkpt lat="45.71002" lon="5.75375">
        <ele>256</ele>
        <time>2021-06-06T14:23:36.722Z</time>
      </trkpt>
      <trkpt lat="45.70997" lon="5.75374">
        <ele>256</ele>
        <time>2021-06-06T14:23:41.744Z</time>
      </trkpt>
      <trkpt lat="45.70993" lon="5.75375">
        <ele>256</ele>
        <time>2021-06-06T14:23:46.766Z</time>
      </trkpt>
      <trkpt lat="45.70987" lon="5.75373">
        <ele>256</ele>
        <time>2021-06-06T14:26:08.738Z</time>
      </trkpt>
      <trkpt lat="45.70985" lon="5.75373">
        <ele>254</ele>
        <time>2021-06-06T14:26:13.718Z</time>
      </trkpt>
      <trkpt lat="45.70984" lon="5.75372">
        <ele>254</ele>
        <time>2021-06-06T14:26:17.718Z</time>
      </trkpt>
      <trkpt lat="45.70977" lon="5.75373">
        <ele>254</ele>
        <time>2021-06-06T14:26:21.734Z</time>
      </trkpt>
      <trkpt lat="45.70974" lon="5.75372">
        <ele>254</ele>
        <time>2021-06-06T14:26:25.740Z</time>
      </trkpt>
      <trkpt lat="45.70971" lon="5.75372">
        <ele>254</ele>
        <time>2021-06-06T14:26:29.767Z</time>
      </trkpt>
      <trkpt lat="45.70966" lon="5.75373">
        <ele>254</ele>
        <time>2021-06-06T14:26:34.748Z</time>
      </trkpt>
      <trkpt lat="45.70963" lon="5.75373">
        <ele>254</ele>
        <time>2021-06-06T14:26:38.760Z</time>
      </trkpt>
      <trkpt lat="45.70959" lon="5.75369">
        <ele>254</ele>
        <time>2021-06-06T14:26:43.740Z</time>
      </trkpt>
      <trkpt lat="45.70957" lon="5.75365">
        <ele>250</ele>
        <time>2021-06-06T14:26:47.763Z</time>
      </trkpt>
      <trkpt lat="45.70953" lon="5.7536">
        <ele>250</ele>
        <time>2021-06-06T14:26:52.721Z</time>
      </trkpt>
      <trkpt lat="45.70949" lon="5.75355">
        <ele>250</ele>
        <time>2021-06-06T14:26:56.733Z</time>
      </trkpt>
      <trkpt lat="45.70945" lon="5.75349">
        <ele>250</ele>
        <time>2021-06-06T14:27:01.767Z</time>
      </trkpt>
      <trkpt lat="45.70941" lon="5.75345">
        <ele>252</ele>
        <time>2021-06-06T14:27:06.739Z</time>
      </trkpt>
      <trkpt lat="45.7094" lon="5.75338">
        <ele>252</ele>
        <time>2021-06-06T14:27:11.759Z</time>
      </trkpt>
      <trkpt lat="45.70938" lon="5.75331">
        <ele>252</ele>
        <time>2021-06-06T14:27:16.741Z</time>
      </trkpt>
      <trkpt lat="45.70935" lon="5.75326">
        <ele>252</ele>
        <time>2021-06-06T14:27:21.707Z</time>
      </trkpt>
      <trkpt lat="45.70931" lon="5.75321">
        <ele>252</ele>
        <time>2021-06-06T14:27:25.724Z</time>
      </trkpt>
      <trkpt lat="45.70927" lon="5.75315">
        <ele>251</ele>
        <time>2021-06-06T14:27:30.744Z</time>
      </trkpt>
      <trkpt lat="45.70924" lon="5.75311">
        <ele>251</ele>
        <time>2021-06-06T14:27:34.766Z</time>
      </trkpt>
      <trkpt lat="45.7092" lon="5.75304">
        <ele>251</ele>
        <time>2021-06-06T14:27:39.735Z</time>
      </trkpt>
      <trkpt lat="45.70914" lon="5.75297">
        <ele>251</ele>
        <time>2021-06-06T14:27:44.737Z</time>
      </trkpt>
      <trkpt lat="45.70909" lon="5.75293">
        <ele>251</ele>
        <time>2021-06-06T14:27:48.760Z</time>
      </trkpt>
      <trkpt lat="45.70904" lon="5.75289">
        <ele>258</ele>
        <time>2021-06-06T14:27:53.729Z</time>
      </trkpt>
      <trkpt lat="45.70897" lon="5.75283">
        <ele>249</ele>
        <time>2021-06-06T14:27:58.732Z</time>
      </trkpt>
      <trkpt lat="45.70891" lon="5.75279">
        <ele>249</ele>
        <time>2021-06-06T14:28:03.759Z</time>
      </trkpt>
      <trkpt lat="45.70885" lon="5.75276">
        <ele>249</ele>
        <time>2021-06-06T14:28:08.733Z</time>
      </trkpt>
      <trkpt lat="45.7088" lon="5.75273">
        <ele>249</ele>
        <time>2021-06-06T14:28:12.701Z</time>
      </trkpt>
      <trkpt lat="45.70873" lon="5.75269">
        <ele>243</ele>
        <time>2021-06-06T14:28:17.701Z</time>
      </trkpt>
      <trkpt lat="45.70866" lon="5.75267">
        <ele>243</ele>
        <time>2021-06-06T14:28:22.708Z</time>
      </trkpt>
      <trkpt lat="45.70859" lon="5.75263">
        <ele>251</ele>
        <time>2021-06-06T14:28:27.708Z</time>
      </trkpt>
      <trkpt lat="45.70853" lon="5.7526">
        <ele>251</ele>
        <time>2021-06-06T14:28:32.708Z</time>
      </trkpt>
      <trkpt lat="45.70848" lon="5.75256">
        <ele>251</ele>
        <time>2021-06-06T14:28:37.761Z</time>
      </trkpt>
      <trkpt lat="45.70842" lon="5.75253">
        <ele>245</ele>
        <time>2021-06-06T14:28:42.742Z</time>
      </trkpt>
      <trkpt lat="45.70836" lon="5.7525">
        <ele>245</ele>
        <time>2021-06-06T14:28:47.751Z</time>
      </trkpt>
      <trkpt lat="45.7083" lon="5.75246">
        <ele>245</ele>
        <time>2021-06-06T14:28:52.742Z</time>
      </trkpt>
      <trkpt lat="45.70825" lon="5.75242">
        <ele>245</ele>
        <time>2021-06-06T14:28:56.747Z</time>
      </trkpt>
      <trkpt lat="45.70819" lon="5.75238">
        <ele>240</ele>
        <time>2021-06-06T14:29:01.788Z</time>
      </trkpt>
      <trkpt lat="45.70813" lon="5.75234">
        <ele>250</ele>
        <time>2021-06-06T14:29:06.774Z</time>
      </trkpt>
      <trkpt lat="45.70806" lon="5.75231">
        <ele>250</ele>
        <time>2021-06-06T14:29:11.761Z</time>
      </trkpt>
      <trkpt lat="45.708" lon="5.75228">
        <ele>250</ele>
        <time>2021-06-06T14:29:16.742Z</time>
      </trkpt>
      <trkpt lat="45.70793" lon="5.75225">
        <ele>250</ele>
        <time>2021-06-06T14:29:21.730Z</time>
      </trkpt>
      <trkpt lat="45.70788" lon="5.75223">
        <ele>242</ele>
        <time>2021-06-06T14:29:25.763Z</time>
      </trkpt>
      <trkpt lat="45.70781" lon="5.7522">
        <ele>242</ele>
        <time>2021-06-06T14:29:30.730Z</time>
      </trkpt>
      <trkpt lat="45.70775" lon="5.75218">
        <ele>242</ele>
        <time>2021-06-06T14:29:34.762Z</time>
      </trkpt>
      <trkpt lat="45.7077" lon="5.75216">
        <ele>242</ele>
        <time>2021-06-06T14:29:38.768Z</time>
      </trkpt>
      <trkpt lat="45.70766" lon="5.75214">
        <ele>242</ele>
        <time>2021-06-06T14:29:42.779Z</time>
      </trkpt>
      <trkpt lat="45.70759" lon="5.75211">
        <ele>233</ele>
        <time>2021-06-06T14:29:47.767Z</time>
      </trkpt>
      <trkpt lat="45.70754" lon="5.75209">
        <ele>233</ele>
        <time>2021-06-06T14:29:51.777Z</time>
      </trkpt>
      <trkpt lat="45.70748" lon="5.75208">
        <ele>243</ele>
        <time>2021-06-06T14:29:56.774Z</time>
      </trkpt>
      <trkpt lat="45.70742" lon="5.75205">
        <ele>243</ele>
        <time>2021-06-06T14:30:01.732Z</time>
      </trkpt>
      <trkpt lat="45.70736" lon="5.75203">
        <ele>243</ele>
        <time>2021-06-06T14:30:06.768Z</time>
      </trkpt>
      <trkpt lat="45.7073" lon="5.752">
        <ele>236</ele>
        <time>2021-06-06T14:30:11.743Z</time>
      </trkpt>
      <trkpt lat="45.70725" lon="5.75197">
        <ele>236</ele>
        <time>2021-06-06T14:30:15.760Z</time>
      </trkpt>
      <trkpt lat="45.70719" lon="5.75193">
        <ele>236</ele>
        <time>2021-06-06T14:30:20.740Z</time>
      </trkpt>
      <trkpt lat="45.70715" lon="5.75189">
        <ele>236</ele>
        <time>2021-06-06T14:30:24.762Z</time>
      </trkpt>
      <trkpt lat="45.7071" lon="5.75186">
        <ele>236</ele>
        <time>2021-06-06T14:30:28.778Z</time>
      </trkpt>
      <trkpt lat="45.70704" lon="5.75181">
        <ele>231</ele>
        <time>2021-06-06T14:30:33.769Z</time>
      </trkpt>
      <trkpt lat="45.70697" lon="5.75175">
        <ele>238</ele>
        <time>2021-06-06T14:30:38.764Z</time>
      </trkpt>
      <trkpt lat="45.70691" lon="5.75169">
        <ele>238</ele>
        <time>2021-06-06T14:30:43.725Z</time>
      </trkpt>
      <trkpt lat="45.70686" lon="5.75165">
        <ele>238</ele>
        <time>2021-06-06T14:30:47.736Z</time>
      </trkpt>
      <trkpt lat="45.70681" lon="5.75158">
        <ele>238</ele>
        <time>2021-06-06T14:30:52.715Z</time>
      </trkpt>
      <trkpt lat="45.70679" lon="5.75152">
        <ele>233</ele>
        <time>2021-06-06T14:30:56.784Z</time>
      </trkpt>
      <trkpt lat="45.70675" lon="5.75145">
        <ele>233</ele>
        <time>2021-06-06T14:31:01.744Z</time>
      </trkpt>
      <trkpt lat="45.70672" lon="5.75137">
        <ele>233</ele>
        <time>2021-06-06T14:31:06.736Z</time>
      </trkpt>
      <trkpt lat="45.7067" lon="5.7513">
        <ele>233</ele>
        <time>2021-06-06T14:31:10.766Z</time>
      </trkpt>
      <trkpt lat="45.70666" lon="5.75123">
        <ele>233</ele>
        <time>2021-06-06T14:31:15.738Z</time>
      </trkpt>
      <trkpt lat="45.70661" lon="5.75119">
        <ele>233</ele>
        <time>2021-06-06T14:31:20.727Z</time>
      </trkpt>
      <trkpt lat="45.70654" lon="5.75116">
        <ele>233</ele>
        <time>2021-06-06T14:31:24.737Z</time>
      </trkpt>
      <trkpt lat="45.70649" lon="5.75113">
        <ele>224</ele>
        <time>2021-06-06T14:31:28.752Z</time>
      </trkpt>
      <trkpt lat="45.70641" lon="5.7511">
        <ele>224</ele>
        <time>2021-06-06T14:31:33.744Z</time>
      </trkpt>
      <trkpt lat="45.70635" lon="5.75108">
        <ele>224</ele>
        <time>2021-06-06T14:31:37.762Z</time>
      </trkpt>
      <trkpt lat="45.70626" lon="5.75107">
        <ele>224</ele>
        <time>2021-06-06T14:31:42.734Z</time>
      </trkpt>
      <trkpt lat="45.7062" lon="5.75105">
        <ele>222</ele>
        <time>2021-06-06T14:31:46.768Z</time>
      </trkpt>
      <trkpt lat="45.70612" lon="5.75104">
        <ele>222</ele>
        <time>2021-06-06T14:31:51.736Z</time>
      </trkpt>
      <trkpt lat="45.70606" lon="5.75101">
        <ele>222</ele>
        <time>2021-06-06T14:31:56.740Z</time>
      </trkpt>
      <trkpt lat="45.706" lon="5.751">
        <ele>222</ele>
        <time>2021-06-06T14:32:00.768Z</time>
      </trkpt>
      <trkpt lat="45.70592" lon="5.75099">
        <ele>223</ele>
        <time>2021-06-06T14:32:05.733Z</time>
      </trkpt>
      <trkpt lat="45.70586" lon="5.75097">
        <ele>224</ele>
        <time>2021-06-06T14:32:09.767Z</time>
      </trkpt>
      <trkpt lat="45.70578" lon="5.75096">
        <ele>224</ele>
        <time>2021-06-06T14:32:14.744Z</time>
      </trkpt>
      <trkpt lat="45.70572" lon="5.75095">
        <ele>224</ele>
        <time>2021-06-06T14:32:18.725Z</time>
      </trkpt>
      <trkpt lat="45.70565" lon="5.75094">
        <ele>228</ele>
        <time>2021-06-06T14:32:23.732Z</time>
      </trkpt>
      <trkpt lat="45.70558" lon="5.75093">
        <ele>228</ele>
        <time>2021-06-06T14:32:27.761Z</time>
      </trkpt>
      <trkpt lat="45.70551" lon="5.75092">
        <ele>228</ele>
        <time>2021-06-06T14:32:32.730Z</time>
      </trkpt>
      <trkpt lat="45.70545" lon="5.75092">
        <ele>228</ele>
        <time>2021-06-06T14:32:36.752Z</time>
      </trkpt>
      <trkpt lat="45.70542" lon="5.75092">
        <ele>228</ele>
        <time>2021-06-06T14:32:50.737Z</time>
      </trkpt>
      <trkpt lat="45.70541" lon="5.75101">
        <ele>232</ele>
        <time>2021-06-06T14:32:55.733Z</time>
      </trkpt>
      <trkpt lat="45.70537" lon="5.75106">
        <ele>232</ele>
        <time>2021-06-06T14:33:00.719Z</time>
      </trkpt>
      <trkpt lat="45.70533" lon="5.75112">
        <ele>232</ele>
        <time>2021-06-06T14:33:04.735Z</time>
      </trkpt>
      <trkpt lat="45.70531" lon="5.7512">
        <ele>232</ele>
        <time>2021-06-06T14:33:08.782Z</time>
      </trkpt>
      <trkpt lat="45.70531" lon="5.75129">
        <ele>232</ele>
        <time>2021-06-06T14:33:13.729Z</time>
      </trkpt>
      <trkpt lat="45.70531" lon="5.75136">
        <ele>232</ele>
        <time>2021-06-06T14:33:17.740Z</time>
      </trkpt>
      <trkpt lat="45.7053" lon="5.75147">
        <ele>232</ele>
        <time>2021-06-06T14:33:22.803Z</time>
      </trkpt>
      <trkpt lat="45.7053" lon="5.75158">
        <ele>233</ele>
        <time>2021-06-06T14:33:27.731Z</time>
      </trkpt>
      <trkpt lat="45.70529" lon="5.75167">
        <ele>233</ele>
        <time>2021-06-06T14:33:32.707Z</time>
      </trkpt>
      <trkpt lat="45.70527" lon="5.75178">
        <ele>233</ele>
        <time>2021-06-06T14:33:37.699Z</time>
      </trkpt>
      <trkpt lat="45.70526" lon="5.75186">
        <ele>235</ele>
        <time>2021-06-06T14:33:41.757Z</time>
      </trkpt>
      <trkpt lat="45.70526" lon="5.75197">
        <ele>235</ele>
        <time>2021-06-06T14:33:46.723Z</time>
      </trkpt>
      <trkpt lat="45.70525" lon="5.75206">
        <ele>235</ele>
        <time>2021-06-06T14:33:50.771Z</time>
      </trkpt>
      <trkpt lat="45.70525" lon="5.75216">
        <ele>235</ele>
        <time>2021-06-06T14:33:55.721Z</time>
      </trkpt>
      <trkpt lat="45.70524" lon="5.75224">
        <ele>235</ele>
        <time>2021-06-06T14:33:59.767Z</time>
      </trkpt>
      <trkpt lat="45.70519" lon="5.75233">
        <ele>235</ele>
        <time>2021-06-06T14:34:04.738Z</time>
      </trkpt>
      <trkpt lat="45.70515" lon="5.7524">
        <ele>233</ele>
        <time>2021-06-06T14:34:09.729Z</time>
      </trkpt>
      <trkpt lat="45.7051" lon="5.75246">
        <ele>231</ele>
        <time>2021-06-06T14:34:13.778Z</time>
      </trkpt>
      <trkpt lat="45.70506" lon="5.75254">
        <ele>231</ele>
        <time>2021-06-06T14:34:18.728Z</time>
      </trkpt>
      <trkpt lat="45.70504" lon="5.7526">
        <ele>231</ele>
        <time>2021-06-06T14:34:22.755Z</time>
      </trkpt>
      <trkpt lat="45.70502" lon="5.75269">
        <ele>229</ele>
        <time>2021-06-06T14:34:27.785Z</time>
      </trkpt>
      <trkpt lat="45.705" lon="5.75278">
        <ele>229</ele>
        <time>2021-06-06T14:34:32.725Z</time>
      </trkpt>
      <trkpt lat="45.70498" lon="5.75285">
        <ele>229</ele>
        <time>2021-06-06T14:34:36.736Z</time>
      </trkpt>
      <trkpt lat="45.70496" lon="5.75293">
        <ele>228</ele>
        <time>2021-06-06T14:34:40.735Z</time>
      </trkpt>
      <trkpt lat="45.70492" lon="5.75301">
        <ele>228</ele>
        <time>2021-06-06T14:34:45.783Z</time>
      </trkpt>
      <trkpt lat="45.70491" lon="5.75311">
        <ele>228</ele>
        <time>2021-06-06T14:34:50.706Z</time>
      </trkpt>
      <trkpt lat="45.70489" lon="5.75318">
        <ele>228</ele>
        <time>2021-06-06T14:34:54.719Z</time>
      </trkpt>
      <trkpt lat="45.70487" lon="5.75325">
        <ele>227</ele>
        <time>2021-06-06T14:34:58.777Z</time>
      </trkpt>
      <trkpt lat="45.70486" lon="5.75335">
        <ele>227</ele>
        <time>2021-06-06T14:35:03.727Z</time>
      </trkpt>
      <trkpt lat="45.70485" lon="5.75344">
        <ele>226</ele>
        <time>2021-06-06T14:35:08.737Z</time>
      </trkpt>
      <trkpt lat="45.70483" lon="5.75353">
        <ele>226</ele>
        <time>2021-06-06T14:35:12.743Z</time>
      </trkpt>
      <trkpt lat="45.70481" lon="5.7536">
        <ele>226</ele>
        <time>2021-06-06T14:35:16.791Z</time>
      </trkpt>
      <trkpt lat="45.7048" lon="5.7537">
        <ele>226</ele>
        <time>2021-06-06T14:35:21.742Z</time>
      </trkpt>
      <trkpt lat="45.70478" lon="5.75377">
        <ele>227</ele>
        <time>2021-06-06T14:35:25.789Z</time>
      </trkpt>
      <trkpt lat="45.70478" lon="5.75388">
        <ele>227</ele>
        <time>2021-06-06T14:35:30.742Z</time>
      </trkpt>
      <trkpt lat="45.70477" lon="5.75399">
        <ele>227</ele>
        <time>2021-06-06T14:35:35.769Z</time>
      </trkpt>
      <trkpt lat="45.70475" lon="5.75409">
        <ele>227</ele>
        <time>2021-06-06T14:35:40.762Z</time>
      </trkpt>
      <trkpt lat="45.70473" lon="5.75417">
        <ele>227</ele>
        <time>2021-06-06T14:35:44.766Z</time>
      </trkpt>
      <trkpt lat="45.70472" lon="5.75426">
        <ele>227</ele>
        <time>2021-06-06T14:35:49.720Z</time>
      </trkpt>
      <trkpt lat="45.7047" lon="5.75435">
        <ele>228</ele>
        <time>2021-06-06T14:35:54.745Z</time>
      </trkpt>
      <trkpt lat="45.70466" lon="5.75439">
        <ele>228</ele>
        <time>2021-06-06T14:35:58.772Z</time>
      </trkpt>
      <trkpt lat="45.7046" lon="5.7544">
        <ele>228</ele>
        <time>2021-06-06T14:36:03.712Z</time>
      </trkpt>
      <trkpt lat="45.70455" lon="5.75439">
        <ele>231</ele>
        <time>2021-06-06T14:36:07.729Z</time>
      </trkpt>
      <trkpt lat="45.7045" lon="5.75438">
        <ele>231</ele>
        <time>2021-06-06T14:36:11.740Z</time>
      </trkpt>
      <trkpt lat="45.70443" lon="5.75436">
        <ele>231</ele>
        <time>2021-06-06T14:36:16.739Z</time>
      </trkpt>
      <trkpt lat="45.70438" lon="5.75438">
        <ele>231</ele>
        <time>2021-06-06T14:36:20.761Z</time>
      </trkpt>
      <trkpt lat="45.70432" lon="5.75438">
        <ele>231</ele>
        <time>2021-06-06T14:36:25.738Z</time>
      </trkpt>
      <trkpt lat="45.70426" lon="5.75438">
        <ele>232</ele>
        <time>2021-06-06T14:36:29.756Z</time>
      </trkpt>
      <trkpt lat="45.70422" lon="5.75444">
        <ele>232</ele>
        <time>2021-06-06T14:36:34.763Z</time>
      </trkpt>
      <trkpt lat="45.70419" lon="5.75451">
        <ele>232</ele>
        <time>2021-06-06T14:36:39.794Z</time>
      </trkpt>
      <trkpt lat="45.70415" lon="5.75459">
        <ele>231</ele>
        <time>2021-06-06T14:36:44.779Z</time>
      </trkpt>
      <trkpt lat="45.7041" lon="5.75464">
        <ele>231</ele>
        <time>2021-06-06T14:36:49.716Z</time>
      </trkpt>
      <trkpt lat="45.70407" lon="5.75471">
        <ele>231</ele>
        <time>2021-06-06T14:36:54.714Z</time>
      </trkpt>
      <trkpt lat="45.70404" lon="5.75477">
        <ele>231</ele>
        <time>2021-06-06T14:36:58.735Z</time>
      </trkpt>
      <trkpt lat="45.704" lon="5.75482">
        <ele>230</ele>
        <time>2021-06-06T14:37:02.744Z</time>
      </trkpt>
      <trkpt lat="45.70396" lon="5.75493">
        <ele>230</ele>
        <time>2021-06-06T14:37:07.735Z</time>
      </trkpt>
      <trkpt lat="45.70392" lon="5.75501">
        <ele>230</ele>
        <time>2021-06-06T14:37:12.722Z</time>
      </trkpt>
      <trkpt lat="45.7039" lon="5.75508">
        <ele>230</ele>
        <time>2021-06-06T14:37:16.731Z</time>
      </trkpt>
      <trkpt lat="45.70389" lon="5.75518">
        <ele>229</ele>
        <time>2021-06-06T14:37:21.706Z</time>
      </trkpt>
      <trkpt lat="45.70386" lon="5.75526">
        <ele>229</ele>
        <time>2021-06-06T14:37:26.706Z</time>
      </trkpt>
      <trkpt lat="45.70384" lon="5.75533">
        <ele>229</ele>
        <time>2021-06-06T14:37:30.721Z</time>
      </trkpt>
      <trkpt lat="45.70382" lon="5.75539">
        <ele>229</ele>
        <time>2021-06-06T14:37:34.737Z</time>
      </trkpt>
      <trkpt lat="45.70381" lon="5.7555">
        <ele>230</ele>
        <time>2021-06-06T14:37:39.706Z</time>
      </trkpt>
      <trkpt lat="45.70378" lon="5.7556">
        <ele>230</ele>
        <time>2021-06-06T14:37:44.710Z</time>
      </trkpt>
      <trkpt lat="45.7038" lon="5.75568">
        <ele>230</ele>
        <time>2021-06-06T14:37:48.740Z</time>
      </trkpt>
      <trkpt lat="45.70383" lon="5.75578">
        <ele>231</ele>
        <time>2021-06-06T14:37:53.715Z</time>
      </trkpt>
      <trkpt lat="45.70386" lon="5.75587">
        <ele>231</ele>
        <time>2021-06-06T14:37:57.750Z</time>
      </trkpt>
      <trkpt lat="45.7039" lon="5.75597">
        <ele>231</ele>
        <time>2021-06-06T14:38:02.732Z</time>
      </trkpt>
      <trkpt lat="45.70392" lon="5.75606">
        <ele>233</ele>
        <time>2021-06-06T14:38:07.761Z</time>
      </trkpt>
      <trkpt lat="45.70394" lon="5.75613">
        <ele>233</ele>
        <time>2021-06-06T14:38:11.776Z</time>
      </trkpt>
      <trkpt lat="45.70396" lon="5.75621">
        <ele>233</ele>
        <time>2021-06-06T14:38:16.705Z</time>
      </trkpt>
      <trkpt lat="45.70396" lon="5.75628">
        <ele>234</ele>
        <time>2021-06-06T14:38:20.754Z</time>
      </trkpt>
      <trkpt lat="45.70396" lon="5.7563">
        <ele>234</ele>
        <time>2021-06-06T14:38:25.725Z</time>
      </trkpt>
      <trkpt lat="45.70394" lon="5.75633">
        <ele>234</ele>
        <time>2021-06-06T14:38:29.742Z</time>
      </trkpt>
      <trkpt lat="45.70388" lon="5.75635">
        <ele>234</ele>
        <time>2021-06-06T14:38:34.745Z</time>
      </trkpt>
      <trkpt lat="45.70381" lon="5.75636">
        <ele>234</ele>
        <time>2021-06-06T14:38:39.722Z</time>
      </trkpt>
      <trkpt lat="45.70376" lon="5.75637">
        <ele>234</ele>
        <time>2021-06-06T14:38:43.730Z</time>
      </trkpt>
      <trkpt lat="45.70369" lon="5.75641">
        <ele>233</ele>
        <time>2021-06-06T14:38:48.728Z</time>
      </trkpt>
      <trkpt lat="45.70364" lon="5.75647">
        <ele>233</ele>
        <time>2021-06-06T14:38:53.772Z</time>
      </trkpt>
      <trkpt lat="45.70358" lon="5.75647">
        <ele>233</ele>
        <time>2021-06-06T14:38:57.775Z</time>
      </trkpt>
      <trkpt lat="45.70351" lon="5.75645">
        <ele>233</ele>
        <time>2021-06-06T14:39:02.769Z</time>
      </trkpt>
      <trkpt lat="45.70344" lon="5.75643">
        <ele>232</ele>
        <time>2021-06-06T14:39:07.740Z</time>
      </trkpt>
      <trkpt lat="45.70338" lon="5.75642">
        <ele>232</ele>
        <time>2021-06-06T14:39:12.744Z</time>
      </trkpt>
      <trkpt lat="45.70335" lon="5.7564">
        <ele>232</ele>
        <time>2021-06-06T14:39:16.763Z</time>
      </trkpt>
      <trkpt lat="45.7033" lon="5.75638">
        <ele>232</ele>
        <time>2021-06-06T14:39:20.767Z</time>
      </trkpt>
      <trkpt lat="45.70323" lon="5.75635">
        <ele>232</ele>
        <time>2021-06-06T14:39:25.735Z</time>
      </trkpt>
      <trkpt lat="45.70318" lon="5.75634">
        <ele>232</ele>
        <time>2021-06-06T14:39:29.760Z</time>
      </trkpt>
      <trkpt lat="45.70312" lon="5.75633">
        <ele>232</ele>
        <time>2021-06-06T14:39:34.729Z</time>
      </trkpt>
      <trkpt lat="45.70306" lon="5.75629">
        <ele>232</ele>
        <time>2021-06-06T14:39:39.749Z</time>
      </trkpt>
      <trkpt lat="45.70301" lon="5.75629">
        <ele>232</ele>
        <time>2021-06-06T14:39:44.748Z</time>
      </trkpt>
      <trkpt lat="45.70294" lon="5.75629">
        <ele>232</ele>
        <time>2021-06-06T14:39:49.719Z</time>
      </trkpt>
      <trkpt lat="45.70289" lon="5.75628">
        <ele>233</ele>
        <time>2021-06-06T14:39:53.732Z</time>
      </trkpt>
      <trkpt lat="45.70284" lon="5.75622">
        <ele>232</ele>
        <time>2021-06-06T14:39:57.728Z</time>
      </trkpt>
      <trkpt lat="45.70276" lon="5.75616">
        <ele>232</ele>
        <time>2021-06-06T14:40:02.740Z</time>
      </trkpt>
      <trkpt lat="45.70269" lon="5.7561">
        <ele>232</ele>
        <time>2021-06-06T14:40:07.733Z</time>
      </trkpt>
      <trkpt lat="45.70264" lon="5.75606">
        <ele>233</ele>
        <time>2021-06-06T14:40:11.759Z</time>
      </trkpt>
      <trkpt lat="45.70257" lon="5.75605">
        <ele>233</ele>
        <time>2021-06-06T14:40:16.733Z</time>
      </trkpt>
      <trkpt lat="45.7025" lon="5.75607">
        <ele>233</ele>
        <time>2021-06-06T14:40:21.730Z</time>
      </trkpt>
      <trkpt lat="45.70246" lon="5.75612">
        <ele>233</ele>
        <time>2021-06-06T14:40:25.740Z</time>
      </trkpt>
      <trkpt lat="45.70243" lon="5.75619">
        <ele>233</ele>
        <time>2021-06-06T14:40:30.776Z</time>
      </trkpt>
      <trkpt lat="45.70239" lon="5.75626">
        <ele>233</ele>
        <time>2021-06-06T14:40:35.764Z</time>
      </trkpt>
      <trkpt lat="45.70232" lon="5.75628">
        <ele>234</ele>
        <time>2021-06-06T14:40:40.744Z</time>
      </trkpt>
      <trkpt lat="45.70227" lon="5.75625">
        <ele>234</ele>
        <time>2021-06-06T14:40:44.763Z</time>
      </trkpt>
      <trkpt lat="45.70222" lon="5.75626">
        <ele>234</ele>
        <time>2021-06-06T14:40:48.771Z</time>
      </trkpt>
      <trkpt lat="45.70215" lon="5.75629">
        <ele>234</ele>
        <time>2021-06-06T14:40:53.738Z</time>
      </trkpt>
      <trkpt lat="45.7021" lon="5.75634">
        <ele>234</ele>
        <time>2021-06-06T14:40:58.777Z</time>
      </trkpt>
      <trkpt lat="45.70203" lon="5.75637">
        <ele>235</ele>
        <time>2021-06-06T14:41:03.761Z</time>
      </trkpt>
      <trkpt lat="45.70198" lon="5.75643">
        <ele>235</ele>
        <time>2021-06-06T14:41:08.735Z</time>
      </trkpt>
      <trkpt lat="45.70193" lon="5.75648">
        <ele>235</ele>
        <time>2021-06-06T14:41:12.775Z</time>
      </trkpt>
      <trkpt lat="45.70188" lon="5.75657">
        <ele>235</ele>
        <time>2021-06-06T14:41:17.757Z</time>
      </trkpt>
      <trkpt lat="45.70183" lon="5.75661">
        <ele>235</ele>
        <time>2021-06-06T14:41:22.743Z</time>
      </trkpt>
      <trkpt lat="45.70177" lon="5.75666">
        <ele>237</ele>
        <time>2021-06-06T14:41:27.758Z</time>
      </trkpt>
      <trkpt lat="45.70172" lon="5.75671">
        <ele>237</ele>
        <time>2021-06-06T14:41:32.726Z</time>
      </trkpt>
      <trkpt lat="45.70166" lon="5.75672">
        <ele>237</ele>
        <time>2021-06-06T14:41:36.738Z</time>
      </trkpt>
      <trkpt lat="45.70159" lon="5.75671">
        <ele>237</ele>
        <time>2021-06-06T14:41:41.759Z</time>
      </trkpt>
      <trkpt lat="45.70152" lon="5.75671">
        <ele>236</ele>
        <time>2021-06-06T14:41:46.733Z</time>
      </trkpt>
      <trkpt lat="45.70144" lon="5.75669">
        <ele>236</ele>
        <time>2021-06-06T14:41:51.711Z</time>
      </trkpt>
      <trkpt lat="45.70139" lon="5.7567">
        <ele>236</ele>
        <time>2021-06-06T14:41:55.735Z</time>
      </trkpt>
      <trkpt lat="45.70132" lon="5.7567">
        <ele>236</ele>
        <time>2021-06-06T14:42:00.739Z</time>
      </trkpt>
      <trkpt lat="45.70125" lon="5.75667">
        <ele>236</ele>
        <time>2021-06-06T14:42:05.760Z</time>
      </trkpt>
      <trkpt lat="45.70118" lon="5.75664">
        <ele>236</ele>
        <time>2021-06-06T14:42:10.778Z</time>
      </trkpt>
      <trkpt lat="45.70113" lon="5.75665">
        <ele>236</ele>
        <time>2021-06-06T14:42:15.729Z</time>
      </trkpt>
      <trkpt lat="45.70108" lon="5.75667">
        <ele>236</ele>
        <time>2021-06-06T14:42:19.777Z</time>
      </trkpt>
      <trkpt lat="45.70101" lon="5.75667">
        <ele>236</ele>
        <time>2021-06-06T14:42:24.738Z</time>
      </trkpt>
      <trkpt lat="45.70096" lon="5.75667">
        <ele>237</ele>
        <time>2021-06-06T14:42:28.784Z</time>
      </trkpt>
      <trkpt lat="45.7009" lon="5.75666">
        <ele>237</ele>
        <time>2021-06-06T14:42:33.786Z</time>
      </trkpt>
      <trkpt lat="45.70082" lon="5.75666">
        <ele>237</ele>
        <time>2021-06-06T14:42:38.726Z</time>
      </trkpt>
      <trkpt lat="45.70075" lon="5.75666">
        <ele>237</ele>
        <time>2021-06-06T14:42:43.758Z</time>
      </trkpt>
      <trkpt lat="45.70068" lon="5.75668">
        <ele>239</ele>
        <time>2021-06-06T14:42:48.729Z</time>
      </trkpt>
      <trkpt lat="45.70061" lon="5.75669">
        <ele>239</ele>
        <time>2021-06-06T14:42:53.729Z</time>
      </trkpt>
      <trkpt lat="45.70053" lon="5.75669">
        <ele>239</ele>
        <time>2021-06-06T14:42:58.724Z</time>
      </trkpt>
      <trkpt lat="45.70047" lon="5.7567">
        <ele>239</ele>
        <time>2021-06-06T14:43:03.697Z</time>
      </trkpt>
      <trkpt lat="45.70042" lon="5.75671">
        <ele>239</ele>
        <time>2021-06-06T14:43:07.719Z</time>
      </trkpt>
      <trkpt lat="45.70037" lon="5.75673">
        <ele>239</ele>
        <time>2021-06-06T14:43:11.701Z</time>
      </trkpt>
      <trkpt lat="45.7003" lon="5.75672">
        <ele>239</ele>
        <time>2021-06-06T14:43:16.795Z</time>
      </trkpt>
      <trkpt lat="45.70022" lon="5.75673">
        <ele>239</ele>
        <time>2021-06-06T14:43:21.777Z</time>
      </trkpt>
      <trkpt lat="45.70016" lon="5.75673">
        <ele>239</ele>
        <time>2021-06-06T14:43:26.725Z</time>
      </trkpt>
      <trkpt lat="45.70009" lon="5.75675">
        <ele>240</ele>
        <time>2021-06-06T14:43:31.738Z</time>
      </trkpt>
      <trkpt lat="45.70002" lon="5.75675">
        <ele>240</ele>
        <time>2021-06-06T14:43:36.738Z</time>
      </trkpt>
      <trkpt lat="45.69996" lon="5.75673">
        <ele>240</ele>
        <time>2021-06-06T14:43:41.702Z</time>
      </trkpt>
      <trkpt lat="45.69988" lon="5.75672">
        <ele>240</ele>
        <time>2021-06-06T14:43:46.706Z</time>
      </trkpt>
      <trkpt lat="45.69981" lon="5.75669">
        <ele>240</ele>
        <time>2021-06-06T14:43:51.707Z</time>
      </trkpt>
      <trkpt lat="45.69974" lon="5.75667">
        <ele>240</ele>
        <time>2021-06-06T14:43:56.705Z</time>
      </trkpt>
      <trkpt lat="45.69969" lon="5.75664">
        <ele>240</ele>
        <time>2021-06-06T14:44:00.799Z</time>
      </trkpt>
      <trkpt lat="45.69963" lon="5.75661">
        <ele>240</ele>
        <time>2021-06-06T14:44:05.733Z</time>
      </trkpt>
      <trkpt lat="45.69957" lon="5.75659">
        <ele>240</ele>
        <time>2021-06-06T14:44:09.726Z</time>
      </trkpt>
      <trkpt lat="45.6995" lon="5.75656">
        <ele>240</ele>
        <time>2021-06-06T14:44:14.725Z</time>
      </trkpt>
      <trkpt lat="45.69946" lon="5.75652">
        <ele>239</ele>
        <time>2021-06-06T14:44:18.730Z</time>
      </trkpt>
      <trkpt lat="45.69941" lon="5.75647">
        <ele>239</ele>
        <time>2021-06-06T14:44:22.762Z</time>
      </trkpt>
      <trkpt lat="45.69937" lon="5.7564">
        <ele>239</ele>
        <time>2021-06-06T14:44:27.726Z</time>
      </trkpt>
      <trkpt lat="45.69932" lon="5.75635">
        <ele>239</ele>
        <time>2021-06-06T14:44:31.740Z</time>
      </trkpt>
      <trkpt lat="45.69928" lon="5.7563">
        <ele>239</ele>
        <time>2021-06-06T14:44:35.767Z</time>
      </trkpt>
      <trkpt lat="45.69923" lon="5.75623">
        <ele>239</ele>
        <time>2021-06-06T14:44:40.746Z</time>
      </trkpt>
      <trkpt lat="45.69918" lon="5.75618">
        <ele>239</ele>
        <time>2021-06-06T14:44:44.769Z</time>
      </trkpt>
      <trkpt lat="45.69913" lon="5.75612">
        <ele>239</ele>
        <time>2021-06-06T14:44:49.738Z</time>
      </trkpt>
      <trkpt lat="45.69908" lon="5.75604">
        <ele>239</ele>
        <time>2021-06-06T14:44:54.735Z</time>
      </trkpt>
      <trkpt lat="45.69903" lon="5.75596">
        <ele>239</ele>
        <time>2021-06-06T14:44:59.727Z</time>
      </trkpt>
      <trkpt lat="45.69898" lon="5.7559">
        <ele>239</ele>
        <time>2021-06-06T14:45:03.771Z</time>
      </trkpt>
      <trkpt lat="45.69894" lon="5.75582">
        <ele>239</ele>
        <time>2021-06-06T14:45:08.730Z</time>
      </trkpt>
      <trkpt lat="45.69889" lon="5.75573">
        <ele>239</ele>
        <time>2021-06-06T14:45:13.740Z</time>
      </trkpt>
      <trkpt lat="45.69886" lon="5.75567">
        <ele>239</ele>
        <time>2021-06-06T14:45:17.779Z</time>
      </trkpt>
      <trkpt lat="45.69881" lon="5.75558">
        <ele>239</ele>
        <time>2021-06-06T14:45:22.761Z</time>
      </trkpt>
      <trkpt lat="45.69877" lon="5.7555">
        <ele>239</ele>
        <time>2021-06-06T14:45:27.738Z</time>
      </trkpt>
      <trkpt lat="45.69871" lon="5.75544">
        <ele>240</ele>
        <time>2021-06-06T14:45:32.740Z</time>
      </trkpt>
      <trkpt lat="45.69867" lon="5.75535">
        <ele>240</ele>
        <time>2021-06-06T14:45:37.731Z</time>
      </trkpt>
      <trkpt lat="45.69862" lon="5.75525">
        <ele>240</ele>
        <time>2021-06-06T14:45:42.737Z</time>
      </trkpt>
      <trkpt lat="45.69857" lon="5.7552">
        <ele>240</ele>
        <time>2021-06-06T14:45:46.740Z</time>
      </trkpt>
      <trkpt lat="45.69853" lon="5.75512">
        <ele>240</ele>
        <time>2021-06-06T14:45:51.758Z</time>
      </trkpt>
      <trkpt lat="45.69848" lon="5.75504">
        <ele>240</ele>
        <time>2021-06-06T14:45:56.726Z</time>
      </trkpt>
      <trkpt lat="45.69843" lon="5.755">
        <ele>240</ele>
        <time>2021-06-06T14:46:00.764Z</time>
      </trkpt>
      <trkpt lat="45.69837" lon="5.75494">
        <ele>240</ele>
        <time>2021-06-06T14:46:05.712Z</time>
      </trkpt>
      <trkpt lat="45.69829" lon="5.75489">
        <ele>240</ele>
        <time>2021-06-06T14:46:10.720Z</time>
      </trkpt>
      <trkpt lat="45.69822" lon="5.75487">
        <ele>240</ele>
        <time>2021-06-06T14:46:15.715Z</time>
      </trkpt>
      <trkpt lat="45.69817" lon="5.75481">
        <ele>241</ele>
        <time>2021-06-06T14:46:19.734Z</time>
      </trkpt>
      <trkpt lat="45.69813" lon="5.75476">
        <ele>241</ele>
        <time>2021-06-06T14:46:23.734Z</time>
      </trkpt>
      <trkpt lat="45.69808" lon="5.75472">
        <ele>241</ele>
        <time>2021-06-06T14:46:27.771Z</time>
      </trkpt>
      <trkpt lat="45.69803" lon="5.75466">
        <ele>241</ele>
        <time>2021-06-06T14:46:32.760Z</time>
      </trkpt>
      <trkpt lat="45.69798" lon="5.7546">
        <ele>241</ele>
        <time>2021-06-06T14:46:37.707Z</time>
      </trkpt>
      <trkpt lat="45.69793" lon="5.75455">
        <ele>241</ele>
        <time>2021-06-06T14:46:41.764Z</time>
      </trkpt>
      <trkpt lat="45.69787" lon="5.75449">
        <ele>243</ele>
        <time>2021-06-06T14:46:46.741Z</time>
      </trkpt>
      <trkpt lat="45.69781" lon="5.75444">
        <ele>243</ele>
        <time>2021-06-06T14:46:51.769Z</time>
      </trkpt>
      <trkpt lat="45.69778" lon="5.75441">
        <ele>243</ele>
        <time>2021-06-06T14:46:56.744Z</time>
      </trkpt>
      <trkpt lat="45.69773" lon="5.75434">
        <ele>243</ele>
        <time>2021-06-06T14:47:01.743Z</time>
      </trkpt>
      <trkpt lat="45.69767" lon="5.75429">
        <ele>242</ele>
        <time>2021-06-06T14:47:06.734Z</time>
      </trkpt>
      <trkpt lat="45.69762" lon="5.75424">
        <ele>243</ele>
        <time>2021-06-06T14:47:11.733Z</time>
      </trkpt>
      <trkpt lat="45.69755" lon="5.75419">
        <ele>243</ele>
        <time>2021-06-06T14:47:16.732Z</time>
      </trkpt>
      <trkpt lat="45.69741" lon="5.75407">
        <ele>243</ele>
        <time>2021-06-06T14:47:21.708Z</time>
      </trkpt>
      <trkpt lat="45.69727" lon="5.75393">
        <ele>243</ele>
        <time>2021-06-06T14:47:26.707Z</time>
      </trkpt>
      <trkpt lat="45.69715" lon="5.75381">
        <ele>243</ele>
        <time>2021-06-06T14:47:30.732Z</time>
      </trkpt>
      <trkpt lat="45.69698" lon="5.75367">
        <ele>243</ele>
        <time>2021-06-06T14:47:35.735Z</time>
      </trkpt>
      <trkpt lat="45.69689" lon="5.75359">
        <ele>243</ele>
        <time>2021-06-06T14:47:39.761Z</time>
      </trkpt>
      <trkpt lat="45.6968" lon="5.7535">
        <ele>242</ele>
        <time>2021-06-06T14:47:44.718Z</time>
      </trkpt>
      <trkpt lat="45.69672" lon="5.75344">
        <ele>243</ele>
        <time>2021-06-06T14:47:49.723Z</time>
      </trkpt>
      <trkpt lat="45.69666" lon="5.75339">
        <ele>243</ele>
        <time>2021-06-06T14:47:53.772Z</time>
      </trkpt>
      <trkpt lat="45.6966" lon="5.75333">
        <ele>243</ele>
        <time>2021-06-06T14:47:58.715Z</time>
      </trkpt>
      <trkpt lat="45.69654" lon="5.75329">
        <ele>243</ele>
        <time>2021-06-06T14:48:02.767Z</time>
      </trkpt>
      <trkpt lat="45.69648" lon="5.75324">
        <ele>242</ele>
        <time>2021-06-06T14:48:07.741Z</time>
      </trkpt>
      <trkpt lat="45.69642" lon="5.75319">
        <ele>242</ele>
        <time>2021-06-06T14:48:11.769Z</time>
      </trkpt>
      <trkpt lat="45.69636" lon="5.75314">
        <ele>242</ele>
        <time>2021-06-06T14:48:16.738Z</time>
      </trkpt>
      <trkpt lat="45.6963" lon="5.75308">
        <ele>242</ele>
        <time>2021-06-06T14:48:21.741Z</time>
      </trkpt>
      <trkpt lat="45.69623" lon="5.75303">
        <ele>243</ele>
        <time>2021-06-06T14:48:26.734Z</time>
      </trkpt>
      <trkpt lat="45.69618" lon="5.75298">
        <ele>243</ele>
        <time>2021-06-06T14:48:30.762Z</time>
      </trkpt>
      <trkpt lat="45.69612" lon="5.75293">
        <ele>243</ele>
        <time>2021-06-06T14:48:35.702Z</time>
      </trkpt>
      <trkpt lat="45.69606" lon="5.75289">
        <ele>243</ele>
        <time>2021-06-06T14:48:39.739Z</time>
      </trkpt>
      <trkpt lat="45.69601" lon="5.75285">
        <ele>243</ele>
        <time>2021-06-06T14:48:43.762Z</time>
      </trkpt>
      <trkpt lat="45.69595" lon="5.7528">
        <ele>244</ele>
        <time>2021-06-06T14:48:48.712Z</time>
      </trkpt>
      <trkpt lat="45.69588" lon="5.75276">
        <ele>244</ele>
        <time>2021-06-06T14:48:53.696Z</time>
      </trkpt>
      <trkpt lat="45.69583" lon="5.75273">
        <ele>244</ele>
        <time>2021-06-06T14:48:57.716Z</time>
      </trkpt>
      <trkpt lat="45.69577" lon="5.7527">
        <ele>244</ele>
        <time>2021-06-06T14:49:01.729Z</time>
      </trkpt>
      <trkpt lat="45.69573" lon="5.75265">
        <ele>244</ele>
        <time>2021-06-06T14:49:05.727Z</time>
      </trkpt>
      <trkpt lat="45.69568" lon="5.75261">
        <ele>244</ele>
        <time>2021-06-06T14:49:10.734Z</time>
      </trkpt>
      <trkpt lat="45.69562" lon="5.75255">
        <ele>244</ele>
        <time>2021-06-06T14:49:15.712Z</time>
      </trkpt>
      <trkpt lat="45.69557" lon="5.75251">
        <ele>244</ele>
        <time>2021-06-06T14:49:19.731Z</time>
      </trkpt>
      <trkpt lat="45.69551" lon="5.75248">
        <ele>244</ele>
        <time>2021-06-06T14:49:23.765Z</time>
      </trkpt>
      <trkpt lat="45.69545" lon="5.75243">
        <ele>244</ele>
        <time>2021-06-06T14:49:28.734Z</time>
      </trkpt>
      <trkpt lat="45.69539" lon="5.75241">
        <ele>246</ele>
        <time>2021-06-06T14:49:32.740Z</time>
      </trkpt>
      <trkpt lat="45.69534" lon="5.75242">
        <ele>246</ele>
        <time>2021-06-06T14:49:36.766Z</time>
      </trkpt>
      <trkpt lat="45.69529" lon="5.75243">
        <ele>246</ele>
        <time>2021-06-06T14:49:40.775Z</time>
      </trkpt>
      <trkpt lat="45.69523" lon="5.75247">
        <ele>246</ele>
        <time>2021-06-06T14:49:45.775Z</time>
      </trkpt>
      <trkpt lat="45.69516" lon="5.75252">
        <ele>246</ele>
        <time>2021-06-06T14:49:50.755Z</time>
      </trkpt>
      <trkpt lat="45.69509" lon="5.75255">
        <ele>247</ele>
        <time>2021-06-06T14:49:55.733Z</time>
      </trkpt>
      <trkpt lat="45.69503" lon="5.75256">
        <ele>247</ele>
        <time>2021-06-06T14:49:59.733Z</time>
      </trkpt>
      <trkpt lat="45.69496" lon="5.75258">
        <ele>247</ele>
        <time>2021-06-06T14:50:04.765Z</time>
      </trkpt>
      <trkpt lat="45.69489" lon="5.75261">
        <ele>247</ele>
        <time>2021-06-06T14:50:09.735Z</time>
      </trkpt>
      <trkpt lat="45.69483" lon="5.75261">
        <ele>248</ele>
        <time>2021-06-06T14:50:13.731Z</time>
      </trkpt>
      <trkpt lat="45.69477" lon="5.75264">
        <ele>248</ele>
        <time>2021-06-06T14:50:17.766Z</time>
      </trkpt>
      <trkpt lat="45.6947" lon="5.75264">
        <ele>247</ele>
        <time>2021-06-06T14:50:22.737Z</time>
      </trkpt>
      <trkpt lat="45.69464" lon="5.75263">
        <ele>248</ele>
        <time>2021-06-06T14:50:27.702Z</time>
      </trkpt>
      <trkpt lat="45.69458" lon="5.75263">
        <ele>248</ele>
        <time>2021-06-06T14:50:31.739Z</time>
      </trkpt>
      <trkpt lat="45.69453" lon="5.75261">
        <ele>248</ele>
        <time>2021-06-06T14:50:35.768Z</time>
      </trkpt>
      <trkpt lat="45.69446" lon="5.75259">
        <ele>248</ele>
        <time>2021-06-06T14:50:40.741Z</time>
      </trkpt>
      <trkpt lat="45.6944" lon="5.75255">
        <ele>248</ele>
        <time>2021-06-06T14:50:45.733Z</time>
      </trkpt>
      <trkpt lat="45.69435" lon="5.75254">
        <ele>248</ele>
        <time>2021-06-06T14:50:49.737Z</time>
      </trkpt>
      <trkpt lat="45.69429" lon="5.75254">
        <ele>248</ele>
        <time>2021-06-06T14:50:53.730Z</time>
      </trkpt>
      <trkpt lat="45.69424" lon="5.75253">
        <ele>248</ele>
        <time>2021-06-06T14:50:57.773Z</time>
      </trkpt>
      <trkpt lat="45.69417" lon="5.75251">
        <ele>248</ele>
        <time>2021-06-06T14:51:02.706Z</time>
      </trkpt>
      <trkpt lat="45.69411" lon="5.75249">
        <ele>248</ele>
        <time>2021-06-06T14:51:06.740Z</time>
      </trkpt>
      <trkpt lat="45.69403" lon="5.75247">
        <ele>248</ele>
        <time>2021-06-06T14:51:11.762Z</time>
      </trkpt>
      <trkpt lat="45.69398" lon="5.75247">
        <ele>248</ele>
        <time>2021-06-06T14:51:15.764Z</time>
      </trkpt>
      <trkpt lat="45.69391" lon="5.75244">
        <ele>248</ele>
        <time>2021-06-06T14:51:20.732Z</time>
      </trkpt>
      <trkpt lat="45.69384" lon="5.75243">
        <ele>248</ele>
        <time>2021-06-06T14:51:25.738Z</time>
      </trkpt>
      <trkpt lat="45.69376" lon="5.75243">
        <ele>248</ele>
        <time>2021-06-06T14:51:30.733Z</time>
      </trkpt>
      <trkpt lat="45.69371" lon="5.75242">
        <ele>247</ele>
        <time>2021-06-06T14:51:34.729Z</time>
      </trkpt>
      <trkpt lat="45.69363" lon="5.75241">
        <ele>247</ele>
        <time>2021-06-06T14:51:39.723Z</time>
      </trkpt>
      <trkpt lat="45.69355" lon="5.75238">
        <ele>247</ele>
        <time>2021-06-06T14:51:44.708Z</time>
      </trkpt>
      <trkpt lat="45.69349" lon="5.75236">
        <ele>247</ele>
        <time>2021-06-06T14:51:48.731Z</time>
      </trkpt>
      <trkpt lat="45.69343" lon="5.75236">
        <ele>246</ele>
        <time>2021-06-06T14:51:52.773Z</time>
      </trkpt>
      <trkpt lat="45.69336" lon="5.75236">
        <ele>247</ele>
        <time>2021-06-06T14:51:57.740Z</time>
      </trkpt>
      <trkpt lat="45.69329" lon="5.75236">
        <ele>247</ele>
        <time>2021-06-06T14:52:02.775Z</time>
      </trkpt>
      <trkpt lat="45.69321" lon="5.75235">
        <ele>247</ele>
        <time>2021-06-06T14:52:07.761Z</time>
      </trkpt>
      <trkpt lat="45.69313" lon="5.75235">
        <ele>248</ele>
        <time>2021-06-06T14:52:12.708Z</time>
      </trkpt>
      <trkpt lat="45.69308" lon="5.75238">
        <ele>247</ele>
        <time>2021-06-06T14:52:16.738Z</time>
      </trkpt>
      <trkpt lat="45.69302" lon="5.75241">
        <ele>247</ele>
        <time>2021-06-06T14:52:20.767Z</time>
      </trkpt>
      <trkpt lat="45.69295" lon="5.75246">
        <ele>247</ele>
        <time>2021-06-06T14:52:25.733Z</time>
      </trkpt>
      <trkpt lat="45.6929" lon="5.7525">
        <ele>249</ele>
        <time>2021-06-06T14:52:29.769Z</time>
      </trkpt>
      <trkpt lat="45.69285" lon="5.75256">
        <ele>249</ele>
        <time>2021-06-06T14:52:34.737Z</time>
      </trkpt>
      <trkpt lat="45.69279" lon="5.75264">
        <ele>249</ele>
        <time>2021-06-06T14:52:39.730Z</time>
      </trkpt>
      <trkpt lat="45.69272" lon="5.75271">
        <ele>248</ele>
        <time>2021-06-06T14:52:44.760Z</time>
      </trkpt>
      <trkpt lat="45.69267" lon="5.75278">
        <ele>248</ele>
        <time>2021-06-06T14:52:49.705Z</time>
      </trkpt>
      <trkpt lat="45.69263" lon="5.75283">
        <ele>249</ele>
        <time>2021-06-06T14:52:53.720Z</time>
      </trkpt>
      <trkpt lat="45.69257" lon="5.7529">
        <ele>249</ele>
        <time>2021-06-06T14:52:58.727Z</time>
      </trkpt>
      <trkpt lat="45.69253" lon="5.75297">
        <ele>248</ele>
        <time>2021-06-06T14:53:02.778Z</time>
      </trkpt>
      <trkpt lat="45.69248" lon="5.75306">
        <ele>248</ele>
        <time>2021-06-06T14:53:07.730Z</time>
      </trkpt>
      <trkpt lat="45.69247" lon="5.75309">
        <ele>248</ele>
        <time>2021-06-06T14:53:11.740Z</time>
      </trkpt>
      <trkpt lat="45.69244" lon="5.75305">
        <ele>248</ele>
        <time>2021-06-06T14:53:16.735Z</time>
      </trkpt>
      <trkpt lat="45.69242" lon="5.75296">
        <ele>248</ele>
        <time>2021-06-06T14:53:21.766Z</time>
      </trkpt>
      <trkpt lat="45.69241" lon="5.75286">
        <ele>249</ele>
        <time>2021-06-06T14:53:26.732Z</time>
      </trkpt>
      <trkpt lat="45.6924" lon="5.75276">
        <ele>249</ele>
        <time>2021-06-06T14:53:31.720Z</time>
      </trkpt>
      <trkpt lat="45.69239" lon="5.75265">
        <ele>249</ele>
        <time>2021-06-06T14:53:36.765Z</time>
      </trkpt>
      <trkpt lat="45.69239" lon="5.75256">
        <ele>249</ele>
        <time>2021-06-06T14:53:41.731Z</time>
      </trkpt>
      <trkpt lat="45.6924" lon="5.75245">
        <ele>249</ele>
        <time>2021-06-06T14:53:46.760Z</time>
      </trkpt>
      <trkpt lat="45.69241" lon="5.75234">
        <ele>250</ele>
        <time>2021-06-06T14:53:51.709Z</time>
      </trkpt>
      <trkpt lat="45.69241" lon="5.75226">
        <ele>250</ele>
        <time>2021-06-06T14:53:55.734Z</time>
      </trkpt>
      <trkpt lat="45.69242" lon="5.75218">
        <ele>250</ele>
        <time>2021-06-06T14:53:59.731Z</time>
      </trkpt>
      <trkpt lat="45.69243" lon="5.7521">
        <ele>250</ele>
        <time>2021-06-06T14:54:03.756Z</time>
      </trkpt>
      <trkpt lat="45.69244" lon="5.752">
        <ele>250</ele>
        <time>2021-06-06T14:54:08.717Z</time>
      </trkpt>
      <trkpt lat="45.69246" lon="5.75191">
        <ele>250</ele>
        <time>2021-06-06T14:54:12.736Z</time>
      </trkpt>
      <trkpt lat="45.69247" lon="5.75181">
        <ele>250</ele>
        <time>2021-06-06T14:54:17.762Z</time>
      </trkpt>
      <trkpt lat="45.69248" lon="5.75171">
        <ele>250</ele>
        <time>2021-06-06T14:54:22.740Z</time>
      </trkpt>
      <trkpt lat="45.69248" lon="5.75163">
        <ele>250</ele>
        <time>2021-06-06T14:54:26.767Z</time>
      </trkpt>
      <trkpt lat="45.69249" lon="5.75155">
        <ele>250</ele>
        <time>2021-06-06T14:54:30.776Z</time>
      </trkpt>
      <trkpt lat="45.6925" lon="5.75145">
        <ele>251</ele>
        <time>2021-06-06T14:54:35.733Z</time>
      </trkpt>
      <trkpt lat="45.69251" lon="5.75136">
        <ele>251</ele>
        <time>2021-06-06T14:54:39.767Z</time>
      </trkpt>
      <trkpt lat="45.69252" lon="5.75126">
        <ele>251</ele>
        <time>2021-06-06T14:54:44.729Z</time>
      </trkpt>
      <trkpt lat="45.69252" lon="5.75115">
        <ele>252</ele>
        <time>2021-06-06T14:54:49.738Z</time>
      </trkpt>
      <trkpt lat="45.69253" lon="5.75105">
        <ele>252</ele>
        <time>2021-06-06T14:54:54.735Z</time>
      </trkpt>
      <trkpt lat="45.69253" lon="5.75096">
        <ele>254</ele>
        <time>2021-06-06T14:54:58.729Z</time>
      </trkpt>
      <trkpt lat="45.69252" lon="5.75085">
        <ele>254</ele>
        <time>2021-06-06T14:55:03.736Z</time>
      </trkpt>
      <trkpt lat="45.69251" lon="5.75075">
        <ele>254</ele>
        <time>2021-06-06T14:55:08.729Z</time>
      </trkpt>
      <trkpt lat="45.69251" lon="5.75064">
        <ele>255</ele>
        <time>2021-06-06T14:55:13.725Z</time>
      </trkpt>
      <trkpt lat="45.69249" lon="5.75053">
        <ele>255</ele>
        <time>2021-06-06T14:55:18.701Z</time>
      </trkpt>
      <trkpt lat="45.69248" lon="5.75046">
        <ele>255</ele>
        <time>2021-06-06T14:55:22.744Z</time>
      </trkpt>
      <trkpt lat="45.69246" lon="5.75035">
        <ele>254</ele>
        <time>2021-06-06T14:55:27.756Z</time>
      </trkpt>
      <trkpt lat="45.69244" lon="5.75025">
        <ele>254</ele>
        <time>2021-06-06T14:55:32.743Z</time>
      </trkpt>
      <trkpt lat="45.69242" lon="5.75019">
        <ele>254</ele>
        <time>2021-06-06T14:55:36.758Z</time>
      </trkpt>
      <trkpt lat="45.6924" lon="5.7501">
        <ele>253</ele>
        <time>2021-06-06T14:55:41.737Z</time>
      </trkpt>
      <trkpt lat="45.69238" lon="5.75002">
        <ele>253</ele>
        <time>2021-06-06T14:55:45.734Z</time>
      </trkpt>
      <trkpt lat="45.69236" lon="5.74996">
        <ele>257</ele>
        <time>2021-06-06T14:55:49.754Z</time>
      </trkpt>
      <trkpt lat="45.69231" lon="5.74991">
        <ele>257</ele>
        <time>2021-06-06T14:55:54.766Z</time>
      </trkpt>
      <trkpt lat="45.69226" lon="5.74987">
        <ele>257</ele>
        <time>2021-06-06T14:55:59.726Z</time>
      </trkpt>
      <trkpt lat="45.69221" lon="5.74983">
        <ele>256</ele>
        <time>2021-06-06T14:56:03.766Z</time>
      </trkpt>
      <trkpt lat="45.69215" lon="5.74978">
        <ele>256</ele>
        <time>2021-06-06T14:56:08.740Z</time>
      </trkpt>
      <trkpt lat="45.6921" lon="5.74973">
        <ele>256</ele>
        <time>2021-06-06T14:56:13.734Z</time>
      </trkpt>
      <trkpt lat="45.69204" lon="5.74965">
        <ele>259</ele>
        <time>2021-06-06T14:56:18.739Z</time>
      </trkpt>
      <trkpt lat="45.69199" lon="5.7496">
        <ele>259</ele>
        <time>2021-06-06T14:56:23.740Z</time>
      </trkpt>
      <trkpt lat="45.69191" lon="5.74955">
        <ele>256</ele>
        <time>2021-06-06T14:56:28.737Z</time>
      </trkpt>
      <trkpt lat="45.69186" lon="5.7495">
        <ele>256</ele>
        <time>2021-06-06T14:56:32.785Z</time>
      </trkpt>
      <trkpt lat="45.69181" lon="5.74942">
        <ele>256</ele>
        <time>2021-06-06T14:56:37.736Z</time>
      </trkpt>
      <trkpt lat="45.69176" lon="5.74932">
        <ele>259</ele>
        <time>2021-06-06T14:56:42.730Z</time>
      </trkpt>
      <trkpt lat="45.69173" lon="5.74924">
        <ele>258</ele>
        <time>2021-06-06T14:56:46.782Z</time>
      </trkpt>
      <trkpt lat="45.69171" lon="5.74917">
        <ele>258</ele>
        <time>2021-06-06T14:56:50.791Z</time>
      </trkpt>
      <trkpt lat="45.6917" lon="5.74906">
        <ele>258</ele>
        <time>2021-06-06T14:56:55.743Z</time>
      </trkpt>
      <trkpt lat="45.69169" lon="5.74896">
        <ele>259</ele>
        <time>2021-06-06T14:57:00.721Z</time>
      </trkpt>
      <trkpt lat="45.69168" lon="5.74888">
        <ele>259</ele>
        <time>2021-06-06T14:57:04.741Z</time>
      </trkpt>
      <trkpt lat="45.69167" lon="5.74876">
        <ele>259</ele>
        <time>2021-06-06T14:57:09.725Z</time>
      </trkpt>
      <trkpt lat="45.69166" lon="5.74869">
        <ele>264</ele>
        <time>2021-06-06T14:57:13.730Z</time>
      </trkpt>
      <trkpt lat="45.69164" lon="5.74862">
        <ele>264</ele>
        <time>2021-06-06T14:57:17.772Z</time>
      </trkpt>
      <trkpt lat="45.69158" lon="5.74856">
        <ele>264</ele>
        <time>2021-06-06T14:57:22.727Z</time>
      </trkpt>
      <trkpt lat="45.6915" lon="5.74852">
        <ele>265</ele>
        <time>2021-06-06T14:57:27.712Z</time>
      </trkpt>
      <trkpt lat="45.69144" lon="5.74849">
        <ele>265</ele>
        <time>2021-06-06T14:57:31.759Z</time>
      </trkpt>
      <trkpt lat="45.69135" lon="5.7485">
        <ele>265</ele>
        <time>2021-06-06T14:57:36.742Z</time>
      </trkpt>
      <trkpt lat="45.69126" lon="5.74853">
        <ele>265</ele>
        <time>2021-06-06T14:57:41.704Z</time>
      </trkpt>
      <trkpt lat="45.69117" lon="5.74844">
        <ele>270</ele>
        <time>2021-06-06T14:57:46.719Z</time>
      </trkpt>
      <trkpt lat="45.69111" lon="5.74839">
        <ele>270</ele>
        <time>2021-06-06T14:57:51.757Z</time>
      </trkpt>
      <trkpt lat="45.69104" lon="5.74836">
        <ele>270</ele>
        <time>2021-06-06T14:57:56.735Z</time>
      </trkpt>
      <trkpt lat="45.69098" lon="5.74834">
        <ele>270</ele>
        <time>2021-06-06T14:58:01.780Z</time>
      </trkpt>
      <trkpt lat="45.69092" lon="5.74832">
        <ele>268</ele>
        <time>2021-06-06T14:58:06.791Z</time>
      </trkpt>
      <trkpt lat="45.69085" lon="5.7483">
        <ele>268</ele>
        <time>2021-06-06T14:58:11.772Z</time>
      </trkpt>
      <trkpt lat="45.69077" lon="5.74829">
        <ele>268</ele>
        <time>2021-06-06T14:58:16.700Z</time>
      </trkpt>
      <trkpt lat="45.69072" lon="5.74829">
        <ele>268</ele>
        <time>2021-06-06T14:58:20.725Z</time>
      </trkpt>
      <trkpt lat="45.69067" lon="5.74829">
        <ele>269</ele>
        <time>2021-06-06T14:58:24.744Z</time>
      </trkpt>
      <trkpt lat="45.69062" lon="5.74824">
        <ele>269</ele>
        <time>2021-06-06T14:58:29.716Z</time>
      </trkpt>
      <trkpt lat="45.69058" lon="5.74821">
        <ele>269</ele>
        <time>2021-06-06T14:58:33.726Z</time>
      </trkpt>
      <trkpt lat="45.69053" lon="5.74816">
        <ele>272</ele>
        <time>2021-06-06T14:58:38.735Z</time>
      </trkpt>
      <trkpt lat="45.69047" lon="5.74815">
        <ele>272</ele>
        <time>2021-06-06T14:58:43.727Z</time>
      </trkpt>
      <trkpt lat="45.69043" lon="5.7481">
        <ele>272</ele>
        <time>2021-06-06T14:58:47.741Z</time>
      </trkpt>
      <trkpt lat="45.69037" lon="5.74807">
        <ele>272</ele>
        <time>2021-06-06T14:58:51.772Z</time>
      </trkpt>
      <trkpt lat="45.6903" lon="5.74805">
        <ele>272</ele>
        <time>2021-06-06T14:58:56.697Z</time>
      </trkpt>
      <trkpt lat="45.69023" lon="5.74804">
        <ele>272</ele>
        <time>2021-06-06T14:59:01.690Z</time>
      </trkpt>
      <trkpt lat="45.69016" lon="5.74802">
        <ele>272</ele>
        <time>2021-06-06T14:59:05.694Z</time>
      </trkpt>
      <trkpt lat="45.69011" lon="5.74801">
        <ele>272</ele>
        <time>2021-06-06T14:59:09.702Z</time>
      </trkpt>
      <trkpt lat="45.69006" lon="5.74798">
        <ele>272</ele>
        <time>2021-06-06T14:59:13.698Z</time>
      </trkpt>
      <trkpt lat="45.68999" lon="5.74794">
        <ele>272</ele>
        <time>2021-06-06T14:59:18.755Z</time>
      </trkpt>
      <trkpt lat="45.68994" lon="5.74791">
        <ele>278</ele>
        <time>2021-06-06T14:59:22.760Z</time>
      </trkpt>
      <trkpt lat="45.68988" lon="5.74788">
        <ele>278</ele>
        <time>2021-06-06T14:59:27.751Z</time>
      </trkpt>
      <trkpt lat="45.68983" lon="5.74782">
        <ele>277</ele>
        <time>2021-06-06T14:59:32.695Z</time>
      </trkpt>
      <trkpt lat="45.68978" lon="5.74778">
        <ele>277</ele>
        <time>2021-06-06T14:59:36.720Z</time>
      </trkpt>
      <trkpt lat="45.68974" lon="5.74773">
        <ele>277</ele>
        <time>2021-06-06T14:59:40.777Z</time>
      </trkpt>
      <trkpt lat="45.68969" lon="5.74766">
        <ele>277</ele>
        <time>2021-06-06T14:59:45.744Z</time>
      </trkpt>
      <trkpt lat="45.68965" lon="5.74757">
        <ele>283</ele>
        <time>2021-06-06T14:59:49.781Z</time>
      </trkpt>
      <trkpt lat="45.68964" lon="5.74748">
        <ele>283</ele>
        <time>2021-06-06T14:59:54.741Z</time>
      </trkpt>
      <trkpt lat="45.68961" lon="5.74741">
        <ele>283</ele>
        <time>2021-06-06T14:59:58.772Z</time>
      </trkpt>
      <trkpt lat="45.68962" lon="5.74734">
        <ele>287</ele>
        <time>2021-06-06T15:00:03.731Z</time>
      </trkpt>
      <trkpt lat="45.68964" lon="5.74729">
        <ele>287</ele>
        <time>2021-06-06T15:00:07.741Z</time>
      </trkpt>
      <trkpt lat="45.68965" lon="5.74722">
        <ele>287</ele>
        <time>2021-06-06T15:00:11.761Z</time>
      </trkpt>
      <trkpt lat="45.68964" lon="5.74716">
        <ele>287</ele>
        <time>2021-06-06T15:00:16.790Z</time>
      </trkpt>
      <trkpt lat="45.68963" lon="5.7471">
        <ele>287</ele>
        <time>2021-06-06T15:00:21.767Z</time>
      </trkpt>
      <trkpt lat="45.6896" lon="5.74704">
        <ele>290</ele>
        <time>2021-06-06T15:00:26.726Z</time>
      </trkpt>
      <trkpt lat="45.68957" lon="5.747">
        <ele>291</ele>
        <time>2021-06-06T15:00:30.737Z</time>
      </trkpt>
      <trkpt lat="45.68956" lon="5.74694">
        <ele>291</ele>
        <time>2021-06-06T15:00:34.763Z</time>
      </trkpt>
      <trkpt lat="45.68952" lon="5.74686">
        <ele>291</ele>
        <time>2021-06-06T15:00:39.771Z</time>
      </trkpt>
      <trkpt lat="45.68949" lon="5.7468">
        <ele>294</ele>
        <time>2021-06-06T15:00:44.762Z</time>
      </trkpt>
      <trkpt lat="45.68947" lon="5.74672">
        <ele>294</ele>
        <time>2021-06-06T15:00:49.771Z</time>
      </trkpt>
      <trkpt lat="45.68944" lon="5.74666">
        <ele>294</ele>
        <time>2021-06-06T15:00:54.744Z</time>
      </trkpt>
      <trkpt lat="45.68941" lon="5.74661">
        <ele>294</ele>
        <time>2021-06-06T15:00:58.763Z</time>
      </trkpt>
      <trkpt lat="45.68936" lon="5.74659">
        <ele>294</ele>
        <time>2021-06-06T15:01:03.777Z</time>
      </trkpt>
      <trkpt lat="45.6893" lon="5.74656">
        <ele>294</ele>
        <time>2021-06-06T15:01:08.729Z</time>
      </trkpt>
      <trkpt lat="45.68926" lon="5.74653">
        <ele>294</ele>
        <time>2021-06-06T15:01:12.738Z</time>
      </trkpt>
      <trkpt lat="45.68926" lon="5.74647">
        <ele>298</ele>
        <time>2021-06-06T15:01:16.763Z</time>
      </trkpt>
      <trkpt lat="45.68923" lon="5.74641">
        <ele>298</ele>
        <time>2021-06-06T15:01:21.763Z</time>
      </trkpt>
      <trkpt lat="45.68918" lon="5.74638">
        <ele>298</ele>
        <time>2021-06-06T15:01:26.706Z</time>
      </trkpt>
      <trkpt lat="45.68912" lon="5.74635">
        <ele>298</ele>
        <time>2021-06-06T15:01:31.700Z</time>
      </trkpt>
      <trkpt lat="45.68907" lon="5.74633">
        <ele>298</ele>
        <time>2021-06-06T15:01:36.702Z</time>
      </trkpt>
      <trkpt lat="45.68901" lon="5.74628">
        <ele>296</ele>
        <time>2021-06-06T15:01:41.705Z</time>
      </trkpt>
      <trkpt lat="45.68896" lon="5.74625">
        <ele>296</ele>
        <time>2021-06-06T15:01:45.707Z</time>
      </trkpt>
      <trkpt lat="45.6889" lon="5.7462">
        <ele>300</ele>
        <time>2021-06-06T15:01:50.746Z</time>
      </trkpt>
      <trkpt lat="45.68884" lon="5.74615">
        <ele>300</ele>
        <time>2021-06-06T15:01:55.705Z</time>
      </trkpt>
      <trkpt lat="45.68878" lon="5.74608">
        <ele>300</ele>
        <time>2021-06-06T15:02:00.699Z</time>
      </trkpt>
      <trkpt lat="45.68876" lon="5.746">
        <ele>300</ele>
        <time>2021-06-06T15:02:05.693Z</time>
      </trkpt>
      <trkpt lat="45.68875" lon="5.74599">
        <ele>300</ele>
        <time>2021-06-06T15:02:09.699Z</time>
      </trkpt>
      <trkpt lat="45.68861" lon="5.74592">
        <ele>301</ele>
        <time>2021-06-06T15:03:48.766Z</time>
      </trkpt>
      <trkpt lat="45.68856" lon="5.74588">
        <ele>301</ele>
        <time>2021-06-06T15:03:53.727Z</time>
      </trkpt>
      <trkpt lat="45.68849" lon="5.74581">
        <ele>301</ele>
        <time>2021-06-06T15:03:58.728Z</time>
      </trkpt>
      <trkpt lat="45.68844" lon="5.74574">
        <ele>302</ele>
        <time>2021-06-06T15:04:03.724Z</time>
      </trkpt>
      <trkpt lat="45.6884" lon="5.74569">
        <ele>304</ele>
        <time>2021-06-06T15:04:07.727Z</time>
      </trkpt>
      <trkpt lat="45.68836" lon="5.74563">
        <ele>304</ele>
        <time>2021-06-06T15:04:11.729Z</time>
      </trkpt>
      <trkpt lat="45.68831" lon="5.74557">
        <ele>304</ele>
        <time>2021-06-06T15:04:16.701Z</time>
      </trkpt>
      <trkpt lat="45.68828" lon="5.74552">
        <ele>304</ele>
        <time>2021-06-06T15:04:20.732Z</time>
      </trkpt>
      <trkpt lat="45.68822" lon="5.74547">
        <ele>304</ele>
        <time>2021-06-06T15:04:25.747Z</time>
      </trkpt>
      <trkpt lat="45.68817" lon="5.74537">
        <ele>304</ele>
        <time>2021-06-06T15:04:30.759Z</time>
      </trkpt>
      <trkpt lat="45.68813" lon="5.74528">
        <ele>304</ele>
        <time>2021-06-06T15:04:35.729Z</time>
      </trkpt>
      <trkpt lat="45.6881" lon="5.74521">
        <ele>304</ele>
        <time>2021-06-06T15:04:39.737Z</time>
      </trkpt>
      <trkpt lat="45.68806" lon="5.74511">
        <ele>308</ele>
        <time>2021-06-06T15:04:44.743Z</time>
      </trkpt>
      <trkpt lat="45.68802" lon="5.74501">
        <ele>308</ele>
        <time>2021-06-06T15:04:49.745Z</time>
      </trkpt>
      <trkpt lat="45.68799" lon="5.74493">
        <ele>308</ele>
        <time>2021-06-06T15:04:54.768Z</time>
      </trkpt>
      <trkpt lat="45.68793" lon="5.74487">
        <ele>308</ele>
        <time>2021-06-06T15:04:59.758Z</time>
      </trkpt>
      <trkpt lat="45.68787" lon="5.74481">
        <ele>314</ele>
        <time>2021-06-06T15:05:04.766Z</time>
      </trkpt>
      <trkpt lat="45.68779" lon="5.74477">
        <ele>314</ele>
        <time>2021-06-06T15:05:09.731Z</time>
      </trkpt>
      <trkpt lat="45.68773" lon="5.74475">
        <ele>314</ele>
        <time>2021-06-06T15:05:13.763Z</time>
      </trkpt>
      <trkpt lat="45.68767" lon="5.74473">
        <ele>314</ele>
        <time>2021-06-06T15:05:17.768Z</time>
      </trkpt>
      <trkpt lat="45.68761" lon="5.74468">
        <ele>316</ele>
        <time>2021-06-06T15:05:22.726Z</time>
      </trkpt>
      <trkpt lat="45.68755" lon="5.74465">
        <ele>316</ele>
        <time>2021-06-06T15:05:26.763Z</time>
      </trkpt>
      <trkpt lat="45.68747" lon="5.74463">
        <ele>316</ele>
        <time>2021-06-06T15:05:31.760Z</time>
      </trkpt>
      <trkpt lat="45.68739" lon="5.7446">
        <ele>316</ele>
        <time>2021-06-06T15:05:36.727Z</time>
      </trkpt>
      <trkpt lat="45.68734" lon="5.74458">
        <ele>328</ele>
        <time>2021-06-06T15:05:40.735Z</time>
      </trkpt>
      <trkpt lat="45.68728" lon="5.74457">
        <ele>328</ele>
        <time>2021-06-06T15:05:45.724Z</time>
      </trkpt>
      <trkpt lat="45.68721" lon="5.74455">
        <ele>328</ele>
        <time>2021-06-06T15:05:50.733Z</time>
      </trkpt>
      <trkpt lat="45.68714" lon="5.74454">
        <ele>328</ele>
        <time>2021-06-06T15:05:55.728Z</time>
      </trkpt>
      <trkpt lat="45.68706" lon="5.74454">
        <ele>328</ele>
        <time>2021-06-06T15:06:00.730Z</time>
      </trkpt>
      <trkpt lat="45.68699" lon="5.74453">
        <ele>328</ele>
        <time>2021-06-06T15:06:05.712Z</time>
      </trkpt>
      <trkpt lat="45.68693" lon="5.74452">
        <ele>328</ele>
        <time>2021-06-06T15:06:09.733Z</time>
      </trkpt>
      <trkpt lat="45.68686" lon="5.74451">
        <ele>328</ele>
        <time>2021-06-06T15:06:14.733Z</time>
      </trkpt>
      <trkpt lat="45.6868" lon="5.74448">
        <ele>327</ele>
        <time>2021-06-06T15:06:19.732Z</time>
      </trkpt>
      <trkpt lat="45.68674" lon="5.74444">
        <ele>327</ele>
        <time>2021-06-06T15:06:24.761Z</time>
      </trkpt>
      <trkpt lat="45.68668" lon="5.7444">
        <ele>327</ele>
        <time>2021-06-06T15:06:29.762Z</time>
      </trkpt>
      <trkpt lat="45.6866" lon="5.74438">
        <ele>327</ele>
        <time>2021-06-06T15:06:34.734Z</time>
      </trkpt>
      <trkpt lat="45.68654" lon="5.74435">
        <ele>327</ele>
        <time>2021-06-06T15:06:38.738Z</time>
      </trkpt>
      <trkpt lat="45.68648" lon="5.74432">
        <ele>324</ele>
        <time>2021-06-06T15:06:43.742Z</time>
      </trkpt>
      <trkpt lat="45.68641" lon="5.74429">
        <ele>333</ele>
        <time>2021-06-06T15:06:48.743Z</time>
      </trkpt>
      <trkpt lat="45.68634" lon="5.74426">
        <ele>333</ele>
        <time>2021-06-06T15:06:53.735Z</time>
      </trkpt>
      <trkpt lat="45.68629" lon="5.74425">
        <ele>333</ele>
        <time>2021-06-06T15:06:57.721Z</time>
      </trkpt>
      <trkpt lat="45.68624" lon="5.74423">
        <ele>331</ele>
        <time>2021-06-06T15:07:01.739Z</time>
      </trkpt>
      <trkpt lat="45.68618" lon="5.74421">
        <ele>331</ele>
        <time>2021-06-06T15:07:06.734Z</time>
      </trkpt>
      <trkpt lat="45.68611" lon="5.74419">
        <ele>331</ele>
        <time>2021-06-06T15:07:11.761Z</time>
      </trkpt>
      <trkpt lat="45.68606" lon="5.74418">
        <ele>331</ele>
        <time>2021-06-06T15:07:15.768Z</time>
      </trkpt>
      <trkpt lat="45.68599" lon="5.74415">
        <ele>331</ele>
        <time>2021-06-06T15:07:20.707Z</time>
      </trkpt>
      <trkpt lat="45.68592" lon="5.74413">
        <ele>330</ele>
        <time>2021-06-06T15:07:25.736Z</time>
      </trkpt>
      <trkpt lat="45.68585" lon="5.74411">
        <ele>330</ele>
        <time>2021-06-06T15:07:30.723Z</time>
      </trkpt>
      <trkpt lat="45.68579" lon="5.74411">
        <ele>330</ele>
        <time>2021-06-06T15:07:34.736Z</time>
      </trkpt>
      <trkpt lat="45.68572" lon="5.7441">
        <ele>330</ele>
        <time>2021-06-06T15:07:39.728Z</time>
      </trkpt>
      <trkpt lat="45.68567" lon="5.7441">
        <ele>331</ele>
        <time>2021-06-06T15:07:43.732Z</time>
      </trkpt>
      <trkpt lat="45.6856" lon="5.74409">
        <ele>331</ele>
        <time>2021-06-06T15:07:48.723Z</time>
      </trkpt>
      <trkpt lat="45.68553" lon="5.74409">
        <ele>331</ele>
        <time>2021-06-06T15:07:53.728Z</time>
      </trkpt>
      <trkpt lat="45.68547" lon="5.74408">
        <ele>331</ele>
        <time>2021-06-06T15:07:57.736Z</time>
      </trkpt>
      <trkpt lat="45.6854" lon="5.74409">
        <ele>331</ele>
        <time>2021-06-06T15:08:02.731Z</time>
      </trkpt>
      <trkpt lat="45.68535" lon="5.74409">
        <ele>331</ele>
        <time>2021-06-06T15:08:06.725Z</time>
      </trkpt>
      <trkpt lat="45.68529" lon="5.74409">
        <ele>331</ele>
        <time>2021-06-06T15:08:10.739Z</time>
      </trkpt>
      <trkpt lat="45.68521" lon="5.7441">
        <ele>331</ele>
        <time>2021-06-06T15:08:15.726Z</time>
      </trkpt>
      <trkpt lat="45.68516" lon="5.74408">
        <ele>331</ele>
        <time>2021-06-06T15:08:19.716Z</time>
      </trkpt>
      <trkpt lat="45.68509" lon="5.74408">
        <ele>330</ele>
        <time>2021-06-06T15:08:24.697Z</time>
      </trkpt>
      <trkpt lat="45.68503" lon="5.74408">
        <ele>330</ele>
        <time>2021-06-06T15:08:28.728Z</time>
      </trkpt>
      <trkpt lat="45.68496" lon="5.74409">
        <ele>330</ele>
        <time>2021-06-06T15:08:32.736Z</time>
      </trkpt>
      <trkpt lat="45.68489" lon="5.74408">
        <ele>330</ele>
        <time>2021-06-06T15:08:37.730Z</time>
      </trkpt>
      <trkpt lat="45.6848" lon="5.74407">
        <ele>328</ele>
        <time>2021-06-06T15:08:42.734Z</time>
      </trkpt>
      <trkpt lat="45.68473" lon="5.74407">
        <ele>328</ele>
        <time>2021-06-06T15:08:47.725Z</time>
      </trkpt>
      <trkpt lat="45.68465" lon="5.74408">
        <ele>328</ele>
        <time>2021-06-06T15:08:52.695Z</time>
      </trkpt>
      <trkpt lat="45.68458" lon="5.74408">
        <ele>328</ele>
        <time>2021-06-06T15:08:56.720Z</time>
      </trkpt>
      <trkpt lat="45.68451" lon="5.74407">
        <ele>328</ele>
        <time>2021-06-06T15:09:01.712Z</time>
      </trkpt>
      <trkpt lat="45.68444" lon="5.74407">
        <ele>328</ele>
        <time>2021-06-06T15:09:05.723Z</time>
      </trkpt>
      <trkpt lat="45.68433" lon="5.74407">
        <ele>328</ele>
        <time>2021-06-06T15:09:10.756Z</time>
      </trkpt>
      <trkpt lat="45.68422" lon="5.74406">
        <ele>328</ele>
        <time>2021-06-06T15:09:15.733Z</time>
      </trkpt>
      <trkpt lat="45.6838" lon="5.74392">
        <ele>330</ele>
        <time>2021-06-06T15:09:19.737Z</time>
      </trkpt>
      <trkpt lat="45.68369" lon="5.74386">
        <ele>331</ele>
        <time>2021-06-06T15:09:23.762Z</time>
      </trkpt>
      <trkpt lat="45.68361" lon="5.7438">
        <ele>331</ele>
        <time>2021-06-06T15:09:28.756Z</time>
      </trkpt>
      <trkpt lat="45.68355" lon="5.74375">
        <ele>331</ele>
        <time>2021-06-06T15:09:33.730Z</time>
      </trkpt>
      <trkpt lat="45.6835" lon="5.74372">
        <ele>337</ele>
        <time>2021-06-06T15:09:37.744Z</time>
      </trkpt>
      <trkpt lat="45.68343" lon="5.74369">
        <ele>338</ele>
        <time>2021-06-06T15:09:42.743Z</time>
      </trkpt>
      <trkpt lat="45.68336" lon="5.74363">
        <ele>338</ele>
        <time>2021-06-06T15:09:47.757Z</time>
      </trkpt>
      <trkpt lat="45.68328" lon="5.74358">
        <ele>338</ele>
        <time>2021-06-06T15:09:52.738Z</time>
      </trkpt>
      <trkpt lat="45.68322" lon="5.74354">
        <ele>338</ele>
        <time>2021-06-06T15:09:57.778Z</time>
      </trkpt>
      <trkpt lat="45.68315" lon="5.7435">
        <ele>335</ele>
        <time>2021-06-06T15:10:02.721Z</time>
      </trkpt>
      <trkpt lat="45.6831" lon="5.74341">
        <ele>338</ele>
        <time>2021-06-06T15:10:07.735Z</time>
      </trkpt>
      <trkpt lat="45.68305" lon="5.74336">
        <ele>338</ele>
        <time>2021-06-06T15:10:11.760Z</time>
      </trkpt>
      <trkpt lat="45.68299" lon="5.74328">
        <ele>338</ele>
        <time>2021-06-06T15:10:16.714Z</time>
      </trkpt>
      <trkpt lat="45.68295" lon="5.7432">
        <ele>338</ele>
        <time>2021-06-06T15:10:20.710Z</time>
      </trkpt>
      <trkpt lat="45.68291" lon="5.74316">
        <ele>338</ele>
        <time>2021-06-06T15:10:24.736Z</time>
      </trkpt>
      <trkpt lat="45.68287" lon="5.74311">
        <ele>338</ele>
        <time>2021-06-06T15:10:28.762Z</time>
      </trkpt>
      <trkpt lat="45.68283" lon="5.74305">
        <ele>338</ele>
        <time>2021-06-06T15:10:33.734Z</time>
      </trkpt>
      <trkpt lat="45.68278" lon="5.74295">
        <ele>338</ele>
        <time>2021-06-06T15:10:38.722Z</time>
      </trkpt>
      <trkpt lat="45.68272" lon="5.74288">
        <ele>345</ele>
        <time>2021-06-06T15:10:42.740Z</time>
      </trkpt>
      <trkpt lat="45.68265" lon="5.74285">
        <ele>345</ele>
        <time>2021-06-06T15:10:47.720Z</time>
      </trkpt>
      <trkpt lat="45.6826" lon="5.74281">
        <ele>341</ele>
        <time>2021-06-06T15:10:52.702Z</time>
      </trkpt>
      <trkpt lat="45.68254" lon="5.74276">
        <ele>341</ele>
        <time>2021-06-06T15:10:56.711Z</time>
      </trkpt>
      <trkpt lat="45.68249" lon="5.74272">
        <ele>341</ele>
        <time>2021-06-06T15:11:00.741Z</time>
      </trkpt>
      <trkpt lat="45.68243" lon="5.74265">
        <ele>341</ele>
        <time>2021-06-06T15:11:05.724Z</time>
      </trkpt>
      <trkpt lat="45.68239" lon="5.74259">
        <ele>354</ele>
        <time>2021-06-06T15:11:09.757Z</time>
      </trkpt>
      <trkpt lat="45.68233" lon="5.74252">
        <ele>344</ele>
        <time>2021-06-06T15:11:14.730Z</time>
      </trkpt>
      <trkpt lat="45.68227" lon="5.74245">
        <ele>344</ele>
        <time>2021-06-06T15:11:19.731Z</time>
      </trkpt>
      <trkpt lat="45.68221" lon="5.74237">
        <ele>344</ele>
        <time>2021-06-06T15:11:23.781Z</time>
      </trkpt>
      <trkpt lat="45.68215" lon="5.74228">
        <ele>357</ele>
        <time>2021-06-06T15:11:28.743Z</time>
      </trkpt>
      <trkpt lat="45.6821" lon="5.74221">
        <ele>357</ele>
        <time>2021-06-06T15:11:32.781Z</time>
      </trkpt>
      <trkpt lat="45.68206" lon="5.74211">
        <ele>346</ele>
        <time>2021-06-06T15:11:37.768Z</time>
      </trkpt>
      <trkpt lat="45.68199" lon="5.74206">
        <ele>360</ele>
        <time>2021-06-06T15:11:42.762Z</time>
      </trkpt>
      <trkpt lat="45.68192" lon="5.742">
        <ele>360</ele>
        <time>2021-06-06T15:11:46.764Z</time>
      </trkpt>
      <trkpt lat="45.68183" lon="5.74182">
        <ele>360</ele>
        <time>2021-06-06T15:11:51.740Z</time>
      </trkpt>
      <trkpt lat="45.68174" lon="5.7417">
        <ele>363</ele>
        <time>2021-06-06T15:11:55.771Z</time>
      </trkpt>
      <trkpt lat="45.68167" lon="5.74161">
        <ele>363</ele>
        <time>2021-06-06T15:12:00.737Z</time>
      </trkpt>
      <trkpt lat="45.68161" lon="5.74158">
        <ele>363</ele>
        <time>2021-06-06T15:12:05.728Z</time>
      </trkpt>
      <trkpt lat="45.68155" lon="5.74153">
        <ele>363</ele>
        <time>2021-06-06T15:12:09.773Z</time>
      </trkpt>
      <trkpt lat="45.68151" lon="5.74146">
        <ele>363</ele>
        <time>2021-06-06T15:12:14.705Z</time>
      </trkpt>
      <trkpt lat="45.68146" lon="5.74142">
        <ele>363</ele>
        <time>2021-06-06T15:12:18.708Z</time>
      </trkpt>
      <trkpt lat="45.68142" lon="5.74139">
        <ele>363</ele>
        <time>2021-06-06T15:12:22.699Z</time>
      </trkpt>
      <trkpt lat="45.68135" lon="5.74136">
        <ele>363</ele>
        <time>2021-06-06T15:12:27.715Z</time>
      </trkpt>
      <trkpt lat="45.68129" lon="5.74133">
        <ele>363</ele>
        <time>2021-06-06T15:12:32.738Z</time>
      </trkpt>
      <trkpt lat="45.68122" lon="5.74126">
        <ele>355</ele>
        <time>2021-06-06T15:12:37.762Z</time>
      </trkpt>
      <trkpt lat="45.68113" lon="5.74118">
        <ele>361</ele>
        <time>2021-06-06T15:12:42.721Z</time>
      </trkpt>
      <trkpt lat="45.68106" lon="5.7411">
        <ele>361</ele>
        <time>2021-06-06T15:12:47.755Z</time>
      </trkpt>
      <trkpt lat="45.68098" lon="5.74106">
        <ele>361</ele>
        <time>2021-06-06T15:12:52.733Z</time>
      </trkpt>
      <trkpt lat="45.68092" lon="5.74101">
        <ele>358</ele>
        <time>2021-06-06T15:12:57.708Z</time>
      </trkpt>
      <trkpt lat="45.68085" lon="5.74095">
        <ele>367</ele>
        <time>2021-06-06T15:13:02.733Z</time>
      </trkpt>
      <trkpt lat="45.68081" lon="5.74091">
        <ele>367</ele>
        <time>2021-06-06T15:13:07.729Z</time>
      </trkpt>
      <trkpt lat="45.68075" lon="5.74086">
        <ele>367</ele>
        <time>2021-06-06T15:13:12.737Z</time>
      </trkpt>
      <trkpt lat="45.6807" lon="5.7408">
        <ele>367</ele>
        <time>2021-06-06T15:13:17.718Z</time>
      </trkpt>
      <trkpt lat="45.68064" lon="5.74074">
        <ele>363</ele>
        <time>2021-06-06T15:13:22.713Z</time>
      </trkpt>
      <trkpt lat="45.6806" lon="5.74069">
        <ele>372</ele>
        <time>2021-06-06T15:13:26.726Z</time>
      </trkpt>
      <trkpt lat="45.68055" lon="5.74064">
        <ele>372</ele>
        <time>2021-06-06T15:13:31.764Z</time>
      </trkpt>
      <trkpt lat="45.68051" lon="5.74059">
        <ele>372</ele>
        <time>2021-06-06T15:13:35.767Z</time>
      </trkpt>
      <trkpt lat="45.68049" lon="5.74053">
        <ele>372</ele>
        <time>2021-06-06T15:13:39.780Z</time>
      </trkpt>
      <trkpt lat="45.68047" lon="5.74046">
        <ele>372</ele>
        <time>2021-06-06T15:13:44.766Z</time>
      </trkpt>
      <trkpt lat="45.68045" lon="5.74029">
        <ele>379</ele>
        <time>2021-06-06T15:15:48.752Z</time>
      </trkpt>
      <trkpt lat="45.68043" lon="5.74024">
        <ele>379</ele>
        <time>2021-06-06T15:15:53.752Z</time>
      </trkpt>
      <trkpt lat="45.68038" lon="5.74018">
        <ele>376</ele>
        <time>2021-06-06T15:15:58.760Z</time>
      </trkpt>
      <trkpt lat="45.68033" lon="5.74012">
        <ele>383</ele>
        <time>2021-06-06T15:16:03.733Z</time>
      </trkpt>
      <trkpt lat="45.68025" lon="5.74009">
        <ele>383</ele>
        <time>2021-06-06T15:16:07.771Z</time>
      </trkpt>
      <trkpt lat="45.68015" lon="5.74006">
        <ele>383</ele>
        <time>2021-06-06T15:16:12.741Z</time>
      </trkpt>
      <trkpt lat="45.68008" lon="5.74002">
        <ele>381</ele>
        <time>2021-06-06T15:16:17.712Z</time>
      </trkpt>
      <trkpt lat="45.68003" lon="5.73999">
        <ele>381</ele>
        <time>2021-06-06T15:16:21.722Z</time>
      </trkpt>
      <trkpt lat="45.67996" lon="5.73997">
        <ele>381</ele>
        <time>2021-06-06T15:16:25.735Z</time>
      </trkpt>
      <trkpt lat="45.67985" lon="5.73995">
        <ele>380</ele>
        <time>2021-06-06T15:16:30.735Z</time>
      </trkpt>
      <trkpt lat="45.67973" lon="5.73991">
        <ele>380</ele>
        <time>2021-06-06T15:16:35.737Z</time>
      </trkpt>
      <trkpt lat="45.67959" lon="5.73988">
        <ele>380</ele>
        <time>2021-06-06T15:16:40.733Z</time>
      </trkpt>
      <trkpt lat="45.67946" lon="5.73984">
        <ele>387</ele>
        <time>2021-06-06T15:16:45.693Z</time>
      </trkpt>
      <trkpt lat="45.67938" lon="5.73981">
        <ele>387</ele>
        <time>2021-06-06T15:16:49.726Z</time>
      </trkpt>
      <trkpt lat="45.67927" lon="5.73976">
        <ele>386</ele>
        <time>2021-06-06T15:16:53.740Z</time>
      </trkpt>
      <trkpt lat="45.67916" lon="5.73969">
        <ele>386</ele>
        <time>2021-06-06T15:16:58.738Z</time>
      </trkpt>
      <trkpt lat="45.67906" lon="5.7396">
        <ele>386</ele>
        <time>2021-06-06T15:17:02.761Z</time>
      </trkpt>
      <trkpt lat="45.67897" lon="5.73952">
        <ele>391</ele>
        <time>2021-06-06T15:17:07.725Z</time>
      </trkpt>
      <trkpt lat="45.67888" lon="5.73943">
        <ele>391</ele>
        <time>2021-06-06T15:17:12.736Z</time>
      </trkpt>
      <trkpt lat="45.67879" lon="5.7393">
        <ele>398</ele>
        <time>2021-06-06T15:17:17.733Z</time>
      </trkpt>
      <trkpt lat="45.67874" lon="5.73918">
        <ele>394</ele>
        <time>2021-06-06T15:17:22.716Z</time>
      </trkpt>
      <trkpt lat="45.67869" lon="5.73911">
        <ele>394</ele>
        <time>2021-06-06T15:17:26.727Z</time>
      </trkpt>
      <trkpt lat="45.67864" lon="5.739">
        <ele>401</ele>
        <time>2021-06-06T15:17:31.731Z</time>
      </trkpt>
      <trkpt lat="45.67864" lon="5.73888">
        <ele>401</ele>
        <time>2021-06-06T15:17:35.753Z</time>
      </trkpt>
      <trkpt lat="45.67864" lon="5.73875">
        <ele>407</ele>
        <time>2021-06-06T15:17:39.760Z</time>
      </trkpt>
      <trkpt lat="45.67863" lon="5.73864">
        <ele>407</ele>
        <time>2021-06-06T15:17:43.764Z</time>
      </trkpt>
      <trkpt lat="45.67863" lon="5.73855">
        <ele>407</ele>
        <time>2021-06-06T15:17:48.744Z</time>
      </trkpt>
      <trkpt lat="45.67861" lon="5.73848">
        <ele>407</ele>
        <time>2021-06-06T15:17:52.764Z</time>
      </trkpt>
      <trkpt lat="45.67856" lon="5.7384">
        <ele>410</ele>
        <time>2021-06-06T15:17:57.762Z</time>
      </trkpt>
      <trkpt lat="45.6785" lon="5.73834">
        <ele>410</ele>
        <time>2021-06-06T15:18:02.725Z</time>
      </trkpt>
      <trkpt lat="45.67845" lon="5.73831">
        <ele>412</ele>
        <time>2021-06-06T15:18:06.784Z</time>
      </trkpt>
      <trkpt lat="45.67838" lon="5.73831">
        <ele>412</ele>
        <time>2021-06-06T15:18:11.789Z</time>
      </trkpt>
      <trkpt lat="45.6783" lon="5.73829">
        <ele>412</ele>
        <time>2021-06-06T15:18:16.729Z</time>
      </trkpt>
      <trkpt lat="45.67824" lon="5.73828">
        <ele>412</ele>
        <time>2021-06-06T15:18:20.738Z</time>
      </trkpt>
      <trkpt lat="45.6782" lon="5.7382">
        <ele>412</ele>
        <time>2021-06-06T15:18:25.731Z</time>
      </trkpt>
      <trkpt lat="45.67819" lon="5.73811">
        <ele>418</ele>
        <time>2021-06-06T15:18:29.736Z</time>
      </trkpt>
      <trkpt lat="45.67816" lon="5.73797">
        <ele>418</ele>
        <time>2021-06-06T15:18:34.768Z</time>
      </trkpt>
      <trkpt lat="45.67813" lon="5.73784">
        <ele>420</ele>
        <time>2021-06-06T15:18:39.734Z</time>
      </trkpt>
      <trkpt lat="45.67806" lon="5.73777">
        <ele>420</ele>
        <time>2021-06-06T15:18:44.756Z</time>
      </trkpt>
      <trkpt lat="45.67799" lon="5.73774">
        <ele>420</ele>
        <time>2021-06-06T15:18:49.734Z</time>
      </trkpt>
      <trkpt lat="45.67796" lon="5.73775">
        <ele>420</ele>
        <time>2021-06-06T15:18:54.725Z</time>
      </trkpt>
      <trkpt lat="45.67792" lon="5.73774">
        <ele>420</ele>
        <time>2021-06-06T15:19:54.713Z</time>
      </trkpt>
      <trkpt lat="45.67789" lon="5.73772">
        <ele>424</ele>
        <time>2021-06-06T15:19:59.781Z</time>
      </trkpt>
      <trkpt lat="45.67783" lon="5.73768">
        <ele>424</ele>
        <time>2021-06-06T15:20:04.727Z</time>
      </trkpt>
      <trkpt lat="45.67776" lon="5.73764">
        <ele>425</ele>
        <time>2021-06-06T15:20:09.711Z</time>
      </trkpt>
      <trkpt lat="45.67771" lon="5.73763">
        <ele>425</ele>
        <time>2021-06-06T15:20:13.709Z</time>
      </trkpt>
      <trkpt lat="45.67767" lon="5.73761">
        <ele>425</ele>
        <time>2021-06-06T15:20:17.732Z</time>
      </trkpt>
      <trkpt lat="45.67763" lon="5.73756">
        <ele>428</ele>
        <time>2021-06-06T15:20:22.710Z</time>
      </trkpt>
      <trkpt lat="45.6776" lon="5.73752">
        <ele>428</ele>
        <time>2021-06-06T15:20:26.720Z</time>
      </trkpt>
      <trkpt lat="45.67758" lon="5.73743">
        <ele>428</ele>
        <time>2021-06-06T15:20:31.728Z</time>
      </trkpt>
      <trkpt lat="45.67756" lon="5.73737">
        <ele>428</ele>
        <time>2021-06-06T15:20:35.764Z</time>
      </trkpt>
      <trkpt lat="45.67756" lon="5.73722">
        <ele>430</ele>
        <time>2021-06-06T15:20:40.725Z</time>
      </trkpt>
      <trkpt lat="45.67757" lon="5.73713">
        <ele>430</ele>
        <time>2021-06-06T15:20:44.767Z</time>
      </trkpt>
      <trkpt lat="45.67758" lon="5.737">
        <ele>431</ele>
        <time>2021-06-06T15:20:49.728Z</time>
      </trkpt>
      <trkpt lat="45.67757" lon="5.73686">
        <ele>431</ele>
        <time>2021-06-06T15:20:53.733Z</time>
      </trkpt>
      <trkpt lat="45.67756" lon="5.73666">
        <ele>431</ele>
        <time>2021-06-06T15:20:58.725Z</time>
      </trkpt>
      <trkpt lat="45.67748" lon="5.73639">
        <ele>432</ele>
        <time>2021-06-06T15:21:03.725Z</time>
      </trkpt>
      <trkpt lat="45.67734" lon="5.73626">
        <ele>431</ele>
        <time>2021-06-06T15:21:08.740Z</time>
      </trkpt>
      <trkpt lat="45.67724" lon="5.73619">
        <ele>434</ele>
        <time>2021-06-06T15:21:13.756Z</time>
      </trkpt>
      <trkpt lat="45.67718" lon="5.73614">
        <ele>434</ele>
        <time>2021-06-06T15:21:18.738Z</time>
      </trkpt>
      <trkpt lat="45.6771" lon="5.73608">
        <ele>434</ele>
        <time>2021-06-06T15:21:23.733Z</time>
      </trkpt>
      <trkpt lat="45.67703" lon="5.73604">
        <ele>434</ele>
        <time>2021-06-06T15:21:28.757Z</time>
      </trkpt>
      <trkpt lat="45.67695" lon="5.73598">
        <ele>434</ele>
        <time>2021-06-06T15:21:33.734Z</time>
      </trkpt>
      <trkpt lat="45.67688" lon="5.73594">
        <ele>438</ele>
        <time>2021-06-06T15:21:38.703Z</time>
      </trkpt>
      <trkpt lat="45.67682" lon="5.73591">
        <ele>438</ele>
        <time>2021-06-06T15:21:42.740Z</time>
      </trkpt>
      <trkpt lat="45.67674" lon="5.73587">
        <ele>436</ele>
        <time>2021-06-06T15:21:47.769Z</time>
      </trkpt>
      <trkpt lat="45.67666" lon="5.73583">
        <ele>436</ele>
        <time>2021-06-06T15:21:52.737Z</time>
      </trkpt>
      <trkpt lat="45.67658" lon="5.73578">
        <ele>436</ele>
        <time>2021-06-06T15:21:57.728Z</time>
      </trkpt>
      <trkpt lat="45.67652" lon="5.73575">
        <ele>434</ele>
        <time>2021-06-06T15:22:01.758Z</time>
      </trkpt>
      <trkpt lat="45.67646" lon="5.73573">
        <ele>434</ele>
        <time>2021-06-06T15:22:05.765Z</time>
      </trkpt>
      <trkpt lat="45.67639" lon="5.7357">
        <ele>434</ele>
        <time>2021-06-06T15:22:10.753Z</time>
      </trkpt>
      <trkpt lat="45.67631" lon="5.73565">
        <ele>436</ele>
        <time>2021-06-06T15:22:15.779Z</time>
      </trkpt>
      <trkpt lat="45.67625" lon="5.73562">
        <ele>433</ele>
        <time>2021-06-06T15:22:20.724Z</time>
      </trkpt>
      <trkpt lat="45.67618" lon="5.73558">
        <ele>433</ele>
        <time>2021-06-06T15:22:25.702Z</time>
      </trkpt>
      <trkpt lat="45.67614" lon="5.73555">
        <ele>433</ele>
        <time>2021-06-06T15:22:29.705Z</time>
      </trkpt>
      <trkpt lat="45.67609" lon="5.73549">
        <ele>433</ele>
        <time>2021-06-06T15:22:33.740Z</time>
      </trkpt>
      <trkpt lat="45.67604" lon="5.73545">
        <ele>433</ele>
        <time>2021-06-06T15:22:38.737Z</time>
      </trkpt>
      <trkpt lat="45.67598" lon="5.73539">
        <ele>438</ele>
        <time>2021-06-06T15:22:43.703Z</time>
      </trkpt>
      <trkpt lat="45.67594" lon="5.73534">
        <ele>434</ele>
        <time>2021-06-06T15:22:47.728Z</time>
      </trkpt>
      <trkpt lat="45.6759" lon="5.73529">
        <ele>434</ele>
        <time>2021-06-06T15:22:51.785Z</time>
      </trkpt>
      <trkpt lat="45.67586" lon="5.73522">
        <ele>434</ele>
        <time>2021-06-06T15:22:56.775Z</time>
      </trkpt>
      <trkpt lat="45.67583" lon="5.73514">
        <ele>438</ele>
        <time>2021-06-06T15:23:01.730Z</time>
      </trkpt>
      <trkpt lat="45.6758" lon="5.73505">
        <ele>438</ele>
        <time>2021-06-06T15:23:06.770Z</time>
      </trkpt>
      <trkpt lat="45.67576" lon="5.73497">
        <ele>438</ele>
        <time>2021-06-06T15:23:11.759Z</time>
      </trkpt>
      <trkpt lat="45.67574" lon="5.7349">
        <ele>438</ele>
        <time>2021-06-06T15:23:15.771Z</time>
      </trkpt>
      <trkpt lat="45.67571" lon="5.73484">
        <ele>440</ele>
        <time>2021-06-06T15:23:19.794Z</time>
      </trkpt>
      <trkpt lat="45.67566" lon="5.73478">
        <ele>433</ele>
        <time>2021-06-06T15:23:24.726Z</time>
      </trkpt>
      <trkpt lat="45.67562" lon="5.73472">
        <ele>433</ele>
        <time>2021-06-06T15:23:29.701Z</time>
      </trkpt>
      <trkpt lat="45.67557" lon="5.73468">
        <ele>433</ele>
        <time>2021-06-06T15:23:33.749Z</time>
      </trkpt>
      <trkpt lat="45.67552" lon="5.73464">
        <ele>433</ele>
        <time>2021-06-06T15:23:38.720Z</time>
      </trkpt>
      <trkpt lat="45.67547" lon="5.7346">
        <ele>433</ele>
        <time>2021-06-06T15:23:43.721Z</time>
      </trkpt>
      <trkpt lat="45.67541" lon="5.73456">
        <ele>432</ele>
        <time>2021-06-06T15:23:48.715Z</time>
      </trkpt>
      <trkpt lat="45.67535" lon="5.73451">
        <ele>432</ele>
        <time>2021-06-06T15:23:53.738Z</time>
      </trkpt>
      <trkpt lat="45.67529" lon="5.73449">
        <ele>432</ele>
        <time>2021-06-06T15:23:58.745Z</time>
      </trkpt>
      <trkpt lat="45.67524" lon="5.73443">
        <ele>432</ele>
        <time>2021-06-06T15:24:03.734Z</time>
      </trkpt>
      <trkpt lat="45.67519" lon="5.73439">
        <ele>432</ele>
        <time>2021-06-06T15:24:07.763Z</time>
      </trkpt>
      <trkpt lat="45.67514" lon="5.73433">
        <ele>433</ele>
        <time>2021-06-06T15:24:12.736Z</time>
      </trkpt>
      <trkpt lat="45.6751" lon="5.73427">
        <ele>434</ele>
        <time>2021-06-06T15:24:16.766Z</time>
      </trkpt>
      <trkpt lat="45.67505" lon="5.7342">
        <ele>434</ele>
        <time>2021-06-06T15:24:21.744Z</time>
      </trkpt>
      <trkpt lat="45.675" lon="5.73415">
        <ele>434</ele>
        <time>2021-06-06T15:24:26.761Z</time>
      </trkpt>
      <trkpt lat="45.67494" lon="5.7341">
        <ele>434</ele>
        <time>2021-06-06T15:24:31.726Z</time>
      </trkpt>
      <trkpt lat="45.6749" lon="5.73406">
        <ele>434</ele>
        <time>2021-06-06T15:24:35.730Z</time>
      </trkpt>
      <trkpt lat="45.67483" lon="5.734">
        <ele>438</ele>
        <time>2021-06-06T15:24:40.758Z</time>
      </trkpt>
      <trkpt lat="45.67477" lon="5.73393">
        <ele>438</ele>
        <time>2021-06-06T15:24:45.738Z</time>
      </trkpt>
      <trkpt lat="45.67472" lon="5.73389">
        <ele>438</ele>
        <time>2021-06-06T15:24:49.759Z</time>
      </trkpt>
      <trkpt lat="45.67468" lon="5.73383">
        <ele>438</ele>
        <time>2021-06-06T15:24:54.735Z</time>
      </trkpt>
      <trkpt lat="45.67467" lon="5.73375">
        <ele>439</ele>
        <time>2021-06-06T15:24:58.760Z</time>
      </trkpt>
      <trkpt lat="45.67467" lon="5.73364">
        <ele>439</ele>
        <time>2021-06-06T15:25:03.748Z</time>
      </trkpt>
      <trkpt lat="45.67467" lon="5.73356">
        <ele>439</ele>
        <time>2021-06-06T15:25:07.736Z</time>
      </trkpt>
      <trkpt lat="45.67468" lon="5.73348">
        <ele>439</ele>
        <time>2021-06-06T15:25:11.762Z</time>
      </trkpt>
      <trkpt lat="45.6747" lon="5.73337">
        <ele>440</ele>
        <time>2021-06-06T15:25:16.705Z</time>
      </trkpt>
      <trkpt lat="45.67473" lon="5.73329">
        <ele>440</ele>
        <time>2021-06-06T15:25:20.722Z</time>
      </trkpt>
      <trkpt lat="45.67478" lon="5.7332">
        <ele>440</ele>
        <time>2021-06-06T15:25:25.736Z</time>
      </trkpt>
      <trkpt lat="45.67482" lon="5.73314">
        <ele>443</ele>
        <time>2021-06-06T15:25:29.765Z</time>
      </trkpt>
      <trkpt lat="45.67487" lon="5.7331">
        <ele>444</ele>
        <time>2021-06-06T15:25:34.754Z</time>
      </trkpt>
      <trkpt lat="45.67493" lon="5.73308">
        <ele>444</ele>
        <time>2021-06-06T15:25:39.736Z</time>
      </trkpt>
      <trkpt lat="45.67499" lon="5.73303">
        <ele>444</ele>
        <time>2021-06-06T15:25:44.715Z</time>
      </trkpt>
      <trkpt lat="45.67503" lon="5.73299">
        <ele>444</ele>
        <time>2021-06-06T15:25:48.727Z</time>
      </trkpt>
      <trkpt lat="45.67508" lon="5.73293">
        <ele>444</ele>
        <time>2021-06-06T15:25:53.731Z</time>
      </trkpt>
      <trkpt lat="45.67512" lon="5.73289">
        <ele>447</ele>
        <time>2021-06-06T15:25:57.754Z</time>
      </trkpt>
      <trkpt lat="45.67516" lon="5.73284">
        <ele>447</ele>
        <time>2021-06-06T15:26:01.764Z</time>
      </trkpt>
      <trkpt lat="45.67521" lon="5.73278">
        <ele>447</ele>
        <time>2021-06-06T15:26:06.726Z</time>
      </trkpt>
      <trkpt lat="45.67525" lon="5.73273">
        <ele>447</ele>
        <time>2021-06-06T15:26:10.729Z</time>
      </trkpt>
      <trkpt lat="45.67529" lon="5.73266">
        <ele>447</ele>
        <time>2021-06-06T15:26:15.724Z</time>
      </trkpt>
      <trkpt lat="45.6753" lon="5.73259">
        <ele>450</ele>
        <time>2021-06-06T15:26:19.730Z</time>
      </trkpt>
      <trkpt lat="45.67529" lon="5.73249">
        <ele>450</ele>
        <time>2021-06-06T15:26:24.722Z</time>
      </trkpt>
      <trkpt lat="45.6753" lon="5.73241">
        <ele>450</ele>
        <time>2021-06-06T15:26:28.789Z</time>
      </trkpt>
      <trkpt lat="45.67529" lon="5.73232">
        <ele>452</ele>
        <time>2021-06-06T15:26:33.731Z</time>
      </trkpt>
      <trkpt lat="45.67524" lon="5.73224">
        <ele>452</ele>
        <time>2021-06-06T15:26:38.757Z</time>
      </trkpt>
      <trkpt lat="45.67518" lon="5.73222">
        <ele>452</ele>
        <time>2021-06-06T15:26:43.719Z</time>
      </trkpt>
      <trkpt lat="45.67513" lon="5.73219">
        <ele>451</ele>
        <time>2021-06-06T15:26:47.730Z</time>
      </trkpt>
      <trkpt lat="45.67508" lon="5.73217">
        <ele>451</ele>
        <time>2021-06-06T15:26:51.739Z</time>
      </trkpt>
      <trkpt lat="45.67501" lon="5.73216">
        <ele>451</ele>
        <time>2021-06-06T15:26:56.763Z</time>
      </trkpt>
      <trkpt lat="45.67494" lon="5.73213">
        <ele>451</ele>
        <time>2021-06-06T15:27:01.734Z</time>
      </trkpt>
      <trkpt lat="45.67488" lon="5.73211">
        <ele>451</ele>
        <time>2021-06-06T15:27:06.696Z</time>
      </trkpt>
      <trkpt lat="45.67483" lon="5.73211">
        <ele>451</ele>
        <time>2021-06-06T15:27:10.741Z</time>
      </trkpt>
      <trkpt lat="45.67476" lon="5.73212">
        <ele>451</ele>
        <time>2021-06-06T15:27:15.734Z</time>
      </trkpt>
      <trkpt lat="45.6747" lon="5.7321">
        <ele>451</ele>
        <time>2021-06-06T15:27:20.705Z</time>
      </trkpt>
      <trkpt lat="45.67465" lon="5.73209">
        <ele>451</ele>
        <time>2021-06-06T15:27:24.748Z</time>
      </trkpt>
      <trkpt lat="45.67459" lon="5.73205">
        <ele>455</ele>
        <time>2021-06-06T15:27:29.751Z</time>
      </trkpt>
      <trkpt lat="45.67452" lon="5.73207">
        <ele>453</ele>
        <time>2021-06-06T15:27:34.731Z</time>
      </trkpt>
      <trkpt lat="45.67447" lon="5.73208">
        <ele>453</ele>
        <time>2021-06-06T15:27:38.742Z</time>
      </trkpt>
      <trkpt lat="45.6744" lon="5.73207">
        <ele>453</ele>
        <time>2021-06-06T15:27:43.744Z</time>
      </trkpt>
      <trkpt lat="45.67434" lon="5.73203">
        <ele>453</ele>
        <time>2021-06-06T15:27:48.737Z</time>
      </trkpt>
      <trkpt lat="45.67427" lon="5.73199">
        <ele>454</ele>
        <time>2021-06-06T15:27:53.730Z</time>
      </trkpt>
      <trkpt lat="45.67421" lon="5.73195">
        <ele>454</ele>
        <time>2021-06-06T15:27:58.739Z</time>
      </trkpt>
      <trkpt lat="45.67415" lon="5.73192">
        <ele>454</ele>
        <time>2021-06-06T15:28:02.764Z</time>
      </trkpt>
      <trkpt lat="45.67411" lon="5.73187">
        <ele>454</ele>
        <time>2021-06-06T15:28:07.733Z</time>
      </trkpt>
      <trkpt lat="45.6741" lon="5.73187">
        <ele>454</ele>
        <time>2021-06-06T15:28:11.757Z</time>
      </trkpt>
      <trkpt lat="45.67404" lon="5.73187">
        <ele>454</ele>
        <time>2021-06-06T15:28:16.718Z</time>
      </trkpt>
      <trkpt lat="45.67399" lon="5.73186">
        <ele>457</ele>
        <time>2021-06-06T15:28:20.730Z</time>
      </trkpt>
      <trkpt lat="45.67394" lon="5.73185">
        <ele>457</ele>
        <time>2021-06-06T15:28:24.728Z</time>
      </trkpt>
      <trkpt lat="45.67389" lon="5.73182">
        <ele>457</ele>
        <time>2021-06-06T15:28:28.736Z</time>
      </trkpt>
      <trkpt lat="45.67385" lon="5.73177">
        <ele>461</ele>
        <time>2021-06-06T15:28:32.762Z</time>
      </trkpt>
      <trkpt lat="45.67381" lon="5.73174">
        <ele>461</ele>
        <time>2021-06-06T15:28:36.772Z</time>
      </trkpt>
      <trkpt lat="45.67374" lon="5.7317">
        <ele>462</ele>
        <time>2021-06-06T15:28:41.757Z</time>
      </trkpt>
      <trkpt lat="45.67368" lon="5.73164">
        <ele>462</ele>
        <time>2021-06-06T15:28:46.730Z</time>
      </trkpt>
      <trkpt lat="45.67365" lon="5.73157">
        <ele>462</ele>
        <time>2021-06-06T15:28:51.721Z</time>
      </trkpt>
      <trkpt lat="45.67359" lon="5.73145">
        <ele>465</ele>
        <time>2021-06-06T15:28:56.712Z</time>
      </trkpt>
      <trkpt lat="45.67355" lon="5.73143">
        <ele>465</ele>
        <time>2021-06-06T15:29:00.708Z</time>
      </trkpt>
      <trkpt lat="45.67351" lon="5.7314">
        <ele>465</ele>
        <time>2021-06-06T15:29:04.762Z</time>
      </trkpt>
      <trkpt lat="45.67346" lon="5.73136">
        <ele>465</ele>
        <time>2021-06-06T15:29:09.725Z</time>
      </trkpt>
      <trkpt lat="45.67342" lon="5.73131">
        <ele>465</ele>
        <time>2021-06-06T15:29:14.708Z</time>
      </trkpt>
      <trkpt lat="45.67338" lon="5.73126">
        <ele>465</ele>
        <time>2021-06-06T15:29:18.728Z</time>
      </trkpt>
      <trkpt lat="45.67333" lon="5.73121">
        <ele>468</ele>
        <time>2021-06-06T15:29:23.718Z</time>
      </trkpt>
      <trkpt lat="45.67328" lon="5.73117">
        <ele>468</ele>
        <time>2021-06-06T15:29:27.724Z</time>
      </trkpt>
      <trkpt lat="45.67322" lon="5.73112">
        <ele>468</ele>
        <time>2021-06-06T15:29:32.734Z</time>
      </trkpt>
      <trkpt lat="45.67316" lon="5.73107">
        <ele>467</ele>
        <time>2021-06-06T15:29:37.754Z</time>
      </trkpt>
      <trkpt lat="45.6731" lon="5.73107">
        <ele>467</ele>
        <time>2021-06-06T15:29:42.733Z</time>
      </trkpt>
      <trkpt lat="45.67303" lon="5.73112">
        <ele>467</ele>
        <time>2021-06-06T15:29:47.729Z</time>
      </trkpt>
      <trkpt lat="45.67298" lon="5.73116">
        <ele>467</ele>
        <time>2021-06-06T15:29:52.724Z</time>
      </trkpt>
      <trkpt lat="45.67292" lon="5.7312">
        <ele>467</ele>
        <time>2021-06-06T15:29:57.708Z</time>
      </trkpt>
      <trkpt lat="45.67287" lon="5.73123">
        <ele>467</ele>
        <time>2021-06-06T15:30:01.758Z</time>
      </trkpt>
      <trkpt lat="45.67281" lon="5.73128">
        <ele>466</ele>
        <time>2021-06-06T15:30:06.722Z</time>
      </trkpt>
      <trkpt lat="45.67276" lon="5.7313">
        <ele>466</ele>
        <time>2021-06-06T15:30:10.736Z</time>
      </trkpt>
      <trkpt lat="45.6727" lon="5.73132">
        <ele>466</ele>
        <time>2021-06-06T15:30:15.730Z</time>
      </trkpt>
      <trkpt lat="45.67263" lon="5.73133">
        <ele>465</ele>
        <time>2021-06-06T15:30:20.725Z</time>
      </trkpt>
      <trkpt lat="45.67257" lon="5.73134">
        <ele>465</ele>
        <time>2021-06-06T15:30:24.724Z</time>
      </trkpt>
      <trkpt lat="45.6725" lon="5.73134">
        <ele>465</ele>
        <time>2021-06-06T15:30:29.723Z</time>
      </trkpt>
      <trkpt lat="45.67244" lon="5.73133">
        <ele>465</ele>
        <time>2021-06-06T15:30:34.729Z</time>
      </trkpt>
      <trkpt lat="45.67238" lon="5.73133">
        <ele>465</ele>
        <time>2021-06-06T15:30:38.735Z</time>
      </trkpt>
      <trkpt lat="45.67233" lon="5.73131">
        <ele>465</ele>
        <time>2021-06-06T15:30:42.747Z</time>
      </trkpt>
      <trkpt lat="45.67227" lon="5.73131">
        <ele>465</ele>
        <time>2021-06-06T15:30:46.755Z</time>
      </trkpt>
      <trkpt lat="45.67222" lon="5.73133">
        <ele>465</ele>
        <time>2021-06-06T15:30:50.763Z</time>
      </trkpt>
      <trkpt lat="45.67215" lon="5.73133">
        <ele>465</ele>
        <time>2021-06-06T15:30:55.739Z</time>
      </trkpt>
      <trkpt lat="45.67207" lon="5.73132">
        <ele>465</ele>
        <time>2021-06-06T15:31:00.728Z</time>
      </trkpt>
      <trkpt lat="45.67202" lon="5.73133">
        <ele>465</ele>
        <time>2021-06-06T15:31:04.738Z</time>
      </trkpt>
      <trkpt lat="45.67196" lon="5.73132">
        <ele>465</ele>
        <time>2021-06-06T15:31:08.767Z</time>
      </trkpt>
      <trkpt lat="45.67189" lon="5.73132">
        <ele>465</ele>
        <time>2021-06-06T15:31:13.732Z</time>
      </trkpt>
      <trkpt lat="45.67184" lon="5.7313">
        <ele>465</ele>
        <time>2021-06-06T15:31:17.768Z</time>
      </trkpt>
      <trkpt lat="45.67177" lon="5.73127">
        <ele>466</ele>
        <time>2021-06-06T15:31:22.758Z</time>
      </trkpt>
      <trkpt lat="45.67172" lon="5.73122">
        <ele>465</ele>
        <time>2021-06-06T15:31:26.756Z</time>
      </trkpt>
      <trkpt lat="45.67166" lon="5.73117">
        <ele>465</ele>
        <time>2021-06-06T15:31:31.755Z</time>
      </trkpt>
      <trkpt lat="45.67159" lon="5.73113">
        <ele>465</ele>
        <time>2021-06-06T15:31:36.731Z</time>
      </trkpt>
      <trkpt lat="45.67151" lon="5.73111">
        <ele>465</ele>
        <time>2021-06-06T15:31:41.778Z</time>
      </trkpt>
      <trkpt lat="45.67144" lon="5.7311">
        <ele>465</ele>
        <time>2021-06-06T15:31:46.763Z</time>
      </trkpt>
      <trkpt lat="45.67136" lon="5.73114">
        <ele>465</ele>
        <time>2021-06-06T15:31:51.701Z</time>
      </trkpt>
      <trkpt lat="45.67131" lon="5.73121">
        <ele>465</ele>
        <time>2021-06-06T15:31:55.726Z</time>
      </trkpt>
      <trkpt lat="45.67126" lon="5.73128">
        <ele>467</ele>
        <time>2021-06-06T15:32:00.711Z</time>
      </trkpt>
      <trkpt lat="45.6712" lon="5.73134">
        <ele>469</ele>
        <time>2021-06-06T15:32:04.749Z</time>
      </trkpt>
      <trkpt lat="45.67115" lon="5.73142">
        <ele>469</ele>
        <time>2021-06-06T15:32:09.713Z</time>
      </trkpt>
      <trkpt lat="45.67108" lon="5.7315">
        <ele>469</ele>
        <time>2021-06-06T15:32:14.715Z</time>
      </trkpt>
      <trkpt lat="45.67104" lon="5.73158">
        <ele>470</ele>
        <time>2021-06-06T15:32:18.736Z</time>
      </trkpt>
      <trkpt lat="45.671" lon="5.73164">
        <ele>470</ele>
        <time>2021-06-06T15:32:22.736Z</time>
      </trkpt>
      <trkpt lat="45.67095" lon="5.73173">
        <ele>470</ele>
        <time>2021-06-06T15:32:27.718Z</time>
      </trkpt>
      <trkpt lat="45.67092" lon="5.7318">
        <ele>470</ele>
        <time>2021-06-06T15:32:31.728Z</time>
      </trkpt>
      <trkpt lat="45.67088" lon="5.73188">
        <ele>469</ele>
        <time>2021-06-06T15:32:36.736Z</time>
      </trkpt>
      <trkpt lat="45.67083" lon="5.73196">
        <ele>469</ele>
        <time>2021-06-06T15:32:41.727Z</time>
      </trkpt>
      <trkpt lat="45.67081" lon="5.73203">
        <ele>469</ele>
        <time>2021-06-06T15:32:45.761Z</time>
      </trkpt>
      <trkpt lat="45.67078" lon="5.73213">
        <ele>468</ele>
        <time>2021-06-06T15:32:50.726Z</time>
      </trkpt>
      <trkpt lat="45.67077" lon="5.73221">
        <ele>468</ele>
        <time>2021-06-06T15:32:54.736Z</time>
      </trkpt>
      <trkpt lat="45.67074" lon="5.73229">
        <ele>468</ele>
        <time>2021-06-06T15:32:58.761Z</time>
      </trkpt>
      <trkpt lat="45.67072" lon="5.7324">
        <ele>466</ele>
        <time>2021-06-06T15:33:03.730Z</time>
      </trkpt>
      <trkpt lat="45.67069" lon="5.73249">
        <ele>467</ele>
        <time>2021-06-06T15:33:08.763Z</time>
      </trkpt>
      <trkpt lat="45.67066" lon="5.73258">
        <ele>467</ele>
        <time>2021-06-06T15:33:13.709Z</time>
      </trkpt>
      <trkpt lat="45.67063" lon="5.73266">
        <ele>465</ele>
        <time>2021-06-06T15:33:17.729Z</time>
      </trkpt>
      <trkpt lat="45.67059" lon="5.73276">
        <ele>465</ele>
        <time>2021-06-06T15:33:22.762Z</time>
      </trkpt>
      <trkpt lat="45.67056" lon="5.73286">
        <ele>465</ele>
        <time>2021-06-06T15:33:27.736Z</time>
      </trkpt>
      <trkpt lat="45.67055" lon="5.73294">
        <ele>464</ele>
        <time>2021-06-06T15:33:31.762Z</time>
      </trkpt>
      <trkpt lat="45.67055" lon="5.73303">
        <ele>464</ele>
        <time>2021-06-06T15:33:35.769Z</time>
      </trkpt>
      <trkpt lat="45.67054" lon="5.73314">
        <ele>464</ele>
        <time>2021-06-06T15:33:40.759Z</time>
      </trkpt>
      <trkpt lat="45.67052" lon="5.73326">
        <ele>463</ele>
        <time>2021-06-06T15:33:45.756Z</time>
      </trkpt>
      <trkpt lat="45.67051" lon="5.73335">
        <ele>463</ele>
        <time>2021-06-06T15:33:49.758Z</time>
      </trkpt>
      <trkpt lat="45.67048" lon="5.73346">
        <ele>463</ele>
        <time>2021-06-06T15:33:54.734Z</time>
      </trkpt>
      <trkpt lat="45.67045" lon="5.73354">
        <ele>462</ele>
        <time>2021-06-06T15:33:58.756Z</time>
      </trkpt>
      <trkpt lat="45.67042" lon="5.73365">
        <ele>462</ele>
        <time>2021-06-06T15:34:03.731Z</time>
      </trkpt>
      <trkpt lat="45.67039" lon="5.73377">
        <ele>466</ele>
        <time>2021-06-06T15:34:08.725Z</time>
      </trkpt>
      <trkpt lat="45.67039" lon="5.73386">
        <ele>466</ele>
        <time>2021-06-06T15:34:12.738Z</time>
      </trkpt>
      <trkpt lat="45.67042" lon="5.73396">
        <ele>462</ele>
        <time>2021-06-06T15:34:17.723Z</time>
      </trkpt>
      <trkpt lat="45.67044" lon="5.73404">
        <ele>463</ele>
        <time>2021-06-06T15:34:21.740Z</time>
      </trkpt>
      <trkpt lat="45.67048" lon="5.73414">
        <ele>463</ele>
        <time>2021-06-06T15:34:26.780Z</time>
      </trkpt>
      <trkpt lat="45.67052" lon="5.73424">
        <ele>463</ele>
        <time>2021-06-06T15:34:31.696Z</time>
      </trkpt>
      <trkpt lat="45.67055" lon="5.73433">
        <ele>467</ele>
        <time>2021-06-06T15:34:36.699Z</time>
      </trkpt>
      <trkpt lat="45.67058" lon="5.73441">
        <ele>467</ele>
        <time>2021-06-06T15:34:40.698Z</time>
      </trkpt>
      <trkpt lat="45.67061" lon="5.7345">
        <ele>467</ele>
        <time>2021-06-06T15:34:45.703Z</time>
      </trkpt>
      <trkpt lat="45.67064" lon="5.7346">
        <ele>471</ele>
        <time>2021-06-06T15:34:50.703Z</time>
      </trkpt>
      <trkpt lat="45.67067" lon="5.73469">
        <ele>471</ele>
        <time>2021-06-06T15:34:54.718Z</time>
      </trkpt>
      <trkpt lat="45.67069" lon="5.73476">
        <ele>471</ele>
        <time>2021-06-06T15:34:58.738Z</time>
      </trkpt>
      <trkpt lat="45.67072" lon="5.73487">
        <ele>468</ele>
        <time>2021-06-06T15:35:03.733Z</time>
      </trkpt>
      <trkpt lat="45.67074" lon="5.73496">
        <ele>468</ele>
        <time>2021-06-06T15:35:07.755Z</time>
      </trkpt>
      <trkpt lat="45.67076" lon="5.73508">
        <ele>468</ele>
        <time>2021-06-06T15:35:12.732Z</time>
      </trkpt>
      <trkpt lat="45.67078" lon="5.73517">
        <ele>470</ele>
        <time>2021-06-06T15:35:16.757Z</time>
      </trkpt>
      <trkpt lat="45.6708" lon="5.73527">
        <ele>470</ele>
        <time>2021-06-06T15:35:21.735Z</time>
      </trkpt>
      <trkpt lat="45.67083" lon="5.73537">
        <ele>470</ele>
        <time>2021-06-06T15:35:26.723Z</time>
      </trkpt>
      <trkpt lat="45.67079" lon="5.73548">
        <ele>472</ele>
        <time>2021-06-06T15:35:31.731Z</time>
      </trkpt>
      <trkpt lat="45.67073" lon="5.73546">
        <ele>472</ele>
        <time>2021-06-06T15:35:36.735Z</time>
      </trkpt>
      <trkpt lat="45.67068" lon="5.73537">
        <ele>475</ele>
        <time>2021-06-06T15:35:41.736Z</time>
      </trkpt>
      <trkpt lat="45.67064" lon="5.73527">
        <ele>475</ele>
        <time>2021-06-06T15:35:46.701Z</time>
      </trkpt>
      <trkpt lat="45.6706" lon="5.73523">
        <ele>475</ele>
        <time>2021-06-06T15:35:50.764Z</time>
      </trkpt>
      <trkpt lat="45.67053" lon="5.73513">
        <ele>474</ele>
        <time>2021-06-06T15:35:55.736Z</time>
      </trkpt>
      <trkpt lat="45.6705" lon="5.73506">
        <ele>474</ele>
        <time>2021-06-06T15:35:59.755Z</time>
      </trkpt>
      <trkpt lat="45.67046" lon="5.735">
        <ele>474</ele>
        <time>2021-06-06T15:36:03.760Z</time>
      </trkpt>
      <trkpt lat="45.6704" lon="5.73491">
        <ele>478</ele>
        <time>2021-06-06T15:36:08.740Z</time>
      </trkpt>
      <trkpt lat="45.67034" lon="5.73484">
        <ele>477</ele>
        <time>2021-06-06T15:36:13.726Z</time>
      </trkpt>
      <trkpt lat="45.67028" lon="5.73474">
        <ele>477</ele>
        <time>2021-06-06T15:36:18.737Z</time>
      </trkpt>
      <trkpt lat="45.67021" lon="5.73462">
        <ele>477</ele>
        <time>2021-06-06T15:36:23.741Z</time>
      </trkpt>
      <trkpt lat="45.67016" lon="5.73453">
        <ele>474</ele>
        <time>2021-06-06T15:36:28.738Z</time>
      </trkpt>
      <trkpt lat="45.6701" lon="5.73443">
        <ele>479</ele>
        <time>2021-06-06T15:36:33.726Z</time>
      </trkpt>
      <trkpt lat="45.67004" lon="5.73434">
        <ele>479</ele>
        <time>2021-06-06T15:36:38.742Z</time>
      </trkpt>
      <trkpt lat="45.66998" lon="5.73429">
        <ele>476</ele>
        <time>2021-06-06T15:36:43.726Z</time>
      </trkpt>
      <trkpt lat="45.66992" lon="5.73424">
        <ele>476</ele>
        <time>2021-06-06T15:36:48.735Z</time>
      </trkpt>
      <trkpt lat="45.66988" lon="5.73419">
        <ele>476</ele>
        <time>2021-06-06T15:36:52.783Z</time>
      </trkpt>
      <trkpt lat="45.66983" lon="5.73413">
        <ele>482</ele>
        <time>2021-06-06T15:36:57.715Z</time>
      </trkpt>
      <trkpt lat="45.66975" lon="5.73406">
        <ele>482</ele>
        <time>2021-06-06T15:37:02.767Z</time>
      </trkpt>
      <trkpt lat="45.66969" lon="5.73401">
        <ele>479</ele>
        <time>2021-06-06T15:37:07.739Z</time>
      </trkpt>
      <trkpt lat="45.66963" lon="5.73397">
        <ele>479</ele>
        <time>2021-06-06T15:37:11.760Z</time>
      </trkpt>
      <trkpt lat="45.66958" lon="5.7339">
        <ele>479</ele>
        <time>2021-06-06T15:37:16.728Z</time>
      </trkpt>
      <trkpt lat="45.66951" lon="5.73384">
        <ele>485</ele>
        <time>2021-06-06T15:37:21.703Z</time>
      </trkpt>
      <trkpt lat="45.66944" lon="5.73377">
        <ele>485</ele>
        <time>2021-06-06T15:37:26.701Z</time>
      </trkpt>
      <trkpt lat="45.6694" lon="5.73372">
        <ele>482</ele>
        <time>2021-06-06T15:37:30.699Z</time>
      </trkpt>
      <trkpt lat="45.66934" lon="5.73367">
        <ele>482</ele>
        <time>2021-06-06T15:37:35.697Z</time>
      </trkpt>
      <trkpt lat="45.66928" lon="5.73364">
        <ele>486</ele>
        <time>2021-06-06T15:37:39.742Z</time>
      </trkpt>
      <trkpt lat="45.66921" lon="5.73359">
        <ele>486</ele>
        <time>2021-06-06T15:37:44.742Z</time>
      </trkpt>
      <trkpt lat="45.66914" lon="5.73356">
        <ele>486</ele>
        <time>2021-06-06T15:37:49.705Z</time>
      </trkpt>
      <trkpt lat="45.66907" lon="5.73351">
        <ele>486</ele>
        <time>2021-06-06T15:37:54.739Z</time>
      </trkpt>
      <trkpt lat="45.66901" lon="5.73344">
        <ele>487</ele>
        <time>2021-06-06T15:37:58.745Z</time>
      </trkpt>
      <trkpt lat="45.66896" lon="5.73342">
        <ele>487</ele>
        <time>2021-06-06T15:38:02.759Z</time>
      </trkpt>
      <trkpt lat="45.66888" lon="5.73337">
        <ele>487</ele>
        <time>2021-06-06T15:38:07.722Z</time>
      </trkpt>
      <trkpt lat="45.66882" lon="5.73331">
        <ele>487</ele>
        <time>2021-06-06T15:38:11.703Z</time>
      </trkpt>
      <trkpt lat="45.66873" lon="5.73328">
        <ele>490</ele>
        <time>2021-06-06T15:38:16.789Z</time>
      </trkpt>
      <trkpt lat="45.66866" lon="5.73324">
        <ele>490</ele>
        <time>2021-06-06T15:38:21.733Z</time>
      </trkpt>
      <trkpt lat="45.66859" lon="5.73321">
        <ele>490</ele>
        <time>2021-06-06T15:38:26.742Z</time>
      </trkpt>
      <trkpt lat="45.66852" lon="5.73316">
        <ele>487</ele>
        <time>2021-06-06T15:38:31.758Z</time>
      </trkpt>
      <trkpt lat="45.66847" lon="5.73311">
        <ele>490</ele>
        <time>2021-06-06T15:38:35.765Z</time>
      </trkpt>
      <trkpt lat="45.66841" lon="5.73304">
        <ele>490</ele>
        <time>2021-06-06T15:38:40.719Z</time>
      </trkpt>
      <trkpt lat="45.66834" lon="5.73296">
        <ele>490</ele>
        <time>2021-06-06T15:38:45.703Z</time>
      </trkpt>
      <trkpt lat="45.66823" lon="5.7329">
        <ele>486</ele>
        <time>2021-06-06T15:38:58.699Z</time>
      </trkpt>
      <trkpt lat="45.66829" lon="5.733">
        <ele>490</ele>
        <time>2021-06-06T15:39:03.705Z</time>
      </trkpt>
      <trkpt lat="45.66836" lon="5.73308">
        <ele>490</ele>
        <time>2021-06-06T15:39:08.695Z</time>
      </trkpt>
      <trkpt lat="45.6684" lon="5.73312">
        <ele>490</ele>
        <time>2021-06-06T15:39:13.694Z</time>
      </trkpt>
      <trkpt lat="45.66844" lon="5.73321">
        <ele>492</ele>
        <time>2021-06-06T15:39:18.698Z</time>
      </trkpt>
      <trkpt lat="45.66848" lon="5.73331">
        <ele>490</ele>
        <time>2021-06-06T15:39:23.691Z</time>
      </trkpt>
      <trkpt lat="45.6685" lon="5.73339">
        <ele>490</ele>
        <time>2021-06-06T15:39:27.701Z</time>
      </trkpt>
      <trkpt lat="45.66852" lon="5.7335">
        <ele>492</ele>
        <time>2021-06-06T15:39:32.705Z</time>
      </trkpt>
      <trkpt lat="45.66853" lon="5.7336">
        <ele>492</ele>
        <time>2021-06-06T15:39:37.693Z</time>
      </trkpt>
      <trkpt lat="45.66852" lon="5.73369">
        <ele>492</ele>
        <time>2021-06-06T15:39:41.693Z</time>
      </trkpt>
      <trkpt lat="45.66848" lon="5.73376">
        <ele>493</ele>
        <time>2021-06-06T15:39:45.707Z</time>
      </trkpt>
      <trkpt lat="45.66844" lon="5.73384">
        <ele>495</ele>
        <time>2021-06-06T15:39:50.699Z</time>
      </trkpt>
      <trkpt lat="45.66838" lon="5.73392">
        <ele>495</ele>
        <time>2021-06-06T15:39:55.698Z</time>
      </trkpt>
      <trkpt lat="45.66834" lon="5.734">
        <ele>495</ele>
        <time>2021-06-06T15:40:00.697Z</time>
      </trkpt>
      <trkpt lat="45.66829" lon="5.73405">
        <ele>496</ele>
        <time>2021-06-06T15:40:04.697Z</time>
      </trkpt>
      <trkpt lat="45.66823" lon="5.73409">
        <ele>496</ele>
        <time>2021-06-06T15:40:09.700Z</time>
      </trkpt>
      <trkpt lat="45.66816" lon="5.73414">
        <ele>498</ele>
        <time>2021-06-06T15:40:14.686Z</time>
      </trkpt>
      <trkpt lat="45.66811" lon="5.73416">
        <ele>498</ele>
        <time>2021-06-06T15:40:18.697Z</time>
      </trkpt>
      <trkpt lat="45.66804" lon="5.73419">
        <ele>498</ele>
        <time>2021-06-06T15:40:23.692Z</time>
      </trkpt>
      <trkpt lat="45.66797" lon="5.73418">
        <ele>498</ele>
        <time>2021-06-06T15:40:28.692Z</time>
      </trkpt>
      <trkpt lat="45.66791" lon="5.73415">
        <ele>502</ele>
        <time>2021-06-06T15:40:32.717Z</time>
      </trkpt>
      <trkpt lat="45.66785" lon="5.73412">
        <ele>502</ele>
        <time>2021-06-06T15:40:36.741Z</time>
      </trkpt>
      <trkpt lat="45.66778" lon="5.73408">
        <ele>502</ele>
        <time>2021-06-06T15:40:41.713Z</time>
      </trkpt>
      <trkpt lat="45.66771" lon="5.73407">
        <ele>502</ele>
        <time>2021-06-06T15:40:45.756Z</time>
      </trkpt>
      <trkpt lat="45.66763" lon="5.73405">
        <ele>504</ele>
        <time>2021-06-06T15:40:50.731Z</time>
      </trkpt>
      <trkpt lat="45.66754" lon="5.73404">
        <ele>504</ele>
        <time>2021-06-06T15:40:55.723Z</time>
      </trkpt>
      <trkpt lat="45.66745" lon="5.73404">
        <ele>504</ele>
        <time>2021-06-06T15:41:00.721Z</time>
      </trkpt>
      <trkpt lat="45.66738" lon="5.73401">
        <ele>507</ele>
        <time>2021-06-06T15:41:04.732Z</time>
      </trkpt>
      <trkpt lat="45.66732" lon="5.73397">
        <ele>508</ele>
        <time>2021-06-06T15:41:09.751Z</time>
      </trkpt>
      <trkpt lat="45.66725" lon="5.73391">
        <ele>508</ele>
        <time>2021-06-06T15:41:14.713Z</time>
      </trkpt>
      <trkpt lat="45.66721" lon="5.73387">
        <ele>508</ele>
        <time>2021-06-06T15:41:18.725Z</time>
      </trkpt>
      <trkpt lat="45.66716" lon="5.73381">
        <ele>508</ele>
        <time>2021-06-06T15:41:22.745Z</time>
      </trkpt>
      <trkpt lat="45.66709" lon="5.73373">
        <ele>509</ele>
        <time>2021-06-06T15:41:27.718Z</time>
      </trkpt>
      <trkpt lat="45.66702" lon="5.73361">
        <ele>511</ele>
        <time>2021-06-06T15:41:32.700Z</time>
      </trkpt>
      <trkpt lat="45.66697" lon="5.73349">
        <ele>511</ele>
        <time>2021-06-06T15:41:37.712Z</time>
      </trkpt>
      <trkpt lat="45.66692" lon="5.7334">
        <ele>513</ele>
        <time>2021-06-06T15:41:41.712Z</time>
      </trkpt>
      <trkpt lat="45.66687" lon="5.73334">
        <ele>513</ele>
        <time>2021-06-06T15:41:45.728Z</time>
      </trkpt>
      <trkpt lat="45.66682" lon="5.73328">
        <ele>513</ele>
        <time>2021-06-06T15:41:50.733Z</time>
      </trkpt>
      <trkpt lat="45.66677" lon="5.73321">
        <ele>514</ele>
        <time>2021-06-06T15:41:54.750Z</time>
      </trkpt>
      <trkpt lat="45.66667" lon="5.73312">
        <ele>513</ele>
        <time>2021-06-06T15:41:59.710Z</time>
      </trkpt>
      <trkpt lat="45.66659" lon="5.73306">
        <ele>513</ele>
        <time>2021-06-06T15:42:03.718Z</time>
      </trkpt>
      <trkpt lat="45.66651" lon="5.73301">
        <ele>517</ele>
        <time>2021-06-06T15:42:07.734Z</time>
      </trkpt>
      <trkpt lat="45.66641" lon="5.73298">
        <ele>517</ele>
        <time>2021-06-06T15:42:12.718Z</time>
      </trkpt>
      <trkpt lat="45.66632" lon="5.73294">
        <ele>517</ele>
        <time>2021-06-06T15:42:17.728Z</time>
      </trkpt>
      <trkpt lat="45.66624" lon="5.73291">
        <ele>517</ele>
        <time>2021-06-06T15:42:22.726Z</time>
      </trkpt>
      <trkpt lat="45.66615" lon="5.73286">
        <ele>517</ele>
        <time>2021-06-06T15:42:27.713Z</time>
      </trkpt>
      <trkpt lat="45.66608" lon="5.73282">
        <ele>517</ele>
        <time>2021-06-06T15:42:31.724Z</time>
      </trkpt>
      <trkpt lat="45.666" lon="5.73277">
        <ele>517</ele>
        <time>2021-06-06T15:42:36.728Z</time>
      </trkpt>
      <trkpt lat="45.66593" lon="5.73275">
        <ele>521</ele>
        <time>2021-06-06T15:42:40.758Z</time>
      </trkpt>
      <trkpt lat="45.66584" lon="5.73274">
        <ele>521</ele>
        <time>2021-06-06T15:42:45.692Z</time>
      </trkpt>
      <trkpt lat="45.66576" lon="5.73272">
        <ele>521</ele>
        <time>2021-06-06T15:42:49.703Z</time>
      </trkpt>
      <trkpt lat="45.66473" lon="5.73344">
        <ele>552</ele>
        <time>2021-06-06T15:43:42.731Z</time>
      </trkpt>
      <trkpt lat="45.66461" lon="5.73344">
        <ele>552</ele>
        <time>2021-06-06T15:43:47.760Z</time>
      </trkpt>
      <trkpt lat="45.66448" lon="5.73343">
        <ele>556</ele>
        <time>2021-06-06T15:43:52.759Z</time>
      </trkpt>
      <trkpt lat="45.66435" lon="5.73341">
        <ele>556</ele>
        <time>2021-06-06T15:43:57.732Z</time>
      </trkpt>
      <trkpt lat="45.66421" lon="5.73339">
        <ele>558</ele>
        <time>2021-06-06T15:44:02.714Z</time>
      </trkpt>
      <trkpt lat="45.66411" lon="5.73339">
        <ele>558</ele>
        <time>2021-06-06T15:44:06.729Z</time>
      </trkpt>
      <trkpt lat="45.66397" lon="5.73338">
        <ele>561</ele>
        <time>2021-06-06T15:44:11.721Z</time>
      </trkpt>
      <trkpt lat="45.66385" lon="5.73337">
        <ele>561</ele>
        <time>2021-06-06T15:44:15.756Z</time>
      </trkpt>
      <trkpt lat="45.66371" lon="5.73336">
        <ele>563</ele>
        <time>2021-06-06T15:44:20.704Z</time>
      </trkpt>
      <trkpt lat="45.66359" lon="5.73335">
        <ele>563</ele>
        <time>2021-06-06T15:44:24.725Z</time>
      </trkpt>
      <trkpt lat="45.66344" lon="5.73334">
        <ele>564</ele>
        <time>2021-06-06T15:44:29.708Z</time>
      </trkpt>
      <trkpt lat="45.66329" lon="5.73331">
        <ele>564</ele>
        <time>2021-06-06T15:44:34.721Z</time>
      </trkpt>
      <trkpt lat="45.66314" lon="5.73328">
        <ele>565</ele>
        <time>2021-06-06T15:44:39.696Z</time>
      </trkpt>
      <trkpt lat="45.66305" lon="5.73327">
        <ele>565</ele>
        <time>2021-06-06T15:44:43.757Z</time>
      </trkpt>
      <trkpt lat="45.66292" lon="5.73324">
        <ele>565</ele>
        <time>2021-06-06T15:44:48.693Z</time>
      </trkpt>
      <trkpt lat="45.6628" lon="5.73324">
        <ele>567</ele>
        <time>2021-06-06T15:44:52.742Z</time>
      </trkpt>
      <trkpt lat="45.6627" lon="5.73329">
        <ele>567</ele>
        <time>2021-06-06T15:44:57.732Z</time>
      </trkpt>
      <trkpt lat="45.66262" lon="5.73335">
        <ele>569</ele>
        <time>2021-06-06T15:45:02.743Z</time>
      </trkpt>
      <trkpt lat="45.66256" lon="5.73341">
        <ele>569</ele>
        <time>2021-06-06T15:45:07.764Z</time>
      </trkpt>
      <trkpt lat="45.66249" lon="5.7335">
        <ele>569</ele>
        <time>2021-06-06T15:45:12.706Z</time>
      </trkpt>
      <trkpt lat="45.66241" lon="5.73354">
        <ele>569</ele>
        <time>2021-06-06T15:45:16.717Z</time>
      </trkpt>
      <trkpt lat="45.66232" lon="5.73358">
        <ele>571</ele>
        <time>2021-06-06T15:45:21.710Z</time>
      </trkpt>
      <trkpt lat="45.66223" lon="5.73362">
        <ele>571</ele>
        <time>2021-06-06T15:45:26.735Z</time>
      </trkpt>
      <trkpt lat="45.66215" lon="5.73368">
        <ele>571</ele>
        <time>2021-06-06T15:45:31.725Z</time>
      </trkpt>
      <trkpt lat="45.66209" lon="5.73371">
        <ele>571</ele>
        <time>2021-06-06T15:45:35.785Z</time>
      </trkpt>
      <trkpt lat="45.66202" lon="5.73371">
        <ele>573</ele>
        <time>2021-06-06T15:45:40.722Z</time>
      </trkpt>
      <trkpt lat="45.66196" lon="5.73373">
        <ele>573</ele>
        <time>2021-06-06T15:45:44.729Z</time>
      </trkpt>
      <trkpt lat="45.6619" lon="5.73372">
        <ele>573</ele>
        <time>2021-06-06T15:45:48.737Z</time>
      </trkpt>
      <trkpt lat="45.66183" lon="5.73373">
        <ele>573</ele>
        <time>2021-06-06T15:45:53.765Z</time>
      </trkpt>
      <trkpt lat="45.66174" lon="5.73374">
        <ele>577</ele>
        <time>2021-06-06T15:45:58.728Z</time>
      </trkpt>
      <trkpt lat="45.66165" lon="5.73375">
        <ele>577</ele>
        <time>2021-06-06T15:46:03.738Z</time>
      </trkpt>
      <trkpt lat="45.66158" lon="5.73371">
        <ele>577</ele>
        <time>2021-06-06T15:46:08.733Z</time>
      </trkpt>
      <trkpt lat="45.66154" lon="5.73362">
        <ele>577</ele>
        <time>2021-06-06T15:46:12.755Z</time>
      </trkpt>
      <trkpt lat="45.66152" lon="5.7335">
        <ele>582</ele>
        <time>2021-06-06T15:46:17.760Z</time>
      </trkpt>
      <trkpt lat="45.66149" lon="5.73339">
        <ele>584</ele>
        <time>2021-06-06T15:46:22.727Z</time>
      </trkpt>
      <trkpt lat="45.66147" lon="5.73327">
        <ele>584</ele>
        <time>2021-06-06T15:46:26.761Z</time>
      </trkpt>
      <trkpt lat="45.66146" lon="5.73317">
        <ele>584</ele>
        <time>2021-06-06T15:46:31.757Z</time>
      </trkpt>
      <trkpt lat="45.66143" lon="5.7331">
        <ele>584</ele>
        <time>2021-06-06T15:46:36.729Z</time>
      </trkpt>
      <trkpt lat="45.66139" lon="5.73305">
        <ele>584</ele>
        <time>2021-06-06T15:46:40.734Z</time>
      </trkpt>
      <trkpt lat="45.66134" lon="5.73299">
        <ele>584</ele>
        <time>2021-06-06T15:46:45.736Z</time>
      </trkpt>
      <trkpt lat="45.6613" lon="5.73294">
        <ele>584</ele>
        <time>2021-06-06T15:46:50.697Z</time>
      </trkpt>
      <trkpt lat="45.66127" lon="5.7329">
        <ele>584</ele>
        <time>2021-06-06T15:46:55.698Z</time>
      </trkpt>
      <trkpt lat="45.66115" lon="5.73292">
        <ele>588</ele>
        <time>2021-06-06T15:47:22.698Z</time>
      </trkpt>
      <trkpt lat="45.66109" lon="5.733">
        <ele>588</ele>
        <time>2021-06-06T15:47:26.706Z</time>
      </trkpt>
      <trkpt lat="45.66102" lon="5.73304">
        <ele>588</ele>
        <time>2021-06-06T15:47:31.719Z</time>
      </trkpt>
      <trkpt lat="45.66094" lon="5.7331">
        <ele>590</ele>
        <time>2021-06-06T15:47:36.695Z</time>
      </trkpt>
      <trkpt lat="45.66088" lon="5.73314">
        <ele>590</ele>
        <time>2021-06-06T15:47:41.697Z</time>
      </trkpt>
      <trkpt lat="45.66083" lon="5.73318">
        <ele>590</ele>
        <time>2021-06-06T15:47:45.703Z</time>
      </trkpt>
      <trkpt lat="45.66077" lon="5.73323">
        <ele>590</ele>
        <time>2021-06-06T15:47:50.732Z</time>
      </trkpt>
      <trkpt lat="45.66072" lon="5.73328">
        <ele>590</ele>
        <time>2021-06-06T15:47:55.720Z</time>
      </trkpt>
      <trkpt lat="45.66067" lon="5.73334">
        <ele>591</ele>
        <time>2021-06-06T15:48:00.692Z</time>
      </trkpt>
      <trkpt lat="45.66061" lon="5.73341">
        <ele>591</ele>
        <time>2021-06-06T15:48:05.698Z</time>
      </trkpt>
      <trkpt lat="45.66055" lon="5.73347">
        <ele>591</ele>
        <time>2021-06-06T15:48:10.690Z</time>
      </trkpt>
      <trkpt lat="45.66051" lon="5.73353">
        <ele>589</ele>
        <time>2021-06-06T15:48:14.695Z</time>
      </trkpt>
      <trkpt lat="45.66045" lon="5.7336">
        <ele>589</ele>
        <time>2021-06-06T15:48:19.690Z</time>
      </trkpt>
      <trkpt lat="45.6604" lon="5.73364">
        <ele>590</ele>
        <time>2021-06-06T15:48:23.704Z</time>
      </trkpt>
      <trkpt lat="45.66036" lon="5.73368">
        <ele>590</ele>
        <time>2021-06-06T15:48:27.693Z</time>
      </trkpt>
      <trkpt lat="45.66028" lon="5.7337">
        <ele>590</ele>
        <time>2021-06-06T15:48:32.693Z</time>
      </trkpt>
      <trkpt lat="45.66023" lon="5.73368">
        <ele>590</ele>
        <time>2021-06-06T15:48:36.694Z</time>
      </trkpt>
      <trkpt lat="45.66016" lon="5.73363">
        <ele>590</ele>
        <time>2021-06-06T15:48:41.702Z</time>
      </trkpt>
      <trkpt lat="45.66009" lon="5.73358">
        <ele>592</ele>
        <time>2021-06-06T15:48:46.704Z</time>
      </trkpt>
      <trkpt lat="45.66003" lon="5.73351">
        <ele>592</ele>
        <time>2021-06-06T15:48:51.705Z</time>
      </trkpt>
      <trkpt lat="45.65999" lon="5.73344">
        <ele>594</ele>
        <time>2021-06-06T15:48:56.699Z</time>
      </trkpt>
      <trkpt lat="45.65994" lon="5.73335">
        <ele>594</ele>
        <time>2021-06-06T15:49:01.693Z</time>
      </trkpt>
      <trkpt lat="45.65989" lon="5.73327">
        <ele>594</ele>
        <time>2021-06-06T15:49:06.692Z</time>
      </trkpt>
      <trkpt lat="45.65985" lon="5.7332">
        <ele>593</ele>
        <time>2021-06-06T15:49:10.702Z</time>
      </trkpt>
      <trkpt lat="45.65979" lon="5.73313">
        <ele>595</ele>
        <time>2021-06-06T15:49:15.696Z</time>
      </trkpt>
      <trkpt lat="45.65972" lon="5.73308">
        <ele>595</ele>
        <time>2021-06-06T15:49:20.705Z</time>
      </trkpt>
      <trkpt lat="45.65966" lon="5.73306">
        <ele>595</ele>
        <time>2021-06-06T15:49:24.699Z</time>
      </trkpt>
      <trkpt lat="45.65959" lon="5.73304">
        <ele>595</ele>
        <time>2021-06-06T15:49:29.702Z</time>
      </trkpt>
      <trkpt lat="45.65952" lon="5.73299">
        <ele>595</ele>
        <time>2021-06-06T15:49:34.695Z</time>
      </trkpt>
      <trkpt lat="45.65946" lon="5.73295">
        <ele>595</ele>
        <time>2021-06-06T15:49:39.706Z</time>
      </trkpt>
      <trkpt lat="45.6594" lon="5.73288">
        <ele>598</ele>
        <time>2021-06-06T15:49:44.704Z</time>
      </trkpt>
      <trkpt lat="45.65936" lon="5.73279">
        <ele>598</ele>
        <time>2021-06-06T15:49:49.690Z</time>
      </trkpt>
      <trkpt lat="45.65937" lon="5.73268">
        <ele>598</ele>
        <time>2021-06-06T15:49:54.706Z</time>
      </trkpt>
      <trkpt lat="45.65938" lon="5.73258">
        <ele>600</ele>
        <time>2021-06-06T15:49:59.695Z</time>
      </trkpt>
      <trkpt lat="45.65938" lon="5.7325">
        <ele>600</ele>
        <time>2021-06-06T15:50:03.702Z</time>
      </trkpt>
      <trkpt lat="45.65939" lon="5.7324">
        <ele>600</ele>
        <time>2021-06-06T15:50:08.713Z</time>
      </trkpt>
      <trkpt lat="45.6594" lon="5.7323">
        <ele>601</ele>
        <time>2021-06-06T15:50:13.704Z</time>
      </trkpt>
      <trkpt lat="45.6594" lon="5.73221">
        <ele>601</ele>
        <time>2021-06-06T15:50:17.699Z</time>
      </trkpt>
      <trkpt lat="45.65935" lon="5.73212">
        <ele>601</ele>
        <time>2021-06-06T15:50:22.695Z</time>
      </trkpt>
      <trkpt lat="45.65929" lon="5.73203">
        <ele>607</ele>
        <time>2021-06-06T15:50:27.706Z</time>
      </trkpt>
      <trkpt lat="45.65926" lon="5.73196">
        <ele>607</ele>
        <time>2021-06-06T15:50:31.706Z</time>
      </trkpt>
      <trkpt lat="45.65919" lon="5.73189">
        <ele>607</ele>
        <time>2021-06-06T15:50:36.702Z</time>
      </trkpt>
      <trkpt lat="45.65915" lon="5.73182">
        <ele>607</ele>
        <time>2021-06-06T15:50:40.703Z</time>
      </trkpt>
      <trkpt lat="45.65909" lon="5.73174">
        <ele>611</ele>
        <time>2021-06-06T15:50:45.700Z</time>
      </trkpt>
      <trkpt lat="45.65904" lon="5.73166">
        <ele>611</ele>
        <time>2021-06-06T15:50:50.702Z</time>
      </trkpt>
      <trkpt lat="45.65899" lon="5.73158">
        <ele>613</ele>
        <time>2021-06-06T15:50:55.704Z</time>
      </trkpt>
      <trkpt lat="45.65893" lon="5.73151">
        <ele>614</ele>
        <time>2021-06-06T15:51:00.696Z</time>
      </trkpt>
      <trkpt lat="45.65886" lon="5.73145">
        <ele>614</ele>
        <time>2021-06-06T15:51:05.697Z</time>
      </trkpt>
      <trkpt lat="45.6588" lon="5.73139">
        <ele>614</ele>
        <time>2021-06-06T15:51:10.702Z</time>
      </trkpt>
      <trkpt lat="45.65873" lon="5.73137">
        <ele>613</ele>
        <time>2021-06-06T15:51:15.704Z</time>
      </trkpt>
      <trkpt lat="45.65866" lon="5.73135">
        <ele>613</ele>
        <time>2021-06-06T15:51:20.698Z</time>
      </trkpt>
      <trkpt lat="45.65859" lon="5.73132">
        <ele>613</ele>
        <time>2021-06-06T15:51:25.720Z</time>
      </trkpt>
      <trkpt lat="45.65852" lon="5.73131">
        <ele>613</ele>
        <time>2021-06-06T15:51:30.696Z</time>
      </trkpt>
      <trkpt lat="45.65845" lon="5.73129">
        <ele>612</ele>
        <time>2021-06-06T15:51:35.697Z</time>
      </trkpt>
      <trkpt lat="45.65839" lon="5.73126">
        <ele>612</ele>
        <time>2021-06-06T15:51:40.700Z</time>
      </trkpt>
      <trkpt lat="45.65832" lon="5.73122">
        <ele>614</ele>
        <time>2021-06-06T15:51:45.700Z</time>
      </trkpt>
      <trkpt lat="45.65825" lon="5.73118">
        <ele>614</ele>
        <time>2021-06-06T15:51:50.704Z</time>
      </trkpt>
      <trkpt lat="45.65818" lon="5.73112">
        <ele>615</ele>
        <time>2021-06-06T15:51:55.697Z</time>
      </trkpt>
      <trkpt lat="45.65812" lon="5.73108">
        <ele>615</ele>
        <time>2021-06-06T15:51:59.703Z</time>
      </trkpt>
      <trkpt lat="45.65806" lon="5.73102">
        <ele>615</ele>
        <time>2021-06-06T15:52:04.707Z</time>
      </trkpt>
      <trkpt lat="45.658" lon="5.73097">
        <ele>617</ele>
        <time>2021-06-06T15:52:09.701Z</time>
      </trkpt>
      <trkpt lat="45.65794" lon="5.73092">
        <ele>617</ele>
        <time>2021-06-06T15:52:14.702Z</time>
      </trkpt>
      <trkpt lat="45.65787" lon="5.73087">
        <ele>618</ele>
        <time>2021-06-06T15:52:19.698Z</time>
      </trkpt>
      <trkpt lat="45.65781" lon="5.73081">
        <ele>618</ele>
        <time>2021-06-06T15:52:24.706Z</time>
      </trkpt>
      <trkpt lat="45.65776" lon="5.73075">
        <ele>618</ele>
        <time>2021-06-06T15:52:28.703Z</time>
      </trkpt>
      <trkpt lat="45.6577" lon="5.7307">
        <ele>618</ele>
        <time>2021-06-06T15:52:33.698Z</time>
      </trkpt>
      <trkpt lat="45.65764" lon="5.73063">
        <ele>618</ele>
        <time>2021-06-06T15:52:38.712Z</time>
      </trkpt>
      <trkpt lat="45.65757" lon="5.73057">
        <ele>619</ele>
        <time>2021-06-06T15:52:43.703Z</time>
      </trkpt>
      <trkpt lat="45.65752" lon="5.73053">
        <ele>619</ele>
        <time>2021-06-06T15:52:47.700Z</time>
      </trkpt>
      <trkpt lat="45.65746" lon="5.73046">
        <ele>619</ele>
        <time>2021-06-06T15:52:52.699Z</time>
      </trkpt>
      <trkpt lat="45.65741" lon="5.7304">
        <ele>618</ele>
        <time>2021-06-06T15:52:56.714Z</time>
      </trkpt>
      <trkpt lat="45.65735" lon="5.73033">
        <ele>619</ele>
        <time>2021-06-06T15:53:01.699Z</time>
      </trkpt>
      <trkpt lat="45.65728" lon="5.73026">
        <ele>619</ele>
        <time>2021-06-06T15:53:06.702Z</time>
      </trkpt>
      <trkpt lat="45.65722" lon="5.7302">
        <ele>619</ele>
        <time>2021-06-06T15:53:11.698Z</time>
      </trkpt>
      <trkpt lat="45.65718" lon="5.73016">
        <ele>619</ele>
        <time>2021-06-06T15:53:15.712Z</time>
      </trkpt>
      <trkpt lat="45.65712" lon="5.73009">
        <ele>618</ele>
        <time>2021-06-06T15:53:20.696Z</time>
      </trkpt>
      <trkpt lat="45.65705" lon="5.73001">
        <ele>620</ele>
        <time>2021-06-06T15:53:25.702Z</time>
      </trkpt>
      <trkpt lat="45.657" lon="5.72994">
        <ele>620</ele>
        <time>2021-06-06T15:53:30.709Z</time>
      </trkpt>
      <trkpt lat="45.65694" lon="5.72987">
        <ele>620</ele>
        <time>2021-06-06T15:53:35.705Z</time>
      </trkpt>
      <trkpt lat="45.65689" lon="5.72979">
        <ele>620</ele>
        <time>2021-06-06T15:53:40.699Z</time>
      </trkpt>
      <trkpt lat="45.65685" lon="5.7297">
        <ele>620</ele>
        <time>2021-06-06T15:53:45.702Z</time>
      </trkpt>
      <trkpt lat="45.65681" lon="5.72964">
        <ele>620</ele>
        <time>2021-06-06T15:53:49.693Z</time>
      </trkpt>
      <trkpt lat="45.65676" lon="5.72957">
        <ele>623</ele>
        <time>2021-06-06T15:53:54.738Z</time>
      </trkpt>
      <trkpt lat="45.65671" lon="5.72949">
        <ele>623</ele>
        <time>2021-06-06T15:53:59.710Z</time>
      </trkpt>
      <trkpt lat="45.65667" lon="5.72942">
        <ele>623</ele>
        <time>2021-06-06T15:54:03.755Z</time>
      </trkpt>
      <trkpt lat="45.65664" lon="5.72934">
        <ele>623</ele>
        <time>2021-06-06T15:54:08.700Z</time>
      </trkpt>
      <trkpt lat="45.65661" lon="5.72927">
        <ele>623</ele>
        <time>2021-06-06T15:54:12.701Z</time>
      </trkpt>
      <trkpt lat="45.65657" lon="5.7292">
        <ele>623</ele>
        <time>2021-06-06T15:54:16.735Z</time>
      </trkpt>
      <trkpt lat="45.65654" lon="5.7291">
        <ele>623</ele>
        <time>2021-06-06T15:54:21.726Z</time>
      </trkpt>
      <trkpt lat="45.65651" lon="5.729">
        <ele>624</ele>
        <time>2021-06-06T15:54:26.732Z</time>
      </trkpt>
      <trkpt lat="45.65646" lon="5.72892">
        <ele>624</ele>
        <time>2021-06-06T15:54:31.725Z</time>
      </trkpt>
      <trkpt lat="45.65643" lon="5.72881">
        <ele>624</ele>
        <time>2021-06-06T15:54:36.700Z</time>
      </trkpt>
      <trkpt lat="45.65639" lon="5.72871">
        <ele>625</ele>
        <time>2021-06-06T15:54:41.708Z</time>
      </trkpt>
      <trkpt lat="45.65635" lon="5.72865">
        <ele>625</ele>
        <time>2021-06-06T15:54:45.704Z</time>
      </trkpt>
      <trkpt lat="45.65631" lon="5.72859">
        <ele>625</ele>
        <time>2021-06-06T15:54:49.741Z</time>
      </trkpt>
      <trkpt lat="45.65626" lon="5.7285">
        <ele>625</ele>
        <time>2021-06-06T15:54:54.726Z</time>
      </trkpt>
      <trkpt lat="45.65621" lon="5.72842">
        <ele>627</ele>
        <time>2021-06-06T15:54:59.728Z</time>
      </trkpt>
      <trkpt lat="45.65616" lon="5.72836">
        <ele>627</ele>
        <time>2021-06-06T15:55:03.735Z</time>
      </trkpt>
      <trkpt lat="45.65612" lon="5.72827">
        <ele>627</ele>
        <time>2021-06-06T15:55:08.716Z</time>
      </trkpt>
      <trkpt lat="45.65606" lon="5.72819">
        <ele>627</ele>
        <time>2021-06-06T15:55:13.720Z</time>
      </trkpt>
      <trkpt lat="45.65601" lon="5.72813">
        <ele>626</ele>
        <time>2021-06-06T15:55:17.725Z</time>
      </trkpt>
      <trkpt lat="45.65596" lon="5.72806">
        <ele>628</ele>
        <time>2021-06-06T15:55:22.723Z</time>
      </trkpt>
      <trkpt lat="45.6559" lon="5.728">
        <ele>628</ele>
        <time>2021-06-06T15:55:27.721Z</time>
      </trkpt>
      <trkpt lat="45.65585" lon="5.72792">
        <ele>628</ele>
        <time>2021-06-06T15:55:32.742Z</time>
      </trkpt>
      <trkpt lat="45.65579" lon="5.72784">
        <ele>629</ele>
        <time>2021-06-06T15:55:37.725Z</time>
      </trkpt>
      <trkpt lat="45.65575" lon="5.72777">
        <ele>629</ele>
        <time>2021-06-06T15:55:42.728Z</time>
      </trkpt>
      <trkpt lat="45.65571" lon="5.72768">
        <ele>629</ele>
        <time>2021-06-06T15:55:47.736Z</time>
      </trkpt>
      <trkpt lat="45.65567" lon="5.72759">
        <ele>631</ele>
        <time>2021-06-06T15:55:52.691Z</time>
      </trkpt>
      <trkpt lat="45.65563" lon="5.72751">
        <ele>631</ele>
        <time>2021-06-06T15:55:56.699Z</time>
      </trkpt>
      <trkpt lat="45.6556" lon="5.72743">
        <ele>631</ele>
        <time>2021-06-06T15:56:00.742Z</time>
      </trkpt>
      <trkpt lat="45.65555" lon="5.72735">
        <ele>631</ele>
        <time>2021-06-06T15:56:05.734Z</time>
      </trkpt>
      <trkpt lat="45.6555" lon="5.72728">
        <ele>631</ele>
        <time>2021-06-06T15:56:10.730Z</time>
      </trkpt>
      <trkpt lat="45.65544" lon="5.72723">
        <ele>631</ele>
        <time>2021-06-06T15:56:14.734Z</time>
      </trkpt>
      <trkpt lat="45.65539" lon="5.72719">
        <ele>632</ele>
        <time>2021-06-06T15:56:18.762Z</time>
      </trkpt>
      <trkpt lat="45.65533" lon="5.72713">
        <ele>632</ele>
        <time>2021-06-06T15:56:23.765Z</time>
      </trkpt>
      <trkpt lat="45.65527" lon="5.72707">
        <ele>631</ele>
        <time>2021-06-06T15:56:28.730Z</time>
      </trkpt>
      <trkpt lat="45.6552" lon="5.72699">
        <ele>631</ele>
        <time>2021-06-06T15:56:33.759Z</time>
      </trkpt>
      <trkpt lat="45.65514" lon="5.72693">
        <ele>631</ele>
        <time>2021-06-06T15:56:38.732Z</time>
      </trkpt>
      <trkpt lat="45.65508" lon="5.72688">
        <ele>635</ele>
        <time>2021-06-06T15:56:42.749Z</time>
      </trkpt>
      <trkpt lat="45.65502" lon="5.72682">
        <ele>635</ele>
        <time>2021-06-06T15:56:47.726Z</time>
      </trkpt>
      <trkpt lat="45.65498" lon="5.72676">
        <ele>632</ele>
        <time>2021-06-06T15:56:52.694Z</time>
      </trkpt>
      <trkpt lat="45.65492" lon="5.7267">
        <ele>632</ele>
        <time>2021-06-06T15:56:57.728Z</time>
      </trkpt>
      <trkpt lat="45.65487" lon="5.72667">
        <ele>632</ele>
        <time>2021-06-06T15:57:01.723Z</time>
      </trkpt>
      <trkpt lat="45.6548" lon="5.72664">
        <ele>636</ele>
        <time>2021-06-06T15:57:06.736Z</time>
      </trkpt>
      <trkpt lat="45.65475" lon="5.72658">
        <ele>636</ele>
        <time>2021-06-06T15:57:11.730Z</time>
      </trkpt>
      <trkpt lat="45.65471" lon="5.72654">
        <ele>636</ele>
        <time>2021-06-06T15:57:15.732Z</time>
      </trkpt>
      <trkpt lat="45.65466" lon="5.7265">
        <ele>632</ele>
        <time>2021-06-06T15:57:20.706Z</time>
      </trkpt>
      <trkpt lat="45.65462" lon="5.72644">
        <ele>632</ele>
        <time>2021-06-06T15:57:24.701Z</time>
      </trkpt>
      <trkpt lat="45.6546" lon="5.72638">
        <ele>632</ele>
        <time>2021-06-06T15:57:28.758Z</time>
      </trkpt>
      <trkpt lat="45.65455" lon="5.7263">
        <ele>635</ele>
        <time>2021-06-06T15:57:33.706Z</time>
      </trkpt>
      <trkpt lat="45.6545" lon="5.72624">
        <ele>633</ele>
        <time>2021-06-06T15:57:38.730Z</time>
      </trkpt>
      <trkpt lat="45.65445" lon="5.7262">
        <ele>633</ele>
        <time>2021-06-06T15:57:43.734Z</time>
      </trkpt>
      <trkpt lat="45.6544" lon="5.72615">
        <ele>633</ele>
        <time>2021-06-06T15:57:48.726Z</time>
      </trkpt>
      <trkpt lat="45.65435" lon="5.7261">
        <ele>633</ele>
        <time>2021-06-06T15:57:53.737Z</time>
      </trkpt>
      <trkpt lat="45.6543" lon="5.72605">
        <ele>636</ele>
        <time>2021-06-06T15:57:58.733Z</time>
      </trkpt>
      <trkpt lat="45.65425" lon="5.72601">
        <ele>636</ele>
        <time>2021-06-06T15:58:02.755Z</time>
      </trkpt>
      <trkpt lat="45.6542" lon="5.72598">
        <ele>636</ele>
        <time>2021-06-06T15:58:06.763Z</time>
      </trkpt>
      <trkpt lat="45.65415" lon="5.72595">
        <ele>635</ele>
        <time>2021-06-06T15:58:11.757Z</time>
      </trkpt>
      <trkpt lat="45.65409" lon="5.72592">
        <ele>635</ele>
        <time>2021-06-06T15:58:16.780Z</time>
      </trkpt>
      <trkpt lat="45.65402" lon="5.72589">
        <ele>635</ele>
        <time>2021-06-06T15:58:21.725Z</time>
      </trkpt>
      <trkpt lat="45.65397" lon="5.72584">
        <ele>635</ele>
        <time>2021-06-06T15:58:25.734Z</time>
      </trkpt>
      <trkpt lat="45.6539" lon="5.72581">
        <ele>635</ele>
        <time>2021-06-06T15:58:30.715Z</time>
      </trkpt>
      <trkpt lat="45.65384" lon="5.72577">
        <ele>635</ele>
        <time>2021-06-06T15:58:35.735Z</time>
      </trkpt>
      <trkpt lat="45.65378" lon="5.72572">
        <ele>635</ele>
        <time>2021-06-06T15:58:40.752Z</time>
      </trkpt>
      <trkpt lat="45.65371" lon="5.72566">
        <ele>633</ele>
        <time>2021-06-06T15:58:45.692Z</time>
      </trkpt>
      <trkpt lat="45.65365" lon="5.72562">
        <ele>633</ele>
        <time>2021-06-06T15:58:49.736Z</time>
      </trkpt>
      <trkpt lat="45.65359" lon="5.72556">
        <ele>633</ele>
        <time>2021-06-06T15:58:54.764Z</time>
      </trkpt>
      <trkpt lat="45.65354" lon="5.72549">
        <ele>633</ele>
        <time>2021-06-06T15:58:59.720Z</time>
      </trkpt>
      <trkpt lat="45.6535" lon="5.72544">
        <ele>633</ele>
        <time>2021-06-06T15:59:03.740Z</time>
      </trkpt>
      <trkpt lat="45.65346" lon="5.72539">
        <ele>634</ele>
        <time>2021-06-06T15:59:07.755Z</time>
      </trkpt>
      <trkpt lat="45.65342" lon="5.72534">
        <ele>634</ele>
        <time>2021-06-06T15:59:11.767Z</time>
      </trkpt>
      <trkpt lat="45.65337" lon="5.72528">
        <ele>634</ele>
        <time>2021-06-06T15:59:15.774Z</time>
      </trkpt>
      <trkpt lat="45.65332" lon="5.72522">
        <ele>634</ele>
        <time>2021-06-06T15:59:20.766Z</time>
      </trkpt>
      <trkpt lat="45.65328" lon="5.72516">
        <ele>634</ele>
        <time>2021-06-06T15:59:24.777Z</time>
      </trkpt>
      <trkpt lat="45.65324" lon="5.72508">
        <ele>634</ele>
        <time>2021-06-06T15:59:30.717Z</time>
      </trkpt>
      <trkpt lat="45.6532" lon="5.72496">
        <ele>634</ele>
        <time>2021-06-06T15:59:35.735Z</time>
      </trkpt>
      <trkpt lat="45.65317" lon="5.72488">
        <ele>636</ele>
        <time>2021-06-06T15:59:40.732Z</time>
      </trkpt>
      <trkpt lat="45.65315" lon="5.72484">
        <ele>636</ele>
        <time>2021-06-06T15:59:45.716Z</time>
      </trkpt>
      <trkpt lat="45.65312" lon="5.72477">
        <ele>636</ele>
        <time>2021-06-06T15:59:50.736Z</time>
      </trkpt>
      <trkpt lat="45.65308" lon="5.72469">
        <ele>636</ele>
        <time>2021-06-06T15:59:55.734Z</time>
      </trkpt>
      <trkpt lat="45.65305" lon="5.72462">
        <ele>636</ele>
        <time>2021-06-06T16:00:00.726Z</time>
      </trkpt>
      <trkpt lat="45.65303" lon="5.72454">
        <ele>638</ele>
        <time>2021-06-06T16:00:05.694Z</time>
      </trkpt>
      <trkpt lat="45.65302" lon="5.72447">
        <ele>638</ele>
        <time>2021-06-06T16:00:09.725Z</time>
      </trkpt>
      <trkpt lat="45.65301" lon="5.72439">
        <ele>638</ele>
        <time>2021-06-06T16:00:13.729Z</time>
      </trkpt>
      <trkpt lat="45.65302" lon="5.72432">
        <ele>638</ele>
        <time>2021-06-06T16:00:17.754Z</time>
      </trkpt>
      <trkpt lat="45.65302" lon="5.72423">
        <ele>640</ele>
        <time>2021-06-06T16:00:21.761Z</time>
      </trkpt>
      <trkpt lat="45.65301" lon="5.72413">
        <ele>640</ele>
        <time>2021-06-06T16:00:26.716Z</time>
      </trkpt>
      <trkpt lat="45.653" lon="5.72403">
        <ele>644</ele>
        <time>2021-06-06T16:00:31.731Z</time>
      </trkpt>
      <trkpt lat="45.65299" lon="5.72395">
        <ele>644</ele>
        <time>2021-06-06T16:00:35.734Z</time>
      </trkpt>
      <trkpt lat="45.65297" lon="5.72387">
        <ele>644</ele>
        <time>2021-06-06T16:00:39.760Z</time>
      </trkpt>
      <trkpt lat="45.65295" lon="5.72377">
        <ele>644</ele>
        <time>2021-06-06T16:00:44.712Z</time>
      </trkpt>
      <trkpt lat="45.65295" lon="5.72369">
        <ele>648</ele>
        <time>2021-06-06T16:00:48.758Z</time>
      </trkpt>
      <trkpt lat="45.6529" lon="5.72362">
        <ele>649</ele>
        <time>2021-06-06T16:00:53.729Z</time>
      </trkpt>
      <trkpt lat="45.65285" lon="5.72354">
        <ele>649</ele>
        <time>2021-06-06T16:00:58.737Z</time>
      </trkpt>
      <trkpt lat="45.6528" lon="5.72348">
        <ele>649</ele>
        <time>2021-06-06T16:01:03.734Z</time>
      </trkpt>
      <trkpt lat="45.65275" lon="5.72341">
        <ele>652</ele>
        <time>2021-06-06T16:01:08.724Z</time>
      </trkpt>
      <trkpt lat="45.65272" lon="5.72333">
        <ele>652</ele>
        <time>2021-06-06T16:01:13.722Z</time>
      </trkpt>
      <trkpt lat="45.65269" lon="5.72326">
        <ele>652</ele>
        <time>2021-06-06T16:01:17.740Z</time>
      </trkpt>
      <trkpt lat="45.65268" lon="5.72318">
        <ele>654</ele>
        <time>2021-06-06T16:01:22.708Z</time>
      </trkpt>
      <trkpt lat="45.65268" lon="5.72312">
        <ele>654</ele>
        <time>2021-06-06T16:01:26.731Z</time>
      </trkpt>
      <trkpt lat="45.65272" lon="5.72304">
        <ele>654</ele>
        <time>2021-06-06T16:01:31.739Z</time>
      </trkpt>
      <trkpt lat="45.65273" lon="5.72297">
        <ele>654</ele>
        <time>2021-06-06T16:01:35.789Z</time>
      </trkpt>
      <trkpt lat="45.65273" lon="5.72288">
        <ele>656</ele>
        <time>2021-06-06T16:01:40.710Z</time>
      </trkpt>
      <trkpt lat="45.65272" lon="5.72279">
        <ele>656</ele>
        <time>2021-06-06T16:01:45.786Z</time>
      </trkpt>
      <trkpt lat="45.65275" lon="5.7227">
        <ele>656</ele>
        <time>2021-06-06T16:01:50.774Z</time>
      </trkpt>
      <trkpt lat="45.65274" lon="5.72262">
        <ele>659</ele>
        <time>2021-06-06T16:01:54.786Z</time>
      </trkpt>
      <trkpt lat="45.65274" lon="5.72252">
        <ele>659</ele>
        <time>2021-06-06T16:01:59.726Z</time>
      </trkpt>
      <trkpt lat="45.65274" lon="5.72241">
        <ele>659</ele>
        <time>2021-06-06T16:02:04.724Z</time>
      </trkpt>
      <trkpt lat="45.65275" lon="5.72233">
        <ele>661</ele>
        <time>2021-06-06T16:02:08.725Z</time>
      </trkpt>
      <trkpt lat="45.65279" lon="5.72223">
        <ele>661</ele>
        <time>2021-06-06T16:02:13.693Z</time>
      </trkpt>
      <trkpt lat="45.65278" lon="5.72211">
        <ele>661</ele>
        <time>2021-06-06T16:02:19.732Z</time>
      </trkpt>
      <trkpt lat="45.65274" lon="5.72204">
        <ele>663</ele>
        <time>2021-06-06T16:02:23.746Z</time>
      </trkpt>
      <trkpt lat="45.65269" lon="5.72197">
        <ele>663</ele>
        <time>2021-06-06T16:02:28.713Z</time>
      </trkpt>
      <trkpt lat="45.65262" lon="5.72196">
        <ele>666</ele>
        <time>2021-06-06T16:02:33.734Z</time>
      </trkpt>
      <trkpt lat="45.65256" lon="5.72195">
        <ele>666</ele>
        <time>2021-06-06T16:02:37.768Z</time>
      </trkpt>
      <trkpt lat="45.6525" lon="5.72191">
        <ele>666</ele>
        <time>2021-06-06T16:02:42.708Z</time>
      </trkpt>
      <trkpt lat="45.65244" lon="5.72188">
        <ele>666</ele>
        <time>2021-06-06T16:02:46.765Z</time>
      </trkpt>
      <trkpt lat="45.65237" lon="5.72186">
        <ele>666</ele>
        <time>2021-06-06T16:02:51.759Z</time>
      </trkpt>
      <trkpt lat="45.6523" lon="5.72183">
        <ele>672</ele>
        <time>2021-06-06T16:02:56.748Z</time>
      </trkpt>
      <trkpt lat="45.65223" lon="5.72183">
        <ele>672</ele>
        <time>2021-06-06T16:03:01.699Z</time>
      </trkpt>
      <trkpt lat="45.65218" lon="5.72181">
        <ele>672</ele>
        <time>2021-06-06T16:03:05.722Z</time>
      </trkpt>
      <trkpt lat="45.65214" lon="5.72178">
        <ele>672</ele>
        <time>2021-06-06T16:03:09.753Z</time>
      </trkpt>
      <trkpt lat="45.65209" lon="5.72171">
        <ele>672</ele>
        <time>2021-06-06T16:03:14.760Z</time>
      </trkpt>
      <trkpt lat="45.65203" lon="5.72169">
        <ele>677</ele>
        <time>2021-06-06T16:03:19.730Z</time>
      </trkpt>
      <trkpt lat="45.65197" lon="5.72165">
        <ele>677</ele>
        <time>2021-06-06T16:03:24.755Z</time>
      </trkpt>
      <trkpt lat="45.65193" lon="5.7216">
        <ele>677</ele>
        <time>2021-06-06T16:03:28.761Z</time>
      </trkpt>
      <trkpt lat="45.65187" lon="5.72158">
        <ele>677</ele>
        <time>2021-06-06T16:03:33.733Z</time>
      </trkpt>
      <trkpt lat="45.6518" lon="5.72161">
        <ele>680</ele>
        <time>2021-06-06T16:03:38.759Z</time>
      </trkpt>
      <trkpt lat="45.65175" lon="5.72165">
        <ele>680</ele>
        <time>2021-06-06T16:03:43.785Z</time>
      </trkpt>
      <trkpt lat="45.65168" lon="5.72165">
        <ele>680</ele>
        <time>2021-06-06T16:03:48.705Z</time>
      </trkpt>
      <trkpt lat="45.65164" lon="5.72168">
        <ele>680</ele>
        <time>2021-06-06T16:03:52.723Z</time>
      </trkpt>
      <trkpt lat="45.65158" lon="5.7217">
        <ele>680</ele>
        <time>2021-06-06T16:03:56.723Z</time>
      </trkpt>
      <trkpt lat="45.65151" lon="5.72173">
        <ele>681</ele>
        <time>2021-06-06T16:04:01.729Z</time>
      </trkpt>
      <trkpt lat="45.65144" lon="5.72176">
        <ele>681</ele>
        <time>2021-06-06T16:04:06.733Z</time>
      </trkpt>
      <trkpt lat="45.65138" lon="5.7218">
        <ele>681</ele>
        <time>2021-06-06T16:04:11.732Z</time>
      </trkpt>
      <trkpt lat="45.65131" lon="5.72181">
        <ele>677</ele>
        <time>2021-06-06T16:04:16.718Z</time>
      </trkpt>
      <trkpt lat="45.65124" lon="5.7218">
        <ele>683</ele>
        <time>2021-06-06T16:04:21.713Z</time>
      </trkpt>
      <trkpt lat="45.65117" lon="5.7218">
        <ele>683</ele>
        <time>2021-06-06T16:04:26.711Z</time>
      </trkpt>
      <trkpt lat="45.65112" lon="5.72183">
        <ele>678</ele>
        <time>2021-06-06T16:04:30.735Z</time>
      </trkpt>
      <trkpt lat="45.65104" lon="5.72185">
        <ele>678</ele>
        <time>2021-06-06T16:04:35.725Z</time>
      </trkpt>
      <trkpt lat="45.65099" lon="5.72186">
        <ele>678</ele>
        <time>2021-06-06T16:04:39.726Z</time>
      </trkpt>
      <trkpt lat="45.65091" lon="5.72187">
        <ele>683</ele>
        <time>2021-06-06T16:04:44.748Z</time>
      </trkpt>
      <trkpt lat="45.65083" lon="5.72189">
        <ele>683</ele>
        <time>2021-06-06T16:04:49.727Z</time>
      </trkpt>
      <trkpt lat="45.65076" lon="5.72191">
        <ele>683</ele>
        <time>2021-06-06T16:04:54.733Z</time>
      </trkpt>
      <trkpt lat="45.65069" lon="5.72192">
        <ele>687</ele>
        <time>2021-06-06T16:04:59.701Z</time>
      </trkpt>
      <trkpt lat="45.65063" lon="5.72194">
        <ele>687</ele>
        <time>2021-06-06T16:05:04.761Z</time>
      </trkpt>
      <trkpt lat="45.65056" lon="5.72196">
        <ele>687</ele>
        <time>2021-06-06T16:05:09.724Z</time>
      </trkpt>
      <trkpt lat="45.65051" lon="5.72199">
        <ele>687</ele>
        <time>2021-06-06T16:05:13.730Z</time>
      </trkpt>
      <trkpt lat="45.65045" lon="5.722">
        <ele>687</ele>
        <time>2021-06-06T16:05:18.698Z</time>
      </trkpt>
      <trkpt lat="45.65038" lon="5.72201">
        <ele>689</ele>
        <time>2021-06-06T16:05:23.723Z</time>
      </trkpt>
      <trkpt lat="45.65031" lon="5.72204">
        <ele>689</ele>
        <time>2021-06-06T16:05:28.691Z</time>
      </trkpt>
      <trkpt lat="45.65026" lon="5.72205">
        <ele>689</ele>
        <time>2021-06-06T16:05:32.721Z</time>
      </trkpt>
      <trkpt lat="45.65019" lon="5.72208">
        <ele>689</ele>
        <time>2021-06-06T16:05:37.694Z</time>
      </trkpt>
      <trkpt lat="45.65014" lon="5.72211">
        <ele>685</ele>
        <time>2021-06-06T16:05:41.736Z</time>
      </trkpt>
      <trkpt lat="45.65007" lon="5.72214">
        <ele>685</ele>
        <time>2021-06-06T16:05:46.740Z</time>
      </trkpt>
      <trkpt lat="45.65" lon="5.72217">
        <ele>685</ele>
        <time>2021-06-06T16:05:51.698Z</time>
      </trkpt>
      <trkpt lat="45.64994" lon="5.72219">
        <ele>685</ele>
        <time>2021-06-06T16:05:55.729Z</time>
      </trkpt>
      <trkpt lat="45.64988" lon="5.7222">
        <ele>685</ele>
        <time>2021-06-06T16:05:59.734Z</time>
      </trkpt>
      <trkpt lat="45.6498" lon="5.7222">
        <ele>685</ele>
        <time>2021-06-06T16:06:04.730Z</time>
      </trkpt>
      <trkpt lat="45.64974" lon="5.72221">
        <ele>685</ele>
        <time>2021-06-06T16:06:08.744Z</time>
      </trkpt>
      <trkpt lat="45.64967" lon="5.72222">
        <ele>685</ele>
        <time>2021-06-06T16:06:13.728Z</time>
      </trkpt>
      <trkpt lat="45.64959" lon="5.7222">
        <ele>685</ele>
        <time>2021-06-06T16:06:18.735Z</time>
      </trkpt>
      <trkpt lat="45.64952" lon="5.7222">
        <ele>683</ele>
        <time>2021-06-06T16:06:23.730Z</time>
      </trkpt>
      <trkpt lat="45.64946" lon="5.7222">
        <ele>683</ele>
        <time>2021-06-06T16:06:27.722Z</time>
      </trkpt>
      <trkpt lat="45.64939" lon="5.72218">
        <ele>683</ele>
        <time>2021-06-06T16:06:32.712Z</time>
      </trkpt>
      <trkpt lat="45.64931" lon="5.72216">
        <ele>683</ele>
        <time>2021-06-06T16:06:36.723Z</time>
      </trkpt>
      <trkpt lat="45.64922" lon="5.72211">
        <ele>683</ele>
        <time>2021-06-06T16:06:40.720Z</time>
      </trkpt>
      <trkpt lat="45.64911" lon="5.72204">
        <ele>686</ele>
        <time>2021-06-06T16:06:45.713Z</time>
      </trkpt>
      <trkpt lat="45.64905" lon="5.72202">
        <ele>686</ele>
        <time>2021-06-06T16:06:50.723Z</time>
      </trkpt>
      <trkpt lat="45.64899" lon="5.72203">
        <ele>686</ele>
        <time>2021-06-06T16:06:54.757Z</time>
      </trkpt>
      <trkpt lat="45.64892" lon="5.72204">
        <ele>686</ele>
        <time>2021-06-06T16:06:59.728Z</time>
      </trkpt>
      <trkpt lat="45.64886" lon="5.72206">
        <ele>686</ele>
        <time>2021-06-06T16:07:03.736Z</time>
      </trkpt>
      <trkpt lat="45.64879" lon="5.72205">
        <ele>686</ele>
        <time>2021-06-06T16:07:08.732Z</time>
      </trkpt>
      <trkpt lat="45.64872" lon="5.72204">
        <ele>687</ele>
        <time>2021-06-06T16:07:13.719Z</time>
      </trkpt>
      <trkpt lat="45.64865" lon="5.72205">
        <ele>687</ele>
        <time>2021-06-06T16:07:18.739Z</time>
      </trkpt>
      <trkpt lat="45.64859" lon="5.72207">
        <ele>687</ele>
        <time>2021-06-06T16:07:23.693Z</time>
      </trkpt>
      <trkpt lat="45.64853" lon="5.72208">
        <ele>687</ele>
        <time>2021-06-06T16:07:27.703Z</time>
      </trkpt>
      <trkpt lat="45.64849" lon="5.72211">
        <ele>683</ele>
        <time>2021-06-06T16:07:31.718Z</time>
      </trkpt>
      <trkpt lat="45.64844" lon="5.72215">
        <ele>685</ele>
        <time>2021-06-06T16:07:35.722Z</time>
      </trkpt>
      <trkpt lat="45.64839" lon="5.72218">
        <ele>685</ele>
        <time>2021-06-06T16:07:39.724Z</time>
      </trkpt>
      <trkpt lat="45.64833" lon="5.72223">
        <ele>685</ele>
        <time>2021-06-06T16:07:44.740Z</time>
      </trkpt>
      <trkpt lat="45.64828" lon="5.7223">
        <ele>685</ele>
        <time>2021-06-06T16:07:49.720Z</time>
      </trkpt>
      <trkpt lat="45.64823" lon="5.72238">
        <ele>679</ele>
        <time>2021-06-06T16:07:53.726Z</time>
      </trkpt>
      <trkpt lat="45.64816" lon="5.72242">
        <ele>678</ele>
        <time>2021-06-06T16:07:58.699Z</time>
      </trkpt>
      <trkpt lat="45.6481" lon="5.72246">
        <ele>678</ele>
        <time>2021-06-06T16:08:02.740Z</time>
      </trkpt>
      <trkpt lat="45.64803" lon="5.72251">
        <ele>678</ele>
        <time>2021-06-06T16:08:07.716Z</time>
      </trkpt>
      <trkpt lat="45.64798" lon="5.72256">
        <ele>678</ele>
        <time>2021-06-06T16:08:11.727Z</time>
      </trkpt>
      <trkpt lat="45.64794" lon="5.72261">
        <ele>678</ele>
        <time>2021-06-06T16:08:15.736Z</time>
      </trkpt>
      <trkpt lat="45.64786" lon="5.72264">
        <ele>670</ele>
        <time>2021-06-06T16:08:20.723Z</time>
      </trkpt>
      <trkpt lat="45.64777" lon="5.72265">
        <ele>670</ele>
        <time>2021-06-06T16:08:25.741Z</time>
      </trkpt>
      <trkpt lat="45.64771" lon="5.72267">
        <ele>670</ele>
        <time>2021-06-06T16:08:29.742Z</time>
      </trkpt>
      <trkpt lat="45.64758" lon="5.72269">
        <ele>671</ele>
        <time>2021-06-06T16:08:34.742Z</time>
      </trkpt>
      <trkpt lat="45.64751" lon="5.7227">
        <ele>671</ele>
        <time>2021-06-06T16:08:39.726Z</time>
      </trkpt>
      <trkpt lat="45.64743" lon="5.72267">
        <ele>671</ele>
        <time>2021-06-06T16:08:44.731Z</time>
      </trkpt>
      <trkpt lat="45.64737" lon="5.72267">
        <ele>671</ele>
        <time>2021-06-06T16:08:48.752Z</time>
      </trkpt>
      <trkpt lat="45.64731" lon="5.72268">
        <ele>673</ele>
        <time>2021-06-06T16:08:53.736Z</time>
      </trkpt>
      <trkpt lat="45.64723" lon="5.72268">
        <ele>673</ele>
        <time>2021-06-06T16:08:58.730Z</time>
      </trkpt>
      <trkpt lat="45.64715" lon="5.72271">
        <ele>673</ele>
        <time>2021-06-06T16:09:03.729Z</time>
      </trkpt>
      <trkpt lat="45.64708" lon="5.72277">
        <ele>672</ele>
        <time>2021-06-06T16:09:08.696Z</time>
      </trkpt>
      <trkpt lat="45.64704" lon="5.72283">
        <ele>672</ele>
        <time>2021-06-06T16:09:12.738Z</time>
      </trkpt>
      <trkpt lat="45.64697" lon="5.72289">
        <ele>672</ele>
        <time>2021-06-06T16:09:17.729Z</time>
      </trkpt>
      <trkpt lat="45.6469" lon="5.72294">
        <ele>666</ele>
        <time>2021-06-06T16:09:22.722Z</time>
      </trkpt>
      <trkpt lat="45.64685" lon="5.72297">
        <ele>666</ele>
        <time>2021-06-06T16:09:26.730Z</time>
      </trkpt>
      <trkpt lat="45.6468" lon="5.72303">
        <ele>667</ele>
        <time>2021-06-06T16:09:31.742Z</time>
      </trkpt>
      <trkpt lat="45.64673" lon="5.72307">
        <ele>667</ele>
        <time>2021-06-06T16:09:36.719Z</time>
      </trkpt>
      <trkpt lat="45.64667" lon="5.72311">
        <ele>667</ele>
        <time>2021-06-06T16:09:40.722Z</time>
      </trkpt>
      <trkpt lat="45.64661" lon="5.72315">
        <ele>667</ele>
        <time>2021-06-06T16:09:44.726Z</time>
      </trkpt>
      <trkpt lat="45.64655" lon="5.72322">
        <ele>662</ele>
        <time>2021-06-06T16:09:49.724Z</time>
      </trkpt>
      <trkpt lat="45.64648" lon="5.72329">
        <ele>664</ele>
        <time>2021-06-06T16:09:54.729Z</time>
      </trkpt>
      <trkpt lat="45.64642" lon="5.72337">
        <ele>664</ele>
        <time>2021-06-06T16:09:59.724Z</time>
      </trkpt>
      <trkpt lat="45.64638" lon="5.72346">
        <ele>664</ele>
        <time>2021-06-06T16:10:04.730Z</time>
      </trkpt>
      <trkpt lat="45.64634" lon="5.72355">
        <ele>660</ele>
        <time>2021-06-06T16:10:09.718Z</time>
      </trkpt>
      <trkpt lat="45.6463" lon="5.72361">
        <ele>660</ele>
        <time>2021-06-06T16:10:13.723Z</time>
      </trkpt>
      <trkpt lat="45.64624" lon="5.72362">
        <ele>659</ele>
        <time>2021-06-06T16:10:18.735Z</time>
      </trkpt>
      <trkpt lat="45.64617" lon="5.72363">
        <ele>659</ele>
        <time>2021-06-06T16:10:23.721Z</time>
      </trkpt>
      <trkpt lat="45.64611" lon="5.72364">
        <ele>659</ele>
        <time>2021-06-06T16:10:28.719Z</time>
      </trkpt>
      <trkpt lat="45.64604" lon="5.72363">
        <ele>659</ele>
        <time>2021-06-06T16:10:33.715Z</time>
      </trkpt>
      <trkpt lat="45.646" lon="5.72366">
        <ele>659</ele>
        <time>2021-06-06T16:10:37.713Z</time>
      </trkpt>
      <trkpt lat="45.64596" lon="5.72372">
        <ele>659</ele>
        <time>2021-06-06T16:10:41.722Z</time>
      </trkpt>
      <trkpt lat="45.64592" lon="5.72381">
        <ele>655</ele>
        <time>2021-06-06T16:10:46.718Z</time>
      </trkpt>
      <trkpt lat="45.6459" lon="5.72391">
        <ele>655</ele>
        <time>2021-06-06T16:10:51.704Z</time>
      </trkpt>
      <trkpt lat="45.64586" lon="5.724">
        <ele>655</ele>
        <time>2021-06-06T16:10:56.747Z</time>
      </trkpt>
      <trkpt lat="45.64584" lon="5.7241">
        <ele>652</ele>
        <time>2021-06-06T16:11:01.723Z</time>
      </trkpt>
      <trkpt lat="45.64583" lon="5.72418">
        <ele>652</ele>
        <time>2021-06-06T16:11:06.736Z</time>
      </trkpt>
      <trkpt lat="45.64582" lon="5.72426">
        <ele>652</ele>
        <time>2021-06-06T16:11:11.730Z</time>
      </trkpt>
      <trkpt lat="45.64585" lon="5.72435">
        <ele>651</ele>
        <time>2021-06-06T16:11:16.765Z</time>
      </trkpt>
      <trkpt lat="45.64587" lon="5.72443">
        <ele>651</ele>
        <time>2021-06-06T16:11:21.768Z</time>
      </trkpt>
      <trkpt lat="45.64588" lon="5.72451">
        <ele>651</ele>
        <time>2021-06-06T16:11:25.769Z</time>
      </trkpt>
      <trkpt lat="45.64588" lon="5.7246">
        <ele>648</ele>
        <time>2021-06-06T16:11:30.722Z</time>
      </trkpt>
      <trkpt lat="45.64591" lon="5.7247">
        <ele>648</ele>
        <time>2021-06-06T16:11:35.739Z</time>
      </trkpt>
      <trkpt lat="45.64591" lon="5.7248">
        <ele>648</ele>
        <time>2021-06-06T16:11:40.725Z</time>
      </trkpt>
      <trkpt lat="45.64588" lon="5.72485">
        <ele>648</ele>
        <time>2021-06-06T16:11:44.731Z</time>
      </trkpt>
      <trkpt lat="45.64583" lon="5.7249">
        <ele>644</ele>
        <time>2021-06-06T16:11:49.718Z</time>
      </trkpt>
      <trkpt lat="45.64578" lon="5.72491">
        <ele>644</ele>
        <time>2021-06-06T16:11:53.722Z</time>
      </trkpt>
      <trkpt lat="45.64571" lon="5.72491">
        <ele>644</ele>
        <time>2021-06-06T16:11:58.733Z</time>
      </trkpt>
      <trkpt lat="45.64565" lon="5.72492">
        <ele>647</ele>
        <time>2021-06-06T16:12:03.721Z</time>
      </trkpt>
      <trkpt lat="45.64559" lon="5.72494">
        <ele>647</ele>
        <time>2021-06-06T16:12:07.721Z</time>
      </trkpt>
      <trkpt lat="45.64553" lon="5.72496">
        <ele>647</ele>
        <time>2021-06-06T16:12:12.726Z</time>
      </trkpt>
      <trkpt lat="45.64546" lon="5.72497">
        <ele>647</ele>
        <time>2021-06-06T16:12:17.750Z</time>
      </trkpt>
      <trkpt lat="45.6454" lon="5.725">
        <ele>647</ele>
        <time>2021-06-06T16:12:22.708Z</time>
      </trkpt>
      <trkpt lat="45.64534" lon="5.725">
        <ele>647</ele>
        <time>2021-06-06T16:12:27.722Z</time>
      </trkpt>
      <trkpt lat="45.64528" lon="5.72501">
        <ele>647</ele>
        <time>2021-06-06T16:12:32.712Z</time>
      </trkpt>
      <trkpt lat="45.64523" lon="5.725">
        <ele>647</ele>
        <time>2021-06-06T16:12:36.733Z</time>
      </trkpt>
      <trkpt lat="45.64517" lon="5.72499">
        <ele>647</ele>
        <time>2021-06-06T16:12:41.696Z</time>
      </trkpt>
      <trkpt lat="45.6451" lon="5.72498">
        <ele>649</ele>
        <time>2021-06-06T16:12:46.705Z</time>
      </trkpt>
      <trkpt lat="45.64505" lon="5.72498">
        <ele>649</ele>
        <time>2021-06-06T16:12:50.763Z</time>
      </trkpt>
      <trkpt lat="45.64498" lon="5.72497">
        <ele>649</ele>
        <time>2021-06-06T16:12:55.688Z</time>
      </trkpt>
      <trkpt lat="45.64493" lon="5.72495">
        <ele>649</ele>
        <time>2021-06-06T16:12:59.705Z</time>
      </trkpt>
      <trkpt lat="45.64486" lon="5.72494">
        <ele>649</ele>
        <time>2021-06-06T16:13:04.714Z</time>
      </trkpt>
      <trkpt lat="45.6448" lon="5.72494">
        <ele>648</ele>
        <time>2021-06-06T16:13:08.733Z</time>
      </trkpt>
      <trkpt lat="45.64472" lon="5.72489">
        <ele>648</ele>
        <time>2021-06-06T16:13:13.716Z</time>
      </trkpt>
      <trkpt lat="45.64466" lon="5.72486">
        <ele>656</ele>
        <time>2021-06-06T16:13:17.728Z</time>
      </trkpt>
      <trkpt lat="45.64461" lon="5.72484">
        <ele>656</ele>
        <time>2021-06-06T16:13:21.736Z</time>
      </trkpt>
      <trkpt lat="45.64454" lon="5.7248">
        <ele>658</ele>
        <time>2021-06-06T16:13:26.777Z</time>
      </trkpt>
      <trkpt lat="45.64448" lon="5.72477">
        <ele>658</ele>
        <time>2021-06-06T16:13:31.736Z</time>
      </trkpt>
      <trkpt lat="45.64442" lon="5.72473">
        <ele>658</ele>
        <time>2021-06-06T16:13:36.734Z</time>
      </trkpt>
      <trkpt lat="45.64436" lon="5.72471">
        <ele>658</ele>
        <time>2021-06-06T16:13:41.731Z</time>
      </trkpt>
      <trkpt lat="45.64428" lon="5.72465">
        <ele>659</ele>
        <time>2021-06-06T16:13:46.715Z</time>
      </trkpt>
      <trkpt lat="45.64422" lon="5.72463">
        <ele>659</ele>
        <time>2021-06-06T16:13:50.718Z</time>
      </trkpt>
      <trkpt lat="45.64415" lon="5.7246">
        <ele>659</ele>
        <time>2021-06-06T16:13:55.696Z</time>
      </trkpt>
      <trkpt lat="45.6441" lon="5.72456">
        <ele>666</ele>
        <time>2021-06-06T16:13:59.722Z</time>
      </trkpt>
      <trkpt lat="45.64403" lon="5.72453">
        <ele>666</ele>
        <time>2021-06-06T16:14:04.724Z</time>
      </trkpt>
      <trkpt lat="45.64399" lon="5.72451">
        <ele>666</ele>
        <time>2021-06-06T16:14:08.731Z</time>
      </trkpt>
      <trkpt lat="45.64392" lon="5.72448">
        <ele>666</ele>
        <time>2021-06-06T16:14:13.720Z</time>
      </trkpt>
      <trkpt lat="45.64386" lon="5.72444">
        <ele>666</ele>
        <time>2021-06-06T16:14:18.733Z</time>
      </trkpt>
      <trkpt lat="45.6438" lon="5.72441">
        <ele>666</ele>
        <time>2021-06-06T16:14:23.726Z</time>
      </trkpt>
      <trkpt lat="45.64374" lon="5.72439">
        <ele>665</ele>
        <time>2021-06-06T16:14:28.726Z</time>
      </trkpt>
      <trkpt lat="45.64369" lon="5.72438">
        <ele>665</ele>
        <time>2021-06-06T16:14:32.753Z</time>
      </trkpt>
      <trkpt lat="45.64362" lon="5.72435">
        <ele>665</ele>
        <time>2021-06-06T16:14:37.737Z</time>
      </trkpt>
      <trkpt lat="45.64355" lon="5.72433">
        <ele>665</ele>
        <time>2021-06-06T16:14:42.753Z</time>
      </trkpt>
      <trkpt lat="45.64349" lon="5.72431">
        <ele>665</ele>
        <time>2021-06-06T16:14:47.721Z</time>
      </trkpt>
      <trkpt lat="45.64344" lon="5.72429">
        <ele>666</ele>
        <time>2021-06-06T16:14:51.757Z</time>
      </trkpt>
      <trkpt lat="45.64338" lon="5.72426">
        <ele>666</ele>
        <time>2021-06-06T16:14:56.715Z</time>
      </trkpt>
      <trkpt lat="45.64333" lon="5.72425">
        <ele>666</ele>
        <time>2021-06-06T16:15:01.690Z</time>
      </trkpt>
      <trkpt lat="45.64328" lon="5.72425">
        <ele>666</ele>
        <time>2021-06-06T16:15:05.723Z</time>
      </trkpt>
      <trkpt lat="45.64321" lon="5.72423">
        <ele>666</ele>
        <time>2021-06-06T16:15:10.692Z</time>
      </trkpt>
      <trkpt lat="45.64316" lon="5.72425">
        <ele>664</ele>
        <time>2021-06-06T16:15:14.728Z</time>
      </trkpt>
      <trkpt lat="45.64311" lon="5.72424">
        <ele>664</ele>
        <time>2021-06-06T16:15:18.727Z</time>
      </trkpt>
      <trkpt lat="45.64306" lon="5.72424">
        <ele>664</ele>
        <time>2021-06-06T16:15:22.768Z</time>
      </trkpt>
      <trkpt lat="45.64299" lon="5.72423">
        <ele>664</ele>
        <time>2021-06-06T16:15:27.692Z</time>
      </trkpt>
      <trkpt lat="45.64295" lon="5.7242">
        <ele>664</ele>
        <time>2021-06-06T16:15:31.703Z</time>
      </trkpt>
      <trkpt lat="45.64289" lon="5.72416">
        <ele>660</ele>
        <time>2021-06-06T16:15:36.774Z</time>
      </trkpt>
      <trkpt lat="45.64284" lon="5.72414">
        <ele>660</ele>
        <time>2021-06-06T16:15:40.789Z</time>
      </trkpt>
      <trkpt lat="45.64279" lon="5.72411">
        <ele>660</ele>
        <time>2021-06-06T16:15:45.731Z</time>
      </trkpt>
      <trkpt lat="45.64273" lon="5.72409">
        <ele>660</ele>
        <time>2021-06-06T16:15:50.771Z</time>
      </trkpt>
      <trkpt lat="45.64266" lon="5.72406">
        <ele>660</ele>
        <time>2021-06-06T16:15:55.758Z</time>
      </trkpt>
      <trkpt lat="45.6426" lon="5.72402">
        <ele>660</ele>
        <time>2021-06-06T16:16:00.735Z</time>
      </trkpt>
      <trkpt lat="45.64255" lon="5.724">
        <ele>660</ele>
        <time>2021-06-06T16:16:04.754Z</time>
      </trkpt>
      <trkpt lat="45.6425" lon="5.72401">
        <ele>660</ele>
        <time>2021-06-06T16:16:08.762Z</time>
      </trkpt>
      <trkpt lat="45.64244" lon="5.724">
        <ele>660</ele>
        <time>2021-06-06T16:16:13.724Z</time>
      </trkpt>
      <trkpt lat="45.64237" lon="5.724">
        <ele>660</ele>
        <time>2021-06-06T16:16:18.696Z</time>
      </trkpt>
      <trkpt lat="45.64232" lon="5.72399">
        <ele>661</ele>
        <time>2021-06-06T16:16:22.748Z</time>
      </trkpt>
      <trkpt lat="45.64224" lon="5.72397">
        <ele>661</ele>
        <time>2021-06-06T16:16:27.721Z</time>
      </trkpt>
      <trkpt lat="45.64218" lon="5.72398">
        <ele>661</ele>
        <time>2021-06-06T16:16:32.744Z</time>
      </trkpt>
      <trkpt lat="45.64212" lon="5.72399">
        <ele>661</ele>
        <time>2021-06-06T16:16:37.725Z</time>
      </trkpt>
      <trkpt lat="45.64205" lon="5.724">
        <ele>663</ele>
        <time>2021-06-06T16:16:42.733Z</time>
      </trkpt>
      <trkpt lat="45.64198" lon="5.72401">
        <ele>663</ele>
        <time>2021-06-06T16:16:47.722Z</time>
      </trkpt>
      <trkpt lat="45.64191" lon="5.72403">
        <ele>663</ele>
        <time>2021-06-06T16:16:52.700Z</time>
      </trkpt>
      <trkpt lat="45.64186" lon="5.72403">
        <ele>663</ele>
        <time>2021-06-06T16:16:56.713Z</time>
      </trkpt>
      <trkpt lat="45.64181" lon="5.72404">
        <ele>658</ele>
        <time>2021-06-06T16:17:00.719Z</time>
      </trkpt>
      <trkpt lat="45.64174" lon="5.72404">
        <ele>657</ele>
        <time>2021-06-06T16:17:05.703Z</time>
      </trkpt>
      <trkpt lat="45.64168" lon="5.72405">
        <ele>657</ele>
        <time>2021-06-06T16:17:09.716Z</time>
      </trkpt>
      <trkpt lat="45.64162" lon="5.72406">
        <ele>657</ele>
        <time>2021-06-06T16:17:14.720Z</time>
      </trkpt>
      <trkpt lat="45.64157" lon="5.72404">
        <ele>657</ele>
        <time>2021-06-06T16:17:18.739Z</time>
      </trkpt>
      <trkpt lat="45.64151" lon="5.72401">
        <ele>660</ele>
        <time>2021-06-06T16:17:23.718Z</time>
      </trkpt>
      <trkpt lat="45.64146" lon="5.72401">
        <ele>660</ele>
        <time>2021-06-06T16:17:28.709Z</time>
      </trkpt>
      <trkpt lat="45.64139" lon="5.724">
        <ele>660</ele>
        <time>2021-06-06T16:17:33.708Z</time>
      </trkpt>
      <trkpt lat="45.64134" lon="5.72399">
        <ele>660</ele>
        <time>2021-06-06T16:17:37.706Z</time>
      </trkpt>
      <trkpt lat="45.64129" lon="5.72398">
        <ele>660</ele>
        <time>2021-06-06T16:17:41.687Z</time>
      </trkpt>
      <trkpt lat="45.64122" lon="5.72394">
        <ele>657</ele>
        <time>2021-06-06T16:17:46.720Z</time>
      </trkpt>
      <trkpt lat="45.64115" lon="5.72388">
        <ele>657</ele>
        <time>2021-06-06T16:17:51.715Z</time>
      </trkpt>
      <trkpt lat="45.64109" lon="5.72385">
        <ele>657</ele>
        <time>2021-06-06T16:17:55.722Z</time>
      </trkpt>
      <trkpt lat="45.64105" lon="5.72382">
        <ele>657</ele>
        <time>2021-06-06T16:17:59.737Z</time>
      </trkpt>
      <trkpt lat="45.64099" lon="5.72377">
        <ele>657</ele>
        <time>2021-06-06T16:18:04.732Z</time>
      </trkpt>
      <trkpt lat="45.64093" lon="5.72374">
        <ele>657</ele>
        <time>2021-06-06T16:18:09.768Z</time>
      </trkpt>
      <trkpt lat="45.64087" lon="5.72373">
        <ele>657</ele>
        <time>2021-06-06T16:18:14.733Z</time>
      </trkpt>
      <trkpt lat="45.64081" lon="5.72372">
        <ele>657</ele>
        <time>2021-06-06T16:18:18.745Z</time>
      </trkpt>
      <trkpt lat="45.64075" lon="5.72367">
        <ele>657</ele>
        <time>2021-06-06T16:18:23.753Z</time>
      </trkpt>
      <trkpt lat="45.64071" lon="5.72361">
        <ele>657</ele>
        <time>2021-06-06T16:18:28.732Z</time>
      </trkpt>
      <trkpt lat="45.64067" lon="5.72356">
        <ele>655</ele>
        <time>2021-06-06T16:18:32.756Z</time>
      </trkpt>
      <trkpt lat="45.64063" lon="5.72351">
        <ele>655</ele>
        <time>2021-06-06T16:18:36.764Z</time>
      </trkpt>
      <trkpt lat="45.64058" lon="5.72344">
        <ele>657</ele>
        <time>2021-06-06T16:18:41.767Z</time>
      </trkpt>
      <trkpt lat="45.64054" lon="5.72337">
        <ele>657</ele>
        <time>2021-06-06T16:18:46.755Z</time>
      </trkpt>
      <trkpt lat="45.64048" lon="5.72332">
        <ele>657</ele>
        <time>2021-06-06T16:18:51.719Z</time>
      </trkpt>
      <trkpt lat="45.64042" lon="5.7233">
        <ele>657</ele>
        <time>2021-06-06T16:18:56.750Z</time>
      </trkpt>
      <trkpt lat="45.64034" lon="5.72327">
        <ele>657</ele>
        <time>2021-06-06T16:19:01.735Z</time>
      </trkpt>
      <trkpt lat="45.64026" lon="5.72326">
        <ele>657</ele>
        <time>2021-06-06T16:19:06.704Z</time>
      </trkpt>
      <trkpt lat="45.64018" lon="5.72326">
        <ele>657</ele>
        <time>2021-06-06T16:19:11.701Z</time>
      </trkpt>
      <trkpt lat="45.64013" lon="5.72324">
        <ele>658</ele>
        <time>2021-06-06T16:19:15.776Z</time>
      </trkpt>
      <trkpt lat="45.64007" lon="5.72321">
        <ele>658</ele>
        <time>2021-06-06T16:19:20.722Z</time>
      </trkpt>
      <trkpt lat="45.63999" lon="5.72319">
        <ele>663</ele>
        <time>2021-06-06T16:19:24.734Z</time>
      </trkpt>
      <trkpt lat="45.63991" lon="5.72315">
        <ele>663</ele>
        <time>2021-06-06T16:19:29.698Z</time>
      </trkpt>
      <trkpt lat="45.63986" lon="5.72317">
        <ele>664</ele>
        <time>2021-06-06T16:19:33.742Z</time>
      </trkpt>
      <trkpt lat="45.63981" lon="5.72318">
        <ele>664</ele>
        <time>2021-06-06T16:19:37.742Z</time>
      </trkpt>
      <trkpt lat="45.63976" lon="5.72324">
        <ele>659</ele>
        <time>2021-06-06T16:19:42.724Z</time>
      </trkpt>
      <trkpt lat="45.63975" lon="5.7233">
        <ele>659</ele>
        <time>2021-06-06T16:19:46.740Z</time>
      </trkpt>
      <trkpt lat="45.6397" lon="5.72328">
        <ele>659</ele>
        <time>2021-06-06T16:19:51.778Z</time>
      </trkpt>
      <trkpt lat="45.63966" lon="5.72324">
        <ele>659</ele>
        <time>2021-06-06T16:19:56.717Z</time>
      </trkpt>
      <trkpt lat="45.6396" lon="5.72321">
        <ele>659</ele>
        <time>2021-06-06T16:20:01.695Z</time>
      </trkpt>
      <trkpt lat="45.63959" lon="5.72321">
        <ele>659</ele>
        <time>2021-06-06T16:20:05.720Z</time>
      </trkpt>
      <trkpt lat="45.63958" lon="5.7232">
        <ele>658</ele>
        <time>2021-06-06T16:20:09.732Z</time>
      </trkpt>
      <trkpt lat="45.63953" lon="5.72321">
        <ele>658</ele>
        <time>2021-06-06T16:20:14.709Z</time>
      </trkpt>
      <trkpt lat="45.63949" lon="5.72322">
        <ele>658</ele>
        <time>2021-06-06T16:20:18.788Z</time>
      </trkpt>
      <trkpt lat="45.63944" lon="5.72322">
        <ele>658</ele>
        <time>2021-06-06T16:20:23.765Z</time>
      </trkpt>
      <trkpt lat="45.63939" lon="5.72323">
        <ele>658</ele>
        <time>2021-06-06T16:20:28.724Z</time>
      </trkpt>
      <trkpt lat="45.63934" lon="5.72323">
        <ele>658</ele>
        <time>2021-06-06T16:20:32.733Z</time>
      </trkpt>
      <trkpt lat="45.6393" lon="5.72323">
        <ele>658</ele>
        <time>2021-06-06T16:20:36.743Z</time>
      </trkpt>
      <trkpt lat="45.63925" lon="5.72321">
        <ele>658</ele>
        <time>2021-06-06T16:20:41.759Z</time>
      </trkpt>
      <trkpt lat="45.6392" lon="5.72319">
        <ele>665</ele>
        <time>2021-06-06T16:20:46.735Z</time>
      </trkpt>
      <trkpt lat="45.63912" lon="5.7232">
        <ele>658</ele>
        <time>2021-06-06T16:20:51.725Z</time>
      </trkpt>
      <trkpt lat="45.63903" lon="5.72322">
        <ele>658</ele>
        <time>2021-06-06T16:20:56.758Z</time>
      </trkpt>
      <trkpt lat="45.63895" lon="5.72323">
        <ele>660</ele>
        <time>2021-06-06T16:21:01.723Z</time>
      </trkpt>
      <trkpt lat="45.63889" lon="5.72323">
        <ele>660</ele>
        <time>2021-06-06T16:21:05.717Z</time>
      </trkpt>
      <trkpt lat="45.63883" lon="5.72327">
        <ele>660</ele>
        <time>2021-06-06T16:21:10.736Z</time>
      </trkpt>
      <trkpt lat="45.63879" lon="5.72329">
        <ele>660</ele>
        <time>2021-06-06T16:21:14.727Z</time>
      </trkpt>
      <trkpt lat="45.63871" lon="5.72328">
        <ele>662</ele>
        <time>2021-06-06T16:21:19.719Z</time>
      </trkpt>
      <trkpt lat="45.63867" lon="5.72326">
        <ele>662</ele>
        <time>2021-06-06T16:21:23.733Z</time>
      </trkpt>
      <trkpt lat="45.63861" lon="5.72325">
        <ele>662</ele>
        <time>2021-06-06T16:21:28.730Z</time>
      </trkpt>
      <trkpt lat="45.63855" lon="5.72325">
        <ele>662</ele>
        <time>2021-06-06T16:21:32.723Z</time>
      </trkpt>
      <trkpt lat="45.63851" lon="5.72325">
        <ele>662</ele>
        <time>2021-06-06T16:21:36.742Z</time>
      </trkpt>
      <trkpt lat="45.63843" lon="5.72327">
        <ele>662</ele>
        <time>2021-06-06T16:21:41.717Z</time>
      </trkpt>
      <trkpt lat="45.63837" lon="5.7233">
        <ele>662</ele>
        <time>2021-06-06T16:21:45.732Z</time>
      </trkpt>
      <trkpt lat="45.6383" lon="5.72331">
        <ele>662</ele>
        <time>2021-06-06T16:21:50.705Z</time>
      </trkpt>
      <trkpt lat="45.6382" lon="5.72329">
        <ele>662</ele>
        <time>2021-06-06T16:21:55.700Z</time>
      </trkpt>
      <trkpt lat="45.63818" lon="5.72328">
        <ele>659</ele>
        <time>2021-06-06T16:21:59.733Z</time>
      </trkpt>
      <trkpt lat="45.6381" lon="5.72328">
        <ele>659</ele>
        <time>2021-06-06T16:22:04.762Z</time>
      </trkpt>
      <trkpt lat="45.63802" lon="5.72329">
        <ele>659</ele>
        <time>2021-06-06T16:22:09.717Z</time>
      </trkpt>
      <trkpt lat="45.63797" lon="5.72329">
        <ele>659</ele>
        <time>2021-06-06T16:22:13.736Z</time>
      </trkpt>
      <trkpt lat="45.63789" lon="5.7233">
        <ele>659</ele>
        <time>2021-06-06T16:22:18.724Z</time>
      </trkpt>
      <trkpt lat="45.63784" lon="5.72329">
        <ele>659</ele>
        <time>2021-06-06T16:22:22.746Z</time>
      </trkpt>
      <trkpt lat="45.63777" lon="5.72327">
        <ele>659</ele>
        <time>2021-06-06T16:22:27.733Z</time>
      </trkpt>
      <trkpt lat="45.63769" lon="5.72327">
        <ele>659</ele>
        <time>2021-06-06T16:22:32.704Z</time>
      </trkpt>
      <trkpt lat="45.63764" lon="5.72327">
        <ele>659</ele>
        <time>2021-06-06T16:22:36.714Z</time>
      </trkpt>
      <trkpt lat="45.63759" lon="5.72325">
        <ele>659</ele>
        <time>2021-06-06T16:22:40.721Z</time>
      </trkpt>
      <trkpt lat="45.63753" lon="5.72322">
        <ele>659</ele>
        <time>2021-06-06T16:22:45.705Z</time>
      </trkpt>
      <trkpt lat="45.63747" lon="5.72323">
        <ele>659</ele>
        <time>2021-06-06T16:22:49.766Z</time>
      </trkpt>
      <trkpt lat="45.63739" lon="5.72324">
        <ele>659</ele>
        <time>2021-06-06T16:22:54.695Z</time>
      </trkpt>
      <trkpt lat="45.63728" lon="5.72326">
        <ele>657</ele>
        <time>2021-06-06T16:22:59.686Z</time>
      </trkpt>
      <trkpt lat="45.63721" lon="5.72324">
        <ele>657</ele>
        <time>2021-06-06T16:23:04.684Z</time>
      </trkpt>
      <trkpt lat="45.63711" lon="5.72327">
        <ele>657</ele>
        <time>2021-06-06T16:23:08.761Z</time>
      </trkpt>
      <trkpt lat="45.63702" lon="5.72329">
        <ele>657</ele>
        <time>2021-06-06T16:23:13.758Z</time>
      </trkpt>
      <trkpt lat="45.63696" lon="5.7233">
        <ele>657</ele>
        <time>2021-06-06T16:23:17.761Z</time>
      </trkpt>
      <trkpt lat="45.63689" lon="5.72331">
        <ele>657</ele>
        <time>2021-06-06T16:23:22.732Z</time>
      </trkpt>
      <trkpt lat="45.63684" lon="5.72333">
        <ele>657</ele>
        <time>2021-06-06T16:23:26.762Z</time>
      </trkpt>
      <trkpt lat="45.63678" lon="5.72336">
        <ele>659</ele>
        <time>2021-06-06T16:23:31.751Z</time>
      </trkpt>
      <trkpt lat="45.63673" lon="5.72339">
        <ele>659</ele>
        <time>2021-06-06T16:23:35.761Z</time>
      </trkpt>
      <trkpt lat="45.63664" lon="5.72342">
        <ele>659</ele>
        <time>2021-06-06T16:23:40.751Z</time>
      </trkpt>
      <trkpt lat="45.63656" lon="5.72345">
        <ele>659</ele>
        <time>2021-06-06T16:23:45.699Z</time>
      </trkpt>
      <trkpt lat="45.63649" lon="5.72347">
        <ele>659</ele>
        <time>2021-06-06T16:23:49.745Z</time>
      </trkpt>
      <trkpt lat="45.63642" lon="5.72349">
        <ele>651</ele>
        <time>2021-06-06T16:23:54.722Z</time>
      </trkpt>
      <trkpt lat="45.63635" lon="5.7235">
        <ele>651</ele>
        <time>2021-06-06T16:23:59.733Z</time>
      </trkpt>
      <trkpt lat="45.6363" lon="5.7235">
        <ele>651</ele>
        <time>2021-06-06T16:24:03.765Z</time>
      </trkpt>
      <trkpt lat="45.63622" lon="5.7235">
        <ele>648</ele>
        <time>2021-06-06T16:24:08.741Z</time>
      </trkpt>
      <trkpt lat="45.63612" lon="5.7235">
        <ele>648</ele>
        <time>2021-06-06T16:24:13.751Z</time>
      </trkpt>
      <trkpt lat="45.63599" lon="5.72351">
        <ele>648</ele>
        <time>2021-06-06T16:24:18.720Z</time>
      </trkpt>
      <trkpt lat="45.6359" lon="5.72353">
        <ele>647</ele>
        <time>2021-06-06T16:24:22.747Z</time>
      </trkpt>
      <trkpt lat="45.63583" lon="5.72355">
        <ele>647</ele>
        <time>2021-06-06T16:24:27.694Z</time>
      </trkpt>
      <trkpt lat="45.63576" lon="5.72355">
        <ele>647</ele>
        <time>2021-06-06T16:24:31.755Z</time>
      </trkpt>
      <trkpt lat="45.63569" lon="5.72354">
        <ele>643</ele>
        <time>2021-06-06T16:24:36.732Z</time>
      </trkpt>
      <trkpt lat="45.63559" lon="5.72357">
        <ele>643</ele>
        <time>2021-06-06T16:24:41.720Z</time>
      </trkpt>
      <trkpt lat="45.63548" lon="5.72356">
        <ele>643</ele>
        <time>2021-06-06T16:24:46.702Z</time>
      </trkpt>
      <trkpt lat="45.63542" lon="5.72353">
        <ele>643</ele>
        <time>2021-06-06T16:24:50.713Z</time>
      </trkpt>
      <trkpt lat="45.63537" lon="5.72347">
        <ele>650</ele>
        <time>2021-06-06T16:24:55.718Z</time>
      </trkpt>
      <trkpt lat="45.63534" lon="5.72341">
        <ele>650</ele>
        <time>2021-06-06T16:25:00.716Z</time>
      </trkpt>
      <trkpt lat="45.6353" lon="5.72336">
        <ele>650</ele>
        <time>2021-06-06T16:25:05.753Z</time>
      </trkpt>
      <trkpt lat="45.63525" lon="5.72333">
        <ele>650</ele>
        <time>2021-06-06T16:25:09.767Z</time>
      </trkpt>
      <trkpt lat="45.63518" lon="5.72327">
        <ele>650</ele>
        <time>2021-06-06T16:25:14.742Z</time>
      </trkpt>
      <trkpt lat="45.63516" lon="5.7232">
        <ele>650</ele>
        <time>2021-06-06T16:25:18.765Z</time>
      </trkpt>
      <trkpt lat="45.63514" lon="5.7231">
        <ele>658</ele>
        <time>2021-06-06T16:25:23.756Z</time>
      </trkpt>
      <trkpt lat="45.63513" lon="5.72299">
        <ele>656</ele>
        <time>2021-06-06T16:25:28.733Z</time>
      </trkpt>
      <trkpt lat="45.63508" lon="5.7229">
        <ele>664</ele>
        <time>2021-06-06T16:25:33.762Z</time>
      </trkpt>
      <trkpt lat="45.63503" lon="5.72281">
        <ele>664</ele>
        <time>2021-06-06T16:25:38.755Z</time>
      </trkpt>
      <trkpt lat="45.63497" lon="5.72277">
        <ele>664</ele>
        <time>2021-06-06T16:25:42.766Z</time>
      </trkpt>
      <trkpt lat="45.63491" lon="5.72273">
        <ele>664</ele>
        <time>2021-06-06T16:25:47.754Z</time>
      </trkpt>
      <trkpt lat="45.63484" lon="5.72269">
        <ele>662</ele>
        <time>2021-06-06T16:25:52.711Z</time>
      </trkpt>
      <trkpt lat="45.63476" lon="5.7227">
        <ele>662</ele>
        <time>2021-06-06T16:25:56.762Z</time>
      </trkpt>
      <trkpt lat="45.63464" lon="5.72276">
        <ele>662</ele>
        <time>2021-06-06T16:26:01.731Z</time>
      </trkpt>
      <trkpt lat="45.63457" lon="5.72274">
        <ele>661</ele>
        <time>2021-06-06T16:26:05.762Z</time>
      </trkpt>
      <trkpt lat="45.63452" lon="5.7227">
        <ele>661</ele>
        <time>2021-06-06T16:26:09.759Z</time>
      </trkpt>
      <trkpt lat="45.63446" lon="5.72268">
        <ele>661</ele>
        <time>2021-06-06T16:26:14.739Z</time>
      </trkpt>
      <trkpt lat="45.6344" lon="5.72265">
        <ele>661</ele>
        <time>2021-06-06T16:26:19.723Z</time>
      </trkpt>
      <trkpt lat="45.63436" lon="5.72254">
        <ele>668</ele>
        <time>2021-06-06T16:26:24.742Z</time>
      </trkpt>
      <trkpt lat="45.63434" lon="5.72246">
        <ele>668</ele>
        <time>2021-06-06T16:26:29.729Z</time>
      </trkpt>
      <trkpt lat="45.63431" lon="5.72239">
        <ele>668</ele>
        <time>2021-06-06T16:26:34.728Z</time>
      </trkpt>
      <trkpt lat="45.63429" lon="5.72232">
        <ele>671</ele>
        <time>2021-06-06T16:26:39.712Z</time>
      </trkpt>
      <trkpt lat="45.63427" lon="5.7223">
        <ele>671</ele>
        <time>2021-06-06T16:26:43.731Z</time>
      </trkpt>
      <trkpt lat="45.63425" lon="5.72228">
        <ele>671</ele>
        <time>2021-06-06T16:26:57.735Z</time>
      </trkpt>
      <trkpt lat="45.63422" lon="5.72227">
        <ele>671</ele>
        <time>2021-06-06T16:27:02.737Z</time>
      </trkpt>
      <trkpt lat="45.63421" lon="5.72224">
        <ele>671</ele>
        <time>2021-06-06T16:27:07.716Z</time>
      </trkpt>
      <trkpt lat="45.63421" lon="5.72223">
        <ele>671</ele>
        <time>2021-06-06T16:27:12.716Z</time>
      </trkpt>
      <trkpt lat="45.6342" lon="5.72217">
        <ele>671</ele>
        <time>2021-06-06T16:27:16.756Z</time>
      </trkpt>
      <trkpt lat="45.63416" lon="5.72215">
        <ele>671</ele>
        <time>2021-06-06T16:27:21.697Z</time>
      </trkpt>
      <trkpt lat="45.63418" lon="5.72209">
        <ele>671</ele>
        <time>2021-06-06T16:27:26.705Z</time>
      </trkpt>
      <trkpt lat="45.63418" lon="5.72204">
        <ele>672</ele>
        <time>2021-06-06T16:27:30.732Z</time>
      </trkpt>
      <trkpt lat="45.6341" lon="5.72206">
        <ele>672</ele>
        <time>2021-06-06T16:27:35.754Z</time>
      </trkpt>
      <trkpt lat="45.63405" lon="5.72219">
        <ele>671</ele>
        <time>2021-06-06T16:27:40.696Z</time>
      </trkpt>
      <trkpt lat="45.63401" lon="5.72224">
        <ele>672</ele>
        <time>2021-06-06T16:27:44.731Z</time>
      </trkpt>
      <trkpt lat="45.63396" lon="5.72228">
        <ele>672</ele>
        <time>2021-06-06T16:27:49.714Z</time>
      </trkpt>
      <trkpt lat="45.63393" lon="5.72231">
        <ele>672</ele>
        <time>2021-06-06T16:27:53.735Z</time>
      </trkpt>
      <trkpt lat="45.63389" lon="5.72232">
        <ele>672</ele>
        <time>2021-06-06T16:27:57.753Z</time>
      </trkpt>
      <trkpt lat="45.63386" lon="5.72234">
        <ele>672</ele>
        <time>2021-06-06T16:28:01.753Z</time>
      </trkpt>
      <trkpt lat="45.63382" lon="5.72235">
        <ele>672</ele>
        <time>2021-06-06T16:28:06.702Z</time>
      </trkpt>
      <trkpt lat="45.63377" lon="5.72237">
        <ele>670</ele>
        <time>2021-06-06T16:28:10.717Z</time>
      </trkpt>
      <trkpt lat="45.63367" lon="5.72243">
        <ele>672</ele>
        <time>2021-06-06T16:28:15.707Z</time>
      </trkpt>
      <trkpt lat="45.63361" lon="5.72249">
        <ele>672</ele>
        <time>2021-06-06T16:28:19.752Z</time>
      </trkpt>
      <trkpt lat="45.63353" lon="5.72261">
        <ele>672</ele>
        <time>2021-06-06T16:28:24.733Z</time>
      </trkpt>
      <trkpt lat="45.63345" lon="5.72269">
        <ele>671</ele>
        <time>2021-06-06T16:28:29.734Z</time>
      </trkpt>
      <trkpt lat="45.63336" lon="5.72274">
        <ele>671</ele>
        <time>2021-06-06T16:28:34.720Z</time>
      </trkpt>
      <trkpt lat="45.63329" lon="5.72276">
        <ele>671</ele>
        <time>2021-06-06T16:28:38.734Z</time>
      </trkpt>
      <trkpt lat="45.63319" lon="5.72277">
        <ele>675</ele>
        <time>2021-06-06T16:28:43.710Z</time>
      </trkpt>
      <trkpt lat="45.63313" lon="5.72278">
        <ele>675</ele>
        <time>2021-06-06T16:28:47.733Z</time>
      </trkpt>
      <trkpt lat="45.63306" lon="5.72277">
        <ele>675</ele>
        <time>2021-06-06T16:28:51.731Z</time>
      </trkpt>
      <trkpt lat="45.63299" lon="5.7228">
        <ele>675</ele>
        <time>2021-06-06T16:28:56.724Z</time>
      </trkpt>
      <trkpt lat="45.63294" lon="5.72281">
        <ele>675</ele>
        <time>2021-06-06T16:29:00.733Z</time>
      </trkpt>
      <trkpt lat="45.63288" lon="5.72283">
        <ele>675</ele>
        <time>2021-06-06T16:29:04.752Z</time>
      </trkpt>
      <trkpt lat="45.63281" lon="5.72286">
        <ele>675</ele>
        <time>2021-06-06T16:29:08.779Z</time>
      </trkpt>
      <trkpt lat="45.63269" lon="5.72287">
        <ele>675</ele>
        <time>2021-06-06T16:29:13.751Z</time>
      </trkpt>
      <trkpt lat="45.63264" lon="5.72288">
        <ele>676</ele>
        <time>2021-06-06T16:29:18.755Z</time>
      </trkpt>
      <trkpt lat="45.63259" lon="5.72289">
        <ele>676</ele>
        <time>2021-06-06T16:29:22.762Z</time>
      </trkpt>
      <trkpt lat="45.63252" lon="5.72289">
        <ele>676</ele>
        <time>2021-06-06T16:29:27.727Z</time>
      </trkpt>
      <trkpt lat="45.63245" lon="5.7229">
        <ele>676</ele>
        <time>2021-06-06T16:29:31.751Z</time>
      </trkpt>
      <trkpt lat="45.63235" lon="5.72291">
        <ele>677</ele>
        <time>2021-06-06T16:29:36.702Z</time>
      </trkpt>
      <trkpt lat="45.63225" lon="5.72293">
        <ele>672</ele>
        <time>2021-06-06T16:29:40.737Z</time>
      </trkpt>
      <trkpt lat="45.63212" lon="5.72294">
        <ele>672</ele>
        <time>2021-06-06T16:29:45.712Z</time>
      </trkpt>
      <trkpt lat="45.63204" lon="5.72293">
        <ele>673</ele>
        <time>2021-06-06T16:29:49.771Z</time>
      </trkpt>
      <trkpt lat="45.63193" lon="5.72292">
        <ele>678</ele>
        <time>2021-06-06T16:29:53.782Z</time>
      </trkpt>
      <trkpt lat="45.6318" lon="5.7229">
        <ele>677</ele>
        <time>2021-06-06T16:29:58.777Z</time>
      </trkpt>
      <trkpt lat="45.63172" lon="5.72288">
        <ele>677</ele>
        <time>2021-06-06T16:30:02.785Z</time>
      </trkpt>
      <trkpt lat="45.63163" lon="5.72286">
        <ele>677</ele>
        <time>2021-06-06T16:30:07.720Z</time>
      </trkpt>
      <trkpt lat="45.63156" lon="5.72284">
        <ele>677</ele>
        <time>2021-06-06T16:30:11.740Z</time>
      </trkpt>
      <trkpt lat="45.63146" lon="5.7228">
        <ele>677</ele>
        <time>2021-06-06T16:30:16.693Z</time>
      </trkpt>
      <trkpt lat="45.6314" lon="5.7228">
        <ele>677</ele>
        <time>2021-06-06T16:30:20.717Z</time>
      </trkpt>
      <trkpt lat="45.63133" lon="5.72284">
        <ele>677</ele>
        <time>2021-06-06T16:30:24.725Z</time>
      </trkpt>
      <trkpt lat="45.63122" lon="5.7229">
        <ele>679</ele>
        <time>2021-06-06T16:30:29.778Z</time>
      </trkpt>
      <trkpt lat="45.63114" lon="5.72293">
        <ele>675</ele>
        <time>2021-06-06T16:30:34.770Z</time>
      </trkpt>
      <trkpt lat="45.63105" lon="5.72293">
        <ele>675</ele>
        <time>2021-06-06T16:30:39.731Z</time>
      </trkpt>
      <trkpt lat="45.63092" lon="5.72295">
        <ele>675</ele>
        <time>2021-06-06T16:30:44.778Z</time>
      </trkpt>
      <trkpt lat="45.63083" lon="5.72294">
        <ele>675</ele>
        <time>2021-06-06T16:30:49.722Z</time>
      </trkpt>
      <trkpt lat="45.63076" lon="5.72298">
        <ele>675</ele>
        <time>2021-06-06T16:30:54.700Z</time>
      </trkpt>
      <trkpt lat="45.63071" lon="5.72299">
        <ele>675</ele>
        <time>2021-06-06T16:30:58.738Z</time>
      </trkpt>
      <trkpt lat="45.63063" lon="5.72301">
        <ele>678</ele>
        <time>2021-06-06T16:31:02.754Z</time>
      </trkpt>
      <trkpt lat="45.63054" lon="5.72302">
        <ele>678</ele>
        <time>2021-06-06T16:31:07.756Z</time>
      </trkpt>
      <trkpt lat="45.63047" lon="5.72306">
        <ele>678</ele>
        <time>2021-06-06T16:31:12.734Z</time>
      </trkpt>
      <trkpt lat="45.63039" lon="5.7231">
        <ele>681</ele>
        <time>2021-06-06T16:31:16.759Z</time>
      </trkpt>
      <trkpt lat="45.63032" lon="5.72314">
        <ele>681</ele>
        <time>2021-06-06T16:31:21.732Z</time>
      </trkpt>
      <trkpt lat="45.63024" lon="5.72319">
        <ele>681</ele>
        <time>2021-06-06T16:31:26.753Z</time>
      </trkpt>
      <trkpt lat="45.63019" lon="5.72323">
        <ele>679</ele>
        <time>2021-06-06T16:31:30.766Z</time>
      </trkpt>
      <trkpt lat="45.63012" lon="5.72326">
        <ele>682</ele>
        <time>2021-06-06T16:31:35.732Z</time>
      </trkpt>
      <trkpt lat="45.63006" lon="5.72329">
        <ele>682</ele>
        <time>2021-06-06T16:31:39.766Z</time>
      </trkpt>
      <trkpt lat="45.62999" lon="5.72334">
        <ele>682</ele>
        <time>2021-06-06T16:31:43.781Z</time>
      </trkpt>
      <trkpt lat="45.62994" lon="5.72339">
        <ele>682</ele>
        <time>2021-06-06T16:31:48.769Z</time>
      </trkpt>
      <trkpt lat="45.62987" lon="5.72341">
        <ele>682</ele>
        <time>2021-06-06T16:31:53.733Z</time>
      </trkpt>
      <trkpt lat="45.6298" lon="5.72345">
        <ele>687</ele>
        <time>2021-06-06T16:31:58.724Z</time>
      </trkpt>
      <trkpt lat="45.62968" lon="5.72343">
        <ele>687</ele>
        <time>2021-06-06T16:32:03.709Z</time>
      </trkpt>
      <trkpt lat="45.62957" lon="5.72345">
        <ele>690</ele>
        <time>2021-06-06T16:32:07.729Z</time>
      </trkpt>
      <trkpt lat="45.62946" lon="5.72349">
        <ele>686</ele>
        <time>2021-06-06T16:32:12.691Z</time>
      </trkpt>
      <trkpt lat="45.62936" lon="5.72352">
        <ele>686</ele>
        <time>2021-06-06T16:32:16.757Z</time>
      </trkpt>
      <trkpt lat="45.62927" lon="5.72355">
        <ele>690</ele>
        <time>2021-06-06T16:32:21.732Z</time>
      </trkpt>
      <trkpt lat="45.62918" lon="5.72356">
        <ele>690</ele>
        <time>2021-06-06T16:32:26.730Z</time>
      </trkpt>
      <trkpt lat="45.6291" lon="5.72357">
        <ele>690</ele>
        <time>2021-06-06T16:32:30.734Z</time>
      </trkpt>
      <trkpt lat="45.62899" lon="5.72358">
        <ele>695</ele>
        <time>2021-06-06T16:32:35.719Z</time>
      </trkpt>
      <trkpt lat="45.62892" lon="5.72365">
        <ele>695</ele>
        <time>2021-06-06T16:32:39.728Z</time>
      </trkpt>
      <trkpt lat="45.62886" lon="5.72377">
        <ele>689</ele>
        <time>2021-06-06T16:32:43.757Z</time>
      </trkpt>
      <trkpt lat="45.62879" lon="5.72385">
        <ele>689</ele>
        <time>2021-06-06T16:32:48.733Z</time>
      </trkpt>
      <trkpt lat="45.62874" lon="5.72394">
        <ele>693</ele>
        <time>2021-06-06T16:32:53.728Z</time>
      </trkpt>
      <trkpt lat="45.62864" lon="5.72409">
        <ele>689</ele>
        <time>2021-06-06T16:32:58.780Z</time>
      </trkpt>
      <trkpt lat="45.62853" lon="5.72418">
        <ele>689</ele>
        <time>2021-06-06T16:33:03.729Z</time>
      </trkpt>
      <trkpt lat="45.62845" lon="5.72423">
        <ele>692</ele>
        <time>2021-06-06T16:33:08.760Z</time>
      </trkpt>
      <trkpt lat="45.62839" lon="5.72426">
        <ele>692</ele>
        <time>2021-06-06T16:33:12.772Z</time>
      </trkpt>
      <trkpt lat="45.62831" lon="5.72431">
        <ele>688</ele>
        <time>2021-06-06T16:33:17.724Z</time>
      </trkpt>
      <trkpt lat="45.62824" lon="5.72435">
        <ele>688</ele>
        <time>2021-06-06T16:33:21.769Z</time>
      </trkpt>
      <trkpt lat="45.62816" lon="5.72439">
        <ele>689</ele>
        <time>2021-06-06T16:33:26.724Z</time>
      </trkpt>
      <trkpt lat="45.62809" lon="5.72443">
        <ele>689</ele>
        <time>2021-06-06T16:33:31.728Z</time>
      </trkpt>
      <trkpt lat="45.62803" lon="5.72446">
        <ele>689</ele>
        <time>2021-06-06T16:33:35.764Z</time>
      </trkpt>
      <trkpt lat="45.62796" lon="5.72449">
        <ele>689</ele>
        <time>2021-06-06T16:33:40.754Z</time>
      </trkpt>
      <trkpt lat="45.62788" lon="5.72454">
        <ele>689</ele>
        <time>2021-06-06T16:33:44.766Z</time>
      </trkpt>
      <trkpt lat="45.62779" lon="5.7246">
        <ele>684</ele>
        <time>2021-06-06T16:33:49.757Z</time>
      </trkpt>
      <trkpt lat="45.62769" lon="5.72467">
        <ele>684</ele>
        <time>2021-06-06T16:33:53.762Z</time>
      </trkpt>
      <trkpt lat="45.62762" lon="5.72471">
        <ele>685</ele>
        <time>2021-06-06T16:33:57.783Z</time>
      </trkpt>
      <trkpt lat="45.62755" lon="5.72474">
        <ele>685</ele>
        <time>2021-06-06T16:34:02.728Z</time>
      </trkpt>
      <trkpt lat="45.62749" lon="5.72477">
        <ele>685</ele>
        <time>2021-06-06T16:34:07.692Z</time>
      </trkpt>
      <trkpt lat="45.62744" lon="5.72479">
        <ele>685</ele>
        <time>2021-06-06T16:34:11.701Z</time>
      </trkpt>
      <trkpt lat="45.62737" lon="5.72483">
        <ele>685</ele>
        <time>2021-06-06T16:34:16.759Z</time>
      </trkpt>
      <trkpt lat="45.62731" lon="5.72487">
        <ele>684</ele>
        <time>2021-06-06T16:34:21.734Z</time>
      </trkpt>
      <trkpt lat="45.62725" lon="5.7249">
        <ele>684</ele>
        <time>2021-06-06T16:34:26.718Z</time>
      </trkpt>
      <trkpt lat="45.62721" lon="5.72493">
        <ele>684</ele>
        <time>2021-06-06T16:34:30.759Z</time>
      </trkpt>
      <trkpt lat="45.62717" lon="5.72497">
        <ele>684</ele>
        <time>2021-06-06T16:34:34.766Z</time>
      </trkpt>
      <trkpt lat="45.62711" lon="5.72501">
        <ele>684</ele>
        <time>2021-06-06T16:34:39.734Z</time>
      </trkpt>
      <trkpt lat="45.62701" lon="5.72502">
        <ele>688</ele>
        <time>2021-06-06T16:35:30.727Z</time>
      </trkpt>
      <trkpt lat="45.62701" lon="5.72502">
        <ele>688</ele>
        <time>2021-06-06T16:35:35.759Z</time>
      </trkpt>
      <trkpt lat="45.62701" lon="5.72502">
        <ele>688</ele>
        <time>2021-06-06T16:35:40.719Z</time>
      </trkpt>
      <trkpt lat="45.62701" lon="5.72502">
        <ele>688</ele>
        <time>2021-06-06T16:35:45.763Z</time>
      </trkpt>
      <trkpt lat="45.62698" lon="5.72506">
        <ele>688</ele>
        <time>2021-06-06T16:35:50.722Z</time>
      </trkpt>
      <trkpt lat="45.62694" lon="5.72509">
        <ele>688</ele>
        <time>2021-06-06T16:35:54.735Z</time>
      </trkpt>
      <trkpt lat="45.62691" lon="5.72515">
        <ele>682</ele>
        <time>2021-06-06T16:35:59.751Z</time>
      </trkpt>
      <trkpt lat="45.62687" lon="5.72517">
        <ele>682</ele>
        <time>2021-06-06T16:36:03.765Z</time>
      </trkpt>
      <trkpt lat="45.62682" lon="5.72518">
        <ele>682</ele>
        <time>2021-06-06T16:36:08.728Z</time>
      </trkpt>
      <trkpt lat="45.6268" lon="5.72523">
        <ele>685</ele>
        <time>2021-06-06T16:36:12.755Z</time>
      </trkpt>
      <trkpt lat="45.62676" lon="5.72528">
        <ele>685</ele>
        <time>2021-06-06T16:36:17.701Z</time>
      </trkpt>
      <trkpt lat="45.62671" lon="5.72532">
        <ele>685</ele>
        <time>2021-06-06T16:36:21.756Z</time>
      </trkpt>
      <trkpt lat="45.62665" lon="5.72536">
        <ele>685</ele>
        <time>2021-06-06T16:36:26.698Z</time>
      </trkpt>
      <trkpt lat="45.62662" lon="5.72539">
        <ele>685</ele>
        <time>2021-06-06T16:36:30.714Z</time>
      </trkpt>
      <trkpt lat="45.62657" lon="5.72543">
        <ele>677</ele>
        <time>2021-06-06T16:36:35.706Z</time>
      </trkpt>
      <trkpt lat="45.62653" lon="5.72549">
        <ele>677</ele>
        <time>2021-06-06T16:36:40.695Z</time>
      </trkpt>
      <trkpt lat="45.6265" lon="5.72556">
        <ele>680</ele>
        <time>2021-06-06T16:36:45.713Z</time>
      </trkpt>
      <trkpt lat="45.62648" lon="5.72562">
        <ele>680</ele>
        <time>2021-06-06T16:36:50.707Z</time>
      </trkpt>
      <trkpt lat="45.62643" lon="5.72565">
        <ele>680</ele>
        <time>2021-06-06T16:36:54.736Z</time>
      </trkpt>
      <trkpt lat="45.62637" lon="5.72569">
        <ele>680</ele>
        <time>2021-06-06T16:36:59.742Z</time>
      </trkpt>
      <trkpt lat="45.6263" lon="5.72573">
        <ele>673</ele>
        <time>2021-06-06T16:37:04.723Z</time>
      </trkpt>
      <trkpt lat="45.62626" lon="5.72575">
        <ele>673</ele>
        <time>2021-06-06T16:37:08.761Z</time>
      </trkpt>
      <trkpt lat="45.62622" lon="5.7258">
        <ele>677</ele>
        <time>2021-06-06T16:37:13.724Z</time>
      </trkpt>
      <trkpt lat="45.62617" lon="5.72584">
        <ele>677</ele>
        <time>2021-06-06T16:37:18.709Z</time>
      </trkpt>
      <trkpt lat="45.62611" lon="5.72587">
        <ele>677</ele>
        <time>2021-06-06T16:37:23.699Z</time>
      </trkpt>
      <trkpt lat="45.62605" lon="5.7259">
        <ele>677</ele>
        <time>2021-06-06T16:37:27.700Z</time>
      </trkpt>
      <trkpt lat="45.62599" lon="5.72594">
        <ele>677</ele>
        <time>2021-06-06T16:37:32.724Z</time>
      </trkpt>
      <trkpt lat="45.62594" lon="5.72597">
        <ele>680</ele>
        <time>2021-06-06T16:37:36.753Z</time>
      </trkpt>
      <trkpt lat="45.62592" lon="5.72597">
        <ele>680</ele>
        <time>2021-06-06T16:37:41.697Z</time>
      </trkpt>
      <trkpt lat="45.62592" lon="5.72597">
        <ele>680</ele>
        <time>2021-06-06T16:37:59.683Z</time>
      </trkpt>
      <trkpt lat="45.62589" lon="5.72599">
        <ele>672</ele>
        <time>2021-06-06T16:38:03.698Z</time>
      </trkpt>
      <trkpt lat="45.62584" lon="5.72603">
        <ele>672</ele>
        <time>2021-06-06T16:38:08.686Z</time>
      </trkpt>
      <trkpt lat="45.6258" lon="5.72607">
        <ele>672</ele>
        <time>2021-06-06T16:38:12.702Z</time>
      </trkpt>
      <trkpt lat="45.62577" lon="5.72611">
        <ele>672</ele>
        <time>2021-06-06T16:38:16.728Z</time>
      </trkpt>
      <trkpt lat="45.62573" lon="5.72614">
        <ele>672</ele>
        <time>2021-06-06T16:38:20.737Z</time>
      </trkpt>
      <trkpt lat="45.62568" lon="5.72619">
        <ele>675</ele>
        <time>2021-06-06T16:38:25.724Z</time>
      </trkpt>
      <trkpt lat="45.62563" lon="5.72623">
        <ele>675</ele>
        <time>2021-06-06T16:38:30.710Z</time>
      </trkpt>
      <trkpt lat="45.62559" lon="5.72624">
        <ele>675</ele>
        <time>2021-06-06T16:38:34.722Z</time>
      </trkpt>
      <trkpt lat="45.62557" lon="5.72628">
        <ele>667</ele>
        <time>2021-06-06T16:39:01.725Z</time>
      </trkpt>
      <trkpt lat="45.62562" lon="5.72628">
        <ele>667</ele>
        <time>2021-06-06T16:39:06.695Z</time>
      </trkpt>
      <trkpt lat="45.62566" lon="5.72629">
        <ele>667</ele>
        <time>2021-06-06T16:39:10.725Z</time>
      </trkpt>
      <trkpt lat="45.62567" lon="5.7263">
        <ele>667</ele>
        <time>2021-06-06T16:39:15.695Z</time>
      </trkpt>
      <trkpt lat="45.62568" lon="5.7263">
        <ele>667</ele>
        <time>2021-06-06T16:39:19.705Z</time>
      </trkpt>
      <trkpt lat="45.62571" lon="5.7263">
        <ele>665</ele>
        <time>2021-06-06T16:39:23.704Z</time>
      </trkpt>
      <trkpt lat="45.62575" lon="5.7263">
        <ele>665</ele>
        <time>2021-06-06T16:39:27.731Z</time>
      </trkpt>
      <trkpt lat="45.6258" lon="5.72629">
        <ele>665</ele>
        <time>2021-06-06T16:39:32.724Z</time>
      </trkpt>
      <trkpt lat="45.62584" lon="5.72628">
        <ele>665</ele>
        <time>2021-06-06T16:39:37.718Z</time>
      </trkpt>
      <trkpt lat="45.62589" lon="5.72628">
        <ele>665</ele>
        <time>2021-06-06T16:39:42.689Z</time>
      </trkpt>
      <trkpt lat="45.62593" lon="5.72628">
        <ele>665</ele>
        <time>2021-06-06T16:39:46.701Z</time>
      </trkpt>
      <trkpt lat="45.62596" lon="5.72628">
        <ele>665</ele>
        <time>2021-06-06T16:39:51.710Z</time>
      </trkpt>
      <trkpt lat="45.62599" lon="5.72627">
        <ele>664</ele>
        <time>2021-06-06T16:39:56.705Z</time>
      </trkpt>
      <trkpt lat="45.62604" lon="5.72625">
        <ele>664</ele>
        <time>2021-06-06T16:40:00.721Z</time>
      </trkpt>
      <trkpt lat="45.62608" lon="5.72625">
        <ele>670</ele>
        <time>2021-06-06T16:40:04.728Z</time>
      </trkpt>
      <trkpt lat="45.62614" lon="5.72623">
        <ele>670</ele>
        <time>2021-06-06T16:40:09.705Z</time>
      </trkpt>
      <trkpt lat="45.62618" lon="5.72622">
        <ele>670</ele>
        <time>2021-06-06T16:40:13.720Z</time>
      </trkpt>
      <trkpt lat="45.62625" lon="5.72621">
        <ele>670</ele>
        <time>2021-06-06T16:40:18.754Z</time>
      </trkpt>
      <trkpt lat="45.62631" lon="5.7262">
        <ele>668</ele>
        <time>2021-06-06T16:40:23.689Z</time>
      </trkpt>
      <trkpt lat="45.62636" lon="5.7262">
        <ele>668</ele>
        <time>2021-06-06T16:40:27.736Z</time>
      </trkpt>
      <trkpt lat="45.6264" lon="5.72619">
        <ele>668</ele>
        <time>2021-06-06T16:40:31.773Z</time>
      </trkpt>
      <trkpt lat="45.62645" lon="5.72619">
        <ele>668</ele>
        <time>2021-06-06T16:40:36.738Z</time>
      </trkpt>
      <trkpt lat="45.62651" lon="5.72621">
        <ele>668</ele>
        <time>2021-06-06T16:40:41.694Z</time>
      </trkpt>
      <trkpt lat="45.6265" lon="5.72627">
        <ele>662</ele>
        <time>2021-06-06T16:40:46.717Z</time>
      </trkpt>
      <trkpt lat="45.62646" lon="5.7263">
        <ele>662</ele>
        <time>2021-06-06T16:40:51.722Z</time>
      </trkpt>
      <trkpt lat="45.62642" lon="5.72633">
        <ele>662</ele>
        <time>2021-06-06T16:40:56.695Z</time>
      </trkpt>
      <trkpt lat="45.62639" lon="5.7264">
        <ele>662</ele>
        <time>2021-06-06T16:41:01.697Z</time>
      </trkpt>
      <trkpt lat="45.62637" lon="5.72645">
        <ele>662</ele>
        <time>2021-06-06T16:41:05.704Z</time>
      </trkpt>
      <trkpt lat="45.62635" lon="5.72652">
        <ele>662</ele>
        <time>2021-06-06T16:41:10.702Z</time>
      </trkpt>
      <trkpt lat="45.62636" lon="5.72658">
        <ele>658</ele>
        <time>2021-06-06T16:41:15.739Z</time>
      </trkpt>
    </trkseg>
  </trk>
</gpx>